<?xml version="1.0" encoding="UTF-8" standalone="no" ?>
<gpx xmlns="http://www.topografix.com/GPX/1/1" xmlns:xsi="http://www.w3.org/2001/XMLSchema-instance" xsi:schemaLocation="http://www.topografix.com/GPX/1/1 http://www.topografix.com/GPX/1/1/gpx.xsd" version="1.1" creator="VisuGPX - https://www.visugpx.com">
  <metadata>
    <name>Hautacam et lac d'Isaby</name>
    <desc><![CDATA[boucle autour de Hautacam et lac d'Isaby]]></desc>
  </metadata>
  <trk>
    <name><![CDATA[Hautacam et lac d'Isaby_1]]></name>
    <trkseg>
      <trkpt lat="42.97047" lon="-0.02106">
        <ele>1316.8</ele>
        <time>2022-06-11T06:32:43Z</time>
      </trkpt>
      <trkpt lat="42.97048" lon="-0.02114">
        <ele>1316.4</ele>
        <time>2022-06-11T06:33:18Z</time>
      </trkpt>
      <trkpt lat="42.97048" lon="-0.02116">
        <ele>1316.4</ele>
        <time>2022-06-11T06:33:23Z</time>
      </trkpt>
      <trkpt lat="42.97048" lon="-0.02116">
        <ele>1316</ele>
        <time>2022-06-11T06:33:47Z</time>
      </trkpt>
      <trkpt lat="42.97053" lon="-0.0212">
        <ele>1316.2</ele>
        <time>2022-06-11T06:34:01Z</time>
      </trkpt>
      <trkpt lat="42.97066" lon="-0.02133">
        <ele>1315.4</ele>
        <time>2022-06-11T06:34:07Z</time>
      </trkpt>
      <trkpt lat="42.97079" lon="-0.02133">
        <ele>1314.2</ele>
        <time>2022-06-11T06:34:11Z</time>
      </trkpt>
      <trkpt lat="42.97085" lon="-0.0213">
        <ele>1313.6</ele>
        <time>2022-06-11T06:34:13Z</time>
      </trkpt>
      <trkpt lat="42.97096" lon="-0.02123">
        <ele>1313.2</ele>
        <time>2022-06-11T06:34:17Z</time>
      </trkpt>
      <trkpt lat="42.97099" lon="-0.02121">
        <ele>1313.2</ele>
        <time>2022-06-11T06:34:18Z</time>
      </trkpt>
      <trkpt lat="42.97113" lon="-0.02109">
        <ele>1312.8</ele>
        <time>2022-06-11T06:34:22Z</time>
      </trkpt>
      <trkpt lat="42.97117" lon="-0.02107">
        <ele>1312.8</ele>
        <time>2022-06-11T06:34:23Z</time>
      </trkpt>
      <trkpt lat="42.97124" lon="-0.02111">
        <ele>1312.4</ele>
        <time>2022-06-11T06:34:25Z</time>
      </trkpt>
      <trkpt lat="42.97127" lon="-0.02116">
        <ele>1311.8</ele>
        <time>2022-06-11T06:34:26Z</time>
      </trkpt>
      <trkpt lat="42.9713" lon="-0.02128">
        <ele>1310.8</ele>
        <time>2022-06-11T06:34:28Z</time>
      </trkpt>
      <trkpt lat="42.97133" lon="-0.02142">
        <ele>1309.6</ele>
        <time>2022-06-11T06:34:31Z</time>
      </trkpt>
      <trkpt lat="42.97138" lon="-0.02149">
        <ele>1309.6</ele>
        <time>2022-06-11T06:34:33Z</time>
      </trkpt>
      <trkpt lat="42.97147" lon="-0.02151">
        <ele>1309.4</ele>
        <time>2022-06-11T06:34:37Z</time>
      </trkpt>
      <trkpt lat="42.97164" lon="-0.02145">
        <ele>1310.8</ele>
        <time>2022-06-11T06:34:44Z</time>
      </trkpt>
      <trkpt lat="42.97167" lon="-0.02145">
        <ele>1311</ele>
        <time>2022-06-11T06:34:45Z</time>
      </trkpt>
      <trkpt lat="42.97169" lon="-0.02144">
        <ele>1311.2</ele>
        <time>2022-06-11T06:34:46Z</time>
      </trkpt>
      <trkpt lat="42.97176" lon="-0.02141">
        <ele>1311.8</ele>
        <time>2022-06-11T06:34:49Z</time>
      </trkpt>
      <trkpt lat="42.97181" lon="-0.02139">
        <ele>1312</ele>
        <time>2022-06-11T06:34:51Z</time>
      </trkpt>
      <trkpt lat="42.97187" lon="-0.02136">
        <ele>1313.4</ele>
        <time>2022-06-11T06:34:54Z</time>
      </trkpt>
      <trkpt lat="42.97193" lon="-0.02135">
        <ele>1314.6</ele>
        <time>2022-06-11T06:34:57Z</time>
      </trkpt>
      <trkpt lat="42.97199" lon="-0.02139">
        <ele>1315.8</ele>
        <time>2022-06-11T06:35:00Z</time>
      </trkpt>
      <trkpt lat="42.97202" lon="-0.02142">
        <ele>1316.6</ele>
        <time>2022-06-11T06:35:02Z</time>
      </trkpt>
      <trkpt lat="42.97204" lon="-0.02144">
        <ele>1317.2</ele>
        <time>2022-06-11T06:35:03Z</time>
      </trkpt>
      <trkpt lat="42.97206" lon="-0.02146">
        <ele>1317.4</ele>
        <time>2022-06-11T06:35:04Z</time>
      </trkpt>
      <trkpt lat="42.97208" lon="-0.02149">
        <ele>1317.8</ele>
        <time>2022-06-11T06:35:05Z</time>
      </trkpt>
      <trkpt lat="42.97213" lon="-0.02158">
        <ele>1318</ele>
        <time>2022-06-11T06:35:07Z</time>
      </trkpt>
      <trkpt lat="42.97226" lon="-0.02178">
        <ele>1318</ele>
        <time>2022-06-11T06:35:10Z</time>
      </trkpt>
      <trkpt lat="42.9724" lon="-0.02197">
        <ele>1317.8</ele>
        <time>2022-06-11T06:35:13Z</time>
      </trkpt>
      <trkpt lat="42.97247" lon="-0.02213">
        <ele>1317</ele>
        <time>2022-06-11T06:35:15Z</time>
      </trkpt>
      <trkpt lat="42.97253" lon="-0.02227">
        <ele>1315.6</ele>
        <time>2022-06-11T06:35:17Z</time>
      </trkpt>
      <trkpt lat="42.97256" lon="-0.02237">
        <ele>1314.4</ele>
        <time>2022-06-11T06:35:19Z</time>
      </trkpt>
      <trkpt lat="42.97259" lon="-0.02241">
        <ele>1313.8</ele>
        <time>2022-06-11T06:35:21Z</time>
      </trkpt>
      <trkpt lat="42.97261" lon="-0.02241">
        <ele>1313.2</ele>
        <time>2022-06-11T06:35:22Z</time>
      </trkpt>
      <trkpt lat="42.97262" lon="-0.02241">
        <ele>1312.8</ele>
        <time>2022-06-11T06:35:23Z</time>
      </trkpt>
      <trkpt lat="42.97262" lon="-0.02237">
        <ele>1312.4</ele>
        <time>2022-06-11T06:35:25Z</time>
      </trkpt>
      <trkpt lat="42.97256" lon="-0.02227">
        <ele>1312.4</ele>
        <time>2022-06-11T06:35:29Z</time>
      </trkpt>
      <trkpt lat="42.97256" lon="-0.02224">
        <ele>1312.4</ele>
        <time>2022-06-11T06:35:30Z</time>
      </trkpt>
      <trkpt lat="42.97249" lon="-0.02193">
        <ele>1314.4</ele>
        <time>2022-06-11T06:35:41Z</time>
      </trkpt>
      <trkpt lat="42.97244" lon="-0.02181">
        <ele>1315.6</ele>
        <time>2022-06-11T06:35:46Z</time>
      </trkpt>
      <trkpt lat="42.97238" lon="-0.02171">
        <ele>1316.8</ele>
        <time>2022-06-11T06:35:50Z</time>
      </trkpt>
      <trkpt lat="42.97231" lon="-0.02161">
        <ele>1318</ele>
        <time>2022-06-11T06:35:55Z</time>
      </trkpt>
      <trkpt lat="42.97226" lon="-0.02155">
        <ele>1319</ele>
        <time>2022-06-11T06:35:58Z</time>
      </trkpt>
      <trkpt lat="42.97225" lon="-0.02153">
        <ele>1319.4</ele>
        <time>2022-06-11T06:35:59Z</time>
      </trkpt>
      <trkpt lat="42.97223" lon="-0.02151">
        <ele>1319.6</ele>
        <time>2022-06-11T06:36:00Z</time>
      </trkpt>
      <trkpt lat="42.97218" lon="-0.02143">
        <ele>1320.6</ele>
        <time>2022-06-11T06:36:04Z</time>
      </trkpt>
      <trkpt lat="42.97213" lon="-0.02133">
        <ele>1321.4</ele>
        <time>2022-06-11T06:36:08Z</time>
      </trkpt>
      <trkpt lat="42.97212" lon="-0.02131">
        <ele>1321.6</ele>
        <time>2022-06-11T06:36:09Z</time>
      </trkpt>
      <trkpt lat="42.97207" lon="-0.02116">
        <ele>1322.8</ele>
        <time>2022-06-11T06:36:14Z</time>
      </trkpt>
      <trkpt lat="42.97205" lon="-0.02109">
        <ele>1323.6</ele>
        <time>2022-06-11T06:36:17Z</time>
      </trkpt>
      <trkpt lat="42.97205" lon="-0.02106">
        <ele>1323.8</ele>
        <time>2022-06-11T06:36:18Z</time>
      </trkpt>
      <trkpt lat="42.97202" lon="-0.02093">
        <ele>1325</ele>
        <time>2022-06-11T06:36:23Z</time>
      </trkpt>
      <trkpt lat="42.97202" lon="-0.02087">
        <ele>1325.4</ele>
        <time>2022-06-11T06:36:25Z</time>
      </trkpt>
      <trkpt lat="42.972" lon="-0.02079">
        <ele>1326.2</ele>
        <time>2022-06-11T06:36:28Z</time>
      </trkpt>
      <trkpt lat="42.97199" lon="-0.02067">
        <ele>1327.2</ele>
        <time>2022-06-11T06:36:32Z</time>
      </trkpt>
      <trkpt lat="42.97199" lon="-0.02064">
        <ele>1327.2</ele>
        <time>2022-06-11T06:36:33Z</time>
      </trkpt>
      <trkpt lat="42.97198" lon="-0.02041">
        <ele>1328.6</ele>
        <time>2022-06-11T06:36:40Z</time>
      </trkpt>
      <trkpt lat="42.97198" lon="-0.02033">
        <ele>1329</ele>
        <time>2022-06-11T06:36:42Z</time>
      </trkpt>
      <trkpt lat="42.97199" lon="-0.02015">
        <ele>1329.8</ele>
        <time>2022-06-11T06:36:47Z</time>
      </trkpt>
      <trkpt lat="42.97199" lon="-0.02003">
        <ele>1330.2</ele>
        <time>2022-06-11T06:36:50Z</time>
      </trkpt>
      <trkpt lat="42.97198" lon="-0.01992">
        <ele>1330.8</ele>
        <time>2022-06-11T06:36:53Z</time>
      </trkpt>
      <trkpt lat="42.97197" lon="-0.01975">
        <ele>1331.8</ele>
        <time>2022-06-11T06:36:58Z</time>
      </trkpt>
      <trkpt lat="42.97194" lon="-0.01961">
        <ele>1332.6</ele>
        <time>2022-06-11T06:37:02Z</time>
      </trkpt>
      <trkpt lat="42.97192" lon="-0.01954">
        <ele>1333</ele>
        <time>2022-06-11T06:37:04Z</time>
      </trkpt>
      <trkpt lat="42.97187" lon="-0.01937">
        <ele>1334</ele>
        <time>2022-06-11T06:37:09Z</time>
      </trkpt>
      <trkpt lat="42.97182" lon="-0.01921">
        <ele>1335.2</ele>
        <time>2022-06-11T06:37:15Z</time>
      </trkpt>
      <trkpt lat="42.97182" lon="-0.01918">
        <ele>1335.2</ele>
        <time>2022-06-11T06:37:16Z</time>
      </trkpt>
      <trkpt lat="42.97179" lon="-0.01908">
        <ele>1336.4</ele>
        <time>2022-06-11T06:37:20Z</time>
      </trkpt>
      <trkpt lat="42.97178" lon="-0.01903">
        <ele>1337.2</ele>
        <time>2022-06-11T06:37:22Z</time>
      </trkpt>
      <trkpt lat="42.97176" lon="-0.01897">
        <ele>1337.6</ele>
        <time>2022-06-11T06:37:24Z</time>
      </trkpt>
      <trkpt lat="42.97173" lon="-0.01887">
        <ele>1338.8</ele>
        <time>2022-06-11T06:37:28Z</time>
      </trkpt>
      <trkpt lat="42.97171" lon="-0.01877">
        <ele>1340</ele>
        <time>2022-06-11T06:37:32Z</time>
      </trkpt>
      <trkpt lat="42.97169" lon="-0.01866">
        <ele>1341</ele>
        <time>2022-06-11T06:37:36Z</time>
      </trkpt>
      <trkpt lat="42.97169" lon="-0.01853">
        <ele>1342.4</ele>
        <time>2022-06-11T06:37:41Z</time>
      </trkpt>
      <trkpt lat="42.97169" lon="-0.01848">
        <ele>1342.8</ele>
        <time>2022-06-11T06:37:43Z</time>
      </trkpt>
      <trkpt lat="42.97169" lon="-0.01843">
        <ele>1343.4</ele>
        <time>2022-06-11T06:37:45Z</time>
      </trkpt>
      <trkpt lat="42.97169" lon="-0.0183">
        <ele>1344.4</ele>
        <time>2022-06-11T06:37:50Z</time>
      </trkpt>
      <trkpt lat="42.9717" lon="-0.01825">
        <ele>1345</ele>
        <time>2022-06-11T06:37:52Z</time>
      </trkpt>
      <trkpt lat="42.97172" lon="-0.01818">
        <ele>1345.6</ele>
        <time>2022-06-11T06:37:55Z</time>
      </trkpt>
      <trkpt lat="42.97177" lon="-0.01808">
        <ele>1346.8</ele>
        <time>2022-06-11T06:38:00Z</time>
      </trkpt>
      <trkpt lat="42.97178" lon="-0.01804">
        <ele>1347.4</ele>
        <time>2022-06-11T06:38:02Z</time>
      </trkpt>
      <trkpt lat="42.9718" lon="-0.018">
        <ele>1347.8</ele>
        <time>2022-06-11T06:38:04Z</time>
      </trkpt>
      <trkpt lat="42.97186" lon="-0.01794">
        <ele>1349</ele>
        <time>2022-06-11T06:38:08Z</time>
      </trkpt>
      <trkpt lat="42.97188" lon="-0.01793">
        <ele>1349.4</ele>
        <time>2022-06-11T06:38:09Z</time>
      </trkpt>
      <trkpt lat="42.97195" lon="-0.0179">
        <ele>1350.2</ele>
        <time>2022-06-11T06:38:13Z</time>
      </trkpt>
      <trkpt lat="42.97203" lon="-0.01787">
        <ele>1351</ele>
        <time>2022-06-11T06:38:17Z</time>
      </trkpt>
      <trkpt lat="42.97205" lon="-0.01787">
        <ele>1351.4</ele>
        <time>2022-06-11T06:38:18Z</time>
      </trkpt>
      <trkpt lat="42.97217" lon="-0.01791">
        <ele>1352.6</ele>
        <time>2022-06-11T06:38:24Z</time>
      </trkpt>
      <trkpt lat="42.97227" lon="-0.01807">
        <ele>1353.8</ele>
        <time>2022-06-11T06:38:31Z</time>
      </trkpt>
      <trkpt lat="42.97232" lon="-0.01824">
        <ele>1354.8</ele>
        <time>2022-06-11T06:38:37Z</time>
      </trkpt>
      <trkpt lat="42.97232" lon="-0.01827">
        <ele>1355</ele>
        <time>2022-06-11T06:38:38Z</time>
      </trkpt>
      <trkpt lat="42.97233" lon="-0.0183">
        <ele>1355</ele>
        <time>2022-06-11T06:38:39Z</time>
      </trkpt>
      <trkpt lat="42.97236" lon="-0.0185">
        <ele>1356</ele>
        <time>2022-06-11T06:38:46Z</time>
      </trkpt>
      <trkpt lat="42.97238" lon="-0.01862">
        <ele>1356.6</ele>
        <time>2022-06-11T06:38:50Z</time>
      </trkpt>
      <trkpt lat="42.97241" lon="-0.01873">
        <ele>1357.2</ele>
        <time>2022-06-11T06:38:54Z</time>
      </trkpt>
      <trkpt lat="42.97245" lon="-0.01883">
        <ele>1357.8</ele>
        <time>2022-06-11T06:38:58Z</time>
      </trkpt>
      <trkpt lat="42.97248" lon="-0.01887">
        <ele>1358.2</ele>
        <time>2022-06-11T06:39:00Z</time>
      </trkpt>
      <trkpt lat="42.97255" lon="-0.01897">
        <ele>1359.2</ele>
        <time>2022-06-11T06:39:05Z</time>
      </trkpt>
      <trkpt lat="42.9726" lon="-0.01902">
        <ele>1359.6</ele>
        <time>2022-06-11T06:39:08Z</time>
      </trkpt>
      <trkpt lat="42.97265" lon="-0.01907">
        <ele>1360.6</ele>
        <time>2022-06-11T06:39:11Z</time>
      </trkpt>
      <trkpt lat="42.97276" lon="-0.01916">
        <ele>1361.6</ele>
        <time>2022-06-11T06:39:17Z</time>
      </trkpt>
      <trkpt lat="42.97282" lon="-0.0192">
        <ele>1362.2</ele>
        <time>2022-06-11T06:39:20Z</time>
      </trkpt>
      <trkpt lat="42.97287" lon="-0.01925">
        <ele>1362.6</ele>
        <time>2022-06-11T06:39:23Z</time>
      </trkpt>
      <trkpt lat="42.97293" lon="-0.0193">
        <ele>1363.6</ele>
        <time>2022-06-11T06:39:27Z</time>
      </trkpt>
      <trkpt lat="42.97295" lon="-0.01931">
        <ele>1363.6</ele>
        <time>2022-06-11T06:39:28Z</time>
      </trkpt>
      <trkpt lat="42.97304" lon="-0.01939">
        <ele>1364.8</ele>
        <time>2022-06-11T06:39:33Z</time>
      </trkpt>
      <trkpt lat="42.97309" lon="-0.01943">
        <ele>1365.2</ele>
        <time>2022-06-11T06:39:36Z</time>
      </trkpt>
      <trkpt lat="42.97315" lon="-0.01947">
        <ele>1366</ele>
        <time>2022-06-11T06:39:39Z</time>
      </trkpt>
      <trkpt lat="42.97326" lon="-0.0195">
        <ele>1366.6</ele>
        <time>2022-06-11T06:39:44Z</time>
      </trkpt>
      <trkpt lat="42.97333" lon="-0.0195">
        <ele>1367</ele>
        <time>2022-06-11T06:39:47Z</time>
      </trkpt>
      <trkpt lat="42.97344" lon="-0.01947">
        <ele>1367.8</ele>
        <time>2022-06-11T06:39:52Z</time>
      </trkpt>
      <trkpt lat="42.97346" lon="-0.01947">
        <ele>1368</ele>
        <time>2022-06-11T06:39:53Z</time>
      </trkpt>
      <trkpt lat="42.97357" lon="-0.01938">
        <ele>1369</ele>
        <time>2022-06-11T06:39:59Z</time>
      </trkpt>
      <trkpt lat="42.9736" lon="-0.01935">
        <ele>1369.4</ele>
        <time>2022-06-11T06:40:01Z</time>
      </trkpt>
      <trkpt lat="42.97372" lon="-0.01922">
        <ele>1370.6</ele>
        <time>2022-06-11T06:40:08Z</time>
      </trkpt>
      <trkpt lat="42.97373" lon="-0.01921">
        <ele>1370.6</ele>
        <time>2022-06-11T06:40:09Z</time>
      </trkpt>
      <trkpt lat="42.97381" lon="-0.01912">
        <ele>1371.6</ele>
        <time>2022-06-11T06:40:14Z</time>
      </trkpt>
      <trkpt lat="42.97385" lon="-0.01905">
        <ele>1372</ele>
        <time>2022-06-11T06:40:17Z</time>
      </trkpt>
      <trkpt lat="42.97391" lon="-0.01897">
        <ele>1372.8</ele>
        <time>2022-06-11T06:40:21Z</time>
      </trkpt>
      <trkpt lat="42.97395" lon="-0.01887">
        <ele>1373.6</ele>
        <time>2022-06-11T06:40:25Z</time>
      </trkpt>
      <trkpt lat="42.97398" lon="-0.01882">
        <ele>1374.2</ele>
        <time>2022-06-11T06:40:27Z</time>
      </trkpt>
      <trkpt lat="42.97403" lon="-0.01867">
        <ele>1375.4</ele>
        <time>2022-06-11T06:40:33Z</time>
      </trkpt>
      <trkpt lat="42.97405" lon="-0.0186">
        <ele>1376</ele>
        <time>2022-06-11T06:40:36Z</time>
      </trkpt>
      <trkpt lat="42.97407" lon="-0.01855">
        <ele>1376.6</ele>
        <time>2022-06-11T06:40:38Z</time>
      </trkpt>
      <trkpt lat="42.9741" lon="-0.01841">
        <ele>1377.8</ele>
        <time>2022-06-11T06:40:43Z</time>
      </trkpt>
      <trkpt lat="42.97411" lon="-0.01839">
        <ele>1378</ele>
        <time>2022-06-11T06:40:44Z</time>
      </trkpt>
      <trkpt lat="42.97416" lon="-0.01828">
        <ele>1379.2</ele>
        <time>2022-06-11T06:40:49Z</time>
      </trkpt>
      <trkpt lat="42.9742" lon="-0.01818">
        <ele>1380.2</ele>
        <time>2022-06-11T06:40:54Z</time>
      </trkpt>
      <trkpt lat="42.97421" lon="-0.01816">
        <ele>1380.4</ele>
        <time>2022-06-11T06:40:55Z</time>
      </trkpt>
      <trkpt lat="42.9743" lon="-0.01808">
        <ele>1381.4</ele>
        <time>2022-06-11T06:41:01Z</time>
      </trkpt>
      <trkpt lat="42.97432" lon="-0.01806">
        <ele>1381.4</ele>
        <time>2022-06-11T06:41:02Z</time>
      </trkpt>
      <trkpt lat="42.97439" lon="-0.01796">
        <ele>1382.4</ele>
        <time>2022-06-11T06:41:09Z</time>
      </trkpt>
      <trkpt lat="42.9744" lon="-0.01795">
        <ele>1382.4</ele>
        <time>2022-06-11T06:41:10Z</time>
      </trkpt>
      <trkpt lat="42.97441" lon="-0.01794">
        <ele>1382.6</ele>
        <time>2022-06-11T06:41:11Z</time>
      </trkpt>
      <trkpt lat="42.97445" lon="-0.01795">
        <ele>1382.8</ele>
        <time>2022-06-11T06:41:13Z</time>
      </trkpt>
      <trkpt lat="42.97452" lon="-0.01793">
        <ele>1383.6</ele>
        <time>2022-06-11T06:41:18Z</time>
      </trkpt>
      <trkpt lat="42.97453" lon="-0.01792">
        <ele>1383.6</ele>
        <time>2022-06-11T06:41:19Z</time>
      </trkpt>
      <trkpt lat="42.97462" lon="-0.01784">
        <ele>1384.8</ele>
        <time>2022-06-11T06:41:25Z</time>
      </trkpt>
      <trkpt lat="42.97465" lon="-0.01781">
        <ele>1385</ele>
        <time>2022-06-11T06:41:27Z</time>
      </trkpt>
      <trkpt lat="42.97475" lon="-0.01776">
        <ele>1385.8</ele>
        <time>2022-06-11T06:41:32Z</time>
      </trkpt>
      <trkpt lat="42.97484" lon="-0.01769">
        <ele>1386.4</ele>
        <time>2022-06-11T06:41:37Z</time>
      </trkpt>
      <trkpt lat="42.9749" lon="-0.01766">
        <ele>1387</ele>
        <time>2022-06-11T06:41:40Z</time>
      </trkpt>
      <trkpt lat="42.97501" lon="-0.01759">
        <ele>1388</ele>
        <time>2022-06-11T06:41:46Z</time>
      </trkpt>
      <trkpt lat="42.97514" lon="-0.01753">
        <ele>1389</ele>
        <time>2022-06-11T06:41:53Z</time>
      </trkpt>
      <trkpt lat="42.97517" lon="-0.0175">
        <ele>1389.4</ele>
        <time>2022-06-11T06:41:55Z</time>
      </trkpt>
      <trkpt lat="42.97524" lon="-0.01745">
        <ele>1390.2</ele>
        <time>2022-06-11T06:41:59Z</time>
      </trkpt>
      <trkpt lat="42.97533" lon="-0.0174">
        <ele>1390.8</ele>
        <time>2022-06-11T06:42:04Z</time>
      </trkpt>
      <trkpt lat="42.97537" lon="-0.01738">
        <ele>1391.2</ele>
        <time>2022-06-11T06:42:06Z</time>
      </trkpt>
      <trkpt lat="42.97546" lon="-0.01732">
        <ele>1392.4</ele>
        <time>2022-06-11T06:42:12Z</time>
      </trkpt>
      <trkpt lat="42.97558" lon="-0.01722">
        <ele>1393.4</ele>
        <time>2022-06-11T06:42:19Z</time>
      </trkpt>
      <trkpt lat="42.97563" lon="-0.01718">
        <ele>1393.8</ele>
        <time>2022-06-11T06:42:22Z</time>
      </trkpt>
      <trkpt lat="42.97571" lon="-0.01712">
        <ele>1394.4</ele>
        <time>2022-06-11T06:42:27Z</time>
      </trkpt>
      <trkpt lat="42.97576" lon="-0.01707">
        <ele>1394.8</ele>
        <time>2022-06-11T06:42:30Z</time>
      </trkpt>
      <trkpt lat="42.97583" lon="-0.01699">
        <ele>1395.6</ele>
        <time>2022-06-11T06:42:35Z</time>
      </trkpt>
      <trkpt lat="42.97591" lon="-0.01688">
        <ele>1396.4</ele>
        <time>2022-06-11T06:42:41Z</time>
      </trkpt>
      <trkpt lat="42.97592" lon="-0.01686">
        <ele>1396.6</ele>
        <time>2022-06-11T06:42:42Z</time>
      </trkpt>
      <trkpt lat="42.97598" lon="-0.01673">
        <ele>1398</ele>
        <time>2022-06-11T06:42:48Z</time>
      </trkpt>
      <trkpt lat="42.97603" lon="-0.01657">
        <ele>1399</ele>
        <time>2022-06-11T06:42:54Z</time>
      </trkpt>
      <trkpt lat="42.97603" lon="-0.01655">
        <ele>1399.2</ele>
        <time>2022-06-11T06:42:55Z</time>
      </trkpt>
      <trkpt lat="42.97609" lon="-0.01637">
        <ele>1400</ele>
        <time>2022-06-11T06:43:02Z</time>
      </trkpt>
      <trkpt lat="42.97612" lon="-0.01627">
        <ele>1400.8</ele>
        <time>2022-06-11T06:43:06Z</time>
      </trkpt>
      <trkpt lat="42.97614" lon="-0.01622">
        <ele>1401</ele>
        <time>2022-06-11T06:43:08Z</time>
      </trkpt>
      <trkpt lat="42.97622" lon="-0.01602">
        <ele>1402.2</ele>
        <time>2022-06-11T06:43:16Z</time>
      </trkpt>
      <trkpt lat="42.97623" lon="-0.016">
        <ele>1402.2</ele>
        <time>2022-06-11T06:43:17Z</time>
      </trkpt>
      <trkpt lat="42.97628" lon="-0.01585">
        <ele>1403.2</ele>
        <time>2022-06-11T06:43:23Z</time>
      </trkpt>
      <trkpt lat="42.9763" lon="-0.0158">
        <ele>1403.6</ele>
        <time>2022-06-11T06:43:25Z</time>
      </trkpt>
      <trkpt lat="42.97634" lon="-0.01566">
        <ele>1404.4</ele>
        <time>2022-06-11T06:43:31Z</time>
      </trkpt>
      <trkpt lat="42.97635" lon="-0.01563">
        <ele>1404.6</ele>
        <time>2022-06-11T06:43:32Z</time>
      </trkpt>
      <trkpt lat="42.97639" lon="-0.01554">
        <ele>1405.4</ele>
        <time>2022-06-11T06:43:36Z</time>
      </trkpt>
      <trkpt lat="42.97642" lon="-0.01548">
        <ele>1405.8</ele>
        <time>2022-06-11T06:43:39Z</time>
      </trkpt>
      <trkpt lat="42.97645" lon="-0.01538">
        <ele>1406.6</ele>
        <time>2022-06-11T06:43:43Z</time>
      </trkpt>
      <trkpt lat="42.97652" lon="-0.01522">
        <ele>1407.8</ele>
        <time>2022-06-11T06:43:50Z</time>
      </trkpt>
      <trkpt lat="42.97661" lon="-0.01507">
        <ele>1408.6</ele>
        <time>2022-06-11T06:43:57Z</time>
      </trkpt>
      <trkpt lat="42.97663" lon="-0.01504">
        <ele>1408.8</ele>
        <time>2022-06-11T06:43:59Z</time>
      </trkpt>
      <trkpt lat="42.97678" lon="-0.01491">
        <ele>1409.8</ele>
        <time>2022-06-11T06:44:07Z</time>
      </trkpt>
      <trkpt lat="42.9768" lon="-0.0149">
        <ele>1410</ele>
        <time>2022-06-11T06:44:08Z</time>
      </trkpt>
      <trkpt lat="42.97695" lon="-0.01483">
        <ele>1411</ele>
        <time>2022-06-11T06:44:16Z</time>
      </trkpt>
      <trkpt lat="42.97697" lon="-0.01482">
        <ele>1411</ele>
        <time>2022-06-11T06:44:17Z</time>
      </trkpt>
      <trkpt lat="42.9771" lon="-0.01473">
        <ele>1412</ele>
        <time>2022-06-11T06:44:24Z</time>
      </trkpt>
      <trkpt lat="42.97717" lon="-0.0147">
        <ele>1412.4</ele>
        <time>2022-06-11T06:44:27Z</time>
      </trkpt>
      <trkpt lat="42.97727" lon="-0.01461">
        <ele>1413</ele>
        <time>2022-06-11T06:44:32Z</time>
      </trkpt>
      <trkpt lat="42.97731" lon="-0.01458">
        <ele>1413.2</ele>
        <time>2022-06-11T06:44:34Z</time>
      </trkpt>
      <trkpt lat="42.97744" lon="-0.0144">
        <ele>1414.2</ele>
        <time>2022-06-11T06:44:42Z</time>
      </trkpt>
      <trkpt lat="42.97745" lon="-0.01438">
        <ele>1414.2</ele>
        <time>2022-06-11T06:44:43Z</time>
      </trkpt>
      <trkpt lat="42.97744" lon="-0.01425">
        <ele>1415.2</ele>
        <time>2022-06-11T06:44:48Z</time>
      </trkpt>
      <trkpt lat="42.97737" lon="-0.01418">
        <ele>1416.2</ele>
        <time>2022-06-11T06:44:53Z</time>
      </trkpt>
      <trkpt lat="42.97735" lon="-0.01418">
        <ele>1416.4</ele>
        <time>2022-06-11T06:44:54Z</time>
      </trkpt>
      <trkpt lat="42.97726" lon="-0.01418">
        <ele>1417.6</ele>
        <time>2022-06-11T06:44:59Z</time>
      </trkpt>
      <trkpt lat="42.97722" lon="-0.01419">
        <ele>1418</ele>
        <time>2022-06-11T06:45:01Z</time>
      </trkpt>
      <trkpt lat="42.97715" lon="-0.01421">
        <ele>1418.8</ele>
        <time>2022-06-11T06:45:05Z</time>
      </trkpt>
      <trkpt lat="42.97705" lon="-0.01426">
        <ele>1420</ele>
        <time>2022-06-11T06:45:10Z</time>
      </trkpt>
      <trkpt lat="42.97703" lon="-0.01426">
        <ele>1420</ele>
        <time>2022-06-11T06:45:11Z</time>
      </trkpt>
      <trkpt lat="42.97689" lon="-0.0143">
        <ele>1421</ele>
        <time>2022-06-11T06:45:18Z</time>
      </trkpt>
      <trkpt lat="42.97685" lon="-0.01431">
        <ele>1421.2</ele>
        <time>2022-06-11T06:45:20Z</time>
      </trkpt>
      <trkpt lat="42.97671" lon="-0.01434">
        <ele>1422</ele>
        <time>2022-06-11T06:45:27Z</time>
      </trkpt>
      <trkpt lat="42.97669" lon="-0.01434">
        <ele>1422.2</ele>
        <time>2022-06-11T06:45:28Z</time>
      </trkpt>
      <trkpt lat="42.97653" lon="-0.01437">
        <ele>1423</ele>
        <time>2022-06-11T06:45:36Z</time>
      </trkpt>
      <trkpt lat="42.97645" lon="-0.01438">
        <ele>1423.8</ele>
        <time>2022-06-11T06:45:40Z</time>
      </trkpt>
      <trkpt lat="42.97641" lon="-0.01438">
        <ele>1424.2</ele>
        <time>2022-06-11T06:45:42Z</time>
      </trkpt>
      <trkpt lat="42.97628" lon="-0.01439">
        <ele>1425.2</ele>
        <time>2022-06-11T06:45:48Z</time>
      </trkpt>
      <trkpt lat="42.97622" lon="-0.01441">
        <ele>1425.6</ele>
        <time>2022-06-11T06:45:51Z</time>
      </trkpt>
      <trkpt lat="42.97616" lon="-0.01442">
        <ele>1426.2</ele>
        <time>2022-06-11T06:45:54Z</time>
      </trkpt>
      <trkpt lat="42.97604" lon="-0.01444">
        <ele>1427.4</ele>
        <time>2022-06-11T06:46:00Z</time>
      </trkpt>
      <trkpt lat="42.97584" lon="-0.01447">
        <ele>1428.4</ele>
        <time>2022-06-11T06:46:10Z</time>
      </trkpt>
      <trkpt lat="42.9758" lon="-0.01449">
        <ele>1428.6</ele>
        <time>2022-06-11T06:46:12Z</time>
      </trkpt>
      <trkpt lat="42.97573" lon="-0.01452">
        <ele>1429.6</ele>
        <time>2022-06-11T06:46:16Z</time>
      </trkpt>
      <trkpt lat="42.97562" lon="-0.01461">
        <ele>1430.6</ele>
        <time>2022-06-11T06:46:23Z</time>
      </trkpt>
      <trkpt lat="42.9756" lon="-0.01462">
        <ele>1431</ele>
        <time>2022-06-11T06:46:24Z</time>
      </trkpt>
      <trkpt lat="42.9755" lon="-0.01471">
        <ele>1432</ele>
        <time>2022-06-11T06:46:30Z</time>
      </trkpt>
      <trkpt lat="42.97546" lon="-0.01474">
        <ele>1432.4</ele>
        <time>2022-06-11T06:46:32Z</time>
      </trkpt>
      <trkpt lat="42.97538" lon="-0.01481">
        <ele>1433.2</ele>
        <time>2022-06-11T06:46:37Z</time>
      </trkpt>
      <trkpt lat="42.97534" lon="-0.01483">
        <ele>1433.6</ele>
        <time>2022-06-11T06:46:39Z</time>
      </trkpt>
      <trkpt lat="42.97523" lon="-0.01489">
        <ele>1434.2</ele>
        <time>2022-06-11T06:46:45Z</time>
      </trkpt>
      <trkpt lat="42.97516" lon="-0.0149">
        <ele>1434.6</ele>
        <time>2022-06-11T06:46:48Z</time>
      </trkpt>
      <trkpt lat="42.975" lon="-0.01486">
        <ele>1435.4</ele>
        <time>2022-06-11T06:46:56Z</time>
      </trkpt>
      <trkpt lat="42.97498" lon="-0.01485">
        <ele>1435.4</ele>
        <time>2022-06-11T06:46:57Z</time>
      </trkpt>
      <trkpt lat="42.97489" lon="-0.01472">
        <ele>1436.2</ele>
        <time>2022-06-11T06:47:04Z</time>
      </trkpt>
      <trkpt lat="42.97488" lon="-0.0147">
        <ele>1436.6</ele>
        <time>2022-06-11T06:47:05Z</time>
      </trkpt>
      <trkpt lat="42.97487" lon="-0.01454">
        <ele>1437.4</ele>
        <time>2022-06-11T06:47:11Z</time>
      </trkpt>
      <trkpt lat="42.97489" lon="-0.01449">
        <ele>1437.6</ele>
        <time>2022-06-11T06:47:13Z</time>
      </trkpt>
      <trkpt lat="42.97496" lon="-0.01437">
        <ele>1438.2</ele>
        <time>2022-06-11T06:47:19Z</time>
      </trkpt>
      <trkpt lat="42.97501" lon="-0.01432">
        <ele>1438.8</ele>
        <time>2022-06-11T06:47:22Z</time>
      </trkpt>
      <trkpt lat="42.97508" lon="-0.01426">
        <ele>1439.2</ele>
        <time>2022-06-11T06:47:26Z</time>
      </trkpt>
      <trkpt lat="42.97516" lon="-0.01421">
        <ele>1439.8</ele>
        <time>2022-06-11T06:47:30Z</time>
      </trkpt>
      <trkpt lat="42.97523" lon="-0.01416">
        <ele>1440.6</ele>
        <time>2022-06-11T06:47:34Z</time>
      </trkpt>
      <trkpt lat="42.97527" lon="-0.01414">
        <ele>1440.8</ele>
        <time>2022-06-11T06:47:36Z</time>
      </trkpt>
      <trkpt lat="42.9754" lon="-0.01404">
        <ele>1441.8</ele>
        <time>2022-06-11T06:47:43Z</time>
      </trkpt>
      <trkpt lat="42.97543" lon="-0.01401">
        <ele>1442</ele>
        <time>2022-06-11T06:47:45Z</time>
      </trkpt>
      <trkpt lat="42.97553" lon="-0.01395">
        <ele>1442.8</ele>
        <time>2022-06-11T06:47:50Z</time>
      </trkpt>
      <trkpt lat="42.97559" lon="-0.01391">
        <ele>1443.2</ele>
        <time>2022-06-11T06:47:53Z</time>
      </trkpt>
      <trkpt lat="42.97568" lon="-0.01385">
        <ele>1443.8</ele>
        <time>2022-06-11T06:47:58Z</time>
      </trkpt>
      <trkpt lat="42.97572" lon="-0.01382">
        <ele>1444.4</ele>
        <time>2022-06-11T06:48:00Z</time>
      </trkpt>
      <trkpt lat="42.97583" lon="-0.01374">
        <ele>1445.4</ele>
        <time>2022-06-11T06:48:06Z</time>
      </trkpt>
      <trkpt lat="42.97585" lon="-0.01373">
        <ele>1445.4</ele>
        <time>2022-06-11T06:48:07Z</time>
      </trkpt>
      <trkpt lat="42.97599" lon="-0.01365">
        <ele>1446.8</ele>
        <time>2022-06-11T06:48:15Z</time>
      </trkpt>
      <trkpt lat="42.9761" lon="-0.01355">
        <ele>1448</ele>
        <time>2022-06-11T06:48:22Z</time>
      </trkpt>
      <trkpt lat="42.97625" lon="-0.01343">
        <ele>1449</ele>
        <time>2022-06-11T06:48:31Z</time>
      </trkpt>
      <trkpt lat="42.97627" lon="-0.01342">
        <ele>1449.4</ele>
        <time>2022-06-11T06:48:32Z</time>
      </trkpt>
      <trkpt lat="42.97635" lon="-0.01335">
        <ele>1450.2</ele>
        <time>2022-06-11T06:48:37Z</time>
      </trkpt>
      <trkpt lat="42.97644" lon="-0.01328">
        <ele>1451</ele>
        <time>2022-06-11T06:48:42Z</time>
      </trkpt>
      <trkpt lat="42.97647" lon="-0.01326">
        <ele>1451.2</ele>
        <time>2022-06-11T06:48:44Z</time>
      </trkpt>
      <trkpt lat="42.97659" lon="-0.01319">
        <ele>1452.2</ele>
        <time>2022-06-11T06:48:50Z</time>
      </trkpt>
      <trkpt lat="42.9766" lon="-0.01318">
        <ele>1452.4</ele>
        <time>2022-06-11T06:48:51Z</time>
      </trkpt>
      <trkpt lat="42.97669" lon="-0.01312">
        <ele>1453.4</ele>
        <time>2022-06-11T06:48:56Z</time>
      </trkpt>
      <trkpt lat="42.97674" lon="-0.01309">
        <ele>1453.8</ele>
        <time>2022-06-11T06:48:59Z</time>
      </trkpt>
      <trkpt lat="42.97682" lon="-0.01303">
        <ele>1454.2</ele>
        <time>2022-06-11T06:49:04Z</time>
      </trkpt>
      <trkpt lat="42.97685" lon="-0.013">
        <ele>1454.6</ele>
        <time>2022-06-11T06:49:06Z</time>
      </trkpt>
      <trkpt lat="42.97693" lon="-0.01293">
        <ele>1455.4</ele>
        <time>2022-06-11T06:49:11Z</time>
      </trkpt>
      <trkpt lat="42.97698" lon="-0.01286">
        <ele>1456.2</ele>
        <time>2022-06-11T06:49:15Z</time>
      </trkpt>
      <trkpt lat="42.977" lon="-0.01285">
        <ele>1456.2</ele>
        <time>2022-06-11T06:49:16Z</time>
      </trkpt>
      <trkpt lat="42.97704" lon="-0.01279">
        <ele>1456.4</ele>
        <time>2022-06-11T06:49:19Z</time>
      </trkpt>
      <trkpt lat="42.97711" lon="-0.01269">
        <ele>1457.4</ele>
        <time>2022-06-11T06:49:24Z</time>
      </trkpt>
      <trkpt lat="42.97713" lon="-0.01265">
        <ele>1457.6</ele>
        <time>2022-06-11T06:49:26Z</time>
      </trkpt>
      <trkpt lat="42.9772" lon="-0.01253">
        <ele>1458.8</ele>
        <time>2022-06-11T06:49:32Z</time>
      </trkpt>
      <trkpt lat="42.97723" lon="-0.01249">
        <ele>1459</ele>
        <time>2022-06-11T06:49:34Z</time>
      </trkpt>
      <trkpt lat="42.97727" lon="-0.01242">
        <ele>1459.8</ele>
        <time>2022-06-11T06:49:38Z</time>
      </trkpt>
      <trkpt lat="42.97729" lon="-0.01235">
        <ele>1460.2</ele>
        <time>2022-06-11T06:49:41Z</time>
      </trkpt>
      <trkpt lat="42.97732" lon="-0.01225">
        <ele>1460.8</ele>
        <time>2022-06-11T06:49:45Z</time>
      </trkpt>
      <trkpt lat="42.97735" lon="-0.01211">
        <ele>1462</ele>
        <time>2022-06-11T06:49:51Z</time>
      </trkpt>
      <trkpt lat="42.97736" lon="-0.01207">
        <ele>1462.4</ele>
        <time>2022-06-11T06:49:53Z</time>
      </trkpt>
      <trkpt lat="42.97736" lon="-0.01204">
        <ele>1462.6</ele>
        <time>2022-06-11T06:49:54Z</time>
      </trkpt>
      <trkpt lat="42.97734" lon="-0.01196">
        <ele>1462.8</ele>
        <time>2022-06-11T06:49:57Z</time>
      </trkpt>
      <trkpt lat="42.97733" lon="-0.01189">
        <ele>1463.4</ele>
        <time>2022-06-11T06:50:00Z</time>
      </trkpt>
      <trkpt lat="42.97729" lon="-0.01177">
        <ele>1464.6</ele>
        <time>2022-06-11T06:50:05Z</time>
      </trkpt>
      <trkpt lat="42.97727" lon="-0.01172">
        <ele>1464.8</ele>
        <time>2022-06-11T06:50:07Z</time>
      </trkpt>
      <trkpt lat="42.97723" lon="-0.01164">
        <ele>1465.6</ele>
        <time>2022-06-11T06:50:11Z</time>
      </trkpt>
      <trkpt lat="42.97716" lon="-0.01149">
        <ele>1466.6</ele>
        <time>2022-06-11T06:50:18Z</time>
      </trkpt>
      <trkpt lat="42.97711" lon="-0.01134">
        <ele>1467.8</ele>
        <time>2022-06-11T06:50:25Z</time>
      </trkpt>
      <trkpt lat="42.9771" lon="-0.0113">
        <ele>1468</ele>
        <time>2022-06-11T06:50:27Z</time>
      </trkpt>
      <trkpt lat="42.97707" lon="-0.01117">
        <ele>1468.8</ele>
        <time>2022-06-11T06:50:33Z</time>
      </trkpt>
      <trkpt lat="42.97706" lon="-0.01113">
        <ele>1469</ele>
        <time>2022-06-11T06:50:35Z</time>
      </trkpt>
      <trkpt lat="42.97705" lon="-0.01107">
        <ele>1469.8</ele>
        <time>2022-06-11T06:50:38Z</time>
      </trkpt>
      <trkpt lat="42.97702" lon="-0.0109">
        <ele>1470.8</ele>
        <time>2022-06-11T06:50:45Z</time>
      </trkpt>
      <trkpt lat="42.97701" lon="-0.01086">
        <ele>1471.2</ele>
        <time>2022-06-11T06:50:47Z</time>
      </trkpt>
      <trkpt lat="42.97699" lon="-0.01077">
        <ele>1472</ele>
        <time>2022-06-11T06:50:51Z</time>
      </trkpt>
      <trkpt lat="42.97697" lon="-0.01072">
        <ele>1472.6</ele>
        <time>2022-06-11T06:50:53Z</time>
      </trkpt>
      <trkpt lat="42.97696" lon="-0.01068">
        <ele>1473</ele>
        <time>2022-06-11T06:50:55Z</time>
      </trkpt>
      <trkpt lat="42.97693" lon="-0.01053">
        <ele>1473.8</ele>
        <time>2022-06-11T06:51:01Z</time>
      </trkpt>
      <trkpt lat="42.97693" lon="-0.01051">
        <ele>1474.2</ele>
        <time>2022-06-11T06:51:02Z</time>
      </trkpt>
      <trkpt lat="42.9769" lon="-0.01037">
        <ele>1475.2</ele>
        <time>2022-06-11T06:51:08Z</time>
      </trkpt>
      <trkpt lat="42.97689" lon="-0.01035">
        <ele>1475.2</ele>
        <time>2022-06-11T06:51:09Z</time>
      </trkpt>
      <trkpt lat="42.97685" lon="-0.01021">
        <ele>1476.2</ele>
        <time>2022-06-11T06:51:15Z</time>
      </trkpt>
      <trkpt lat="42.9768" lon="-0.0101">
        <ele>1477.2</ele>
        <time>2022-06-11T06:51:20Z</time>
      </trkpt>
      <trkpt lat="42.97679" lon="-0.01008">
        <ele>1477.6</ele>
        <time>2022-06-11T06:51:21Z</time>
      </trkpt>
      <trkpt lat="42.9767" lon="-0.00993">
        <ele>1478.8</ele>
        <time>2022-06-11T06:51:28Z</time>
      </trkpt>
      <trkpt lat="42.97669" lon="-0.00991">
        <ele>1478.8</ele>
        <time>2022-06-11T06:51:29Z</time>
      </trkpt>
      <trkpt lat="42.97661" lon="-0.00975">
        <ele>1479.8</ele>
        <time>2022-06-11T06:51:36Z</time>
      </trkpt>
      <trkpt lat="42.9766" lon="-0.00972">
        <ele>1479.8</ele>
        <time>2022-06-11T06:51:37Z</time>
      </trkpt>
      <trkpt lat="42.97658" lon="-0.00952">
        <ele>1480.8</ele>
        <time>2022-06-11T06:51:44Z</time>
      </trkpt>
      <trkpt lat="42.97658" lon="-0.00949">
        <ele>1481</ele>
        <time>2022-06-11T06:51:45Z</time>
      </trkpt>
      <trkpt lat="42.97662" lon="-0.00938">
        <ele>1481.2</ele>
        <time>2022-06-11T06:51:49Z</time>
      </trkpt>
      <trkpt lat="42.97675" lon="-0.00924">
        <ele>1481.8</ele>
        <time>2022-06-11T06:51:56Z</time>
      </trkpt>
      <trkpt lat="42.9768" lon="-0.00919">
        <ele>1482</ele>
        <time>2022-06-11T06:51:59Z</time>
      </trkpt>
      <trkpt lat="42.97688" lon="-0.00913">
        <ele>1482.6</ele>
        <time>2022-06-11T06:52:04Z</time>
      </trkpt>
      <trkpt lat="42.97692" lon="-0.00908">
        <ele>1483</ele>
        <time>2022-06-11T06:52:07Z</time>
      </trkpt>
      <trkpt lat="42.977" lon="-0.00897">
        <ele>1483.8</ele>
        <time>2022-06-11T06:52:13Z</time>
      </trkpt>
      <trkpt lat="42.97702" lon="-0.00893">
        <ele>1484.2</ele>
        <time>2022-06-11T06:52:15Z</time>
      </trkpt>
      <trkpt lat="42.97705" lon="-0.00879">
        <ele>1485</ele>
        <time>2022-06-11T06:52:21Z</time>
      </trkpt>
      <trkpt lat="42.97704" lon="-0.00875">
        <ele>1485.4</ele>
        <time>2022-06-11T06:52:23Z</time>
      </trkpt>
      <trkpt lat="42.97698" lon="-0.00863">
        <ele>1486.4</ele>
        <time>2022-06-11T06:52:29Z</time>
      </trkpt>
      <trkpt lat="42.97696" lon="-0.00862">
        <ele>1486.8</ele>
        <time>2022-06-11T06:52:30Z</time>
      </trkpt>
      <trkpt lat="42.9769" lon="-0.00857">
        <ele>1487.8</ele>
        <time>2022-06-11T06:52:34Z</time>
      </trkpt>
      <trkpt lat="42.97685" lon="-0.00856">
        <ele>1488.2</ele>
        <time>2022-06-11T06:52:37Z</time>
      </trkpt>
      <trkpt lat="42.97678" lon="-0.00854">
        <ele>1488.8</ele>
        <time>2022-06-11T06:52:41Z</time>
      </trkpt>
      <trkpt lat="42.97669" lon="-0.0085">
        <ele>1489.8</ele>
        <time>2022-06-11T06:52:46Z</time>
      </trkpt>
      <trkpt lat="42.97667" lon="-0.0085">
        <ele>1490.2</ele>
        <time>2022-06-11T06:52:47Z</time>
      </trkpt>
      <trkpt lat="42.97655" lon="-0.00849">
        <ele>1491</ele>
        <time>2022-06-11T06:52:53Z</time>
      </trkpt>
      <trkpt lat="42.97652" lon="-0.0085">
        <ele>1491</ele>
        <time>2022-06-11T06:52:54Z</time>
      </trkpt>
      <trkpt lat="42.9765" lon="-0.0085">
        <ele>1491.4</ele>
        <time>2022-06-11T06:52:55Z</time>
      </trkpt>
      <trkpt lat="42.97638" lon="-0.0086">
        <ele>1492</ele>
        <time>2022-06-11T06:53:01Z</time>
      </trkpt>
      <trkpt lat="42.97635" lon="-0.00865">
        <ele>1492.2</ele>
        <time>2022-06-11T06:53:03Z</time>
      </trkpt>
      <trkpt lat="42.97632" lon="-0.00886">
        <ele>1493.2</ele>
        <time>2022-06-11T06:53:10Z</time>
      </trkpt>
      <trkpt lat="42.9763" lon="-0.00912">
        <ele>1494.2</ele>
        <time>2022-06-11T06:53:19Z</time>
      </trkpt>
      <trkpt lat="42.97629" lon="-0.00928">
        <ele>1495.4</ele>
        <time>2022-06-11T06:53:25Z</time>
      </trkpt>
      <trkpt lat="42.97629" lon="-0.00934">
        <ele>1495.6</ele>
        <time>2022-06-11T06:53:27Z</time>
      </trkpt>
      <trkpt lat="42.97629" lon="-0.00949">
        <ele>1496.6</ele>
        <time>2022-06-11T06:53:32Z</time>
      </trkpt>
      <trkpt lat="42.97629" lon="-0.00954">
        <ele>1496.8</ele>
        <time>2022-06-11T06:53:34Z</time>
      </trkpt>
      <trkpt lat="42.97628" lon="-0.00972">
        <ele>1497.8</ele>
        <time>2022-06-11T06:53:40Z</time>
      </trkpt>
      <trkpt lat="42.97627" lon="-0.00993">
        <ele>1498.6</ele>
        <time>2022-06-11T06:53:47Z</time>
      </trkpt>
      <trkpt lat="42.97627" lon="-0.00996">
        <ele>1498.6</ele>
        <time>2022-06-11T06:53:48Z</time>
      </trkpt>
      <trkpt lat="42.97625" lon="-0.01017">
        <ele>1499.8</ele>
        <time>2022-06-11T06:53:55Z</time>
      </trkpt>
      <trkpt lat="42.97622" lon="-0.0103">
        <ele>1500.4</ele>
        <time>2022-06-11T06:53:59Z</time>
      </trkpt>
      <trkpt lat="42.9762" lon="-0.01047">
        <ele>1501</ele>
        <time>2022-06-11T06:54:04Z</time>
      </trkpt>
      <trkpt lat="42.97617" lon="-0.01062">
        <ele>1501.2</ele>
        <time>2022-06-11T06:54:08Z</time>
      </trkpt>
      <trkpt lat="42.9761" lon="-0.01098">
        <ele>1501.4</ele>
        <time>2022-06-11T06:54:17Z</time>
      </trkpt>
      <trkpt lat="42.97607" lon="-0.01116">
        <ele>1502</ele>
        <time>2022-06-11T06:54:22Z</time>
      </trkpt>
      <trkpt lat="42.97602" lon="-0.01137">
        <ele>1502.4</ele>
        <time>2022-06-11T06:54:28Z</time>
      </trkpt>
      <trkpt lat="42.97587" lon="-0.01159">
        <ele>1502.6</ele>
        <time>2022-06-11T06:54:35Z</time>
      </trkpt>
      <trkpt lat="42.97571" lon="-0.01163">
        <ele>1502.6</ele>
        <time>2022-06-11T06:54:41Z</time>
      </trkpt>
      <trkpt lat="42.97559" lon="-0.0116">
        <ele>1502.8</ele>
        <time>2022-06-11T06:54:46Z</time>
      </trkpt>
      <trkpt lat="42.97557" lon="-0.01158">
        <ele>1502.8</ele>
        <time>2022-06-11T06:54:47Z</time>
      </trkpt>
      <trkpt lat="42.97544" lon="-0.01141">
        <ele>1503.8</ele>
        <time>2022-06-11T06:54:55Z</time>
      </trkpt>
      <trkpt lat="42.97543" lon="-0.01139">
        <ele>1503.8</ele>
        <time>2022-06-11T06:54:56Z</time>
      </trkpt>
      <trkpt lat="42.97536" lon="-0.01133">
        <ele>1504.8</ele>
        <time>2022-06-11T06:55:00Z</time>
      </trkpt>
      <trkpt lat="42.97534" lon="-0.01131">
        <ele>1505</ele>
        <time>2022-06-11T06:55:01Z</time>
      </trkpt>
      <trkpt lat="42.97533" lon="-0.0113">
        <ele>1505.2</ele>
        <time>2022-06-11T06:55:02Z</time>
      </trkpt>
      <trkpt lat="42.97521" lon="-0.01121">
        <ele>1506.4</ele>
        <time>2022-06-11T06:55:08Z</time>
      </trkpt>
      <trkpt lat="42.97514" lon="-0.01117">
        <ele>1507.4</ele>
        <time>2022-06-11T06:55:12Z</time>
      </trkpt>
      <trkpt lat="42.97512" lon="-0.01117">
        <ele>1507.4</ele>
        <time>2022-06-11T06:55:13Z</time>
      </trkpt>
      <trkpt lat="42.975" lon="-0.01109">
        <ele>1508.6</ele>
        <time>2022-06-11T06:55:20Z</time>
      </trkpt>
      <trkpt lat="42.97498" lon="-0.01107">
        <ele>1508.8</ele>
        <time>2022-06-11T06:55:21Z</time>
      </trkpt>
      <trkpt lat="42.97493" lon="-0.01099">
        <ele>1509.8</ele>
        <time>2022-06-11T06:55:25Z</time>
      </trkpt>
      <trkpt lat="42.97486" lon="-0.01088">
        <ele>1510.6</ele>
        <time>2022-06-11T06:55:30Z</time>
      </trkpt>
      <trkpt lat="42.97485" lon="-0.01084">
        <ele>1511</ele>
        <time>2022-06-11T06:55:32Z</time>
      </trkpt>
      <trkpt lat="42.97479" lon="-0.01069">
        <ele>1512</ele>
        <time>2022-06-11T06:55:38Z</time>
      </trkpt>
      <trkpt lat="42.97475" lon="-0.01062">
        <ele>1512.4</ele>
        <time>2022-06-11T06:55:41Z</time>
      </trkpt>
      <trkpt lat="42.97466" lon="-0.01041">
        <ele>1512.8</ele>
        <time>2022-06-11T06:55:49Z</time>
      </trkpt>
      <trkpt lat="42.97463" lon="-0.01033">
        <ele>1513.2</ele>
        <time>2022-06-11T06:55:52Z</time>
      </trkpt>
      <trkpt lat="42.97456" lon="-0.01017">
        <ele>1513.8</ele>
        <time>2022-06-11T06:55:58Z</time>
      </trkpt>
      <trkpt lat="42.9745" lon="-0.01007">
        <ele>1514.2</ele>
        <time>2022-06-11T06:56:02Z</time>
      </trkpt>
      <trkpt lat="42.97441" lon="-0.00993">
        <ele>1514.6</ele>
        <time>2022-06-11T06:56:08Z</time>
      </trkpt>
      <trkpt lat="42.97434" lon="-0.00985">
        <ele>1515.4</ele>
        <time>2022-06-11T06:56:12Z</time>
      </trkpt>
      <trkpt lat="42.97425" lon="-0.00975">
        <ele>1516</ele>
        <time>2022-06-11T06:56:17Z</time>
      </trkpt>
      <trkpt lat="42.97418" lon="-0.00967">
        <ele>1516.4</ele>
        <time>2022-06-11T06:56:21Z</time>
      </trkpt>
      <trkpt lat="42.97412" lon="-0.00959">
        <ele>1517</ele>
        <time>2022-06-11T06:56:25Z</time>
      </trkpt>
      <trkpt lat="42.97408" lon="-0.00952">
        <ele>1517.6</ele>
        <time>2022-06-11T06:56:28Z</time>
      </trkpt>
      <trkpt lat="42.97405" lon="-0.00939">
        <ele>1518</ele>
        <time>2022-06-11T06:56:33Z</time>
      </trkpt>
      <trkpt lat="42.97406" lon="-0.00931">
        <ele>1518.4</ele>
        <time>2022-06-11T06:56:36Z</time>
      </trkpt>
      <trkpt lat="42.9741" lon="-0.00926">
        <ele>1518.6</ele>
        <time>2022-06-11T06:56:38Z</time>
      </trkpt>
      <trkpt lat="42.97412" lon="-0.00925">
        <ele>1518.6</ele>
        <time>2022-06-11T06:56:39Z</time>
      </trkpt>
      <trkpt lat="42.97416" lon="-0.00926">
        <ele>1518.8</ele>
        <time>2022-06-11T06:56:41Z</time>
      </trkpt>
      <trkpt lat="42.97426" lon="-0.00932">
        <ele>1519.2</ele>
        <time>2022-06-11T06:56:46Z</time>
      </trkpt>
      <trkpt lat="42.97433" lon="-0.00937">
        <ele>1519.8</ele>
        <time>2022-06-11T06:56:50Z</time>
      </trkpt>
      <trkpt lat="42.97441" lon="-0.00941">
        <ele>1520.4</ele>
        <time>2022-06-11T06:56:54Z</time>
      </trkpt>
      <trkpt lat="42.97445" lon="-0.00944">
        <ele>1521</ele>
        <time>2022-06-11T06:56:56Z</time>
      </trkpt>
      <trkpt lat="42.97459" lon="-0.00948">
        <ele>1521.8</ele>
        <time>2022-06-11T06:57:03Z</time>
      </trkpt>
      <trkpt lat="42.97471" lon="-0.00945">
        <ele>1523</ele>
        <time>2022-06-11T06:57:09Z</time>
      </trkpt>
      <trkpt lat="42.97476" lon="-0.00944">
        <ele>1523.2</ele>
        <time>2022-06-11T06:57:11Z</time>
      </trkpt>
      <trkpt lat="42.97483" lon="-0.00942">
        <ele>1523.8</ele>
        <time>2022-06-11T06:57:15Z</time>
      </trkpt>
      <trkpt lat="42.97485" lon="-0.0094">
        <ele>1524.2</ele>
        <time>2022-06-11T06:57:16Z</time>
      </trkpt>
      <trkpt lat="42.97486" lon="-0.00939">
        <ele>1524.4</ele>
        <time>2022-06-11T06:57:17Z</time>
      </trkpt>
      <trkpt lat="42.97492" lon="-0.00935">
        <ele>1525.2</ele>
        <time>2022-06-11T06:57:21Z</time>
      </trkpt>
      <trkpt lat="42.97497" lon="-0.00931">
        <ele>1525.8</ele>
        <time>2022-06-11T06:57:24Z</time>
      </trkpt>
      <trkpt lat="42.97502" lon="-0.00927">
        <ele>1526.4</ele>
        <time>2022-06-11T06:57:27Z</time>
      </trkpt>
      <trkpt lat="42.97512" lon="-0.00916">
        <ele>1527.4</ele>
        <time>2022-06-11T06:57:33Z</time>
      </trkpt>
      <trkpt lat="42.9752" lon="-0.00908">
        <ele>1528.6</ele>
        <time>2022-06-11T06:57:38Z</time>
      </trkpt>
      <trkpt lat="42.97524" lon="-0.00902">
        <ele>1529.2</ele>
        <time>2022-06-11T06:57:41Z</time>
      </trkpt>
      <trkpt lat="42.97527" lon="-0.00898">
        <ele>1529.8</ele>
        <time>2022-06-11T06:57:43Z</time>
      </trkpt>
      <trkpt lat="42.97533" lon="-0.00884">
        <ele>1530.8</ele>
        <time>2022-06-11T06:57:49Z</time>
      </trkpt>
      <trkpt lat="42.97533" lon="-0.00882">
        <ele>1531</ele>
        <time>2022-06-11T06:57:50Z</time>
      </trkpt>
      <trkpt lat="42.97534" lon="-0.00868">
        <ele>1531.8</ele>
        <time>2022-06-11T06:57:55Z</time>
      </trkpt>
      <trkpt lat="42.97533" lon="-0.00861">
        <ele>1532.6</ele>
        <time>2022-06-11T06:57:58Z</time>
      </trkpt>
      <trkpt lat="42.97531" lon="-0.00857">
        <ele>1533.2</ele>
        <time>2022-06-11T06:58:00Z</time>
      </trkpt>
      <trkpt lat="42.97524" lon="-0.00851">
        <ele>1533.8</ele>
        <time>2022-06-11T06:58:04Z</time>
      </trkpt>
      <trkpt lat="42.97518" lon="-0.0085">
        <ele>1534.4</ele>
        <time>2022-06-11T06:58:07Z</time>
      </trkpt>
      <trkpt lat="42.97508" lon="-0.00851">
        <ele>1535</ele>
        <time>2022-06-11T06:58:12Z</time>
      </trkpt>
      <trkpt lat="42.97502" lon="-0.0085">
        <ele>1535.4</ele>
        <time>2022-06-11T06:58:15Z</time>
      </trkpt>
      <trkpt lat="42.97497" lon="-0.0085">
        <ele>1536</ele>
        <time>2022-06-11T06:58:18Z</time>
      </trkpt>
      <trkpt lat="42.97491" lon="-0.00849">
        <ele>1536.4</ele>
        <time>2022-06-11T06:58:21Z</time>
      </trkpt>
      <trkpt lat="42.97481" lon="-0.00845">
        <ele>1537.4</ele>
        <time>2022-06-11T06:58:26Z</time>
      </trkpt>
      <trkpt lat="42.9748" lon="-0.00844">
        <ele>1537.6</ele>
        <time>2022-06-11T06:58:27Z</time>
      </trkpt>
      <trkpt lat="42.97466" lon="-0.0084">
        <ele>1538.8</ele>
        <time>2022-06-11T06:58:34Z</time>
      </trkpt>
      <trkpt lat="42.97464" lon="-0.0084">
        <ele>1539</ele>
        <time>2022-06-11T06:58:35Z</time>
      </trkpt>
      <trkpt lat="42.97452" lon="-0.00836">
        <ele>1539.8</ele>
        <time>2022-06-11T06:58:42Z</time>
      </trkpt>
      <trkpt lat="42.97447" lon="-0.00833">
        <ele>1540.4</ele>
        <time>2022-06-11T06:58:45Z</time>
      </trkpt>
      <trkpt lat="42.97442" lon="-0.00829">
        <ele>1540.8</ele>
        <time>2022-06-11T06:58:48Z</time>
      </trkpt>
      <trkpt lat="42.97435" lon="-0.00822">
        <ele>1542</ele>
        <time>2022-06-11T06:58:52Z</time>
      </trkpt>
      <trkpt lat="42.97427" lon="-0.00815">
        <ele>1543</ele>
        <time>2022-06-11T06:58:57Z</time>
      </trkpt>
      <trkpt lat="42.9742" lon="-0.00811">
        <ele>1543.6</ele>
        <time>2022-06-11T06:59:01Z</time>
      </trkpt>
      <trkpt lat="42.97414" lon="-0.00808">
        <ele>1544.4</ele>
        <time>2022-06-11T06:59:04Z</time>
      </trkpt>
      <trkpt lat="42.97407" lon="-0.00804">
        <ele>1545.4</ele>
        <time>2022-06-11T06:59:08Z</time>
      </trkpt>
      <trkpt lat="42.97405" lon="-0.00803">
        <ele>1545.6</ele>
        <time>2022-06-11T06:59:09Z</time>
      </trkpt>
      <trkpt lat="42.97401" lon="-0.00794">
        <ele>1546.4</ele>
        <time>2022-06-11T06:59:13Z</time>
      </trkpt>
      <trkpt lat="42.97401" lon="-0.00791">
        <ele>1546.6</ele>
        <time>2022-06-11T06:59:14Z</time>
      </trkpt>
      <trkpt lat="42.97402" lon="-0.00785">
        <ele>1547.2</ele>
        <time>2022-06-11T06:59:16Z</time>
      </trkpt>
      <trkpt lat="42.97404" lon="-0.00783">
        <ele>1547.6</ele>
        <time>2022-06-11T06:59:17Z</time>
      </trkpt>
      <trkpt lat="42.97406" lon="-0.00781">
        <ele>1547.8</ele>
        <time>2022-06-11T06:59:18Z</time>
      </trkpt>
      <trkpt lat="42.97409" lon="-0.0078">
        <ele>1548</ele>
        <time>2022-06-11T06:59:19Z</time>
      </trkpt>
      <trkpt lat="42.97422" lon="-0.00777">
        <ele>1548.6</ele>
        <time>2022-06-11T06:59:24Z</time>
      </trkpt>
      <trkpt lat="42.97429" lon="-0.00776">
        <ele>1549</ele>
        <time>2022-06-11T06:59:27Z</time>
      </trkpt>
      <trkpt lat="42.97437" lon="-0.00774">
        <ele>1549.8</ele>
        <time>2022-06-11T06:59:31Z</time>
      </trkpt>
      <trkpt lat="42.97445" lon="-0.00769">
        <ele>1550.2</ele>
        <time>2022-06-11T06:59:35Z</time>
      </trkpt>
      <trkpt lat="42.97454" lon="-0.00761">
        <ele>1550.8</ele>
        <time>2022-06-11T06:59:40Z</time>
      </trkpt>
      <trkpt lat="42.97457" lon="-0.00758">
        <ele>1551.2</ele>
        <time>2022-06-11T06:59:42Z</time>
      </trkpt>
      <trkpt lat="42.9746" lon="-0.00754">
        <ele>1551.8</ele>
        <time>2022-06-11T06:59:44Z</time>
      </trkpt>
      <trkpt lat="42.97464" lon="-0.00748">
        <ele>1552.8</ele>
        <time>2022-06-11T06:59:47Z</time>
      </trkpt>
      <trkpt lat="42.97467" lon="-0.00744">
        <ele>1553.2</ele>
        <time>2022-06-11T06:59:49Z</time>
      </trkpt>
      <trkpt lat="42.97471" lon="-0.00738">
        <ele>1554</ele>
        <time>2022-06-11T06:59:52Z</time>
      </trkpt>
      <trkpt lat="42.97478" lon="-0.00726">
        <ele>1555.2</ele>
        <time>2022-06-11T06:59:58Z</time>
      </trkpt>
      <trkpt lat="42.97486" lon="-0.00714">
        <ele>1556</ele>
        <time>2022-06-11T07:00:04Z</time>
      </trkpt>
      <trkpt lat="42.97488" lon="-0.00711">
        <ele>1556.6</ele>
        <time>2022-06-11T07:00:06Z</time>
      </trkpt>
      <trkpt lat="42.97491" lon="-0.00707">
        <ele>1557</ele>
        <time>2022-06-11T07:00:08Z</time>
      </trkpt>
      <trkpt lat="42.97498" lon="-0.00698">
        <ele>1558</ele>
        <time>2022-06-11T07:00:13Z</time>
      </trkpt>
      <trkpt lat="42.975" lon="-0.00696">
        <ele>1558.2</ele>
        <time>2022-06-11T07:00:14Z</time>
      </trkpt>
      <trkpt lat="42.97503" lon="-0.00684">
        <ele>1558.8</ele>
        <time>2022-06-11T07:00:18Z</time>
      </trkpt>
      <trkpt lat="42.97502" lon="-0.00682">
        <ele>1559</ele>
        <time>2022-06-11T07:00:19Z</time>
      </trkpt>
      <trkpt lat="42.97499" lon="-0.00678">
        <ele>1559.2</ele>
        <time>2022-06-11T07:00:21Z</time>
      </trkpt>
      <trkpt lat="42.97497" lon="-0.00678">
        <ele>1559.6</ele>
        <time>2022-06-11T07:00:23Z</time>
      </trkpt>
      <trkpt lat="42.97492" lon="-0.00681">
        <ele>1559.8</ele>
        <time>2022-06-11T07:00:24Z</time>
      </trkpt>
      <trkpt lat="42.97489" lon="-0.00684">
        <ele>1560.4</ele>
        <time>2022-06-11T07:00:27Z</time>
      </trkpt>
      <trkpt lat="42.97485" lon="-0.00688">
        <ele>1560.6</ele>
        <time>2022-06-11T07:00:28Z</time>
      </trkpt>
      <trkpt lat="42.97474" lon="-0.00698">
        <ele>1561.6</ele>
        <time>2022-06-11T07:00:34Z</time>
      </trkpt>
      <trkpt lat="42.97468" lon="-0.00701">
        <ele>1562</ele>
        <time>2022-06-11T07:00:37Z</time>
      </trkpt>
      <trkpt lat="42.9746" lon="-0.00703">
        <ele>1562.6</ele>
        <time>2022-06-11T07:00:41Z</time>
      </trkpt>
      <trkpt lat="42.97454" lon="-0.00704">
        <ele>1563</ele>
        <time>2022-06-11T07:00:44Z</time>
      </trkpt>
      <trkpt lat="42.97444" lon="-0.00704">
        <ele>1563.8</ele>
        <time>2022-06-11T07:00:49Z</time>
      </trkpt>
      <trkpt lat="42.97434" lon="-0.00702">
        <ele>1564.6</ele>
        <time>2022-06-11T07:00:54Z</time>
      </trkpt>
      <trkpt lat="42.97432" lon="-0.00702">
        <ele>1564.8</ele>
        <time>2022-06-11T07:00:55Z</time>
      </trkpt>
      <trkpt lat="42.97423" lon="-0.007">
        <ele>1565.8</ele>
        <time>2022-06-11T07:01:00Z</time>
      </trkpt>
      <trkpt lat="42.97415" lon="-0.00699">
        <ele>1566.8</ele>
        <time>2022-06-11T07:01:04Z</time>
      </trkpt>
      <trkpt lat="42.97414" lon="-0.00698">
        <ele>1567</ele>
        <time>2022-06-11T07:01:05Z</time>
      </trkpt>
      <trkpt lat="42.97403" lon="-0.00696">
        <ele>1568</ele>
        <time>2022-06-11T07:01:11Z</time>
      </trkpt>
      <trkpt lat="42.97394" lon="-0.00693">
        <ele>1569</ele>
        <time>2022-06-11T07:01:16Z</time>
      </trkpt>
      <trkpt lat="42.97382" lon="-0.00686">
        <ele>1570.2</ele>
        <time>2022-06-11T07:01:22Z</time>
      </trkpt>
      <trkpt lat="42.97381" lon="-0.00685">
        <ele>1570.6</ele>
        <time>2022-06-11T07:01:23Z</time>
      </trkpt>
      <trkpt lat="42.97377" lon="-0.0068">
        <ele>1571.4</ele>
        <time>2022-06-11T07:01:27Z</time>
      </trkpt>
      <trkpt lat="42.97371" lon="-0.00674">
        <ele>1572.6</ele>
        <time>2022-06-11T07:01:31Z</time>
      </trkpt>
      <trkpt lat="42.97368" lon="-0.0067">
        <ele>1572.8</ele>
        <time>2022-06-11T07:01:32Z</time>
      </trkpt>
      <trkpt lat="42.97362" lon="-0.00665">
        <ele>1573.6</ele>
        <time>2022-06-11T07:01:36Z</time>
      </trkpt>
      <trkpt lat="42.97356" lon="-0.00654">
        <ele>1574.4</ele>
        <time>2022-06-11T07:01:41Z</time>
      </trkpt>
      <trkpt lat="42.97355" lon="-0.00652">
        <ele>1574.8</ele>
        <time>2022-06-11T07:01:42Z</time>
      </trkpt>
      <trkpt lat="42.9735" lon="-0.00642">
        <ele>1576.2</ele>
        <time>2022-06-11T07:01:47Z</time>
      </trkpt>
      <trkpt lat="42.97347" lon="-0.00632">
        <ele>1577.2</ele>
        <time>2022-06-11T07:01:51Z</time>
      </trkpt>
      <trkpt lat="42.97346" lon="-0.0063">
        <ele>1577.4</ele>
        <time>2022-06-11T07:01:52Z</time>
      </trkpt>
      <trkpt lat="42.97341" lon="-0.00616">
        <ele>1578.6</ele>
        <time>2022-06-11T07:01:58Z</time>
      </trkpt>
      <trkpt lat="42.9734" lon="-0.00613">
        <ele>1578.8</ele>
        <time>2022-06-11T07:01:59Z</time>
      </trkpt>
      <trkpt lat="42.97333" lon="-0.006">
        <ele>1579.6</ele>
        <time>2022-06-11T07:02:05Z</time>
      </trkpt>
      <trkpt lat="42.97331" lon="-0.00596">
        <ele>1580</ele>
        <time>2022-06-11T07:02:07Z</time>
      </trkpt>
      <trkpt lat="42.97326" lon="-0.00586">
        <ele>1580.8</ele>
        <time>2022-06-11T07:02:11Z</time>
      </trkpt>
      <trkpt lat="42.9732" lon="-0.00578">
        <ele>1581.6</ele>
        <time>2022-06-11T07:02:15Z</time>
      </trkpt>
      <trkpt lat="42.97318" lon="-0.00576">
        <ele>1581.8</ele>
        <time>2022-06-11T07:02:16Z</time>
      </trkpt>
      <trkpt lat="42.97311" lon="-0.00567">
        <ele>1582.8</ele>
        <time>2022-06-11T07:02:22Z</time>
      </trkpt>
      <trkpt lat="42.97304" lon="-0.00558">
        <ele>1583.4</ele>
        <time>2022-06-11T07:02:26Z</time>
      </trkpt>
      <trkpt lat="42.973" lon="-0.00554">
        <ele>1583.8</ele>
        <time>2022-06-11T07:02:28Z</time>
      </trkpt>
      <trkpt lat="42.97292" lon="-0.00544">
        <ele>1584.8</ele>
        <time>2022-06-11T07:02:34Z</time>
      </trkpt>
      <trkpt lat="42.9729" lon="-0.00543">
        <ele>1585.2</ele>
        <time>2022-06-11T07:02:35Z</time>
      </trkpt>
      <trkpt lat="42.97281" lon="-0.00535">
        <ele>1585.8</ele>
        <time>2022-06-11T07:02:41Z</time>
      </trkpt>
      <trkpt lat="42.97277" lon="-0.00531">
        <ele>1587.4</ele>
        <time>2022-06-11T07:02:45Z</time>
      </trkpt>
      <trkpt lat="42.97272" lon="-0.00527">
        <ele>1587.4</ele>
        <time>2022-06-11T07:02:47Z</time>
      </trkpt>
      <trkpt lat="42.97267" lon="-0.0052">
        <ele>1588.2</ele>
        <time>2022-06-11T07:02:51Z</time>
      </trkpt>
      <trkpt lat="42.97261" lon="-0.00513">
        <ele>1589.2</ele>
        <time>2022-06-11T07:02:55Z</time>
      </trkpt>
      <trkpt lat="42.97254" lon="-0.00503">
        <ele>1590.4</ele>
        <time>2022-06-11T07:03:01Z</time>
      </trkpt>
      <trkpt lat="42.97249" lon="-0.00495">
        <ele>1591</ele>
        <time>2022-06-11T07:03:05Z</time>
      </trkpt>
      <trkpt lat="42.97246" lon="-0.00492">
        <ele>1591.4</ele>
        <time>2022-06-11T07:03:07Z</time>
      </trkpt>
      <trkpt lat="42.97236" lon="-0.00479">
        <ele>1592.6</ele>
        <time>2022-06-11T07:03:14Z</time>
      </trkpt>
      <trkpt lat="42.97231" lon="-0.00473">
        <ele>1593.6</ele>
        <time>2022-06-11T07:03:17Z</time>
      </trkpt>
      <trkpt lat="42.97222" lon="-0.00462">
        <ele>1594.6</ele>
        <time>2022-06-11T07:03:23Z</time>
      </trkpt>
      <trkpt lat="42.97215" lon="-0.00453">
        <ele>1595.8</ele>
        <time>2022-06-11T07:03:29Z</time>
      </trkpt>
      <trkpt lat="42.97208" lon="-0.00443">
        <ele>1596.8</ele>
        <time>2022-06-11T07:03:34Z</time>
      </trkpt>
      <trkpt lat="42.97201" lon="-0.00433">
        <ele>1597.6</ele>
        <time>2022-06-11T07:03:39Z</time>
      </trkpt>
      <trkpt lat="42.97198" lon="-0.00429">
        <ele>1598</ele>
        <time>2022-06-11T07:03:41Z</time>
      </trkpt>
      <trkpt lat="42.97189" lon="-0.0042">
        <ele>1599</ele>
        <time>2022-06-11T07:03:47Z</time>
      </trkpt>
      <trkpt lat="42.97184" lon="-0.0041">
        <ele>1600.2</ele>
        <time>2022-06-11T07:03:52Z</time>
      </trkpt>
      <trkpt lat="42.97178" lon="-0.00396">
        <ele>1601.2</ele>
        <time>2022-06-11T07:03:58Z</time>
      </trkpt>
      <trkpt lat="42.97173" lon="-0.00382">
        <ele>1602.2</ele>
        <time>2022-06-11T07:04:04Z</time>
      </trkpt>
      <trkpt lat="42.97169" lon="-0.00373">
        <ele>1603</ele>
        <time>2022-06-11T07:04:08Z</time>
      </trkpt>
      <trkpt lat="42.97167" lon="-0.00369">
        <ele>1603.2</ele>
        <time>2022-06-11T07:04:10Z</time>
      </trkpt>
      <trkpt lat="42.97163" lon="-0.00358">
        <ele>1604</ele>
        <time>2022-06-11T07:04:15Z</time>
      </trkpt>
      <trkpt lat="42.97155" lon="-0.00343">
        <ele>1605.2</ele>
        <time>2022-06-11T07:04:22Z</time>
      </trkpt>
      <trkpt lat="42.97152" lon="-0.00335">
        <ele>1606</ele>
        <time>2022-06-11T07:04:26Z</time>
      </trkpt>
      <trkpt lat="42.9715" lon="-0.00333">
        <ele>1606.4</ele>
        <time>2022-06-11T07:04:27Z</time>
      </trkpt>
      <trkpt lat="42.9715" lon="-0.00331">
        <ele>1606.4</ele>
        <time>2022-06-11T07:04:28Z</time>
      </trkpt>
      <trkpt lat="42.97149" lon="-0.00321">
        <ele>1607.4</ele>
        <time>2022-06-11T07:04:32Z</time>
      </trkpt>
      <trkpt lat="42.9715" lon="-0.00306">
        <ele>1608.2</ele>
        <time>2022-06-11T07:04:39Z</time>
      </trkpt>
      <trkpt lat="42.9715" lon="-0.00304">
        <ele>1608.4</ele>
        <time>2022-06-11T07:04:40Z</time>
      </trkpt>
      <trkpt lat="42.97152" lon="-0.00297">
        <ele>1608.4</ele>
        <time>2022-06-11T07:04:43Z</time>
      </trkpt>
      <trkpt lat="42.97155" lon="-0.00296">
        <ele>1608.4</ele>
        <time>2022-06-11T07:04:45Z</time>
      </trkpt>
      <trkpt lat="42.97161" lon="-0.00302">
        <ele>1608.2</ele>
        <time>2022-06-11T07:04:52Z</time>
      </trkpt>
      <trkpt lat="42.97161" lon="-0.00306">
        <ele>1608.2</ele>
        <time>2022-06-11T07:04:53Z</time>
      </trkpt>
      <trkpt lat="42.97158" lon="-0.0031">
        <ele>1608</ele>
        <time>2022-06-11T07:04:56Z</time>
      </trkpt>
      <trkpt lat="42.97153" lon="-0.00314">
        <ele>1608</ele>
        <time>2022-06-11T07:05:00Z</time>
      </trkpt>
      <trkpt lat="42.9715" lon="-0.00313">
        <ele>1608</ele>
        <time>2022-06-11T07:05:02Z</time>
      </trkpt>
      <trkpt lat="42.97147" lon="-0.00313">
        <ele>1608</ele>
        <time>2022-06-11T07:05:05Z</time>
      </trkpt>
      <trkpt lat="42.97146" lon="-0.00316">
        <ele>1608</ele>
        <time>2022-06-11T07:05:07Z</time>
      </trkpt>
      <trkpt lat="42.97152" lon="-0.00333">
        <ele>1608</ele>
        <time>2022-06-11T07:05:12Z</time>
      </trkpt>
      <trkpt lat="42.97166" lon="-0.00365">
        <ele>1607.6</ele>
        <time>2022-06-11T07:05:19Z</time>
      </trkpt>
      <trkpt lat="42.9717" lon="-0.00372">
        <ele>1607</ele>
        <time>2022-06-11T07:05:21Z</time>
      </trkpt>
      <trkpt lat="42.97173" lon="-0.00381">
        <ele>1606</ele>
        <time>2022-06-11T07:05:24Z</time>
      </trkpt>
      <trkpt lat="42.97173" lon="-0.00383">
        <ele>1605</ele>
        <time>2022-06-11T07:05:27Z</time>
      </trkpt>
      <trkpt lat="42.97173" lon="-0.00383">
        <ele>1604.8</ele>
        <time>2022-06-11T07:05:28Z</time>
      </trkpt>
      <trkpt lat="42.97173" lon="-0.00383">
        <ele>1603.8</ele>
        <time>2022-06-11T07:05:32Z</time>
      </trkpt>
      <trkpt lat="42.97172" lon="-0.00384">
        <ele>1603.2</ele>
        <time>2022-06-11T07:05:45Z</time>
      </trkpt>
      <trkpt lat="42.97172" lon="-0.00384">
        <ele>1602.8</ele>
        <time>2022-06-11T07:05:50Z</time>
      </trkpt>
      <trkpt lat="42.97172" lon="-0.00383">
        <ele>1602.8</ele>
        <time>2022-06-11T07:05:53Z</time>
      </trkpt>
      <trkpt lat="42.97169" lon="-0.00378">
        <ele>1602.8</ele>
        <time>2022-06-11T07:05:56Z</time>
      </trkpt>
      <trkpt lat="42.97159" lon="-0.00365">
        <ele>1603</ele>
        <time>2022-06-11T07:06:02Z</time>
      </trkpt>
      <trkpt lat="42.97143" lon="-0.00347">
        <ele>1603</ele>
        <time>2022-06-11T07:06:09Z</time>
      </trkpt>
      <trkpt lat="42.97132" lon="-0.00332">
        <ele>1603.2</ele>
        <time>2022-06-11T07:06:17Z</time>
      </trkpt>
      <trkpt lat="42.97125" lon="-0.00315">
        <ele>1603.8</ele>
        <time>2022-06-11T07:06:23Z</time>
      </trkpt>
      <trkpt lat="42.97124" lon="-0.00313">
        <ele>1603.8</ele>
        <time>2022-06-11T07:06:24Z</time>
      </trkpt>
      <trkpt lat="42.97114" lon="-0.00302">
        <ele>1604.4</ele>
        <time>2022-06-11T07:06:30Z</time>
      </trkpt>
      <trkpt lat="42.97103" lon="-0.00298">
        <ele>1604.8</ele>
        <time>2022-06-11T07:06:35Z</time>
      </trkpt>
      <trkpt lat="42.971" lon="-0.00298">
        <ele>1604.6</ele>
        <time>2022-06-11T07:06:37Z</time>
      </trkpt>
      <trkpt lat="42.97086" lon="-0.00298">
        <ele>1605.4</ele>
        <time>2022-06-11T07:06:45Z</time>
      </trkpt>
      <trkpt lat="42.97082" lon="-0.003">
        <ele>1605.6</ele>
        <time>2022-06-11T07:06:46Z</time>
      </trkpt>
      <trkpt lat="42.97074" lon="-0.00302">
        <ele>1606.8</ele>
        <time>2022-06-11T07:06:51Z</time>
      </trkpt>
      <trkpt lat="42.97072" lon="-0.00303">
        <ele>1607</ele>
        <time>2022-06-11T07:06:52Z</time>
      </trkpt>
      <trkpt lat="42.97064" lon="-0.00309">
        <ele>1607.8</ele>
        <time>2022-06-11T07:06:57Z</time>
      </trkpt>
      <trkpt lat="42.9706" lon="-0.00312">
        <ele>1608.4</ele>
        <time>2022-06-11T07:07:00Z</time>
      </trkpt>
      <trkpt lat="42.97056" lon="-0.00315">
        <ele>1609.2</ele>
        <time>2022-06-11T07:07:03Z</time>
      </trkpt>
      <trkpt lat="42.97049" lon="-0.00321">
        <ele>1610</ele>
        <time>2022-06-11T07:07:08Z</time>
      </trkpt>
      <trkpt lat="42.97048" lon="-0.00323">
        <ele>1610.2</ele>
        <time>2022-06-11T07:07:09Z</time>
      </trkpt>
      <trkpt lat="42.97045" lon="-0.00327">
        <ele>1611.2</ele>
        <time>2022-06-11T07:07:12Z</time>
      </trkpt>
      <trkpt lat="42.97042" lon="-0.0033">
        <ele>1611.6</ele>
        <time>2022-06-11T07:07:14Z</time>
      </trkpt>
      <trkpt lat="42.9704" lon="-0.00333">
        <ele>1612.4</ele>
        <time>2022-06-11T07:07:16Z</time>
      </trkpt>
      <trkpt lat="42.97034" lon="-0.00341">
        <ele>1613.6</ele>
        <time>2022-06-11T07:07:21Z</time>
      </trkpt>
      <trkpt lat="42.97033" lon="-0.00342">
        <ele>1613.8</ele>
        <time>2022-06-11T07:07:22Z</time>
      </trkpt>
      <trkpt lat="42.9703" lon="-0.00347">
        <ele>1614.8</ele>
        <time>2022-06-11T07:07:25Z</time>
      </trkpt>
      <trkpt lat="42.97026" lon="-0.00354">
        <ele>1615.6</ele>
        <time>2022-06-11T07:07:29Z</time>
      </trkpt>
      <trkpt lat="42.97023" lon="-0.00359">
        <ele>1616.8</ele>
        <time>2022-06-11T07:07:32Z</time>
      </trkpt>
      <trkpt lat="42.97021" lon="-0.00364">
        <ele>1617.6</ele>
        <time>2022-06-11T07:07:35Z</time>
      </trkpt>
      <trkpt lat="42.97018" lon="-0.00367">
        <ele>1618.2</ele>
        <time>2022-06-11T07:07:37Z</time>
      </trkpt>
      <trkpt lat="42.97014" lon="-0.00373">
        <ele>1619.2</ele>
        <time>2022-06-11T07:07:41Z</time>
      </trkpt>
      <trkpt lat="42.97013" lon="-0.00377">
        <ele>1619.8</ele>
        <time>2022-06-11T07:07:43Z</time>
      </trkpt>
      <trkpt lat="42.97013" lon="-0.00377">
        <ele>1620.2</ele>
        <time>2022-06-11T07:07:44Z</time>
      </trkpt>
      <trkpt lat="42.97007" lon="-0.00388">
        <ele>1621.6</ele>
        <time>2022-06-11T07:07:50Z</time>
      </trkpt>
      <trkpt lat="42.97006" lon="-0.00391">
        <ele>1622</ele>
        <time>2022-06-11T07:07:52Z</time>
      </trkpt>
      <trkpt lat="42.97002" lon="-0.00395">
        <ele>1622.8</ele>
        <time>2022-06-11T07:07:55Z</time>
      </trkpt>
      <trkpt lat="42.96999" lon="-0.00398">
        <ele>1623.8</ele>
        <time>2022-06-11T07:07:59Z</time>
      </trkpt>
      <trkpt lat="42.96994" lon="-0.00401">
        <ele>1624.2</ele>
        <time>2022-06-11T07:08:02Z</time>
      </trkpt>
      <trkpt lat="42.9699" lon="-0.00404">
        <ele>1624.8</ele>
        <time>2022-06-11T07:08:05Z</time>
      </trkpt>
      <trkpt lat="42.96983" lon="-0.00406">
        <ele>1625.8</ele>
        <time>2022-06-11T07:08:10Z</time>
      </trkpt>
      <trkpt lat="42.96982" lon="-0.00407">
        <ele>1625.8</ele>
        <time>2022-06-11T07:08:11Z</time>
      </trkpt>
      <trkpt lat="42.96973" lon="-0.00413">
        <ele>1626.8</ele>
        <time>2022-06-11T07:08:18Z</time>
      </trkpt>
      <trkpt lat="42.96971" lon="-0.00414">
        <ele>1627</ele>
        <time>2022-06-11T07:08:19Z</time>
      </trkpt>
      <trkpt lat="42.96963" lon="-0.00418">
        <ele>1627.8</ele>
        <time>2022-06-11T07:08:25Z</time>
      </trkpt>
      <trkpt lat="42.96962" lon="-0.00418">
        <ele>1627.8</ele>
        <time>2022-06-11T07:08:26Z</time>
      </trkpt>
      <trkpt lat="42.96951" lon="-0.00423">
        <ele>1629</ele>
        <time>2022-06-11T07:08:34Z</time>
      </trkpt>
      <trkpt lat="42.96943" lon="-0.00428">
        <ele>1630</ele>
        <time>2022-06-11T07:08:40Z</time>
      </trkpt>
      <trkpt lat="42.96936" lon="-0.00432">
        <ele>1630.8</ele>
        <time>2022-06-11T07:08:45Z</time>
      </trkpt>
      <trkpt lat="42.96936" lon="-0.00432">
        <ele>1631.2</ele>
        <time>2022-06-11T07:08:46Z</time>
      </trkpt>
      <trkpt lat="42.9692" lon="-0.00439">
        <ele>1632.4</ele>
        <time>2022-06-11T07:08:55Z</time>
      </trkpt>
      <trkpt lat="42.96919" lon="-0.00439">
        <ele>1632.4</ele>
        <time>2022-06-11T07:08:56Z</time>
      </trkpt>
      <trkpt lat="42.96909" lon="-0.00441">
        <ele>1633.4</ele>
        <time>2022-06-11T07:09:02Z</time>
      </trkpt>
      <trkpt lat="42.96905" lon="-0.00443">
        <ele>1633.8</ele>
        <time>2022-06-11T07:09:05Z</time>
      </trkpt>
      <trkpt lat="42.96897" lon="-0.00446">
        <ele>1634.6</ele>
        <time>2022-06-11T07:09:10Z</time>
      </trkpt>
      <trkpt lat="42.96894" lon="-0.00448">
        <ele>1634.8</ele>
        <time>2022-06-11T07:09:12Z</time>
      </trkpt>
      <trkpt lat="42.96888" lon="-0.0045">
        <ele>1635.4</ele>
        <time>2022-06-11T07:09:16Z</time>
      </trkpt>
      <trkpt lat="42.96883" lon="-0.00453">
        <ele>1635.6</ele>
        <time>2022-06-11T07:09:19Z</time>
      </trkpt>
      <trkpt lat="42.96872" lon="-0.00458">
        <ele>1636.4</ele>
        <time>2022-06-11T07:09:26Z</time>
      </trkpt>
      <trkpt lat="42.96867" lon="-0.0046">
        <ele>1636.8</ele>
        <time>2022-06-11T07:09:29Z</time>
      </trkpt>
      <trkpt lat="42.96857" lon="-0.00464">
        <ele>1637.8</ele>
        <time>2022-06-11T07:09:35Z</time>
      </trkpt>
      <trkpt lat="42.96852" lon="-0.00467">
        <ele>1638.2</ele>
        <time>2022-06-11T07:09:38Z</time>
      </trkpt>
      <trkpt lat="42.96843" lon="-0.00472">
        <ele>1638.8</ele>
        <time>2022-06-11T07:09:43Z</time>
      </trkpt>
      <trkpt lat="42.96839" lon="-0.00474">
        <ele>1639.2</ele>
        <time>2022-06-11T07:09:46Z</time>
      </trkpt>
      <trkpt lat="42.96833" lon="-0.0048">
        <ele>1640</ele>
        <time>2022-06-11T07:09:50Z</time>
      </trkpt>
      <trkpt lat="42.96826" lon="-0.00487">
        <ele>1640.8</ele>
        <time>2022-06-11T07:09:55Z</time>
      </trkpt>
      <trkpt lat="42.96824" lon="-0.0049">
        <ele>1641.2</ele>
        <time>2022-06-11T07:09:57Z</time>
      </trkpt>
      <trkpt lat="42.96814" lon="-0.00503">
        <ele>1642.2</ele>
        <time>2022-06-11T07:10:05Z</time>
      </trkpt>
      <trkpt lat="42.96813" lon="-0.00504">
        <ele>1642.2</ele>
        <time>2022-06-11T07:10:06Z</time>
      </trkpt>
      <trkpt lat="42.96807" lon="-0.00512">
        <ele>1642.8</ele>
        <time>2022-06-11T07:10:11Z</time>
      </trkpt>
      <trkpt lat="42.96805" lon="-0.00514">
        <ele>1643.2</ele>
        <time>2022-06-11T07:10:12Z</time>
      </trkpt>
      <trkpt lat="42.96797" lon="-0.00523">
        <ele>1644.2</ele>
        <time>2022-06-11T07:10:19Z</time>
      </trkpt>
      <trkpt lat="42.96792" lon="-0.00538">
        <ele>1645.2</ele>
        <time>2022-06-11T07:10:26Z</time>
      </trkpt>
      <trkpt lat="42.96791" lon="-0.0054">
        <ele>1645.4</ele>
        <time>2022-06-11T07:10:27Z</time>
      </trkpt>
      <trkpt lat="42.96789" lon="-0.00553">
        <ele>1646.4</ele>
        <time>2022-06-11T07:10:33Z</time>
      </trkpt>
      <trkpt lat="42.96789" lon="-0.00555">
        <ele>1646.6</ele>
        <time>2022-06-11T07:10:34Z</time>
      </trkpt>
      <trkpt lat="42.96788" lon="-0.00557">
        <ele>1647.2</ele>
        <time>2022-06-11T07:10:39Z</time>
      </trkpt>
      <trkpt lat="42.96788" lon="-0.00557">
        <ele>1647.2</ele>
        <time>2022-06-11T07:10:50Z</time>
      </trkpt>
      <trkpt lat="42.96784" lon="-0.00561">
        <ele>1646.8</ele>
        <time>2022-06-11T07:11:23Z</time>
      </trkpt>
      <trkpt lat="42.96777" lon="-0.00572">
        <ele>1647.2</ele>
        <time>2022-06-11T07:11:29Z</time>
      </trkpt>
      <trkpt lat="42.96772" lon="-0.00578">
        <ele>1647.6</ele>
        <time>2022-06-11T07:11:33Z</time>
      </trkpt>
      <trkpt lat="42.96766" lon="-0.00582">
        <ele>1648.2</ele>
        <time>2022-06-11T07:11:37Z</time>
      </trkpt>
      <trkpt lat="42.96761" lon="-0.00581">
        <ele>1648.4</ele>
        <time>2022-06-11T07:11:40Z</time>
      </trkpt>
      <trkpt lat="42.96756" lon="-0.00577">
        <ele>1648.6</ele>
        <time>2022-06-11T07:11:43Z</time>
      </trkpt>
      <trkpt lat="42.96755" lon="-0.00575">
        <ele>1648.6</ele>
        <time>2022-06-11T07:11:44Z</time>
      </trkpt>
      <trkpt lat="42.96755" lon="-0.00568">
        <ele>1649</ele>
        <time>2022-06-11T07:11:48Z</time>
      </trkpt>
      <trkpt lat="42.9676" lon="-0.00547">
        <ele>1649.4</ele>
        <time>2022-06-11T07:11:55Z</time>
      </trkpt>
      <trkpt lat="42.96768" lon="-0.00531">
        <ele>1649.6</ele>
        <time>2022-06-11T07:12:03Z</time>
      </trkpt>
      <trkpt lat="42.96772" lon="-0.00523">
        <ele>1649.6</ele>
        <time>2022-06-11T07:12:07Z</time>
      </trkpt>
      <trkpt lat="42.96776" lon="-0.00514">
        <ele>1650</ele>
        <time>2022-06-11T07:12:11Z</time>
      </trkpt>
      <trkpt lat="42.96784" lon="-0.00499">
        <ele>1650.6</ele>
        <time>2022-06-11T07:12:18Z</time>
      </trkpt>
      <trkpt lat="42.96784" lon="-0.00494">
        <ele>1650.8</ele>
        <time>2022-06-11T07:12:20Z</time>
      </trkpt>
      <trkpt lat="42.96785" lon="-0.00489">
        <ele>1651</ele>
        <time>2022-06-11T07:12:22Z</time>
      </trkpt>
      <trkpt lat="42.96785" lon="-0.00485">
        <ele>1651</ele>
        <time>2022-06-11T07:12:24Z</time>
      </trkpt>
      <trkpt lat="42.96787" lon="-0.00468">
        <ele>1651.8</ele>
        <time>2022-06-11T07:12:30Z</time>
      </trkpt>
      <trkpt lat="42.96788" lon="-0.00455">
        <ele>1652.4</ele>
        <time>2022-06-11T07:12:35Z</time>
      </trkpt>
      <trkpt lat="42.96787" lon="-0.0044">
        <ele>1653</ele>
        <time>2022-06-11T07:12:41Z</time>
      </trkpt>
      <trkpt lat="42.96787" lon="-0.00437">
        <ele>1653</ele>
        <time>2022-06-11T07:12:42Z</time>
      </trkpt>
      <trkpt lat="42.9679" lon="-0.00418">
        <ele>1653.4</ele>
        <time>2022-06-11T07:12:50Z</time>
      </trkpt>
      <trkpt lat="42.96798" lon="-0.00402">
        <ele>1653.8</ele>
        <time>2022-06-11T07:12:58Z</time>
      </trkpt>
      <trkpt lat="42.96799" lon="-0.00399">
        <ele>1654</ele>
        <time>2022-06-11T07:13:00Z</time>
      </trkpt>
      <trkpt lat="42.96803" lon="-0.00381">
        <ele>1654.8</ele>
        <time>2022-06-11T07:13:08Z</time>
      </trkpt>
      <trkpt lat="42.96805" lon="-0.00377">
        <ele>1655</ele>
        <time>2022-06-11T07:13:10Z</time>
      </trkpt>
      <trkpt lat="42.96811" lon="-0.00361">
        <ele>1655.4</ele>
        <time>2022-06-11T07:13:17Z</time>
      </trkpt>
      <trkpt lat="42.96817" lon="-0.00347">
        <ele>1655.8</ele>
        <time>2022-06-11T07:13:23Z</time>
      </trkpt>
      <trkpt lat="42.9682" lon="-0.00342">
        <ele>1656</ele>
        <time>2022-06-11T07:13:25Z</time>
      </trkpt>
      <trkpt lat="42.96827" lon="-0.00328">
        <ele>1656.6</ele>
        <time>2022-06-11T07:13:31Z</time>
      </trkpt>
      <trkpt lat="42.96832" lon="-0.00307">
        <ele>1656.4</ele>
        <time>2022-06-11T07:13:39Z</time>
      </trkpt>
      <trkpt lat="42.96833" lon="-0.00287">
        <ele>1657</ele>
        <time>2022-06-11T07:13:46Z</time>
      </trkpt>
      <trkpt lat="42.96834" lon="-0.00276">
        <ele>1657.2</ele>
        <time>2022-06-11T07:13:50Z</time>
      </trkpt>
      <trkpt lat="42.96836" lon="-0.00247">
        <ele>1658</ele>
        <time>2022-06-11T07:13:59Z</time>
      </trkpt>
      <trkpt lat="42.96838" lon="-0.00222">
        <ele>1658.4</ele>
        <time>2022-06-11T07:14:07Z</time>
      </trkpt>
      <trkpt lat="42.96838" lon="-0.00196">
        <ele>1659</ele>
        <time>2022-06-11T07:14:15Z</time>
      </trkpt>
      <trkpt lat="42.96837" lon="-0.0019">
        <ele>1659</ele>
        <time>2022-06-11T07:14:17Z</time>
      </trkpt>
      <trkpt lat="42.96837" lon="-0.00169">
        <ele>1659.4</ele>
        <time>2022-06-11T07:14:24Z</time>
      </trkpt>
      <trkpt lat="42.96838" lon="-0.0015">
        <ele>1659.8</ele>
        <time>2022-06-11T07:14:31Z</time>
      </trkpt>
      <trkpt lat="42.96839" lon="-0.00142">
        <ele>1660</ele>
        <time>2022-06-11T07:14:34Z</time>
      </trkpt>
      <trkpt lat="42.96843" lon="-0.00118">
        <ele>1660.4</ele>
        <time>2022-06-11T07:14:43Z</time>
      </trkpt>
      <trkpt lat="42.96845" lon="-0.00105">
        <ele>1660.8</ele>
        <time>2022-06-11T07:14:48Z</time>
      </trkpt>
      <trkpt lat="42.96846" lon="-0.001">
        <ele>1660.8</ele>
        <time>2022-06-11T07:14:50Z</time>
      </trkpt>
      <trkpt lat="42.96847" lon="-0.00084">
        <ele>1662</ele>
        <time>2022-06-11T07:14:56Z</time>
      </trkpt>
      <trkpt lat="42.96848" lon="-0.00081">
        <ele>1662</ele>
        <time>2022-06-11T07:14:57Z</time>
      </trkpt>
      <trkpt lat="42.96853" lon="-0.00065">
        <ele>1663</ele>
        <time>2022-06-11T07:15:04Z</time>
      </trkpt>
      <trkpt lat="42.96854" lon="-0.00062">
        <ele>1662.8</ele>
        <time>2022-06-11T07:15:05Z</time>
      </trkpt>
      <trkpt lat="42.96861" lon="-0.00048">
        <ele>1663.6</ele>
        <time>2022-06-11T07:15:11Z</time>
      </trkpt>
      <trkpt lat="42.96863" lon="-0.00043">
        <ele>1663.8</ele>
        <time>2022-06-11T07:15:13Z</time>
      </trkpt>
      <trkpt lat="42.96871" lon="-0.00024">
        <ele>1664.4</ele>
        <time>2022-06-11T07:15:21Z</time>
      </trkpt>
      <trkpt lat="42.96871" lon="-0.00021">
        <ele>1664.6</ele>
        <time>2022-06-11T07:15:22Z</time>
      </trkpt>
      <trkpt lat="42.9687" lon="-0.00011">
        <ele>1664.8</ele>
        <time>2022-06-11T07:15:25Z</time>
      </trkpt>
      <trkpt lat="42.96868" lon="0.00021">
        <ele>1664.8</ele>
        <time>2022-06-11T07:15:34Z</time>
      </trkpt>
      <trkpt lat="42.96869" lon="0.00048">
        <ele>1664.4</ele>
        <time>2022-06-11T07:15:41Z</time>
      </trkpt>
      <trkpt lat="42.96874" lon="0.00076">
        <ele>1664.2</ele>
        <time>2022-06-11T07:15:48Z</time>
      </trkpt>
      <trkpt lat="42.96871" lon="0.0009">
        <ele>1664.2</ele>
        <time>2022-06-11T07:15:52Z</time>
      </trkpt>
      <trkpt lat="42.96862" lon="0.00108">
        <ele>1664.2</ele>
        <time>2022-06-11T07:15:58Z</time>
      </trkpt>
      <trkpt lat="42.96851" lon="0.00133">
        <ele>1664.6</ele>
        <time>2022-06-11T07:16:06Z</time>
      </trkpt>
      <trkpt lat="42.96846" lon="0.00143">
        <ele>1664.8</ele>
        <time>2022-06-11T07:16:10Z</time>
      </trkpt>
      <trkpt lat="42.96843" lon="0.00153">
        <ele>1665</ele>
        <time>2022-06-11T07:16:14Z</time>
      </trkpt>
      <trkpt lat="42.96844" lon="0.00171">
        <ele>1665.8</ele>
        <time>2022-06-11T07:16:20Z</time>
      </trkpt>
      <trkpt lat="42.96845" lon="0.00178">
        <ele>1666</ele>
        <time>2022-06-11T07:16:22Z</time>
      </trkpt>
      <trkpt lat="42.96854" lon="0.00211">
        <ele>1666.6</ele>
        <time>2022-06-11T07:16:32Z</time>
      </trkpt>
      <trkpt lat="42.96861" lon="0.00232">
        <ele>1666.8</ele>
        <time>2022-06-11T07:16:38Z</time>
      </trkpt>
      <trkpt lat="42.96862" lon="0.00239">
        <ele>1666.8</ele>
        <time>2022-06-11T07:16:40Z</time>
      </trkpt>
      <trkpt lat="42.96865" lon="0.00255">
        <ele>1667</ele>
        <time>2022-06-11T07:16:45Z</time>
      </trkpt>
      <trkpt lat="42.96873" lon="0.00273">
        <ele>1667.4</ele>
        <time>2022-06-11T07:16:52Z</time>
      </trkpt>
      <trkpt lat="42.96892" lon="0.0029">
        <ele>1667.8</ele>
        <time>2022-06-11T07:17:00Z</time>
      </trkpt>
      <trkpt lat="42.96895" lon="0.00293">
        <ele>1667.8</ele>
        <time>2022-06-11T07:17:01Z</time>
      </trkpt>
      <trkpt lat="42.96902" lon="0.00304">
        <ele>1668</ele>
        <time>2022-06-11T07:17:04Z</time>
      </trkpt>
      <trkpt lat="42.96903" lon="0.0032">
        <ele>1667.8</ele>
        <time>2022-06-11T07:17:08Z</time>
      </trkpt>
      <trkpt lat="42.96899" lon="0.00335">
        <ele>1667.6</ele>
        <time>2022-06-11T07:17:13Z</time>
      </trkpt>
      <trkpt lat="42.96895" lon="0.00355">
        <ele>1667.6</ele>
        <time>2022-06-11T07:17:19Z</time>
      </trkpt>
      <trkpt lat="42.96895" lon="0.00362">
        <ele>1667.6</ele>
        <time>2022-06-11T07:17:21Z</time>
      </trkpt>
      <trkpt lat="42.96892" lon="0.00367">
        <ele>1667.8</ele>
        <time>2022-06-11T07:17:23Z</time>
      </trkpt>
      <trkpt lat="42.96889" lon="0.00383">
        <ele>1668.4</ele>
        <time>2022-06-11T07:17:29Z</time>
      </trkpt>
      <trkpt lat="42.96889" lon="0.00386">
        <ele>1668.6</ele>
        <time>2022-06-11T07:17:30Z</time>
      </trkpt>
      <trkpt lat="42.96887" lon="0.00404">
        <ele>1669.2</ele>
        <time>2022-06-11T07:17:35Z</time>
      </trkpt>
      <trkpt lat="42.96887" lon="0.00434">
        <ele>1669.6</ele>
        <time>2022-06-11T07:17:43Z</time>
      </trkpt>
      <trkpt lat="42.96887" lon="0.00442">
        <ele>1669.8</ele>
        <time>2022-06-11T07:17:45Z</time>
      </trkpt>
      <trkpt lat="42.9689" lon="0.00465">
        <ele>1670.2</ele>
        <time>2022-06-11T07:17:51Z</time>
      </trkpt>
      <trkpt lat="42.96885" lon="0.00491">
        <ele>1670.4</ele>
        <time>2022-06-11T07:17:59Z</time>
      </trkpt>
      <trkpt lat="42.9688" lon="0.00511">
        <ele>1670.6</ele>
        <time>2022-06-11T07:18:05Z</time>
      </trkpt>
      <trkpt lat="42.96871" lon="0.0053">
        <ele>1670.6</ele>
        <time>2022-06-11T07:18:11Z</time>
      </trkpt>
      <trkpt lat="42.96866" lon="0.00544">
        <ele>1670.4</ele>
        <time>2022-06-11T07:18:15Z</time>
      </trkpt>
      <trkpt lat="42.96865" lon="0.00552">
        <ele>1670.4</ele>
        <time>2022-06-11T07:18:17Z</time>
      </trkpt>
      <trkpt lat="42.96859" lon="0.00577">
        <ele>1670</ele>
        <time>2022-06-11T07:18:24Z</time>
      </trkpt>
      <trkpt lat="42.96856" lon="0.006">
        <ele>1669.8</ele>
        <time>2022-06-11T07:18:31Z</time>
      </trkpt>
      <trkpt lat="42.96853" lon="0.00626">
        <ele>1668.8</ele>
        <time>2022-06-11T07:18:39Z</time>
      </trkpt>
      <trkpt lat="42.96852" lon="0.00629">
        <ele>1668.6</ele>
        <time>2022-06-11T07:18:40Z</time>
      </trkpt>
      <trkpt lat="42.96848" lon="0.00634">
        <ele>1668.4</ele>
        <time>2022-06-11T07:18:44Z</time>
      </trkpt>
      <trkpt lat="42.96844" lon="0.00634">
        <ele>1667.8</ele>
        <time>2022-06-11T07:18:48Z</time>
      </trkpt>
      <trkpt lat="42.96844" lon="0.00634">
        <ele>1667.8</ele>
        <time>2022-06-11T07:18:49Z</time>
      </trkpt>
      <trkpt lat="42.96844" lon="0.00634">
        <ele>1666.8</ele>
        <time>2022-06-11T07:19:16Z</time>
      </trkpt>
      <trkpt lat="42.96845" lon="0.00634">
        <ele>1666.8</ele>
        <time>2022-06-11T07:19:42Z</time>
      </trkpt>
      <trkpt lat="42.96848" lon="0.0064">
        <ele>1666.8</ele>
        <time>2022-06-11T07:19:45Z</time>
      </trkpt>
      <trkpt lat="42.96852" lon="0.00656">
        <ele>1666.8</ele>
        <time>2022-06-11T07:19:50Z</time>
      </trkpt>
      <trkpt lat="42.96851" lon="0.00682">
        <ele>1666</ele>
        <time>2022-06-11T07:19:57Z</time>
      </trkpt>
      <trkpt lat="42.96852" lon="0.00689">
        <ele>1665.6</ele>
        <time>2022-06-11T07:19:59Z</time>
      </trkpt>
      <trkpt lat="42.96851" lon="0.00699">
        <ele>1664.2</ele>
        <time>2022-06-11T07:20:02Z</time>
      </trkpt>
      <trkpt lat="42.96851" lon="0.00705">
        <ele>1663.2</ele>
        <time>2022-06-11T07:20:04Z</time>
      </trkpt>
      <trkpt lat="42.96849" lon="0.00715">
        <ele>1662.2</ele>
        <time>2022-06-11T07:20:07Z</time>
      </trkpt>
      <trkpt lat="42.96847" lon="0.00717">
        <ele>1662</ele>
        <time>2022-06-11T07:20:08Z</time>
      </trkpt>
      <trkpt lat="42.96844" lon="0.00719">
        <ele>1660.4</ele>
        <time>2022-06-11T07:20:11Z</time>
      </trkpt>
      <trkpt lat="42.96844" lon="0.0072">
        <ele>1660.2</ele>
        <time>2022-06-11T07:20:12Z</time>
      </trkpt>
      <trkpt lat="42.9684" lon="0.00723">
        <ele>1659.4</ele>
        <time>2022-06-11T07:20:20Z</time>
      </trkpt>
      <trkpt lat="42.96839" lon="0.00724">
        <ele>1659.4</ele>
        <time>2022-06-11T07:20:21Z</time>
      </trkpt>
      <trkpt lat="42.96828" lon="0.00731">
        <ele>1659.2</ele>
        <time>2022-06-11T07:20:26Z</time>
      </trkpt>
      <trkpt lat="42.96823" lon="0.00742">
        <ele>1659</ele>
        <time>2022-06-11T07:20:32Z</time>
      </trkpt>
      <trkpt lat="42.96823" lon="0.00742">
        <ele>1659.8</ele>
        <time>2022-06-11T07:20:37Z</time>
      </trkpt>
      <trkpt lat="42.96822" lon="0.00745">
        <ele>1660</ele>
        <time>2022-06-11T07:20:42Z</time>
      </trkpt>
      <trkpt lat="42.96822" lon="0.0075">
        <ele>1660.4</ele>
        <time>2022-06-11T07:20:50Z</time>
      </trkpt>
      <trkpt lat="42.96822" lon="0.0075">
        <ele>1660.4</ele>
        <time>2022-06-11T07:20:51Z</time>
      </trkpt>
      <trkpt lat="42.96823" lon="0.00752">
        <ele>1660.8</ele>
        <time>2022-06-11T07:20:54Z</time>
      </trkpt>
      <trkpt lat="42.96821" lon="0.00754">
        <ele>1661.6</ele>
        <time>2022-06-11T07:21:02Z</time>
      </trkpt>
      <trkpt lat="42.96816" lon="0.00757">
        <ele>1661.8</ele>
        <time>2022-06-11T07:21:05Z</time>
      </trkpt>
      <trkpt lat="42.96811" lon="0.00763">
        <ele>1661.2</ele>
        <time>2022-06-11T07:21:11Z</time>
      </trkpt>
      <trkpt lat="42.96804" lon="0.00769">
        <ele>1661</ele>
        <time>2022-06-11T07:21:17Z</time>
      </trkpt>
      <trkpt lat="42.96802" lon="0.00771">
        <ele>1661</ele>
        <time>2022-06-11T07:21:18Z</time>
      </trkpt>
      <trkpt lat="42.96798" lon="0.00781">
        <ele>1660.8</ele>
        <time>2022-06-11T07:21:23Z</time>
      </trkpt>
      <trkpt lat="42.96799" lon="0.00782">
        <ele>1660.6</ele>
        <time>2022-06-11T07:21:27Z</time>
      </trkpt>
      <trkpt lat="42.96799" lon="0.00783">
        <ele>1660.8</ele>
        <time>2022-06-11T07:21:32Z</time>
      </trkpt>
      <trkpt lat="42.96797" lon="0.00791">
        <ele>1661.8</ele>
        <time>2022-06-11T07:21:42Z</time>
      </trkpt>
      <trkpt lat="42.96795" lon="0.00798">
        <ele>1662.2</ele>
        <time>2022-06-11T07:21:49Z</time>
      </trkpt>
      <trkpt lat="42.96789" lon="0.00812">
        <ele>1662.4</ele>
        <time>2022-06-11T07:21:56Z</time>
      </trkpt>
      <trkpt lat="42.96788" lon="0.00814">
        <ele>1662.4</ele>
        <time>2022-06-11T07:21:57Z</time>
      </trkpt>
      <trkpt lat="42.96782" lon="0.00829">
        <ele>1662.6</ele>
        <time>2022-06-11T07:22:03Z</time>
      </trkpt>
      <trkpt lat="42.96775" lon="0.00849">
        <ele>1663.2</ele>
        <time>2022-06-11T07:22:10Z</time>
      </trkpt>
      <trkpt lat="42.96771" lon="0.0086">
        <ele>1663.4</ele>
        <time>2022-06-11T07:22:14Z</time>
      </trkpt>
      <trkpt lat="42.96768" lon="0.00868">
        <ele>1663.6</ele>
        <time>2022-06-11T07:22:17Z</time>
      </trkpt>
      <trkpt lat="42.96758" lon="0.00889">
        <ele>1663.4</ele>
        <time>2022-06-11T07:22:26Z</time>
      </trkpt>
      <trkpt lat="42.96748" lon="0.00907">
        <ele>1663.4</ele>
        <time>2022-06-11T07:22:34Z</time>
      </trkpt>
      <trkpt lat="42.96742" lon="0.00914">
        <ele>1663.6</ele>
        <time>2022-06-11T07:22:37Z</time>
      </trkpt>
      <trkpt lat="42.96735" lon="0.00926">
        <ele>1664</ele>
        <time>2022-06-11T07:22:42Z</time>
      </trkpt>
      <trkpt lat="42.96732" lon="0.00931">
        <ele>1664.4</ele>
        <time>2022-06-11T07:22:45Z</time>
      </trkpt>
      <trkpt lat="42.96729" lon="0.00936">
        <ele>1664.6</ele>
        <time>2022-06-11T07:22:48Z</time>
      </trkpt>
      <trkpt lat="42.96723" lon="0.00944">
        <ele>1665.2</ele>
        <time>2022-06-11T07:22:53Z</time>
      </trkpt>
      <trkpt lat="42.96714" lon="0.00964">
        <ele>1665</ele>
        <time>2022-06-11T07:23:00Z</time>
      </trkpt>
      <trkpt lat="42.96699" lon="0.0099">
        <ele>1664.6</ele>
        <time>2022-06-11T07:23:08Z</time>
      </trkpt>
      <trkpt lat="42.96687" lon="0.01011">
        <ele>1664.4</ele>
        <time>2022-06-11T07:23:15Z</time>
      </trkpt>
      <trkpt lat="42.96681" lon="0.01038">
        <ele>1664</ele>
        <time>2022-06-11T07:23:23Z</time>
      </trkpt>
      <trkpt lat="42.96678" lon="0.01057">
        <ele>1663.4</ele>
        <time>2022-06-11T07:23:27Z</time>
      </trkpt>
      <trkpt lat="42.96676" lon="0.01061">
        <ele>1663.2</ele>
        <time>2022-06-11T07:23:28Z</time>
      </trkpt>
      <trkpt lat="42.96668" lon="0.01074">
        <ele>1662.6</ele>
        <time>2022-06-11T07:23:32Z</time>
      </trkpt>
      <trkpt lat="42.96664" lon="0.01096">
        <ele>1662.2</ele>
        <time>2022-06-11T07:23:39Z</time>
      </trkpt>
      <trkpt lat="42.96664" lon="0.01096">
        <ele>1662.6</ele>
        <time>2022-06-11T07:23:42Z</time>
      </trkpt>
      <trkpt lat="42.96664" lon="0.01097">
        <ele>1662.2</ele>
        <time>2022-06-11T07:23:51Z</time>
      </trkpt>
      <trkpt lat="42.96664" lon="0.01097">
        <ele>1662</ele>
        <time>2022-06-11T07:23:57Z</time>
      </trkpt>
      <trkpt lat="42.96664" lon="0.01097">
        <ele>1661.8</ele>
        <time>2022-06-11T07:23:59Z</time>
      </trkpt>
      <trkpt lat="42.96662" lon="0.01099">
        <ele>1661.8</ele>
        <time>2022-06-11T07:24:01Z</time>
      </trkpt>
      <trkpt lat="42.96658" lon="0.01103">
        <ele>1661.2</ele>
        <time>2022-06-11T07:24:05Z</time>
      </trkpt>
      <trkpt lat="42.96656" lon="0.01106">
        <ele>1660.6</ele>
        <time>2022-06-11T07:24:07Z</time>
      </trkpt>
      <trkpt lat="42.96655" lon="0.01116">
        <ele>1659.6</ele>
        <time>2022-06-11T07:24:13Z</time>
      </trkpt>
      <trkpt lat="42.96656" lon="0.01119">
        <ele>1659.4</ele>
        <time>2022-06-11T07:24:15Z</time>
      </trkpt>
      <trkpt lat="42.96656" lon="0.01121">
        <ele>1659</ele>
        <time>2022-06-11T07:24:16Z</time>
      </trkpt>
      <trkpt lat="42.96655" lon="0.01125">
        <ele>1658.4</ele>
        <time>2022-06-11T07:24:20Z</time>
      </trkpt>
      <trkpt lat="42.96655" lon="0.01125">
        <ele>1658.4</ele>
        <time>2022-06-11T07:24:21Z</time>
      </trkpt>
      <trkpt lat="42.96654" lon="0.01128">
        <ele>1657.6</ele>
        <time>2022-06-11T07:24:25Z</time>
      </trkpt>
      <trkpt lat="42.96653" lon="0.0113">
        <ele>1657.4</ele>
        <time>2022-06-11T07:24:26Z</time>
      </trkpt>
      <trkpt lat="42.96653" lon="0.01133">
        <ele>1657.2</ele>
        <time>2022-06-11T07:24:28Z</time>
      </trkpt>
      <trkpt lat="42.96651" lon="0.01136">
        <ele>1656.8</ele>
        <time>2022-06-11T07:24:30Z</time>
      </trkpt>
      <trkpt lat="42.96648" lon="0.01137">
        <ele>1656.4</ele>
        <time>2022-06-11T07:24:32Z</time>
      </trkpt>
      <trkpt lat="42.96639" lon="0.0114">
        <ele>1655.2</ele>
        <time>2022-06-11T07:24:36Z</time>
      </trkpt>
      <trkpt lat="42.96633" lon="0.01147">
        <ele>1653.8</ele>
        <time>2022-06-11T07:24:39Z</time>
      </trkpt>
      <trkpt lat="42.9663" lon="0.01151">
        <ele>1653</ele>
        <time>2022-06-11T07:24:41Z</time>
      </trkpt>
      <trkpt lat="42.96629" lon="0.01154">
        <ele>1652.6</ele>
        <time>2022-06-11T07:24:42Z</time>
      </trkpt>
      <trkpt lat="42.96629" lon="0.0116">
        <ele>1651.2</ele>
        <time>2022-06-11T07:24:44Z</time>
      </trkpt>
      <trkpt lat="42.96629" lon="0.01167">
        <ele>1650</ele>
        <time>2022-06-11T07:24:46Z</time>
      </trkpt>
      <trkpt lat="42.96626" lon="0.01183">
        <ele>1649</ele>
        <time>2022-06-11T07:24:50Z</time>
      </trkpt>
      <trkpt lat="42.96624" lon="0.01194">
        <ele>1648.2</ele>
        <time>2022-06-11T07:24:53Z</time>
      </trkpt>
      <trkpt lat="42.96624" lon="0.01198">
        <ele>1647.8</ele>
        <time>2022-06-11T07:24:54Z</time>
      </trkpt>
      <trkpt lat="42.96622" lon="0.01216">
        <ele>1646.4</ele>
        <time>2022-06-11T07:24:58Z</time>
      </trkpt>
      <trkpt lat="42.9662" lon="0.01226">
        <ele>1645.6</ele>
        <time>2022-06-11T07:25:00Z</time>
      </trkpt>
      <trkpt lat="42.96619" lon="0.01232">
        <ele>1644.8</ele>
        <time>2022-06-11T07:25:01Z</time>
      </trkpt>
      <trkpt lat="42.96611" lon="0.01251">
        <ele>1644</ele>
        <time>2022-06-11T07:25:04Z</time>
      </trkpt>
      <trkpt lat="42.96608" lon="0.01256">
        <ele>1643.8</ele>
        <time>2022-06-11T07:25:05Z</time>
      </trkpt>
      <trkpt lat="42.9659" lon="0.0128">
        <ele>1642.4</ele>
        <time>2022-06-11T07:25:10Z</time>
      </trkpt>
      <trkpt lat="42.96569" lon="0.01309">
        <ele>1641.2</ele>
        <time>2022-06-11T07:25:16Z</time>
      </trkpt>
      <trkpt lat="42.96564" lon="0.01319">
        <ele>1640.8</ele>
        <time>2022-06-11T07:25:18Z</time>
      </trkpt>
      <trkpt lat="42.96556" lon="0.01339">
        <ele>1640</ele>
        <time>2022-06-11T07:25:22Z</time>
      </trkpt>
      <trkpt lat="42.96554" lon="0.01343">
        <ele>1640</ele>
        <time>2022-06-11T07:25:23Z</time>
      </trkpt>
      <trkpt lat="42.96548" lon="0.01355">
        <ele>1639</ele>
        <time>2022-06-11T07:25:26Z</time>
      </trkpt>
      <trkpt lat="42.96541" lon="0.0136">
        <ele>1638.4</ele>
        <time>2022-06-11T07:25:28Z</time>
      </trkpt>
      <trkpt lat="42.96535" lon="0.01363">
        <ele>1637.8</ele>
        <time>2022-06-11T07:25:30Z</time>
      </trkpt>
      <trkpt lat="42.96534" lon="0.01363">
        <ele>1637.6</ele>
        <time>2022-06-11T07:25:32Z</time>
      </trkpt>
      <trkpt lat="42.96534" lon="0.01363">
        <ele>1636.8</ele>
        <time>2022-06-11T07:25:36Z</time>
      </trkpt>
      <trkpt lat="42.9653" lon="0.01364">
        <ele>1636.4</ele>
        <time>2022-06-11T07:25:46Z</time>
      </trkpt>
      <trkpt lat="42.96523" lon="0.01369">
        <ele>1636.4</ele>
        <time>2022-06-11T07:25:50Z</time>
      </trkpt>
      <trkpt lat="42.96518" lon="0.0137">
        <ele>1636.4</ele>
        <time>2022-06-11T07:25:52Z</time>
      </trkpt>
      <trkpt lat="42.96505" lon="0.01374">
        <ele>1636.4</ele>
        <time>2022-06-11T07:25:56Z</time>
      </trkpt>
      <trkpt lat="42.9649" lon="0.01378">
        <ele>1636</ele>
        <time>2022-06-11T07:26:01Z</time>
      </trkpt>
      <trkpt lat="42.96471" lon="0.01389">
        <ele>1635.4</ele>
        <time>2022-06-11T07:26:07Z</time>
      </trkpt>
      <trkpt lat="42.96468" lon="0.01392">
        <ele>1635.4</ele>
        <time>2022-06-11T07:26:08Z</time>
      </trkpt>
      <trkpt lat="42.96454" lon="0.01406">
        <ele>1635</ele>
        <time>2022-06-11T07:26:14Z</time>
      </trkpt>
      <trkpt lat="42.96442" lon="0.01427">
        <ele>1634.8</ele>
        <time>2022-06-11T07:26:21Z</time>
      </trkpt>
      <trkpt lat="42.96434" lon="0.01449">
        <ele>1635.2</ele>
        <time>2022-06-11T07:26:28Z</time>
      </trkpt>
      <trkpt lat="42.96425" lon="0.01467">
        <ele>1635</ele>
        <time>2022-06-11T07:26:35Z</time>
      </trkpt>
      <trkpt lat="42.96424" lon="0.01472">
        <ele>1634.8</ele>
        <time>2022-06-11T07:26:40Z</time>
      </trkpt>
      <trkpt lat="42.96419" lon="0.01488">
        <ele>1634.4</ele>
        <time>2022-06-11T07:26:45Z</time>
      </trkpt>
      <trkpt lat="42.96418" lon="0.01493">
        <ele>1634.4</ele>
        <time>2022-06-11T07:26:46Z</time>
      </trkpt>
      <trkpt lat="42.96406" lon="0.01517">
        <ele>1634</ele>
        <time>2022-06-11T07:26:51Z</time>
      </trkpt>
      <trkpt lat="42.96398" lon="0.01534">
        <ele>1633.2</ele>
        <time>2022-06-11T07:26:55Z</time>
      </trkpt>
      <trkpt lat="42.96393" lon="0.01541">
        <ele>1633</ele>
        <time>2022-06-11T07:26:57Z</time>
      </trkpt>
      <trkpt lat="42.96387" lon="0.01561">
        <ele>1632.6</ele>
        <time>2022-06-11T07:27:02Z</time>
      </trkpt>
      <trkpt lat="42.96382" lon="0.01579">
        <ele>1632.2</ele>
        <time>2022-06-11T07:27:08Z</time>
      </trkpt>
      <trkpt lat="42.9638" lon="0.01587">
        <ele>1632</ele>
        <time>2022-06-11T07:27:10Z</time>
      </trkpt>
      <trkpt lat="42.96372" lon="0.01606">
        <ele>1631.8</ele>
        <time>2022-06-11T07:27:14Z</time>
      </trkpt>
      <trkpt lat="42.96363" lon="0.0163">
        <ele>1631.2</ele>
        <time>2022-06-11T07:27:20Z</time>
      </trkpt>
      <trkpt lat="42.96358" lon="0.01641">
        <ele>1631</ele>
        <time>2022-06-11T07:27:23Z</time>
      </trkpt>
      <trkpt lat="42.96345" lon="0.01664">
        <ele>1630.4</ele>
        <time>2022-06-11T07:27:29Z</time>
      </trkpt>
      <trkpt lat="42.96328" lon="0.01686">
        <ele>1630</ele>
        <time>2022-06-11T07:27:34Z</time>
      </trkpt>
      <trkpt lat="42.96322" lon="0.01693">
        <ele>1629.6</ele>
        <time>2022-06-11T07:27:36Z</time>
      </trkpt>
      <trkpt lat="42.96309" lon="0.01708">
        <ele>1629</ele>
        <time>2022-06-11T07:27:40Z</time>
      </trkpt>
      <trkpt lat="42.963" lon="0.0172">
        <ele>1628.6</ele>
        <time>2022-06-11T07:27:43Z</time>
      </trkpt>
      <trkpt lat="42.96291" lon="0.01732">
        <ele>1627.4</ele>
        <time>2022-06-11T07:27:46Z</time>
      </trkpt>
      <trkpt lat="42.96277" lon="0.01746">
        <ele>1626.6</ele>
        <time>2022-06-11T07:27:51Z</time>
      </trkpt>
      <trkpt lat="42.9627" lon="0.01752">
        <ele>1626.4</ele>
        <time>2022-06-11T07:27:54Z</time>
      </trkpt>
      <trkpt lat="42.96263" lon="0.01758">
        <ele>1626.2</ele>
        <time>2022-06-11T07:27:58Z</time>
      </trkpt>
      <trkpt lat="42.96258" lon="0.01764">
        <ele>1625.8</ele>
        <time>2022-06-11T07:28:05Z</time>
      </trkpt>
      <trkpt lat="42.96253" lon="0.01773">
        <ele>1625.8</ele>
        <time>2022-06-11T07:28:12Z</time>
      </trkpt>
      <trkpt lat="42.96246" lon="0.01789">
        <ele>1626</ele>
        <time>2022-06-11T07:28:19Z</time>
      </trkpt>
      <trkpt lat="42.96239" lon="0.0181">
        <ele>1625.2</ele>
        <time>2022-06-11T07:28:25Z</time>
      </trkpt>
      <trkpt lat="42.96237" lon="0.01814">
        <ele>1625</ele>
        <time>2022-06-11T07:28:26Z</time>
      </trkpt>
      <trkpt lat="42.96229" lon="0.01831">
        <ele>1624.4</ele>
        <time>2022-06-11T07:28:31Z</time>
      </trkpt>
      <trkpt lat="42.96226" lon="0.01837">
        <ele>1624.2</ele>
        <time>2022-06-11T07:28:33Z</time>
      </trkpt>
      <trkpt lat="42.96222" lon="0.01848">
        <ele>1624</ele>
        <time>2022-06-11T07:28:36Z</time>
      </trkpt>
      <trkpt lat="42.96203" lon="0.01879">
        <ele>1623.6</ele>
        <time>2022-06-11T07:28:46Z</time>
      </trkpt>
      <trkpt lat="42.96198" lon="0.0189">
        <ele>1623.6</ele>
        <time>2022-06-11T07:28:51Z</time>
      </trkpt>
      <trkpt lat="42.96192" lon="0.01904">
        <ele>1623.8</ele>
        <time>2022-06-11T07:28:58Z</time>
      </trkpt>
      <trkpt lat="42.96184" lon="0.01921">
        <ele>1624.8</ele>
        <time>2022-06-11T07:29:06Z</time>
      </trkpt>
      <trkpt lat="42.96176" lon="0.01928">
        <ele>1625.2</ele>
        <time>2022-06-11T07:29:12Z</time>
      </trkpt>
      <trkpt lat="42.96175" lon="0.01929">
        <ele>1625.4</ele>
        <time>2022-06-11T07:29:13Z</time>
      </trkpt>
      <trkpt lat="42.96175" lon="0.01929">
        <ele>1625.8</ele>
        <time>2022-06-11T07:29:20Z</time>
      </trkpt>
      <trkpt lat="42.96175" lon="0.0193">
        <ele>1625.6</ele>
        <time>2022-06-11T07:30:05Z</time>
      </trkpt>
      <trkpt lat="42.96174" lon="0.01939">
        <ele>1625.6</ele>
        <time>2022-06-11T07:30:11Z</time>
      </trkpt>
      <trkpt lat="42.96172" lon="0.01949">
        <ele>1625.4</ele>
        <time>2022-06-11T07:30:17Z</time>
      </trkpt>
      <trkpt lat="42.96164" lon="0.01971">
        <ele>1625</ele>
        <time>2022-06-11T07:30:22Z</time>
      </trkpt>
      <trkpt lat="42.96159" lon="0.01988">
        <ele>1623.4</ele>
        <time>2022-06-11T07:30:26Z</time>
      </trkpt>
      <trkpt lat="42.96155" lon="0.01997">
        <ele>1622.6</ele>
        <time>2022-06-11T07:30:28Z</time>
      </trkpt>
      <trkpt lat="42.96154" lon="0.02001">
        <ele>1622.4</ele>
        <time>2022-06-11T07:30:29Z</time>
      </trkpt>
      <trkpt lat="42.9615" lon="0.02014">
        <ele>1621.2</ele>
        <time>2022-06-11T07:30:32Z</time>
      </trkpt>
      <trkpt lat="42.96148" lon="0.02024">
        <ele>1620.2</ele>
        <time>2022-06-11T07:30:34Z</time>
      </trkpt>
      <trkpt lat="42.96145" lon="0.0203">
        <ele>1620</ele>
        <time>2022-06-11T07:30:35Z</time>
      </trkpt>
      <trkpt lat="42.96142" lon="0.02035">
        <ele>1619.6</ele>
        <time>2022-06-11T07:30:36Z</time>
      </trkpt>
      <trkpt lat="42.96135" lon="0.02044">
        <ele>1618.6</ele>
        <time>2022-06-11T07:30:38Z</time>
      </trkpt>
      <trkpt lat="42.96131" lon="0.02049">
        <ele>1618.4</ele>
        <time>2022-06-11T07:30:39Z</time>
      </trkpt>
      <trkpt lat="42.96124" lon="0.02058">
        <ele>1617.4</ele>
        <time>2022-06-11T07:30:41Z</time>
      </trkpt>
      <trkpt lat="42.96114" lon="0.02067">
        <ele>1616.8</ele>
        <time>2022-06-11T07:30:44Z</time>
      </trkpt>
      <trkpt lat="42.96105" lon="0.02078">
        <ele>1616.4</ele>
        <time>2022-06-11T07:30:47Z</time>
      </trkpt>
      <trkpt lat="42.9609" lon="0.02094">
        <ele>1615.4</ele>
        <time>2022-06-11T07:30:52Z</time>
      </trkpt>
      <trkpt lat="42.9608" lon="0.02106">
        <ele>1614.4</ele>
        <time>2022-06-11T07:30:56Z</time>
      </trkpt>
      <trkpt lat="42.96076" lon="0.0211">
        <ele>1613.8</ele>
        <time>2022-06-11T07:30:58Z</time>
      </trkpt>
      <trkpt lat="42.96076" lon="0.0211">
        <ele>1613.4</ele>
        <time>2022-06-11T07:31:01Z</time>
      </trkpt>
      <trkpt lat="42.96076" lon="0.0211">
        <ele>1612.8</ele>
        <time>2022-06-11T07:31:02Z</time>
      </trkpt>
      <trkpt lat="42.96071" lon="0.02115">
        <ele>1611.8</ele>
        <time>2022-06-11T07:31:38Z</time>
      </trkpt>
      <trkpt lat="42.96068" lon="0.02117">
        <ele>1611.8</ele>
        <time>2022-06-11T07:31:39Z</time>
      </trkpt>
      <trkpt lat="42.96056" lon="0.02129">
        <ele>1611.8</ele>
        <time>2022-06-11T07:31:43Z</time>
      </trkpt>
      <trkpt lat="42.96033" lon="0.02151">
        <ele>1611.2</ele>
        <time>2022-06-11T07:31:50Z</time>
      </trkpt>
      <trkpt lat="42.96017" lon="0.0217">
        <ele>1611</ele>
        <time>2022-06-11T07:31:56Z</time>
      </trkpt>
      <trkpt lat="42.96009" lon="0.02182">
        <ele>1610.6</ele>
        <time>2022-06-11T07:31:59Z</time>
      </trkpt>
      <trkpt lat="42.96003" lon="0.0219">
        <ele>1610.6</ele>
        <time>2022-06-11T07:32:01Z</time>
      </trkpt>
      <trkpt lat="42.95998" lon="0.02194">
        <ele>1610.4</ele>
        <time>2022-06-11T07:32:02Z</time>
      </trkpt>
      <trkpt lat="42.95975" lon="0.02213">
        <ele>1609.4</ele>
        <time>2022-06-11T07:32:08Z</time>
      </trkpt>
      <trkpt lat="42.9596" lon="0.02223">
        <ele>1608.4</ele>
        <time>2022-06-11T07:32:12Z</time>
      </trkpt>
      <trkpt lat="42.95956" lon="0.02225">
        <ele>1608.2</ele>
        <time>2022-06-11T07:32:13Z</time>
      </trkpt>
      <trkpt lat="42.95952" lon="0.02227">
        <ele>1608.2</ele>
        <time>2022-06-11T07:32:14Z</time>
      </trkpt>
      <trkpt lat="42.95928" lon="0.02242">
        <ele>1607.4</ele>
        <time>2022-06-11T07:32:20Z</time>
      </trkpt>
      <trkpt lat="42.95918" lon="0.02249">
        <ele>1606</ele>
        <time>2022-06-11T07:32:24Z</time>
      </trkpt>
      <trkpt lat="42.95915" lon="0.0225">
        <ele>1605.8</ele>
        <time>2022-06-11T07:32:25Z</time>
      </trkpt>
      <trkpt lat="42.95895" lon="0.02259">
        <ele>1604.8</ele>
        <time>2022-06-11T07:32:32Z</time>
      </trkpt>
      <trkpt lat="42.95887" lon="0.02261">
        <ele>1604.6</ele>
        <time>2022-06-11T07:32:34Z</time>
      </trkpt>
      <trkpt lat="42.95864" lon="0.02274">
        <ele>1604.4</ele>
        <time>2022-06-11T07:32:41Z</time>
      </trkpt>
      <trkpt lat="42.95858" lon="0.02277">
        <ele>1603.8</ele>
        <time>2022-06-11T07:32:43Z</time>
      </trkpt>
      <trkpt lat="42.9585" lon="0.02282">
        <ele>1602.8</ele>
        <time>2022-06-11T07:32:46Z</time>
      </trkpt>
      <trkpt lat="42.95846" lon="0.02283">
        <ele>1602.6</ele>
        <time>2022-06-11T07:32:47Z</time>
      </trkpt>
      <trkpt lat="42.95833" lon="0.02289">
        <ele>1601.6</ele>
        <time>2022-06-11T07:32:51Z</time>
      </trkpt>
      <trkpt lat="42.95828" lon="0.02293">
        <ele>1601.2</ele>
        <time>2022-06-11T07:32:53Z</time>
      </trkpt>
      <trkpt lat="42.95821" lon="0.02298">
        <ele>1600.6</ele>
        <time>2022-06-11T07:32:57Z</time>
      </trkpt>
      <trkpt lat="42.95818" lon="0.02299">
        <ele>1600.4</ele>
        <time>2022-06-11T07:32:58Z</time>
      </trkpt>
      <trkpt lat="42.95802" lon="0.02314">
        <ele>1600</ele>
        <time>2022-06-11T07:33:06Z</time>
      </trkpt>
      <trkpt lat="42.95786" lon="0.02331">
        <ele>1600.4</ele>
        <time>2022-06-11T07:33:15Z</time>
      </trkpt>
      <trkpt lat="42.95778" lon="0.02346">
        <ele>1600.6</ele>
        <time>2022-06-11T07:33:21Z</time>
      </trkpt>
      <trkpt lat="42.95768" lon="0.02355">
        <ele>1600.4</ele>
        <time>2022-06-11T07:33:26Z</time>
      </trkpt>
      <trkpt lat="42.95754" lon="0.0236">
        <ele>1600.2</ele>
        <time>2022-06-11T07:33:32Z</time>
      </trkpt>
      <trkpt lat="42.95742" lon="0.02361">
        <ele>1600</ele>
        <time>2022-06-11T07:33:39Z</time>
      </trkpt>
      <trkpt lat="42.95742" lon="0.02361">
        <ele>1600</ele>
        <time>2022-06-11T07:33:40Z</time>
      </trkpt>
      <trkpt lat="42.95741" lon="0.02363">
        <ele>1600.2</ele>
        <time>2022-06-11T07:33:47Z</time>
      </trkpt>
      <trkpt lat="42.9574" lon="0.02364">
        <ele>1600.6</ele>
        <time>2022-06-11T07:33:54Z</time>
      </trkpt>
      <trkpt lat="42.9574" lon="0.02364">
        <ele>1601</ele>
        <time>2022-06-11T07:34:02Z</time>
      </trkpt>
      <trkpt lat="42.95738" lon="0.02363">
        <ele>1601</ele>
        <time>2022-06-11T07:34:08Z</time>
      </trkpt>
      <trkpt lat="42.95737" lon="0.02362">
        <ele>1601</ele>
        <time>2022-06-11T07:34:12Z</time>
      </trkpt>
      <trkpt lat="42.9573" lon="0.02359">
        <ele>1601</ele>
        <time>2022-06-11T07:34:15Z</time>
      </trkpt>
      <trkpt lat="42.95709" lon="0.0236">
        <ele>1600</ele>
        <time>2022-06-11T07:34:23Z</time>
      </trkpt>
      <trkpt lat="42.95701" lon="0.02363">
        <ele>1599.8</ele>
        <time>2022-06-11T07:34:26Z</time>
      </trkpt>
      <trkpt lat="42.95695" lon="0.02364">
        <ele>1599.6</ele>
        <time>2022-06-11T07:34:28Z</time>
      </trkpt>
      <trkpt lat="42.9567" lon="0.02367">
        <ele>1598.6</ele>
        <time>2022-06-11T07:34:35Z</time>
      </trkpt>
      <trkpt lat="42.95655" lon="0.02363">
        <ele>1597.8</ele>
        <time>2022-06-11T07:34:41Z</time>
      </trkpt>
      <trkpt lat="42.95648" lon="0.02363">
        <ele>1597.8</ele>
        <time>2022-06-11T07:34:44Z</time>
      </trkpt>
      <trkpt lat="42.9564" lon="0.02365">
        <ele>1597.8</ele>
        <time>2022-06-11T07:34:47Z</time>
      </trkpt>
      <trkpt lat="42.95636" lon="0.02366">
        <ele>1597.6</ele>
        <time>2022-06-11T07:34:49Z</time>
      </trkpt>
      <trkpt lat="42.95635" lon="0.02364">
        <ele>1597.6</ele>
        <time>2022-06-11T07:34:51Z</time>
      </trkpt>
      <trkpt lat="42.95634" lon="0.02365">
        <ele>1597.6</ele>
        <time>2022-06-11T07:34:52Z</time>
      </trkpt>
      <trkpt lat="42.95634" lon="0.02365">
        <ele>1596.8</ele>
        <time>2022-06-11T07:34:58Z</time>
      </trkpt>
      <trkpt lat="42.95631" lon="0.02365">
        <ele>1596.8</ele>
        <time>2022-06-11T07:35:01Z</time>
      </trkpt>
      <trkpt lat="42.95626" lon="0.02367">
        <ele>1596.6</ele>
        <time>2022-06-11T07:35:03Z</time>
      </trkpt>
      <trkpt lat="42.95621" lon="0.0237">
        <ele>1596.6</ele>
        <time>2022-06-11T07:35:05Z</time>
      </trkpt>
      <trkpt lat="42.95612" lon="0.02373">
        <ele>1596</ele>
        <time>2022-06-11T07:35:09Z</time>
      </trkpt>
      <trkpt lat="42.95604" lon="0.02376">
        <ele>1595.2</ele>
        <time>2022-06-11T07:35:13Z</time>
      </trkpt>
      <trkpt lat="42.95599" lon="0.02377">
        <ele>1595</ele>
        <time>2022-06-11T07:35:15Z</time>
      </trkpt>
      <trkpt lat="42.95581" lon="0.02373">
        <ele>1594.6</ele>
        <time>2022-06-11T07:35:23Z</time>
      </trkpt>
      <trkpt lat="42.95577" lon="0.02372">
        <ele>1594.4</ele>
        <time>2022-06-11T07:35:28Z</time>
      </trkpt>
      <trkpt lat="42.95574" lon="0.02371">
        <ele>1594.4</ele>
        <time>2022-06-11T07:35:35Z</time>
      </trkpt>
      <trkpt lat="42.95571" lon="0.0237">
        <ele>1594.8</ele>
        <time>2022-06-11T07:35:41Z</time>
      </trkpt>
      <trkpt lat="42.9557" lon="0.0237">
        <ele>1595.2</ele>
        <time>2022-06-11T07:35:49Z</time>
      </trkpt>
      <trkpt lat="42.95569" lon="0.02369">
        <ele>1594.8</ele>
        <time>2022-06-11T07:36:01Z</time>
      </trkpt>
      <trkpt lat="42.95556" lon="0.02373">
        <ele>1594.6</ele>
        <time>2022-06-11T07:36:08Z</time>
      </trkpt>
      <trkpt lat="42.95554" lon="0.02375">
        <ele>1594</ele>
        <time>2022-06-11T07:36:14Z</time>
      </trkpt>
      <trkpt lat="42.95554" lon="0.02374">
        <ele>1593.8</ele>
        <time>2022-06-11T07:36:16Z</time>
      </trkpt>
      <trkpt lat="42.9555" lon="0.02377">
        <ele>1593.6</ele>
        <time>2022-06-11T07:36:21Z</time>
      </trkpt>
      <trkpt lat="42.9554" lon="0.02378">
        <ele>1593</ele>
        <time>2022-06-11T07:36:26Z</time>
      </trkpt>
      <trkpt lat="42.95536" lon="0.02377">
        <ele>1592.8</ele>
        <time>2022-06-11T07:36:28Z</time>
      </trkpt>
      <trkpt lat="42.95528" lon="0.02378">
        <ele>1592.8</ele>
        <time>2022-06-11T07:36:32Z</time>
      </trkpt>
      <trkpt lat="42.95512" lon="0.02385">
        <ele>1592.6</ele>
        <time>2022-06-11T07:36:39Z</time>
      </trkpt>
      <trkpt lat="42.955" lon="0.02389">
        <ele>1592.2</ele>
        <time>2022-06-11T07:36:45Z</time>
      </trkpt>
      <trkpt lat="42.95492" lon="0.02393">
        <ele>1591.6</ele>
        <time>2022-06-11T07:36:49Z</time>
      </trkpt>
      <trkpt lat="42.95489" lon="0.02394">
        <ele>1591.4</ele>
        <time>2022-06-11T07:36:51Z</time>
      </trkpt>
      <trkpt lat="42.95486" lon="0.02395">
        <ele>1590.6</ele>
        <time>2022-06-11T07:36:56Z</time>
      </trkpt>
      <trkpt lat="42.95481" lon="0.02398">
        <ele>1589.8</ele>
        <time>2022-06-11T07:37:04Z</time>
      </trkpt>
      <trkpt lat="42.9548" lon="0.02399">
        <ele>1589.6</ele>
        <time>2022-06-11T07:37:06Z</time>
      </trkpt>
      <trkpt lat="42.9548" lon="0.02399">
        <ele>1589.2</ele>
        <time>2022-06-11T07:37:10Z</time>
      </trkpt>
      <trkpt lat="42.95475" lon="0.02401">
        <ele>1588.6</ele>
        <time>2022-06-11T07:37:18Z</time>
      </trkpt>
      <trkpt lat="42.95474" lon="0.02402">
        <ele>1588.2</ele>
        <time>2022-06-11T07:37:20Z</time>
      </trkpt>
      <trkpt lat="42.95473" lon="0.02403">
        <ele>1587.4</ele>
        <time>2022-06-11T07:37:24Z</time>
      </trkpt>
      <trkpt lat="42.95472" lon="0.02403">
        <ele>1587.4</ele>
        <time>2022-06-11T07:37:25Z</time>
      </trkpt>
      <trkpt lat="42.95469" lon="0.02404">
        <ele>1586.2</ele>
        <time>2022-06-11T07:37:30Z</time>
      </trkpt>
      <trkpt lat="42.95469" lon="0.02404">
        <ele>1585.8</ele>
        <time>2022-06-11T07:37:33Z</time>
      </trkpt>
      <trkpt lat="42.95468" lon="0.02404">
        <ele>1585.2</ele>
        <time>2022-06-11T07:37:38Z</time>
      </trkpt>
      <trkpt lat="42.95467" lon="0.02405">
        <ele>1585.2</ele>
        <time>2022-06-11T07:37:39Z</time>
      </trkpt>
      <trkpt lat="42.95465" lon="0.02406">
        <ele>1585</ele>
        <time>2022-06-11T07:37:47Z</time>
      </trkpt>
      <trkpt lat="42.95456" lon="0.02414">
        <ele>1584</ele>
        <time>2022-06-11T07:38:13Z</time>
      </trkpt>
      <trkpt lat="42.95454" lon="0.02415">
        <ele>1584</ele>
        <time>2022-06-11T07:38:14Z</time>
      </trkpt>
      <trkpt lat="42.95446" lon="0.02423">
        <ele>1583</ele>
        <time>2022-06-11T07:38:22Z</time>
      </trkpt>
      <trkpt lat="42.95445" lon="0.02423">
        <ele>1583</ele>
        <time>2022-06-11T07:38:23Z</time>
      </trkpt>
      <trkpt lat="42.95443" lon="0.02425">
        <ele>1582</ele>
        <time>2022-06-11T07:38:29Z</time>
      </trkpt>
      <trkpt lat="42.95443" lon="0.02425">
        <ele>1581.8</ele>
        <time>2022-06-11T07:38:33Z</time>
      </trkpt>
      <trkpt lat="42.95443" lon="0.02425">
        <ele>1581.6</ele>
        <time>2022-06-11T07:38:36Z</time>
      </trkpt>
      <trkpt lat="42.95443" lon="0.02425">
        <ele>1581.4</ele>
        <time>2022-06-11T07:39:00Z</time>
      </trkpt>
      <trkpt lat="42.95441" lon="0.0243">
        <ele>1581.6</ele>
        <time>2022-06-11T07:39:14Z</time>
      </trkpt>
      <trkpt lat="42.95441" lon="0.02431">
        <ele>1581.6</ele>
        <time>2022-06-11T07:39:15Z</time>
      </trkpt>
      <trkpt lat="42.95432" lon="0.02448">
        <ele>1581.2</ele>
        <time>2022-06-11T07:39:22Z</time>
      </trkpt>
      <trkpt lat="42.95422" lon="0.02459">
        <ele>1580.8</ele>
        <time>2022-06-11T07:39:27Z</time>
      </trkpt>
      <trkpt lat="42.95419" lon="0.02461">
        <ele>1580.6</ele>
        <time>2022-06-11T07:39:30Z</time>
      </trkpt>
      <trkpt lat="42.95416" lon="0.02464">
        <ele>1580.4</ele>
        <time>2022-06-11T07:39:32Z</time>
      </trkpt>
      <trkpt lat="42.95407" lon="0.02469">
        <ele>1579.6</ele>
        <time>2022-06-11T07:39:39Z</time>
      </trkpt>
      <trkpt lat="42.95406" lon="0.02466">
        <ele>1579.2</ele>
        <time>2022-06-11T07:39:45Z</time>
      </trkpt>
      <trkpt lat="42.95402" lon="0.02462">
        <ele>1579.4</ele>
        <time>2022-06-11T07:39:53Z</time>
      </trkpt>
      <trkpt lat="42.95402" lon="0.02462">
        <ele>1579.8</ele>
        <time>2022-06-11T07:40:01Z</time>
      </trkpt>
      <trkpt lat="42.95391" lon="0.0246">
        <ele>1579.8</ele>
        <time>2022-06-11T07:40:22Z</time>
      </trkpt>
      <trkpt lat="42.9538" lon="0.02458">
        <ele>1580</ele>
        <time>2022-06-11T07:40:31Z</time>
      </trkpt>
      <trkpt lat="42.95373" lon="0.02456">
        <ele>1580.4</ele>
        <time>2022-06-11T07:40:40Z</time>
      </trkpt>
      <trkpt lat="42.95373" lon="0.02456">
        <ele>1580.4</ele>
        <time>2022-06-11T07:40:44Z</time>
      </trkpt>
      <trkpt lat="42.9537" lon="0.02456">
        <ele>1580.6</ele>
        <time>2022-06-11T07:40:47Z</time>
      </trkpt>
      <trkpt lat="42.95369" lon="0.02455">
        <ele>1580.8</ele>
        <time>2022-06-11T07:40:53Z</time>
      </trkpt>
      <trkpt lat="42.95365" lon="0.02459">
        <ele>1581</ele>
        <time>2022-06-11T07:41:11Z</time>
      </trkpt>
      <trkpt lat="42.95361" lon="0.0246">
        <ele>1581</ele>
        <time>2022-06-11T07:41:17Z</time>
      </trkpt>
      <trkpt lat="42.95349" lon="0.02464">
        <ele>1581.2</ele>
        <time>2022-06-11T07:41:23Z</time>
      </trkpt>
      <trkpt lat="42.9534" lon="0.02467">
        <ele>1581.2</ele>
        <time>2022-06-11T07:41:28Z</time>
      </trkpt>
      <trkpt lat="42.95337" lon="0.02462">
        <ele>1581</ele>
        <time>2022-06-11T07:41:31Z</time>
      </trkpt>
      <trkpt lat="42.95337" lon="0.0246">
        <ele>1581</ele>
        <time>2022-06-11T07:41:32Z</time>
      </trkpt>
      <trkpt lat="42.95339" lon="0.02458">
        <ele>1581</ele>
        <time>2022-06-11T07:41:33Z</time>
      </trkpt>
      <trkpt lat="42.95344" lon="0.02455">
        <ele>1580.6</ele>
        <time>2022-06-11T07:41:37Z</time>
      </trkpt>
      <trkpt lat="42.95344" lon="0.02455">
        <ele>1579.2</ele>
        <time>2022-06-11T07:41:43Z</time>
      </trkpt>
      <trkpt lat="42.95344" lon="0.02455">
        <ele>1579</ele>
        <time>2022-06-11T07:41:50Z</time>
      </trkpt>
      <trkpt lat="42.95343" lon="0.02455">
        <ele>1579</ele>
        <time>2022-06-11T07:41:55Z</time>
      </trkpt>
      <trkpt lat="42.95335" lon="0.0246">
        <ele>1579.4</ele>
        <time>2022-06-11T07:42:02Z</time>
      </trkpt>
      <trkpt lat="42.95325" lon="0.02466">
        <ele>1580.2</ele>
        <time>2022-06-11T07:42:11Z</time>
      </trkpt>
      <trkpt lat="42.95321" lon="0.02467">
        <ele>1580.4</ele>
        <time>2022-06-11T07:42:14Z</time>
      </trkpt>
      <trkpt lat="42.95319" lon="0.02468">
        <ele>1580.6</ele>
        <time>2022-06-11T07:42:16Z</time>
      </trkpt>
      <trkpt lat="42.95315" lon="0.02469">
        <ele>1581</ele>
        <time>2022-06-11T07:42:20Z</time>
      </trkpt>
      <trkpt lat="42.95314" lon="0.02469">
        <ele>1581.2</ele>
        <time>2022-06-11T07:42:21Z</time>
      </trkpt>
      <trkpt lat="42.95305" lon="0.02471">
        <ele>1582</ele>
        <time>2022-06-11T07:42:29Z</time>
      </trkpt>
      <trkpt lat="42.95302" lon="0.02471">
        <ele>1582.2</ele>
        <time>2022-06-11T07:42:33Z</time>
      </trkpt>
      <trkpt lat="42.95298" lon="0.0247">
        <ele>1582.4</ele>
        <time>2022-06-11T07:42:40Z</time>
      </trkpt>
      <trkpt lat="42.95293" lon="0.02473">
        <ele>1582.6</ele>
        <time>2022-06-11T07:42:47Z</time>
      </trkpt>
      <trkpt lat="42.95287" lon="0.02479">
        <ele>1582.6</ele>
        <time>2022-06-11T07:42:56Z</time>
      </trkpt>
      <trkpt lat="42.9528" lon="0.0248">
        <ele>1582.6</ele>
        <time>2022-06-11T07:43:05Z</time>
      </trkpt>
      <trkpt lat="42.95272" lon="0.0248">
        <ele>1582</ele>
        <time>2022-06-11T07:43:15Z</time>
      </trkpt>
      <trkpt lat="42.95265" lon="0.02479">
        <ele>1581.6</ele>
        <time>2022-06-11T07:43:24Z</time>
      </trkpt>
      <trkpt lat="42.95262" lon="0.02476">
        <ele>1581</ele>
        <time>2022-06-11T07:43:30Z</time>
      </trkpt>
      <trkpt lat="42.95261" lon="0.02476">
        <ele>1581</ele>
        <time>2022-06-11T07:43:31Z</time>
      </trkpt>
      <trkpt lat="42.9526" lon="0.02475">
        <ele>1581</ele>
        <time>2022-06-11T07:43:32Z</time>
      </trkpt>
      <trkpt lat="42.9526" lon="0.02475">
        <ele>1580.6</ele>
        <time>2022-06-11T07:43:40Z</time>
      </trkpt>
      <trkpt lat="42.95258" lon="0.02471">
        <ele>1580.4</ele>
        <time>2022-06-11T07:44:01Z</time>
      </trkpt>
      <trkpt lat="42.95258" lon="0.0247">
        <ele>1580.2</ele>
        <time>2022-06-11T07:44:07Z</time>
      </trkpt>
      <trkpt lat="42.95258" lon="0.0247">
        <ele>1580</ele>
        <time>2022-06-11T07:44:11Z</time>
      </trkpt>
      <trkpt lat="42.95256" lon="0.02467">
        <ele>1579.8</ele>
        <time>2022-06-11T07:44:39Z</time>
      </trkpt>
      <trkpt lat="42.95256" lon="0.02467">
        <ele>1579</ele>
        <time>2022-06-11T07:44:47Z</time>
      </trkpt>
      <trkpt lat="42.95255" lon="0.02465">
        <ele>1578.8</ele>
        <time>2022-06-11T07:45:57Z</time>
      </trkpt>
      <trkpt lat="42.95255" lon="0.02465">
        <ele>1579.6</ele>
        <time>2022-06-11T07:46:34Z</time>
      </trkpt>
      <trkpt lat="42.95252" lon="0.02458">
        <ele>1579.6</ele>
        <time>2022-06-11T07:46:37Z</time>
      </trkpt>
      <trkpt lat="42.95244" lon="0.02436">
        <ele>1578.2</ele>
        <time>2022-06-11T07:46:44Z</time>
      </trkpt>
      <trkpt lat="42.95243" lon="0.02433">
        <ele>1577.6</ele>
        <time>2022-06-11T07:46:45Z</time>
      </trkpt>
      <trkpt lat="42.95241" lon="0.02426">
        <ele>1576.6</ele>
        <time>2022-06-11T07:46:47Z</time>
      </trkpt>
      <trkpt lat="42.95236" lon="0.02417">
        <ele>1575.6</ele>
        <time>2022-06-11T07:46:50Z</time>
      </trkpt>
      <trkpt lat="42.95233" lon="0.02412">
        <ele>1574.4</ele>
        <time>2022-06-11T07:46:52Z</time>
      </trkpt>
      <trkpt lat="42.95228" lon="0.02403">
        <ele>1572.8</ele>
        <time>2022-06-11T07:46:55Z</time>
      </trkpt>
      <trkpt lat="42.95224" lon="0.02399">
        <ele>1572.2</ele>
        <time>2022-06-11T07:46:57Z</time>
      </trkpt>
      <trkpt lat="42.95221" lon="0.02394">
        <ele>1571.8</ele>
        <time>2022-06-11T07:46:59Z</time>
      </trkpt>
      <trkpt lat="42.95219" lon="0.02391">
        <ele>1570.8</ele>
        <time>2022-06-11T07:47:01Z</time>
      </trkpt>
      <trkpt lat="42.95218" lon="0.0239">
        <ele>1570.6</ele>
        <time>2022-06-11T07:47:02Z</time>
      </trkpt>
      <trkpt lat="42.95217" lon="0.02389">
        <ele>1569.6</ele>
        <time>2022-06-11T07:47:06Z</time>
      </trkpt>
      <trkpt lat="42.95217" lon="0.02389">
        <ele>1569.4</ele>
        <time>2022-06-11T07:47:08Z</time>
      </trkpt>
      <trkpt lat="42.95214" lon="0.02383">
        <ele>1569</ele>
        <time>2022-06-11T07:47:13Z</time>
      </trkpt>
      <trkpt lat="42.95213" lon="0.02378">
        <ele>1568.2</ele>
        <time>2022-06-11T07:47:19Z</time>
      </trkpt>
      <trkpt lat="42.95212" lon="0.02378">
        <ele>1568</ele>
        <time>2022-06-11T07:47:20Z</time>
      </trkpt>
      <trkpt lat="42.9521" lon="0.02367">
        <ele>1567.4</ele>
        <time>2022-06-11T07:47:26Z</time>
      </trkpt>
      <trkpt lat="42.95209" lon="0.02364">
        <ele>1567</ele>
        <time>2022-06-11T07:47:28Z</time>
      </trkpt>
      <trkpt lat="42.95209" lon="0.02363">
        <ele>1566.4</ele>
        <time>2022-06-11T07:47:32Z</time>
      </trkpt>
      <trkpt lat="42.95209" lon="0.02363">
        <ele>1566</ele>
        <time>2022-06-11T07:47:36Z</time>
      </trkpt>
      <trkpt lat="42.95209" lon="0.02363">
        <ele>1565.8</ele>
        <time>2022-06-11T07:47:46Z</time>
      </trkpt>
      <trkpt lat="42.95209" lon="0.02362">
        <ele>1565.8</ele>
        <time>2022-06-11T07:47:55Z</time>
      </trkpt>
      <trkpt lat="42.95211" lon="0.02355">
        <ele>1565.8</ele>
        <time>2022-06-11T07:47:58Z</time>
      </trkpt>
      <trkpt lat="42.95211" lon="0.02353">
        <ele>1565.8</ele>
        <time>2022-06-11T07:47:59Z</time>
      </trkpt>
      <trkpt lat="42.95213" lon="0.02346">
        <ele>1565.6</ele>
        <time>2022-06-11T07:48:02Z</time>
      </trkpt>
      <trkpt lat="42.95214" lon="0.02343">
        <ele>1565.4</ele>
        <time>2022-06-11T07:48:04Z</time>
      </trkpt>
      <trkpt lat="42.95215" lon="0.02342">
        <ele>1565.2</ele>
        <time>2022-06-11T07:48:06Z</time>
      </trkpt>
      <trkpt lat="42.95216" lon="0.02339">
        <ele>1564.8</ele>
        <time>2022-06-11T07:48:08Z</time>
      </trkpt>
      <trkpt lat="42.95224" lon="0.0233">
        <ele>1564.2</ele>
        <time>2022-06-11T07:48:13Z</time>
      </trkpt>
      <trkpt lat="42.95226" lon="0.02328">
        <ele>1564.2</ele>
        <time>2022-06-11T07:48:14Z</time>
      </trkpt>
      <trkpt lat="42.9523" lon="0.02327">
        <ele>1563.6</ele>
        <time>2022-06-11T07:48:16Z</time>
      </trkpt>
      <trkpt lat="42.95236" lon="0.02322">
        <ele>1563</ele>
        <time>2022-06-11T07:48:19Z</time>
      </trkpt>
      <trkpt lat="42.95247" lon="0.02315">
        <ele>1562</ele>
        <time>2022-06-11T07:48:25Z</time>
      </trkpt>
      <trkpt lat="42.9525" lon="0.02313">
        <ele>1561.6</ele>
        <time>2022-06-11T07:48:27Z</time>
      </trkpt>
      <trkpt lat="42.95257" lon="0.02308">
        <ele>1561</ele>
        <time>2022-06-11T07:48:31Z</time>
      </trkpt>
      <trkpt lat="42.9526" lon="0.02305">
        <ele>1560.4</ele>
        <time>2022-06-11T07:48:34Z</time>
      </trkpt>
      <trkpt lat="42.95266" lon="0.023">
        <ele>1560</ele>
        <time>2022-06-11T07:48:38Z</time>
      </trkpt>
      <trkpt lat="42.9527" lon="0.02297">
        <ele>1559.6</ele>
        <time>2022-06-11T07:48:40Z</time>
      </trkpt>
      <trkpt lat="42.9528" lon="0.02288">
        <ele>1559.4</ele>
        <time>2022-06-11T07:48:45Z</time>
      </trkpt>
      <trkpt lat="42.95289" lon="0.02279">
        <ele>1559.4</ele>
        <time>2022-06-11T07:48:51Z</time>
      </trkpt>
      <trkpt lat="42.95303" lon="0.02278">
        <ele>1559.6</ele>
        <time>2022-06-11T07:48:59Z</time>
      </trkpt>
      <trkpt lat="42.95311" lon="0.02278">
        <ele>1560.8</ele>
        <time>2022-06-11T07:49:04Z</time>
      </trkpt>
      <trkpt lat="42.95312" lon="0.02278">
        <ele>1561</ele>
        <time>2022-06-11T07:49:05Z</time>
      </trkpt>
      <trkpt lat="42.95326" lon="0.02268">
        <ele>1561.8</ele>
        <time>2022-06-11T07:49:13Z</time>
      </trkpt>
      <trkpt lat="42.95339" lon="0.02256">
        <ele>1561.6</ele>
        <time>2022-06-11T07:49:20Z</time>
      </trkpt>
      <trkpt lat="42.9535" lon="0.02246">
        <ele>1560.8</ele>
        <time>2022-06-11T07:49:25Z</time>
      </trkpt>
      <trkpt lat="42.95356" lon="0.0224">
        <ele>1559.8</ele>
        <time>2022-06-11T07:49:27Z</time>
      </trkpt>
      <trkpt lat="42.95359" lon="0.02238">
        <ele>1559.6</ele>
        <time>2022-06-11T07:49:28Z</time>
      </trkpt>
      <trkpt lat="42.95372" lon="0.02225">
        <ele>1558.4</ele>
        <time>2022-06-11T07:49:32Z</time>
      </trkpt>
      <trkpt lat="42.95383" lon="0.02215">
        <ele>1557</ele>
        <time>2022-06-11T07:49:36Z</time>
      </trkpt>
      <trkpt lat="42.95388" lon="0.02211">
        <ele>1556.4</ele>
        <time>2022-06-11T07:49:38Z</time>
      </trkpt>
      <trkpt lat="42.95394" lon="0.02205">
        <ele>1556</ele>
        <time>2022-06-11T07:49:40Z</time>
      </trkpt>
      <trkpt lat="42.9541" lon="0.02189">
        <ele>1555.2</ele>
        <time>2022-06-11T07:49:46Z</time>
      </trkpt>
      <trkpt lat="42.95413" lon="0.02186">
        <ele>1554.8</ele>
        <time>2022-06-11T07:49:48Z</time>
      </trkpt>
      <trkpt lat="42.95415" lon="0.02185">
        <ele>1554.2</ele>
        <time>2022-06-11T07:49:50Z</time>
      </trkpt>
      <trkpt lat="42.95415" lon="0.02184">
        <ele>1553.4</ele>
        <time>2022-06-11T07:49:51Z</time>
      </trkpt>
      <trkpt lat="42.95418" lon="0.02178">
        <ele>1552.2</ele>
        <time>2022-06-11T07:49:55Z</time>
      </trkpt>
      <trkpt lat="42.95419" lon="0.02176">
        <ele>1552</ele>
        <time>2022-06-11T07:49:56Z</time>
      </trkpt>
      <trkpt lat="42.95426" lon="0.02169">
        <ele>1551</ele>
        <time>2022-06-11T07:49:59Z</time>
      </trkpt>
      <trkpt lat="42.95431" lon="0.02161">
        <ele>1550.6</ele>
        <time>2022-06-11T07:50:01Z</time>
      </trkpt>
      <trkpt lat="42.95437" lon="0.02151">
        <ele>1550</ele>
        <time>2022-06-11T07:50:03Z</time>
      </trkpt>
      <trkpt lat="42.95443" lon="0.0214">
        <ele>1548.8</ele>
        <time>2022-06-11T07:50:05Z</time>
      </trkpt>
      <trkpt lat="42.95446" lon="0.02136">
        <ele>1548.4</ele>
        <time>2022-06-11T07:50:06Z</time>
      </trkpt>
      <trkpt lat="42.95451" lon="0.02132">
        <ele>1547.6</ele>
        <time>2022-06-11T07:50:08Z</time>
      </trkpt>
      <trkpt lat="42.95453" lon="0.02131">
        <ele>1547.4</ele>
        <time>2022-06-11T07:50:09Z</time>
      </trkpt>
      <trkpt lat="42.95455" lon="0.0213">
        <ele>1546.6</ele>
        <time>2022-06-11T07:50:10Z</time>
      </trkpt>
      <trkpt lat="42.95462" lon="0.02128">
        <ele>1545.4</ele>
        <time>2022-06-11T07:50:14Z</time>
      </trkpt>
      <trkpt lat="42.95468" lon="0.02132">
        <ele>1544.8</ele>
        <time>2022-06-11T07:50:19Z</time>
      </trkpt>
      <trkpt lat="42.9547" lon="0.02132">
        <ele>1544.8</ele>
        <time>2022-06-11T07:50:20Z</time>
      </trkpt>
      <trkpt lat="42.9547" lon="0.02132">
        <ele>1544.6</ele>
        <time>2022-06-11T07:50:23Z</time>
      </trkpt>
      <trkpt lat="42.9547" lon="0.0213">
        <ele>1544.6</ele>
        <time>2022-06-11T07:50:29Z</time>
      </trkpt>
      <trkpt lat="42.95472" lon="0.02128">
        <ele>1544.6</ele>
        <time>2022-06-11T07:50:35Z</time>
      </trkpt>
      <trkpt lat="42.95471" lon="0.02124">
        <ele>1544.4</ele>
        <time>2022-06-11T07:50:52Z</time>
      </trkpt>
      <trkpt lat="42.9547" lon="0.02123">
        <ele>1544.4</ele>
        <time>2022-06-11T07:51:01Z</time>
      </trkpt>
      <trkpt lat="42.95467" lon="0.02123">
        <ele>1544.2</ele>
        <time>2022-06-11T07:51:21Z</time>
      </trkpt>
      <trkpt lat="42.95466" lon="0.02122">
        <ele>1544.2</ele>
        <time>2022-06-11T07:51:40Z</time>
      </trkpt>
      <trkpt lat="42.95461" lon="0.02122">
        <ele>1544.2</ele>
        <time>2022-06-11T07:51:45Z</time>
      </trkpt>
      <trkpt lat="42.95453" lon="0.02122">
        <ele>1544.2</ele>
        <time>2022-06-11T07:51:51Z</time>
      </trkpt>
      <trkpt lat="42.95452" lon="0.0212">
        <ele>1544.4</ele>
        <time>2022-06-11T07:51:59Z</time>
      </trkpt>
      <trkpt lat="42.95452" lon="0.02119">
        <ele>1544.4</ele>
        <time>2022-06-11T07:52:05Z</time>
      </trkpt>
      <trkpt lat="42.95448" lon="0.02112">
        <ele>1544.4</ele>
        <time>2022-06-11T07:52:09Z</time>
      </trkpt>
      <trkpt lat="42.95447" lon="0.02107">
        <ele>1544.4</ele>
        <time>2022-06-11T07:52:11Z</time>
      </trkpt>
      <trkpt lat="42.95449" lon="0.02097">
        <ele>1544.4</ele>
        <time>2022-06-11T07:52:15Z</time>
      </trkpt>
      <trkpt lat="42.95453" lon="0.02085">
        <ele>1544.2</ele>
        <time>2022-06-11T07:52:21Z</time>
      </trkpt>
      <trkpt lat="42.95464" lon="0.02076">
        <ele>1544.2</ele>
        <time>2022-06-11T07:52:29Z</time>
      </trkpt>
      <trkpt lat="42.95472" lon="0.02078">
        <ele>1544.2</ele>
        <time>2022-06-11T07:52:36Z</time>
      </trkpt>
      <trkpt lat="42.95473" lon="0.02076">
        <ele>1544.2</ele>
        <time>2022-06-11T07:52:48Z</time>
      </trkpt>
      <trkpt lat="42.95474" lon="0.02083">
        <ele>1544</ele>
        <time>2022-06-11T07:53:03Z</time>
      </trkpt>
      <trkpt lat="42.95474" lon="0.02084">
        <ele>1544</ele>
        <time>2022-06-11T07:53:04Z</time>
      </trkpt>
      <trkpt lat="42.95474" lon="0.02086">
        <ele>1543.8</ele>
        <time>2022-06-11T07:53:05Z</time>
      </trkpt>
      <trkpt lat="42.95477" lon="0.02092">
        <ele>1544</ele>
        <time>2022-06-11T07:53:09Z</time>
      </trkpt>
      <trkpt lat="42.95477" lon="0.02093">
        <ele>1544</ele>
        <time>2022-06-11T07:53:10Z</time>
      </trkpt>
      <trkpt lat="42.95478" lon="0.02093">
        <ele>1544</ele>
        <time>2022-06-11T07:53:15Z</time>
      </trkpt>
      <trkpt lat="42.9548" lon="0.02094">
        <ele>1544</ele>
        <time>2022-06-11T07:53:22Z</time>
      </trkpt>
      <trkpt lat="42.95482" lon="0.02093">
        <ele>1544</ele>
        <time>2022-06-11T07:53:23Z</time>
      </trkpt>
      <trkpt lat="42.95493" lon="0.02085">
        <ele>1544.2</ele>
        <time>2022-06-11T07:53:29Z</time>
      </trkpt>
      <trkpt lat="42.95503" lon="0.02078">
        <ele>1546</ele>
        <time>2022-06-11T07:53:35Z</time>
      </trkpt>
      <trkpt lat="42.95509" lon="0.02075">
        <ele>1547.2</ele>
        <time>2022-06-11T07:53:39Z</time>
      </trkpt>
      <trkpt lat="42.95509" lon="0.02075">
        <ele>1548.2</ele>
        <time>2022-06-11T07:53:41Z</time>
      </trkpt>
      <trkpt lat="42.95509" lon="0.02075">
        <ele>1548.6</ele>
        <time>2022-06-11T07:53:42Z</time>
      </trkpt>
      <trkpt lat="42.9551" lon="0.02075">
        <ele>1549.8</ele>
        <time>2022-06-11T07:53:49Z</time>
      </trkpt>
      <trkpt lat="42.9551" lon="0.02075">
        <ele>1550.2</ele>
        <time>2022-06-11T07:53:53Z</time>
      </trkpt>
      <trkpt lat="42.9551" lon="0.02075">
        <ele>1550.8</ele>
        <time>2022-06-11T07:54:00Z</time>
      </trkpt>
      <trkpt lat="42.95511" lon="0.02075">
        <ele>1551.8</ele>
        <time>2022-06-11T07:54:23Z</time>
      </trkpt>
      <trkpt lat="42.95514" lon="0.02077">
        <ele>1552.2</ele>
        <time>2022-06-11T07:54:28Z</time>
      </trkpt>
      <trkpt lat="42.95515" lon="0.02078">
        <ele>1552.8</ele>
        <time>2022-06-11T07:54:31Z</time>
      </trkpt>
      <trkpt lat="42.95515" lon="0.02078">
        <ele>1553.2</ele>
        <time>2022-06-11T07:54:33Z</time>
      </trkpt>
      <trkpt lat="42.95521" lon="0.02082">
        <ele>1553.6</ele>
        <time>2022-06-11T07:54:37Z</time>
      </trkpt>
      <trkpt lat="42.95522" lon="0.02084">
        <ele>1553.8</ele>
        <time>2022-06-11T07:54:39Z</time>
      </trkpt>
      <trkpt lat="42.95524" lon="0.02084">
        <ele>1554</ele>
        <time>2022-06-11T07:54:41Z</time>
      </trkpt>
      <trkpt lat="42.95526" lon="0.02085">
        <ele>1554</ele>
        <time>2022-06-11T07:54:57Z</time>
      </trkpt>
      <trkpt lat="42.95537" lon="0.02085">
        <ele>1554</ele>
        <time>2022-06-11T07:55:02Z</time>
      </trkpt>
      <trkpt lat="42.95547" lon="0.02084">
        <ele>1553.6</ele>
        <time>2022-06-11T07:55:06Z</time>
      </trkpt>
      <trkpt lat="42.95552" lon="0.02077">
        <ele>1552.8</ele>
        <time>2022-06-11T07:55:10Z</time>
      </trkpt>
      <trkpt lat="42.95553" lon="0.02077">
        <ele>1552.8</ele>
        <time>2022-06-11T07:55:11Z</time>
      </trkpt>
      <trkpt lat="42.95553" lon="0.02075">
        <ele>1551.6</ele>
        <time>2022-06-11T07:55:16Z</time>
      </trkpt>
      <trkpt lat="42.95553" lon="0.02074">
        <ele>1551.6</ele>
        <time>2022-06-11T07:55:17Z</time>
      </trkpt>
      <trkpt lat="42.95554" lon="0.02069">
        <ele>1551.4</ele>
        <time>2022-06-11T07:55:19Z</time>
      </trkpt>
      <trkpt lat="42.9556" lon="0.02056">
        <ele>1551</ele>
        <time>2022-06-11T07:55:25Z</time>
      </trkpt>
      <trkpt lat="42.95561" lon="0.02051">
        <ele>1550.6</ele>
        <time>2022-06-11T07:55:28Z</time>
      </trkpt>
      <trkpt lat="42.95561" lon="0.02049">
        <ele>1550</ele>
        <time>2022-06-11T07:55:30Z</time>
      </trkpt>
      <trkpt lat="42.95561" lon="0.02049">
        <ele>1549.4</ele>
        <time>2022-06-11T07:55:33Z</time>
      </trkpt>
      <trkpt lat="42.95561" lon="0.02049">
        <ele>1549</ele>
        <time>2022-06-11T07:55:36Z</time>
      </trkpt>
      <trkpt lat="42.95565" lon="0.02037">
        <ele>1548.4</ele>
        <time>2022-06-11T07:55:42Z</time>
      </trkpt>
      <trkpt lat="42.95567" lon="0.02026">
        <ele>1547.8</ele>
        <time>2022-06-11T07:55:47Z</time>
      </trkpt>
      <trkpt lat="42.95571" lon="0.02021">
        <ele>1547.2</ele>
        <time>2022-06-11T07:55:50Z</time>
      </trkpt>
      <trkpt lat="42.95572" lon="0.02019">
        <ele>1546.6</ele>
        <time>2022-06-11T07:55:53Z</time>
      </trkpt>
      <trkpt lat="42.95572" lon="0.02019">
        <ele>1546</ele>
        <time>2022-06-11T07:55:55Z</time>
      </trkpt>
      <trkpt lat="42.95572" lon="0.02019">
        <ele>1545.2</ele>
        <time>2022-06-11T07:56:02Z</time>
      </trkpt>
      <trkpt lat="42.95572" lon="0.02019">
        <ele>1545.2</ele>
        <time>2022-06-11T07:56:05Z</time>
      </trkpt>
      <trkpt lat="42.95576" lon="0.02016">
        <ele>1545.2</ele>
        <time>2022-06-11T07:56:12Z</time>
      </trkpt>
      <trkpt lat="42.95577" lon="0.02013">
        <ele>1545</ele>
        <time>2022-06-11T07:56:16Z</time>
      </trkpt>
      <trkpt lat="42.95579" lon="0.02011">
        <ele>1544.8</ele>
        <time>2022-06-11T07:56:17Z</time>
      </trkpt>
      <trkpt lat="42.95581" lon="0.02005">
        <ele>1544.8</ele>
        <time>2022-06-11T07:56:19Z</time>
      </trkpt>
      <trkpt lat="42.95582" lon="0.01998">
        <ele>1544.6</ele>
        <time>2022-06-11T07:56:21Z</time>
      </trkpt>
      <trkpt lat="42.95583" lon="0.01993">
        <ele>1543.8</ele>
        <time>2022-06-11T07:56:23Z</time>
      </trkpt>
      <trkpt lat="42.95583" lon="0.01993">
        <ele>1543</ele>
        <time>2022-06-11T07:56:25Z</time>
      </trkpt>
      <trkpt lat="42.95584" lon="0.01989">
        <ele>1542.4</ele>
        <time>2022-06-11T07:56:27Z</time>
      </trkpt>
      <trkpt lat="42.95585" lon="0.01981">
        <ele>1542</ele>
        <time>2022-06-11T07:56:29Z</time>
      </trkpt>
      <trkpt lat="42.95588" lon="0.0196">
        <ele>1541.2</ele>
        <time>2022-06-11T07:56:34Z</time>
      </trkpt>
      <trkpt lat="42.95589" lon="0.01955">
        <ele>1541</ele>
        <time>2022-06-11T07:56:35Z</time>
      </trkpt>
      <trkpt lat="42.95592" lon="0.01941">
        <ele>1540.2</ele>
        <time>2022-06-11T07:56:38Z</time>
      </trkpt>
      <trkpt lat="42.95598" lon="0.01932">
        <ele>1539.4</ele>
        <time>2022-06-11T07:56:41Z</time>
      </trkpt>
      <trkpt lat="42.956" lon="0.01931">
        <ele>1539</ele>
        <time>2022-06-11T07:56:42Z</time>
      </trkpt>
      <trkpt lat="42.95606" lon="0.0193">
        <ele>1538.2</ele>
        <time>2022-06-11T07:56:46Z</time>
      </trkpt>
      <trkpt lat="42.95611" lon="0.01934">
        <ele>1538</ele>
        <time>2022-06-11T07:56:49Z</time>
      </trkpt>
      <trkpt lat="42.95618" lon="0.0194">
        <ele>1537.2</ele>
        <time>2022-06-11T07:56:53Z</time>
      </trkpt>
      <trkpt lat="42.9562" lon="0.01942">
        <ele>1537.2</ele>
        <time>2022-06-11T07:56:54Z</time>
      </trkpt>
      <trkpt lat="42.95623" lon="0.01944">
        <ele>1537</ele>
        <time>2022-06-11T07:56:55Z</time>
      </trkpt>
      <trkpt lat="42.95625" lon="0.01945">
        <ele>1536</ele>
        <time>2022-06-11T07:56:58Z</time>
      </trkpt>
      <trkpt lat="42.95625" lon="0.01945">
        <ele>1535.2</ele>
        <time>2022-06-11T07:56:59Z</time>
      </trkpt>
      <trkpt lat="42.95625" lon="0.01945">
        <ele>1534.2</ele>
        <time>2022-06-11T07:57:03Z</time>
      </trkpt>
      <trkpt lat="42.95625" lon="0.01945">
        <ele>1533.2</ele>
        <time>2022-06-11T07:57:32Z</time>
      </trkpt>
      <trkpt lat="42.95625" lon="0.01945">
        <ele>1532.2</ele>
        <time>2022-06-11T07:57:40Z</time>
      </trkpt>
      <trkpt lat="42.95625" lon="0.01945">
        <ele>1532.2</ele>
        <time>2022-06-11T07:57:53Z</time>
      </trkpt>
      <trkpt lat="42.95625" lon="0.01945">
        <ele>1532</ele>
        <time>2022-06-11T07:58:36Z</time>
      </trkpt>
      <trkpt lat="42.95633" lon="0.01946">
        <ele>1532.8</ele>
        <time>2022-06-11T07:58:59Z</time>
      </trkpt>
      <trkpt lat="42.95651" lon="0.01947">
        <ele>1531.2</ele>
        <time>2022-06-11T07:59:04Z</time>
      </trkpt>
      <trkpt lat="42.95658" lon="0.01948">
        <ele>1530.2</ele>
        <time>2022-06-11T07:59:06Z</time>
      </trkpt>
      <trkpt lat="42.95669" lon="0.0195">
        <ele>1529</ele>
        <time>2022-06-11T07:59:09Z</time>
      </trkpt>
      <trkpt lat="42.95678" lon="0.0195">
        <ele>1528.2</ele>
        <time>2022-06-11T07:59:11Z</time>
      </trkpt>
      <trkpt lat="42.95683" lon="0.0195">
        <ele>1527.6</ele>
        <time>2022-06-11T07:59:12Z</time>
      </trkpt>
      <trkpt lat="42.9569" lon="0.01949">
        <ele>1526.4</ele>
        <time>2022-06-11T07:59:14Z</time>
      </trkpt>
      <trkpt lat="42.95694" lon="0.01948">
        <ele>1525.4</ele>
        <time>2022-06-11T07:59:16Z</time>
      </trkpt>
      <trkpt lat="42.95695" lon="0.01948">
        <ele>1524</ele>
        <time>2022-06-11T07:59:19Z</time>
      </trkpt>
      <trkpt lat="42.95695" lon="0.01948">
        <ele>1523.8</ele>
        <time>2022-06-11T07:59:20Z</time>
      </trkpt>
      <trkpt lat="42.95698" lon="0.01949">
        <ele>1523</ele>
        <time>2022-06-11T07:59:24Z</time>
      </trkpt>
      <trkpt lat="42.95701" lon="0.01951">
        <ele>1522.6</ele>
        <time>2022-06-11T07:59:26Z</time>
      </trkpt>
      <trkpt lat="42.95711" lon="0.01955">
        <ele>1521.6</ele>
        <time>2022-06-11T07:59:31Z</time>
      </trkpt>
      <trkpt lat="42.95713" lon="0.01957">
        <ele>1521.2</ele>
        <time>2022-06-11T07:59:32Z</time>
      </trkpt>
      <trkpt lat="42.95717" lon="0.01958">
        <ele>1520.2</ele>
        <time>2022-06-11T07:59:34Z</time>
      </trkpt>
      <trkpt lat="42.95725" lon="0.01956">
        <ele>1518.8</ele>
        <time>2022-06-11T07:59:37Z</time>
      </trkpt>
      <trkpt lat="42.95727" lon="0.01954">
        <ele>1518.2</ele>
        <time>2022-06-11T07:59:38Z</time>
      </trkpt>
      <trkpt lat="42.95731" lon="0.01948">
        <ele>1517.2</ele>
        <time>2022-06-11T07:59:40Z</time>
      </trkpt>
      <trkpt lat="42.95734" lon="0.01941">
        <ele>1515.8</ele>
        <time>2022-06-11T07:59:42Z</time>
      </trkpt>
      <trkpt lat="42.95736" lon="0.01934">
        <ele>1514.4</ele>
        <time>2022-06-11T07:59:44Z</time>
      </trkpt>
      <trkpt lat="42.95737" lon="0.0193">
        <ele>1514</ele>
        <time>2022-06-11T07:59:45Z</time>
      </trkpt>
      <trkpt lat="42.95739" lon="0.01927">
        <ele>1513.4</ele>
        <time>2022-06-11T07:59:46Z</time>
      </trkpt>
      <trkpt lat="42.95743" lon="0.01921">
        <ele>1512.4</ele>
        <time>2022-06-11T07:59:48Z</time>
      </trkpt>
      <trkpt lat="42.95753" lon="0.01911">
        <ele>1510.8</ele>
        <time>2022-06-11T07:59:51Z</time>
      </trkpt>
      <trkpt lat="42.95764" lon="0.01903">
        <ele>1509.4</ele>
        <time>2022-06-11T07:59:54Z</time>
      </trkpt>
      <trkpt lat="42.9577" lon="0.019">
        <ele>1508.4</ele>
        <time>2022-06-11T07:59:56Z</time>
      </trkpt>
      <trkpt lat="42.95774" lon="0.01898">
        <ele>1506.6</ele>
        <time>2022-06-11T07:59:59Z</time>
      </trkpt>
      <trkpt lat="42.95774" lon="0.01898">
        <ele>1506</ele>
        <time>2022-06-11T08:00:00Z</time>
      </trkpt>
      <trkpt lat="42.95774" lon="0.01898">
        <ele>1505.6</ele>
        <time>2022-06-11T08:00:01Z</time>
      </trkpt>
      <trkpt lat="42.95776" lon="0.01897">
        <ele>1504</ele>
        <time>2022-06-11T08:00:04Z</time>
      </trkpt>
      <trkpt lat="42.95781" lon="0.01893">
        <ele>1503.4</ele>
        <time>2022-06-11T08:00:07Z</time>
      </trkpt>
      <trkpt lat="42.95788" lon="0.01886">
        <ele>1503</ele>
        <time>2022-06-11T08:00:11Z</time>
      </trkpt>
      <trkpt lat="42.95791" lon="0.01883">
        <ele>1502.2</ele>
        <time>2022-06-11T08:00:13Z</time>
      </trkpt>
      <trkpt lat="42.95793" lon="0.0188">
        <ele>1501.8</ele>
        <time>2022-06-11T08:00:14Z</time>
      </trkpt>
      <trkpt lat="42.958" lon="0.01866">
        <ele>1500.6</ele>
        <time>2022-06-11T08:00:19Z</time>
      </trkpt>
      <trkpt lat="42.95803" lon="0.0186">
        <ele>1499.2</ele>
        <time>2022-06-11T08:00:21Z</time>
      </trkpt>
      <trkpt lat="42.95806" lon="0.01855">
        <ele>1498</ele>
        <time>2022-06-11T08:00:23Z</time>
      </trkpt>
      <trkpt lat="42.95809" lon="0.0185">
        <ele>1496.4</ele>
        <time>2022-06-11T08:00:25Z</time>
      </trkpt>
      <trkpt lat="42.95811" lon="0.01845">
        <ele>1495.2</ele>
        <time>2022-06-11T08:00:27Z</time>
      </trkpt>
      <trkpt lat="42.95816" lon="0.01838">
        <ele>1493.8</ele>
        <time>2022-06-11T08:00:30Z</time>
      </trkpt>
      <trkpt lat="42.95817" lon="0.01836">
        <ele>1493.2</ele>
        <time>2022-06-11T08:00:31Z</time>
      </trkpt>
      <trkpt lat="42.95819" lon="0.01833">
        <ele>1492.6</ele>
        <time>2022-06-11T08:00:32Z</time>
      </trkpt>
      <trkpt lat="42.95823" lon="0.01827">
        <ele>1491.2</ele>
        <time>2022-06-11T08:00:34Z</time>
      </trkpt>
      <trkpt lat="42.9583" lon="0.01817">
        <ele>1490.2</ele>
        <time>2022-06-11T08:00:37Z</time>
      </trkpt>
      <trkpt lat="42.95835" lon="0.01808">
        <ele>1488.8</ele>
        <time>2022-06-11T08:00:39Z</time>
      </trkpt>
      <trkpt lat="42.95839" lon="0.018">
        <ele>1487.4</ele>
        <time>2022-06-11T08:00:41Z</time>
      </trkpt>
      <trkpt lat="42.95841" lon="0.01797">
        <ele>1486</ele>
        <time>2022-06-11T08:00:42Z</time>
      </trkpt>
      <trkpt lat="42.95843" lon="0.01789">
        <ele>1484.6</ele>
        <time>2022-06-11T08:00:44Z</time>
      </trkpt>
      <trkpt lat="42.95848" lon="0.01778">
        <ele>1483.6</ele>
        <time>2022-06-11T08:00:47Z</time>
      </trkpt>
      <trkpt lat="42.95849" lon="0.01774">
        <ele>1483.4</ele>
        <time>2022-06-11T08:00:48Z</time>
      </trkpt>
      <trkpt lat="42.95853" lon="0.01767">
        <ele>1482.6</ele>
        <time>2022-06-11T08:00:50Z</time>
      </trkpt>
      <trkpt lat="42.95855" lon="0.01761">
        <ele>1481.4</ele>
        <time>2022-06-11T08:00:52Z</time>
      </trkpt>
      <trkpt lat="42.95858" lon="0.01754">
        <ele>1480</ele>
        <time>2022-06-11T08:00:54Z</time>
      </trkpt>
      <trkpt lat="42.9586" lon="0.01751">
        <ele>1479.4</ele>
        <time>2022-06-11T08:00:55Z</time>
      </trkpt>
      <trkpt lat="42.95861" lon="0.01747">
        <ele>1478.8</ele>
        <time>2022-06-11T08:00:56Z</time>
      </trkpt>
      <trkpt lat="42.95864" lon="0.01736">
        <ele>1477.2</ele>
        <time>2022-06-11T08:00:59Z</time>
      </trkpt>
      <trkpt lat="42.95865" lon="0.01731">
        <ele>1476.4</ele>
        <time>2022-06-11T08:01:00Z</time>
      </trkpt>
      <trkpt lat="42.95866" lon="0.01728">
        <ele>1476.2</ele>
        <time>2022-06-11T08:01:01Z</time>
      </trkpt>
      <trkpt lat="42.95867" lon="0.01725">
        <ele>1474.8</ele>
        <time>2022-06-11T08:01:02Z</time>
      </trkpt>
      <trkpt lat="42.95868" lon="0.0172">
        <ele>1473.6</ele>
        <time>2022-06-11T08:01:04Z</time>
      </trkpt>
      <trkpt lat="42.95869" lon="0.01718">
        <ele>1473.2</ele>
        <time>2022-06-11T08:01:05Z</time>
      </trkpt>
      <trkpt lat="42.9587" lon="0.01717">
        <ele>1472.4</ele>
        <time>2022-06-11T08:01:06Z</time>
      </trkpt>
      <trkpt lat="42.95872" lon="0.01711">
        <ele>1471</ele>
        <time>2022-06-11T08:01:08Z</time>
      </trkpt>
      <trkpt lat="42.95875" lon="0.01702">
        <ele>1470</ele>
        <time>2022-06-11T08:01:11Z</time>
      </trkpt>
      <trkpt lat="42.95877" lon="0.01697">
        <ele>1468.8</ele>
        <time>2022-06-11T08:01:13Z</time>
      </trkpt>
      <trkpt lat="42.9588" lon="0.01691">
        <ele>1467.8</ele>
        <time>2022-06-11T08:01:16Z</time>
      </trkpt>
      <trkpt lat="42.95883" lon="0.01684">
        <ele>1466.2</ele>
        <time>2022-06-11T08:01:19Z</time>
      </trkpt>
      <trkpt lat="42.95884" lon="0.01677">
        <ele>1465</ele>
        <time>2022-06-11T08:01:22Z</time>
      </trkpt>
      <trkpt lat="42.95886" lon="0.01672">
        <ele>1464.4</ele>
        <time>2022-06-11T08:01:24Z</time>
      </trkpt>
      <trkpt lat="42.95886" lon="0.01669">
        <ele>1463.8</ele>
        <time>2022-06-11T08:01:25Z</time>
      </trkpt>
      <trkpt lat="42.95886" lon="0.01666">
        <ele>1463.6</ele>
        <time>2022-06-11T08:01:26Z</time>
      </trkpt>
      <trkpt lat="42.95887" lon="0.0166">
        <ele>1462.2</ele>
        <time>2022-06-11T08:01:28Z</time>
      </trkpt>
      <trkpt lat="42.95888" lon="0.01654">
        <ele>1461</ele>
        <time>2022-06-11T08:01:30Z</time>
      </trkpt>
      <trkpt lat="42.9589" lon="0.01646">
        <ele>1459.6</ele>
        <time>2022-06-11T08:01:32Z</time>
      </trkpt>
      <trkpt lat="42.95892" lon="0.0164">
        <ele>1458.4</ele>
        <time>2022-06-11T08:01:34Z</time>
      </trkpt>
      <trkpt lat="42.95893" lon="0.01636">
        <ele>1456.8</ele>
        <time>2022-06-11T08:01:36Z</time>
      </trkpt>
      <trkpt lat="42.95894" lon="0.01633">
        <ele>1456.4</ele>
        <time>2022-06-11T08:01:37Z</time>
      </trkpt>
      <trkpt lat="42.95895" lon="0.01631">
        <ele>1455.8</ele>
        <time>2022-06-11T08:01:38Z</time>
      </trkpt>
      <trkpt lat="42.95896" lon="0.01623">
        <ele>1454.6</ele>
        <time>2022-06-11T08:01:41Z</time>
      </trkpt>
      <trkpt lat="42.95898" lon="0.01617">
        <ele>1453.4</ele>
        <time>2022-06-11T08:01:43Z</time>
      </trkpt>
      <trkpt lat="42.95899" lon="0.01614">
        <ele>1453.2</ele>
        <time>2022-06-11T08:01:44Z</time>
      </trkpt>
      <trkpt lat="42.959" lon="0.0161">
        <ele>1452.2</ele>
        <time>2022-06-11T08:01:45Z</time>
      </trkpt>
      <trkpt lat="42.95901" lon="0.01604">
        <ele>1450.6</ele>
        <time>2022-06-11T08:01:47Z</time>
      </trkpt>
      <trkpt lat="42.95903" lon="0.01596">
        <ele>1449.6</ele>
        <time>2022-06-11T08:01:49Z</time>
      </trkpt>
      <trkpt lat="42.95905" lon="0.0159">
        <ele>1448.4</ele>
        <time>2022-06-11T08:01:51Z</time>
      </trkpt>
      <trkpt lat="42.95907" lon="0.01583">
        <ele>1447.2</ele>
        <time>2022-06-11T08:01:53Z</time>
      </trkpt>
      <trkpt lat="42.95908" lon="0.01576">
        <ele>1445.2</ele>
        <time>2022-06-11T08:01:55Z</time>
      </trkpt>
      <trkpt lat="42.95911" lon="0.01566">
        <ele>1443</ele>
        <time>2022-06-11T08:01:57Z</time>
      </trkpt>
      <trkpt lat="42.95917" lon="0.01541">
        <ele>1441.2</ele>
        <time>2022-06-11T08:02:00Z</time>
      </trkpt>
      <trkpt lat="42.95919" lon="0.01528">
        <ele>1439.8</ele>
        <time>2022-06-11T08:02:02Z</time>
      </trkpt>
      <trkpt lat="42.95922" lon="0.01504">
        <ele>1438.4</ele>
        <time>2022-06-11T08:02:06Z</time>
      </trkpt>
      <trkpt lat="42.95923" lon="0.01498">
        <ele>1438.2</ele>
        <time>2022-06-11T08:02:07Z</time>
      </trkpt>
      <trkpt lat="42.95926" lon="0.01485">
        <ele>1437.4</ele>
        <time>2022-06-11T08:02:09Z</time>
      </trkpt>
      <trkpt lat="42.95931" lon="0.01455">
        <ele>1436.8</ele>
        <time>2022-06-11T08:02:13Z</time>
      </trkpt>
      <trkpt lat="42.95934" lon="0.0144">
        <ele>1436.6</ele>
        <time>2022-06-11T08:02:15Z</time>
      </trkpt>
      <trkpt lat="42.95938" lon="0.01423">
        <ele>1436.4</ele>
        <time>2022-06-11T08:02:17Z</time>
      </trkpt>
      <trkpt lat="42.95943" lon="0.01404">
        <ele>1435.2</ele>
        <time>2022-06-11T08:02:20Z</time>
      </trkpt>
      <trkpt lat="42.95953" lon="0.0137">
        <ele>1434</ele>
        <time>2022-06-11T08:02:25Z</time>
      </trkpt>
      <trkpt lat="42.95957" lon="0.01358">
        <ele>1433.6</ele>
        <time>2022-06-11T08:02:27Z</time>
      </trkpt>
      <trkpt lat="42.95964" lon="0.01333">
        <ele>1432.8</ele>
        <time>2022-06-11T08:02:31Z</time>
      </trkpt>
      <trkpt lat="42.95969" lon="0.01314">
        <ele>1432.4</ele>
        <time>2022-06-11T08:02:35Z</time>
      </trkpt>
      <trkpt lat="42.9597" lon="0.01309">
        <ele>1432.4</ele>
        <time>2022-06-11T08:02:36Z</time>
      </trkpt>
      <trkpt lat="42.95975" lon="0.01287">
        <ele>1432.2</ele>
        <time>2022-06-11T08:02:41Z</time>
      </trkpt>
      <trkpt lat="42.95982" lon="0.01262">
        <ele>1431.6</ele>
        <time>2022-06-11T08:02:47Z</time>
      </trkpt>
      <trkpt lat="42.95983" lon="0.01255">
        <ele>1431.4</ele>
        <time>2022-06-11T08:02:49Z</time>
      </trkpt>
      <trkpt lat="42.95987" lon="0.01226">
        <ele>1430.8</ele>
        <time>2022-06-11T08:02:56Z</time>
      </trkpt>
      <trkpt lat="42.95991" lon="0.01186">
        <ele>1430.6</ele>
        <time>2022-06-11T08:03:05Z</time>
      </trkpt>
      <trkpt lat="42.95991" lon="0.01182">
        <ele>1430.4</ele>
        <time>2022-06-11T08:03:06Z</time>
      </trkpt>
      <trkpt lat="42.95993" lon="0.01166">
        <ele>1430</ele>
        <time>2022-06-11T08:03:11Z</time>
      </trkpt>
      <trkpt lat="42.95992" lon="0.01161">
        <ele>1429.6</ele>
        <time>2022-06-11T08:03:15Z</time>
      </trkpt>
      <trkpt lat="42.95992" lon="0.01161">
        <ele>1429.6</ele>
        <time>2022-06-11T08:03:16Z</time>
      </trkpt>
      <trkpt lat="42.95992" lon="0.01161">
        <ele>1429.4</ele>
        <time>2022-06-11T08:03:19Z</time>
      </trkpt>
      <trkpt lat="42.95992" lon="0.01158">
        <ele>1428.6</ele>
        <time>2022-06-11T08:03:41Z</time>
      </trkpt>
      <trkpt lat="42.95993" lon="0.01153">
        <ele>1428.6</ele>
        <time>2022-06-11T08:03:42Z</time>
      </trkpt>
      <trkpt lat="42.95992" lon="0.01137">
        <ele>1428.8</ele>
        <time>2022-06-11T08:03:46Z</time>
      </trkpt>
      <trkpt lat="42.95992" lon="0.01121">
        <ele>1429</ele>
        <time>2022-06-11T08:03:52Z</time>
      </trkpt>
      <trkpt lat="42.95993" lon="0.01111">
        <ele>1429.4</ele>
        <time>2022-06-11T08:03:56Z</time>
      </trkpt>
      <trkpt lat="42.95994" lon="0.01106">
        <ele>1429.8</ele>
        <time>2022-06-11T08:03:58Z</time>
      </trkpt>
      <trkpt lat="42.95995" lon="0.01095">
        <ele>1430.4</ele>
        <time>2022-06-11T08:04:02Z</time>
      </trkpt>
      <trkpt lat="42.95997" lon="0.01082">
        <ele>1430.6</ele>
        <time>2022-06-11T08:04:06Z</time>
      </trkpt>
      <trkpt lat="42.95998" lon="0.01073">
        <ele>1431</ele>
        <time>2022-06-11T08:04:09Z</time>
      </trkpt>
      <trkpt lat="42.95998" lon="0.01066">
        <ele>1431.6</ele>
        <time>2022-06-11T08:04:11Z</time>
      </trkpt>
      <trkpt lat="42.95998" lon="0.01063">
        <ele>1431.6</ele>
        <time>2022-06-11T08:04:13Z</time>
      </trkpt>
      <trkpt lat="42.95998" lon="0.01051">
        <ele>1432.8</ele>
        <time>2022-06-11T08:04:17Z</time>
      </trkpt>
      <trkpt lat="42.95997" lon="0.01046">
        <ele>1433.2</ele>
        <time>2022-06-11T08:04:19Z</time>
      </trkpt>
      <trkpt lat="42.96" lon="0.01042">
        <ele>1433.6</ele>
        <time>2022-06-11T08:04:21Z</time>
      </trkpt>
      <trkpt lat="42.96001" lon="0.01039">
        <ele>1433.8</ele>
        <time>2022-06-11T08:04:23Z</time>
      </trkpt>
      <trkpt lat="42.96001" lon="0.01035">
        <ele>1435.2</ele>
        <time>2022-06-11T08:04:26Z</time>
      </trkpt>
      <trkpt lat="42.95999" lon="0.01027">
        <ele>1436</ele>
        <time>2022-06-11T08:04:29Z</time>
      </trkpt>
      <trkpt lat="42.95999" lon="0.01026">
        <ele>1436.4</ele>
        <time>2022-06-11T08:04:30Z</time>
      </trkpt>
      <trkpt lat="42.95999" lon="0.01021">
        <ele>1437</ele>
        <time>2022-06-11T08:04:33Z</time>
      </trkpt>
      <trkpt lat="42.96001" lon="0.01017">
        <ele>1437.4</ele>
        <time>2022-06-11T08:04:35Z</time>
      </trkpt>
      <trkpt lat="42.96001" lon="0.01014">
        <ele>1437.6</ele>
        <time>2022-06-11T08:04:36Z</time>
      </trkpt>
      <trkpt lat="42.96003" lon="0.00998">
        <ele>1437.6</ele>
        <time>2022-06-11T08:04:40Z</time>
      </trkpt>
      <trkpt lat="42.96006" lon="0.00964">
        <ele>1436.8</ele>
        <time>2022-06-11T08:04:45Z</time>
      </trkpt>
      <trkpt lat="42.96008" lon="0.00949">
        <ele>1436.2</ele>
        <time>2022-06-11T08:04:47Z</time>
      </trkpt>
      <trkpt lat="42.96011" lon="0.00923">
        <ele>1435.2</ele>
        <time>2022-06-11T08:04:50Z</time>
      </trkpt>
      <trkpt lat="42.96012" lon="0.00913">
        <ele>1434.2</ele>
        <time>2022-06-11T08:04:51Z</time>
      </trkpt>
      <trkpt lat="42.96015" lon="0.00888">
        <ele>1433.4</ele>
        <time>2022-06-11T08:04:54Z</time>
      </trkpt>
      <trkpt lat="42.96016" lon="0.0088">
        <ele>1433.2</ele>
        <time>2022-06-11T08:04:55Z</time>
      </trkpt>
      <trkpt lat="42.96018" lon="0.00871">
        <ele>1433.2</ele>
        <time>2022-06-11T08:04:56Z</time>
      </trkpt>
      <trkpt lat="42.96024" lon="0.00845">
        <ele>1432.8</ele>
        <time>2022-06-11T08:04:59Z</time>
      </trkpt>
      <trkpt lat="42.96025" lon="0.00838">
        <ele>1432.6</ele>
        <time>2022-06-11T08:05:00Z</time>
      </trkpt>
      <trkpt lat="42.9603" lon="0.00816">
        <ele>1432.2</ele>
        <time>2022-06-11T08:05:03Z</time>
      </trkpt>
      <trkpt lat="42.96031" lon="0.00807">
        <ele>1431.8</ele>
        <time>2022-06-11T08:05:05Z</time>
      </trkpt>
      <trkpt lat="42.96032" lon="0.00777">
        <ele>1431.6</ele>
        <time>2022-06-11T08:05:11Z</time>
      </trkpt>
      <trkpt lat="42.96037" lon="0.0074">
        <ele>1431.2</ele>
        <time>2022-06-11T08:05:17Z</time>
      </trkpt>
      <trkpt lat="42.9604" lon="0.00723">
        <ele>1430.8</ele>
        <time>2022-06-11T08:05:19Z</time>
      </trkpt>
      <trkpt lat="42.96042" lon="0.00704">
        <ele>1430.6</ele>
        <time>2022-06-11T08:05:21Z</time>
      </trkpt>
      <trkpt lat="42.96043" lon="0.00697">
        <ele>1430.4</ele>
        <time>2022-06-11T08:05:22Z</time>
      </trkpt>
      <trkpt lat="42.96044" lon="0.00691">
        <ele>1430.2</ele>
        <time>2022-06-11T08:05:23Z</time>
      </trkpt>
      <trkpt lat="42.96044" lon="0.00684">
        <ele>1430.2</ele>
        <time>2022-06-11T08:05:24Z</time>
      </trkpt>
      <trkpt lat="42.96045" lon="0.00677">
        <ele>1429.8</ele>
        <time>2022-06-11T08:05:25Z</time>
      </trkpt>
      <trkpt lat="42.96047" lon="0.0067">
        <ele>1429.8</ele>
        <time>2022-06-11T08:05:26Z</time>
      </trkpt>
      <trkpt lat="42.96047" lon="0.0066">
        <ele>1428.2</ele>
        <time>2022-06-11T08:05:27Z</time>
      </trkpt>
      <trkpt lat="42.96049" lon="0.00647">
        <ele>1427.2</ele>
        <time>2022-06-11T08:05:29Z</time>
      </trkpt>
      <trkpt lat="42.96049" lon="0.00642">
        <ele>1426.6</ele>
        <time>2022-06-11T08:05:30Z</time>
      </trkpt>
      <trkpt lat="42.96053" lon="0.00627">
        <ele>1425.2</ele>
        <time>2022-06-11T08:05:32Z</time>
      </trkpt>
      <trkpt lat="42.96056" lon="0.00619">
        <ele>1424.6</ele>
        <time>2022-06-11T08:05:33Z</time>
      </trkpt>
      <trkpt lat="42.96059" lon="0.00611">
        <ele>1423.8</ele>
        <time>2022-06-11T08:05:34Z</time>
      </trkpt>
      <trkpt lat="42.96063" lon="0.00596">
        <ele>1422</ele>
        <time>2022-06-11T08:05:36Z</time>
      </trkpt>
      <trkpt lat="42.96067" lon="0.00585">
        <ele>1421.2</ele>
        <time>2022-06-11T08:05:37Z</time>
      </trkpt>
      <trkpt lat="42.96069" lon="0.00574">
        <ele>1420.2</ele>
        <time>2022-06-11T08:05:38Z</time>
      </trkpt>
      <trkpt lat="42.9607" lon="0.00555">
        <ele>1418.4</ele>
        <time>2022-06-11T08:05:40Z</time>
      </trkpt>
      <trkpt lat="42.96068" lon="0.0053">
        <ele>1417</ele>
        <time>2022-06-11T08:05:42Z</time>
      </trkpt>
      <trkpt lat="42.96067" lon="0.00523">
        <ele>1415.6</ele>
        <time>2022-06-11T08:05:43Z</time>
      </trkpt>
      <trkpt lat="42.96067" lon="0.00513">
        <ele>1415.4</ele>
        <time>2022-06-11T08:05:44Z</time>
      </trkpt>
      <trkpt lat="42.96067" lon="0.00506">
        <ele>1414.6</ele>
        <time>2022-06-11T08:05:45Z</time>
      </trkpt>
      <trkpt lat="42.96066" lon="0.00489">
        <ele>1412.8</ele>
        <time>2022-06-11T08:05:47Z</time>
      </trkpt>
      <trkpt lat="42.96068" lon="0.0048">
        <ele>1412.2</ele>
        <time>2022-06-11T08:05:48Z</time>
      </trkpt>
      <trkpt lat="42.96069" lon="0.00473">
        <ele>1411.2</ele>
        <time>2022-06-11T08:05:49Z</time>
      </trkpt>
      <trkpt lat="42.96072" lon="0.00456">
        <ele>1410.8</ele>
        <time>2022-06-11T08:05:51Z</time>
      </trkpt>
      <trkpt lat="42.96074" lon="0.00448">
        <ele>1410.4</ele>
        <time>2022-06-11T08:05:52Z</time>
      </trkpt>
      <trkpt lat="42.96076" lon="0.0044">
        <ele>1409.8</ele>
        <time>2022-06-11T08:05:53Z</time>
      </trkpt>
      <trkpt lat="42.96078" lon="0.00419">
        <ele>1408.8</ele>
        <time>2022-06-11T08:05:56Z</time>
      </trkpt>
      <trkpt lat="42.96079" lon="0.00408">
        <ele>1407.8</ele>
        <time>2022-06-11T08:05:58Z</time>
      </trkpt>
      <trkpt lat="42.96079" lon="0.00403">
        <ele>1407.2</ele>
        <time>2022-06-11T08:05:59Z</time>
      </trkpt>
      <trkpt lat="42.9608" lon="0.00389">
        <ele>1406.2</ele>
        <time>2022-06-11T08:06:01Z</time>
      </trkpt>
      <trkpt lat="42.96081" lon="0.00377">
        <ele>1404.8</ele>
        <time>2022-06-11T08:06:03Z</time>
      </trkpt>
      <trkpt lat="42.9608" lon="0.00362">
        <ele>1403.6</ele>
        <time>2022-06-11T08:06:06Z</time>
      </trkpt>
      <trkpt lat="42.96079" lon="0.00357">
        <ele>1403</ele>
        <time>2022-06-11T08:06:07Z</time>
      </trkpt>
      <trkpt lat="42.96078" lon="0.00352">
        <ele>1402.2</ele>
        <time>2022-06-11T08:06:08Z</time>
      </trkpt>
      <trkpt lat="42.96077" lon="0.00346">
        <ele>1401.6</ele>
        <time>2022-06-11T08:06:09Z</time>
      </trkpt>
      <trkpt lat="42.96077" lon="0.00337">
        <ele>1400.4</ele>
        <time>2022-06-11T08:06:10Z</time>
      </trkpt>
      <trkpt lat="42.96078" lon="0.00327">
        <ele>1399.8</ele>
        <time>2022-06-11T08:06:11Z</time>
      </trkpt>
      <trkpt lat="42.96077" lon="0.00318">
        <ele>1398.8</ele>
        <time>2022-06-11T08:06:12Z</time>
      </trkpt>
      <trkpt lat="42.96077" lon="0.003">
        <ele>1397</ele>
        <time>2022-06-11T08:06:14Z</time>
      </trkpt>
      <trkpt lat="42.96075" lon="0.00291">
        <ele>1395.2</ele>
        <time>2022-06-11T08:06:15Z</time>
      </trkpt>
      <trkpt lat="42.96071" lon="0.00284">
        <ele>1394.8</ele>
        <time>2022-06-11T08:06:16Z</time>
      </trkpt>
      <trkpt lat="42.96068" lon="0.00276">
        <ele>1394</ele>
        <time>2022-06-11T08:06:17Z</time>
      </trkpt>
      <trkpt lat="42.96064" lon="0.00265">
        <ele>1392</ele>
        <time>2022-06-11T08:06:19Z</time>
      </trkpt>
      <trkpt lat="42.96062" lon="0.00261">
        <ele>1391.4</ele>
        <time>2022-06-11T08:06:20Z</time>
      </trkpt>
      <trkpt lat="42.96059" lon="0.00257">
        <ele>1390.6</ele>
        <time>2022-06-11T08:06:21Z</time>
      </trkpt>
      <trkpt lat="42.96049" lon="0.00242">
        <ele>1389.4</ele>
        <time>2022-06-11T08:06:24Z</time>
      </trkpt>
      <trkpt lat="42.96047" lon="0.00239">
        <ele>1389</ele>
        <time>2022-06-11T08:06:25Z</time>
      </trkpt>
      <trkpt lat="42.96043" lon="0.00231">
        <ele>1388.2</ele>
        <time>2022-06-11T08:06:27Z</time>
      </trkpt>
      <trkpt lat="42.96042" lon="0.00227">
        <ele>1387.8</ele>
        <time>2022-06-11T08:06:28Z</time>
      </trkpt>
      <trkpt lat="42.96041" lon="0.00223">
        <ele>1387</ele>
        <time>2022-06-11T08:06:29Z</time>
      </trkpt>
      <trkpt lat="42.9604" lon="0.00215">
        <ele>1386.2</ele>
        <time>2022-06-11T08:06:31Z</time>
      </trkpt>
      <trkpt lat="42.9604" lon="0.00209">
        <ele>1386</ele>
        <time>2022-06-11T08:06:32Z</time>
      </trkpt>
      <trkpt lat="42.9604" lon="0.00202">
        <ele>1386</ele>
        <time>2022-06-11T08:06:33Z</time>
      </trkpt>
      <trkpt lat="42.96041" lon="0.00186">
        <ele>1385.8</ele>
        <time>2022-06-11T08:06:35Z</time>
      </trkpt>
      <trkpt lat="42.96042" lon="0.00173">
        <ele>1385.6</ele>
        <time>2022-06-11T08:06:37Z</time>
      </trkpt>
      <trkpt lat="42.96041" lon="0.00168">
        <ele>1385.4</ele>
        <time>2022-06-11T08:06:38Z</time>
      </trkpt>
      <trkpt lat="42.9604" lon="0.00151">
        <ele>1385</ele>
        <time>2022-06-11T08:06:40Z</time>
      </trkpt>
      <trkpt lat="42.9604" lon="0.00145">
        <ele>1384.6</ele>
        <time>2022-06-11T08:06:41Z</time>
      </trkpt>
      <trkpt lat="42.96039" lon="0.00136">
        <ele>1384</ele>
        <time>2022-06-11T08:06:43Z</time>
      </trkpt>
      <trkpt lat="42.96039" lon="0.00131">
        <ele>1383.2</ele>
        <time>2022-06-11T08:06:44Z</time>
      </trkpt>
      <trkpt lat="42.96039" lon="0.00123">
        <ele>1382.8</ele>
        <time>2022-06-11T08:06:45Z</time>
      </trkpt>
      <trkpt lat="42.96039" lon="0.00116">
        <ele>1382</ele>
        <time>2022-06-11T08:06:46Z</time>
      </trkpt>
      <trkpt lat="42.9604" lon="0.00108">
        <ele>1381.4</ele>
        <time>2022-06-11T08:06:47Z</time>
      </trkpt>
      <trkpt lat="42.96041" lon="0.00088">
        <ele>1380</ele>
        <time>2022-06-11T08:06:50Z</time>
      </trkpt>
      <trkpt lat="42.96042" lon="0.00081">
        <ele>1378.2</ele>
        <time>2022-06-11T08:06:51Z</time>
      </trkpt>
      <trkpt lat="42.96042" lon="0.00073">
        <ele>1376.4</ele>
        <time>2022-06-11T08:06:53Z</time>
      </trkpt>
      <trkpt lat="42.96044" lon="0.00055">
        <ele>1375.2</ele>
        <time>2022-06-11T08:06:56Z</time>
      </trkpt>
      <trkpt lat="42.96043" lon="0.00051">
        <ele>1374.8</ele>
        <time>2022-06-11T08:06:57Z</time>
      </trkpt>
      <trkpt lat="42.96043" lon="0.00047">
        <ele>1374</ele>
        <time>2022-06-11T08:06:58Z</time>
      </trkpt>
      <trkpt lat="42.96043" lon="0.0003">
        <ele>1372.8</ele>
        <time>2022-06-11T08:07:00Z</time>
      </trkpt>
      <trkpt lat="42.96039" lon="0.00016">
        <ele>1371.6</ele>
        <time>2022-06-11T08:07:02Z</time>
      </trkpt>
      <trkpt lat="42.96038" lon="8.0E-5">
        <ele>1370.8</ele>
        <time>2022-06-11T08:07:03Z</time>
      </trkpt>
      <trkpt lat="42.96039" lon="-0.00014">
        <ele>1368.2</ele>
        <time>2022-06-11T08:07:06Z</time>
      </trkpt>
      <trkpt lat="42.96041" lon="-0.00019">
        <ele>1367.2</ele>
        <time>2022-06-11T08:07:07Z</time>
      </trkpt>
      <trkpt lat="42.96043" lon="-0.00023">
        <ele>1366</ele>
        <time>2022-06-11T08:07:08Z</time>
      </trkpt>
      <trkpt lat="42.96046" lon="-0.00032">
        <ele>1363.8</ele>
        <time>2022-06-11T08:07:10Z</time>
      </trkpt>
      <trkpt lat="42.96045" lon="-0.0004">
        <ele>1361.6</ele>
        <time>2022-06-11T08:07:12Z</time>
      </trkpt>
      <trkpt lat="42.96047" lon="-0.00044">
        <ele>1360.4</ele>
        <time>2022-06-11T08:07:14Z</time>
      </trkpt>
      <trkpt lat="42.96048" lon="-0.00046">
        <ele>1360.2</ele>
        <time>2022-06-11T08:07:15Z</time>
      </trkpt>
      <trkpt lat="42.96049" lon="-0.00047">
        <ele>1359.8</ele>
        <time>2022-06-11T08:07:16Z</time>
      </trkpt>
      <trkpt lat="42.96049" lon="-0.00049">
        <ele>1359.2</ele>
        <time>2022-06-11T08:07:17Z</time>
      </trkpt>
      <trkpt lat="42.96051" lon="-0.00055">
        <ele>1357.8</ele>
        <time>2022-06-11T08:07:19Z</time>
      </trkpt>
      <trkpt lat="42.96053" lon="-0.00062">
        <ele>1356.8</ele>
        <time>2022-06-11T08:07:21Z</time>
      </trkpt>
      <trkpt lat="42.96055" lon="-0.0007">
        <ele>1355.6</ele>
        <time>2022-06-11T08:07:23Z</time>
      </trkpt>
      <trkpt lat="42.96057" lon="-0.00077">
        <ele>1354</ele>
        <time>2022-06-11T08:07:25Z</time>
      </trkpt>
      <trkpt lat="42.96058" lon="-0.00082">
        <ele>1353.4</ele>
        <time>2022-06-11T08:07:26Z</time>
      </trkpt>
      <trkpt lat="42.96059" lon="-0.00085">
        <ele>1352.4</ele>
        <time>2022-06-11T08:07:27Z</time>
      </trkpt>
      <trkpt lat="42.96063" lon="-0.00097">
        <ele>1350.2</ele>
        <time>2022-06-11T08:07:30Z</time>
      </trkpt>
      <trkpt lat="42.96066" lon="-0.001">
        <ele>1348.6</ele>
        <time>2022-06-11T08:07:31Z</time>
      </trkpt>
      <trkpt lat="42.96067" lon="-0.00104">
        <ele>1348.2</ele>
        <time>2022-06-11T08:07:32Z</time>
      </trkpt>
      <trkpt lat="42.96069" lon="-0.00108">
        <ele>1347.4</ele>
        <time>2022-06-11T08:07:33Z</time>
      </trkpt>
      <trkpt lat="42.96071" lon="-0.00113">
        <ele>1345.2</ele>
        <time>2022-06-11T08:07:34Z</time>
      </trkpt>
      <trkpt lat="42.96076" lon="-0.00126">
        <ele>1343.8</ele>
        <time>2022-06-11T08:07:36Z</time>
      </trkpt>
      <trkpt lat="42.96078" lon="-0.00132">
        <ele>1343</ele>
        <time>2022-06-11T08:07:37Z</time>
      </trkpt>
      <trkpt lat="42.96079" lon="-0.00136">
        <ele>1342</ele>
        <time>2022-06-11T08:07:38Z</time>
      </trkpt>
      <trkpt lat="42.96079" lon="-0.00144">
        <ele>1341.2</ele>
        <time>2022-06-11T08:07:40Z</time>
      </trkpt>
      <trkpt lat="42.9608" lon="-0.00152">
        <ele>1341</ele>
        <time>2022-06-11T08:07:41Z</time>
      </trkpt>
      <trkpt lat="42.96081" lon="-0.00166">
        <ele>1339.8</ele>
        <time>2022-06-11T08:07:43Z</time>
      </trkpt>
      <trkpt lat="42.96081" lon="-0.00172">
        <ele>1338.8</ele>
        <time>2022-06-11T08:07:44Z</time>
      </trkpt>
      <trkpt lat="42.96082" lon="-0.00178">
        <ele>1338.4</ele>
        <time>2022-06-11T08:07:45Z</time>
      </trkpt>
      <trkpt lat="42.96082" lon="-0.00186">
        <ele>1337.4</ele>
        <time>2022-06-11T08:07:46Z</time>
      </trkpt>
      <trkpt lat="42.96081" lon="-0.00194">
        <ele>1336.8</ele>
        <time>2022-06-11T08:07:47Z</time>
      </trkpt>
      <trkpt lat="42.96082" lon="-0.00202">
        <ele>1335</ele>
        <time>2022-06-11T08:07:48Z</time>
      </trkpt>
      <trkpt lat="42.96083" lon="-0.0021">
        <ele>1334.4</ele>
        <time>2022-06-11T08:07:49Z</time>
      </trkpt>
      <trkpt lat="42.96083" lon="-0.00215">
        <ele>1333.6</ele>
        <time>2022-06-11T08:07:50Z</time>
      </trkpt>
      <trkpt lat="42.96083" lon="-0.00221">
        <ele>1332.2</ele>
        <time>2022-06-11T08:07:51Z</time>
      </trkpt>
      <trkpt lat="42.96083" lon="-0.00228">
        <ele>1331.4</ele>
        <time>2022-06-11T08:07:52Z</time>
      </trkpt>
      <trkpt lat="42.96084" lon="-0.00233">
        <ele>1330.2</ele>
        <time>2022-06-11T08:07:53Z</time>
      </trkpt>
      <trkpt lat="42.96084" lon="-0.00242">
        <ele>1329.8</ele>
        <time>2022-06-11T08:07:54Z</time>
      </trkpt>
      <trkpt lat="42.96083" lon="-0.00251">
        <ele>1329</ele>
        <time>2022-06-11T08:07:55Z</time>
      </trkpt>
      <trkpt lat="42.96082" lon="-0.0026">
        <ele>1328</ele>
        <time>2022-06-11T08:07:56Z</time>
      </trkpt>
      <trkpt lat="42.96081" lon="-0.00268">
        <ele>1326</ele>
        <time>2022-06-11T08:07:57Z</time>
      </trkpt>
      <trkpt lat="42.96081" lon="-0.0029">
        <ele>1324.6</ele>
        <time>2022-06-11T08:07:59Z</time>
      </trkpt>
      <trkpt lat="42.96078" lon="-0.00309">
        <ele>1323</ele>
        <time>2022-06-11T08:08:01Z</time>
      </trkpt>
      <trkpt lat="42.96077" lon="-0.0032">
        <ele>1322.4</ele>
        <time>2022-06-11T08:08:02Z</time>
      </trkpt>
      <trkpt lat="42.96076" lon="-0.00329">
        <ele>1321.4</ele>
        <time>2022-06-11T08:08:03Z</time>
      </trkpt>
      <trkpt lat="42.96075" lon="-0.00344">
        <ele>1319.4</ele>
        <time>2022-06-11T08:08:05Z</time>
      </trkpt>
      <trkpt lat="42.96074" lon="-0.00351">
        <ele>1318</ele>
        <time>2022-06-11T08:08:06Z</time>
      </trkpt>
      <trkpt lat="42.96072" lon="-0.00358">
        <ele>1316.8</ele>
        <time>2022-06-11T08:08:07Z</time>
      </trkpt>
      <trkpt lat="42.96071" lon="-0.00365">
        <ele>1315</ele>
        <time>2022-06-11T08:08:08Z</time>
      </trkpt>
      <trkpt lat="42.96068" lon="-0.00373">
        <ele>1314.6</ele>
        <time>2022-06-11T08:08:09Z</time>
      </trkpt>
      <trkpt lat="42.96065" lon="-0.00378">
        <ele>1314</ele>
        <time>2022-06-11T08:08:10Z</time>
      </trkpt>
      <trkpt lat="42.96061" lon="-0.00384">
        <ele>1313.4</ele>
        <time>2022-06-11T08:08:11Z</time>
      </trkpt>
      <trkpt lat="42.96056" lon="-0.0039">
        <ele>1312.6</ele>
        <time>2022-06-11T08:08:12Z</time>
      </trkpt>
      <trkpt lat="42.96044" lon="-0.00409">
        <ele>1310.8</ele>
        <time>2022-06-11T08:08:15Z</time>
      </trkpt>
      <trkpt lat="42.9604" lon="-0.00416">
        <ele>1309.8</ele>
        <time>2022-06-11T08:08:16Z</time>
      </trkpt>
      <trkpt lat="42.96034" lon="-0.00425">
        <ele>1308.6</ele>
        <time>2022-06-11T08:08:18Z</time>
      </trkpt>
      <trkpt lat="42.96024" lon="-0.00436">
        <ele>1306.8</ele>
        <time>2022-06-11T08:08:20Z</time>
      </trkpt>
      <trkpt lat="42.96014" lon="-0.00452">
        <ele>1304.8</ele>
        <time>2022-06-11T08:08:23Z</time>
      </trkpt>
      <trkpt lat="42.96009" lon="-0.00461">
        <ele>1303.6</ele>
        <time>2022-06-11T08:08:25Z</time>
      </trkpt>
      <trkpt lat="42.96003" lon="-0.00475">
        <ele>1302.4</ele>
        <time>2022-06-11T08:08:28Z</time>
      </trkpt>
      <trkpt lat="42.96001" lon="-0.0048">
        <ele>1301.6</ele>
        <time>2022-06-11T08:08:29Z</time>
      </trkpt>
      <trkpt lat="42.95997" lon="-0.00485">
        <ele>1301</ele>
        <time>2022-06-11T08:08:30Z</time>
      </trkpt>
      <trkpt lat="42.95995" lon="-0.0049">
        <ele>1299.8</ele>
        <time>2022-06-11T08:08:31Z</time>
      </trkpt>
      <trkpt lat="42.95991" lon="-0.00497">
        <ele>1297.8</ele>
        <time>2022-06-11T08:08:33Z</time>
      </trkpt>
      <trkpt lat="42.95988" lon="-0.005">
        <ele>1297.2</ele>
        <time>2022-06-11T08:08:34Z</time>
      </trkpt>
      <trkpt lat="42.95985" lon="-0.00503">
        <ele>1296.4</ele>
        <time>2022-06-11T08:08:35Z</time>
      </trkpt>
      <trkpt lat="42.95981" lon="-0.00512">
        <ele>1294.8</ele>
        <time>2022-06-11T08:08:37Z</time>
      </trkpt>
      <trkpt lat="42.95978" lon="-0.00515">
        <ele>1293.2</ele>
        <time>2022-06-11T08:08:38Z</time>
      </trkpt>
      <trkpt lat="42.95974" lon="-0.0052">
        <ele>1292.6</ele>
        <time>2022-06-11T08:08:39Z</time>
      </trkpt>
      <trkpt lat="42.95971" lon="-0.00523">
        <ele>1292</ele>
        <time>2022-06-11T08:08:40Z</time>
      </trkpt>
      <trkpt lat="42.95967" lon="-0.00529">
        <ele>1290.8</ele>
        <time>2022-06-11T08:08:42Z</time>
      </trkpt>
      <trkpt lat="42.95965" lon="-0.00532">
        <ele>1290.4</ele>
        <time>2022-06-11T08:08:43Z</time>
      </trkpt>
      <trkpt lat="42.95959" lon="-0.00538">
        <ele>1289.4</ele>
        <time>2022-06-11T08:08:45Z</time>
      </trkpt>
      <trkpt lat="42.95949" lon="-0.00549">
        <ele>1287.6</ele>
        <time>2022-06-11T08:08:48Z</time>
      </trkpt>
      <trkpt lat="42.95939" lon="-0.00561">
        <ele>1286.4</ele>
        <time>2022-06-11T08:08:51Z</time>
      </trkpt>
      <trkpt lat="42.95935" lon="-0.00566">
        <ele>1285</ele>
        <time>2022-06-11T08:08:53Z</time>
      </trkpt>
      <trkpt lat="42.95923" lon="-0.00578">
        <ele>1283.8</ele>
        <time>2022-06-11T08:08:56Z</time>
      </trkpt>
      <trkpt lat="42.95916" lon="-0.00585">
        <ele>1282.2</ele>
        <time>2022-06-11T08:08:58Z</time>
      </trkpt>
      <trkpt lat="42.95915" lon="-0.00587">
        <ele>1280.8</ele>
        <time>2022-06-11T08:08:59Z</time>
      </trkpt>
      <trkpt lat="42.9591" lon="-0.00592">
        <ele>1279.6</ele>
        <time>2022-06-11T08:09:01Z</time>
      </trkpt>
      <trkpt lat="42.95905" lon="-0.00597">
        <ele>1278.4</ele>
        <time>2022-06-11T08:09:03Z</time>
      </trkpt>
      <trkpt lat="42.95899" lon="-0.00604">
        <ele>1277</ele>
        <time>2022-06-11T08:09:05Z</time>
      </trkpt>
      <trkpt lat="42.95896" lon="-0.00609">
        <ele>1276.6</ele>
        <time>2022-06-11T08:09:06Z</time>
      </trkpt>
      <trkpt lat="42.95893" lon="-0.00613">
        <ele>1275.8</ele>
        <time>2022-06-11T08:09:07Z</time>
      </trkpt>
      <trkpt lat="42.9589" lon="-0.00619">
        <ele>1274.8</ele>
        <time>2022-06-11T08:09:09Z</time>
      </trkpt>
      <trkpt lat="42.95885" lon="-0.00625">
        <ele>1273.6</ele>
        <time>2022-06-11T08:09:11Z</time>
      </trkpt>
      <trkpt lat="42.9588" lon="-0.00632">
        <ele>1272.2</ele>
        <time>2022-06-11T08:09:13Z</time>
      </trkpt>
      <trkpt lat="42.95878" lon="-0.00635">
        <ele>1270.8</ele>
        <time>2022-06-11T08:09:14Z</time>
      </trkpt>
      <trkpt lat="42.95872" lon="-0.00641">
        <ele>1269.6</ele>
        <time>2022-06-11T08:09:16Z</time>
      </trkpt>
      <trkpt lat="42.95864" lon="-0.00654">
        <ele>1268.4</ele>
        <time>2022-06-11T08:09:19Z</time>
      </trkpt>
      <trkpt lat="42.95855" lon="-0.00661">
        <ele>1267.4</ele>
        <time>2022-06-11T08:09:21Z</time>
      </trkpt>
      <trkpt lat="42.95853" lon="-0.00663">
        <ele>1266.8</ele>
        <time>2022-06-11T08:09:22Z</time>
      </trkpt>
      <trkpt lat="42.9585" lon="-0.00665">
        <ele>1266.4</ele>
        <time>2022-06-11T08:09:23Z</time>
      </trkpt>
      <trkpt lat="42.95847" lon="-0.00668">
        <ele>1266</ele>
        <time>2022-06-11T08:09:24Z</time>
      </trkpt>
      <trkpt lat="42.95836" lon="-0.00681">
        <ele>1264.2</ele>
        <time>2022-06-11T08:09:27Z</time>
      </trkpt>
      <trkpt lat="42.95829" lon="-0.00688">
        <ele>1263</ele>
        <time>2022-06-11T08:09:29Z</time>
      </trkpt>
      <trkpt lat="42.95821" lon="-0.00701">
        <ele>1261.8</ele>
        <time>2022-06-11T08:09:32Z</time>
      </trkpt>
      <trkpt lat="42.95812" lon="-0.00715">
        <ele>1260.6</ele>
        <time>2022-06-11T08:09:34Z</time>
      </trkpt>
      <trkpt lat="42.95809" lon="-0.00719">
        <ele>1259.8</ele>
        <time>2022-06-11T08:09:35Z</time>
      </trkpt>
      <trkpt lat="42.95805" lon="-0.00725">
        <ele>1259.4</ele>
        <time>2022-06-11T08:09:36Z</time>
      </trkpt>
      <trkpt lat="42.958" lon="-0.00733">
        <ele>1258</ele>
        <time>2022-06-11T08:09:39Z</time>
      </trkpt>
      <trkpt lat="42.95799" lon="-0.00736">
        <ele>1257.8</ele>
        <time>2022-06-11T08:09:40Z</time>
      </trkpt>
      <trkpt lat="42.95797" lon="-0.00739">
        <ele>1257</ele>
        <time>2022-06-11T08:09:41Z</time>
      </trkpt>
      <trkpt lat="42.95787" lon="-0.00754">
        <ele>1255.6</ele>
        <time>2022-06-11T08:09:44Z</time>
      </trkpt>
      <trkpt lat="42.95782" lon="-0.00758">
        <ele>1254.2</ele>
        <time>2022-06-11T08:09:46Z</time>
      </trkpt>
      <trkpt lat="42.95779" lon="-0.00761">
        <ele>1252.6</ele>
        <time>2022-06-11T08:09:48Z</time>
      </trkpt>
      <trkpt lat="42.95776" lon="-0.00764">
        <ele>1250.8</ele>
        <time>2022-06-11T08:09:50Z</time>
      </trkpt>
      <trkpt lat="42.95773" lon="-0.00767">
        <ele>1250.4</ele>
        <time>2022-06-11T08:09:51Z</time>
      </trkpt>
      <trkpt lat="42.95772" lon="-0.00768">
        <ele>1249.2</ele>
        <time>2022-06-11T08:09:52Z</time>
      </trkpt>
      <trkpt lat="42.95764" lon="-0.00776">
        <ele>1247.6</ele>
        <time>2022-06-11T08:09:54Z</time>
      </trkpt>
      <trkpt lat="42.95762" lon="-0.00779">
        <ele>1247.2</ele>
        <time>2022-06-11T08:09:55Z</time>
      </trkpt>
      <trkpt lat="42.95761" lon="-0.00779">
        <ele>1246.4</ele>
        <time>2022-06-11T08:09:56Z</time>
      </trkpt>
      <trkpt lat="42.9576" lon="-0.00781">
        <ele>1245.6</ele>
        <time>2022-06-11T08:09:57Z</time>
      </trkpt>
      <trkpt lat="42.95759" lon="-0.00783">
        <ele>1245.4</ele>
        <time>2022-06-11T08:09:58Z</time>
      </trkpt>
      <trkpt lat="42.95753" lon="-0.0079">
        <ele>1243.8</ele>
        <time>2022-06-11T08:10:01Z</time>
      </trkpt>
      <trkpt lat="42.9575" lon="-0.00793">
        <ele>1243</ele>
        <time>2022-06-11T08:10:03Z</time>
      </trkpt>
      <trkpt lat="42.95747" lon="-0.00796">
        <ele>1241.8</ele>
        <time>2022-06-11T08:10:05Z</time>
      </trkpt>
      <trkpt lat="42.95744" lon="-0.00799">
        <ele>1240.4</ele>
        <time>2022-06-11T08:10:08Z</time>
      </trkpt>
      <trkpt lat="42.95738" lon="-0.00803">
        <ele>1239.2</ele>
        <time>2022-06-11T08:10:10Z</time>
      </trkpt>
      <trkpt lat="42.95735" lon="-0.00807">
        <ele>1238</ele>
        <time>2022-06-11T08:10:12Z</time>
      </trkpt>
      <trkpt lat="42.95734" lon="-0.00808">
        <ele>1237.2</ele>
        <time>2022-06-11T08:10:13Z</time>
      </trkpt>
      <trkpt lat="42.95732" lon="-0.00809">
        <ele>1236.2</ele>
        <time>2022-06-11T08:10:14Z</time>
      </trkpt>
      <trkpt lat="42.95727" lon="-0.00813">
        <ele>1235.2</ele>
        <time>2022-06-11T08:10:17Z</time>
      </trkpt>
      <trkpt lat="42.95725" lon="-0.00815">
        <ele>1234.2</ele>
        <time>2022-06-11T08:10:19Z</time>
      </trkpt>
      <trkpt lat="42.95723" lon="-0.00817">
        <ele>1233.6</ele>
        <time>2022-06-11T08:10:20Z</time>
      </trkpt>
      <trkpt lat="42.95716" lon="-0.00821">
        <ele>1232.2</ele>
        <time>2022-06-11T08:10:22Z</time>
      </trkpt>
      <trkpt lat="42.95711" lon="-0.00823">
        <ele>1231.8</ele>
        <time>2022-06-11T08:10:23Z</time>
      </trkpt>
      <trkpt lat="42.95708" lon="-0.00825">
        <ele>1231.2</ele>
        <time>2022-06-11T08:10:24Z</time>
      </trkpt>
      <trkpt lat="42.95703" lon="-0.00829">
        <ele>1231</ele>
        <time>2022-06-11T08:10:25Z</time>
      </trkpt>
      <trkpt lat="42.95692" lon="-0.00837">
        <ele>1230.2</ele>
        <time>2022-06-11T08:10:27Z</time>
      </trkpt>
      <trkpt lat="42.95688" lon="-0.00842">
        <ele>1228.8</ele>
        <time>2022-06-11T08:10:28Z</time>
      </trkpt>
      <trkpt lat="42.9568" lon="-0.00853">
        <ele>1226.8</ele>
        <time>2022-06-11T08:10:30Z</time>
      </trkpt>
      <trkpt lat="42.95677" lon="-0.0086">
        <ele>1225.4</ele>
        <time>2022-06-11T08:10:31Z</time>
      </trkpt>
      <trkpt lat="42.95673" lon="-0.00867">
        <ele>1224.8</ele>
        <time>2022-06-11T08:10:32Z</time>
      </trkpt>
      <trkpt lat="42.95669" lon="-0.00872">
        <ele>1224</ele>
        <time>2022-06-11T08:10:33Z</time>
      </trkpt>
      <trkpt lat="42.95661" lon="-0.00884">
        <ele>1222.6</ele>
        <time>2022-06-11T08:10:35Z</time>
      </trkpt>
      <trkpt lat="42.95652" lon="-0.00897">
        <ele>1220.6</ele>
        <time>2022-06-11T08:10:37Z</time>
      </trkpt>
      <trkpt lat="42.9565" lon="-0.00902">
        <ele>1220.2</ele>
        <time>2022-06-11T08:10:38Z</time>
      </trkpt>
      <trkpt lat="42.95646" lon="-0.00908">
        <ele>1219.6</ele>
        <time>2022-06-11T08:10:39Z</time>
      </trkpt>
      <trkpt lat="42.95644" lon="-0.00913">
        <ele>1219.2</ele>
        <time>2022-06-11T08:10:40Z</time>
      </trkpt>
      <trkpt lat="42.95636" lon="-0.00921">
        <ele>1218.2</ele>
        <time>2022-06-11T08:10:42Z</time>
      </trkpt>
      <trkpt lat="42.95629" lon="-0.00928">
        <ele>1216.8</ele>
        <time>2022-06-11T08:10:44Z</time>
      </trkpt>
      <trkpt lat="42.9562" lon="-0.00942">
        <ele>1215.4</ele>
        <time>2022-06-11T08:10:46Z</time>
      </trkpt>
      <trkpt lat="42.95616" lon="-0.00948">
        <ele>1215.2</ele>
        <time>2022-06-11T08:10:47Z</time>
      </trkpt>
      <trkpt lat="42.95607" lon="-0.00965">
        <ele>1214.4</ele>
        <time>2022-06-11T08:10:50Z</time>
      </trkpt>
      <trkpt lat="42.95602" lon="-0.00975">
        <ele>1213.8</ele>
        <time>2022-06-11T08:10:52Z</time>
      </trkpt>
      <trkpt lat="42.95597" lon="-0.0098">
        <ele>1213</ele>
        <time>2022-06-11T08:10:54Z</time>
      </trkpt>
      <trkpt lat="42.95591" lon="-0.00985">
        <ele>1211.8</ele>
        <time>2022-06-11T08:10:56Z</time>
      </trkpt>
      <trkpt lat="42.95585" lon="-0.0099">
        <ele>1210.8</ele>
        <time>2022-06-11T08:10:58Z</time>
      </trkpt>
      <trkpt lat="42.95576" lon="-0.00997">
        <ele>1209.4</ele>
        <time>2022-06-11T08:11:01Z</time>
      </trkpt>
      <trkpt lat="42.95573" lon="-0.00998">
        <ele>1208.2</ele>
        <time>2022-06-11T08:11:02Z</time>
      </trkpt>
      <trkpt lat="42.95568" lon="-0.01">
        <ele>1207</ele>
        <time>2022-06-11T08:11:04Z</time>
      </trkpt>
      <trkpt lat="42.95561" lon="-0.01002">
        <ele>1205.6</ele>
        <time>2022-06-11T08:11:06Z</time>
      </trkpt>
      <trkpt lat="42.95558" lon="-0.01004">
        <ele>1204.6</ele>
        <time>2022-06-11T08:11:07Z</time>
      </trkpt>
      <trkpt lat="42.95554" lon="-0.01005">
        <ele>1203.2</ele>
        <time>2022-06-11T08:11:10Z</time>
      </trkpt>
      <trkpt lat="42.95551" lon="-0.01006">
        <ele>1202.4</ele>
        <time>2022-06-11T08:11:11Z</time>
      </trkpt>
      <trkpt lat="42.95549" lon="-0.01006">
        <ele>1202</ele>
        <time>2022-06-11T08:11:12Z</time>
      </trkpt>
      <trkpt lat="42.95544" lon="-0.01008">
        <ele>1200.8</ele>
        <time>2022-06-11T08:11:14Z</time>
      </trkpt>
      <trkpt lat="42.95538" lon="-0.01009">
        <ele>1199.4</ele>
        <time>2022-06-11T08:11:17Z</time>
      </trkpt>
      <trkpt lat="42.95536" lon="-0.01009">
        <ele>1199.2</ele>
        <time>2022-06-11T08:11:18Z</time>
      </trkpt>
      <trkpt lat="42.95534" lon="-0.01009">
        <ele>1198.6</ele>
        <time>2022-06-11T08:11:19Z</time>
      </trkpt>
      <trkpt lat="42.95531" lon="-0.0101">
        <ele>1198</ele>
        <time>2022-06-11T08:11:20Z</time>
      </trkpt>
      <trkpt lat="42.95525" lon="-0.01012">
        <ele>1197</ele>
        <time>2022-06-11T08:11:22Z</time>
      </trkpt>
      <trkpt lat="42.95515" lon="-0.01015">
        <ele>1196</ele>
        <time>2022-06-11T08:11:25Z</time>
      </trkpt>
      <trkpt lat="42.95511" lon="-0.01016">
        <ele>1195</ele>
        <time>2022-06-11T08:11:26Z</time>
      </trkpt>
      <trkpt lat="42.95507" lon="-0.01016">
        <ele>1194.6</ele>
        <time>2022-06-11T08:11:27Z</time>
      </trkpt>
      <trkpt lat="42.95501" lon="-0.01017">
        <ele>1193.6</ele>
        <time>2022-06-11T08:11:29Z</time>
      </trkpt>
      <trkpt lat="42.95496" lon="-0.0102">
        <ele>1192.8</ele>
        <time>2022-06-11T08:11:30Z</time>
      </trkpt>
      <trkpt lat="42.95495" lon="-0.01024">
        <ele>1192.4</ele>
        <time>2022-06-11T08:11:31Z</time>
      </trkpt>
      <trkpt lat="42.95493" lon="-0.0103">
        <ele>1191.2</ele>
        <time>2022-06-11T08:11:32Z</time>
      </trkpt>
      <trkpt lat="42.95493" lon="-0.01034">
        <ele>1190.6</ele>
        <time>2022-06-11T08:11:33Z</time>
      </trkpt>
      <trkpt lat="42.95491" lon="-0.0104">
        <ele>1189.8</ele>
        <time>2022-06-11T08:11:34Z</time>
      </trkpt>
      <trkpt lat="42.95489" lon="-0.01047">
        <ele>1189.2</ele>
        <time>2022-06-11T08:11:35Z</time>
      </trkpt>
      <trkpt lat="42.95487" lon="-0.01053">
        <ele>1188.6</ele>
        <time>2022-06-11T08:11:36Z</time>
      </trkpt>
      <trkpt lat="42.95486" lon="-0.01057">
        <ele>1187.8</ele>
        <time>2022-06-11T08:11:37Z</time>
      </trkpt>
      <trkpt lat="42.95485" lon="-0.01061">
        <ele>1187.6</ele>
        <time>2022-06-11T08:11:38Z</time>
      </trkpt>
      <trkpt lat="42.95482" lon="-0.01066">
        <ele>1186.8</ele>
        <time>2022-06-11T08:11:39Z</time>
      </trkpt>
      <trkpt lat="42.95478" lon="-0.01071">
        <ele>1186.4</ele>
        <time>2022-06-11T08:11:40Z</time>
      </trkpt>
      <trkpt lat="42.95474" lon="-0.01074">
        <ele>1185.6</ele>
        <time>2022-06-11T08:11:41Z</time>
      </trkpt>
      <trkpt lat="42.95471" lon="-0.01076">
        <ele>1185.4</ele>
        <time>2022-06-11T08:11:42Z</time>
      </trkpt>
      <trkpt lat="42.95464" lon="-0.01082">
        <ele>1184.2</ele>
        <time>2022-06-11T08:11:44Z</time>
      </trkpt>
      <trkpt lat="42.95457" lon="-0.01086">
        <ele>1182.8</ele>
        <time>2022-06-11T08:11:46Z</time>
      </trkpt>
      <trkpt lat="42.95454" lon="-0.01089">
        <ele>1182.2</ele>
        <time>2022-06-11T08:11:47Z</time>
      </trkpt>
      <trkpt lat="42.95451" lon="-0.01092">
        <ele>1181.8</ele>
        <time>2022-06-11T08:11:48Z</time>
      </trkpt>
      <trkpt lat="42.95442" lon="-0.01098">
        <ele>1180.4</ele>
        <time>2022-06-11T08:11:50Z</time>
      </trkpt>
      <trkpt lat="42.95437" lon="-0.01101">
        <ele>1179.4</ele>
        <time>2022-06-11T08:11:51Z</time>
      </trkpt>
      <trkpt lat="42.95432" lon="-0.01105">
        <ele>1178.2</ele>
        <time>2022-06-11T08:11:52Z</time>
      </trkpt>
      <trkpt lat="42.95424" lon="-0.01116">
        <ele>1177</ele>
        <time>2022-06-11T08:11:54Z</time>
      </trkpt>
      <trkpt lat="42.95413" lon="-0.01131">
        <ele>1176</ele>
        <time>2022-06-11T08:11:57Z</time>
      </trkpt>
      <trkpt lat="42.95408" lon="-0.01136">
        <ele>1175.2</ele>
        <time>2022-06-11T08:11:58Z</time>
      </trkpt>
      <trkpt lat="42.95405" lon="-0.01139">
        <ele>1174.4</ele>
        <time>2022-06-11T08:11:59Z</time>
      </trkpt>
      <trkpt lat="42.95401" lon="-0.01142">
        <ele>1173.4</ele>
        <time>2022-06-11T08:12:00Z</time>
      </trkpt>
      <trkpt lat="42.95393" lon="-0.01149">
        <ele>1172</ele>
        <time>2022-06-11T08:12:03Z</time>
      </trkpt>
      <trkpt lat="42.95391" lon="-0.01151">
        <ele>1170.8</ele>
        <time>2022-06-11T08:12:05Z</time>
      </trkpt>
      <trkpt lat="42.95391" lon="-0.01151">
        <ele>1169.6</ele>
        <time>2022-06-11T08:12:07Z</time>
      </trkpt>
      <trkpt lat="42.95391" lon="-0.01151">
        <ele>1168.4</ele>
        <time>2022-06-11T08:12:09Z</time>
      </trkpt>
      <trkpt lat="42.95391" lon="-0.01151">
        <ele>1167.4</ele>
        <time>2022-06-11T08:12:14Z</time>
      </trkpt>
      <trkpt lat="42.95391" lon="-0.01151">
        <ele>1166.8</ele>
        <time>2022-06-11T08:12:28Z</time>
      </trkpt>
      <trkpt lat="42.95391" lon="-0.01151">
        <ele>1166.4</ele>
        <time>2022-06-11T08:12:46Z</time>
      </trkpt>
      <trkpt lat="42.95385" lon="-0.01159">
        <ele>1166.4</ele>
        <time>2022-06-11T08:13:11Z</time>
      </trkpt>
      <trkpt lat="42.95375" lon="-0.01171">
        <ele>1165.6</ele>
        <time>2022-06-11T08:13:16Z</time>
      </trkpt>
      <trkpt lat="42.95374" lon="-0.01173">
        <ele>1164.8</ele>
        <time>2022-06-11T08:13:20Z</time>
      </trkpt>
      <trkpt lat="42.95374" lon="-0.01173">
        <ele>1163.8</ele>
        <time>2022-06-11T08:13:23Z</time>
      </trkpt>
      <trkpt lat="42.95374" lon="-0.01173">
        <ele>1163</ele>
        <time>2022-06-11T08:13:29Z</time>
      </trkpt>
      <trkpt lat="42.95374" lon="-0.01173">
        <ele>1162.8</ele>
        <time>2022-06-11T08:13:38Z</time>
      </trkpt>
      <trkpt lat="42.95369" lon="-0.0118">
        <ele>1162.4</ele>
        <time>2022-06-11T08:13:51Z</time>
      </trkpt>
      <trkpt lat="42.95367" lon="-0.01181">
        <ele>1162.4</ele>
        <time>2022-06-11T08:13:52Z</time>
      </trkpt>
      <trkpt lat="42.95359" lon="-0.01188">
        <ele>1161.4</ele>
        <time>2022-06-11T08:13:57Z</time>
      </trkpt>
      <trkpt lat="42.95357" lon="-0.01191">
        <ele>1161.2</ele>
        <time>2022-06-11T08:13:58Z</time>
      </trkpt>
      <trkpt lat="42.95348" lon="-0.012">
        <ele>1160.4</ele>
        <time>2022-06-11T08:14:02Z</time>
      </trkpt>
      <trkpt lat="42.95344" lon="-0.01206">
        <ele>1159.8</ele>
        <time>2022-06-11T08:14:04Z</time>
      </trkpt>
      <trkpt lat="42.9534" lon="-0.01212">
        <ele>1159</ele>
        <time>2022-06-11T08:14:06Z</time>
      </trkpt>
      <trkpt lat="42.95337" lon="-0.01218">
        <ele>1157.8</ele>
        <time>2022-06-11T08:14:08Z</time>
      </trkpt>
      <trkpt lat="42.9533" lon="-0.01229">
        <ele>1156.6</ele>
        <time>2022-06-11T08:14:11Z</time>
      </trkpt>
      <trkpt lat="42.95325" lon="-0.01234">
        <ele>1155.6</ele>
        <time>2022-06-11T08:14:13Z</time>
      </trkpt>
      <trkpt lat="42.95321" lon="-0.01239">
        <ele>1154.4</ele>
        <time>2022-06-11T08:14:15Z</time>
      </trkpt>
      <trkpt lat="42.95319" lon="-0.01242">
        <ele>1154.2</ele>
        <time>2022-06-11T08:14:16Z</time>
      </trkpt>
      <trkpt lat="42.95313" lon="-0.01248">
        <ele>1153.4</ele>
        <time>2022-06-11T08:14:18Z</time>
      </trkpt>
      <trkpt lat="42.95301" lon="-0.01259">
        <ele>1152.4</ele>
        <time>2022-06-11T08:14:21Z</time>
      </trkpt>
      <trkpt lat="42.95297" lon="-0.01269">
        <ele>1151.6</ele>
        <time>2022-06-11T08:14:23Z</time>
      </trkpt>
      <trkpt lat="42.95296" lon="-0.01276">
        <ele>1150.8</ele>
        <time>2022-06-11T08:14:24Z</time>
      </trkpt>
      <trkpt lat="42.95295" lon="-0.01282">
        <ele>1150</ele>
        <time>2022-06-11T08:14:25Z</time>
      </trkpt>
      <trkpt lat="42.95295" lon="-0.01287">
        <ele>1149.6</ele>
        <time>2022-06-11T08:14:26Z</time>
      </trkpt>
      <trkpt lat="42.95289" lon="-0.01309">
        <ele>1148.6</ele>
        <time>2022-06-11T08:14:30Z</time>
      </trkpt>
      <trkpt lat="42.95287" lon="-0.01313">
        <ele>1148.2</ele>
        <time>2022-06-11T08:14:31Z</time>
      </trkpt>
      <trkpt lat="42.95282" lon="-0.0132">
        <ele>1147.4</ele>
        <time>2022-06-11T08:14:33Z</time>
      </trkpt>
      <trkpt lat="42.95274" lon="-0.0133">
        <ele>1146</ele>
        <time>2022-06-11T08:14:36Z</time>
      </trkpt>
      <trkpt lat="42.95268" lon="-0.01337">
        <ele>1145</ele>
        <time>2022-06-11T08:14:38Z</time>
      </trkpt>
      <trkpt lat="42.95262" lon="-0.01344">
        <ele>1143.6</ele>
        <time>2022-06-11T08:14:40Z</time>
      </trkpt>
      <trkpt lat="42.95259" lon="-0.01349">
        <ele>1143.4</ele>
        <time>2022-06-11T08:14:41Z</time>
      </trkpt>
      <trkpt lat="42.95257" lon="-0.01354">
        <ele>1142</ele>
        <time>2022-06-11T08:14:42Z</time>
      </trkpt>
      <trkpt lat="42.95255" lon="-0.01359">
        <ele>1140.4</ele>
        <time>2022-06-11T08:14:43Z</time>
      </trkpt>
      <trkpt lat="42.95253" lon="-0.01367">
        <ele>1138.4</ele>
        <time>2022-06-11T08:14:45Z</time>
      </trkpt>
      <trkpt lat="42.95251" lon="-0.01375">
        <ele>1137</ele>
        <time>2022-06-11T08:14:47Z</time>
      </trkpt>
      <trkpt lat="42.95249" lon="-0.0138">
        <ele>1135.6</ele>
        <time>2022-06-11T08:14:49Z</time>
      </trkpt>
      <trkpt lat="42.95242" lon="-0.01389">
        <ele>1134.6</ele>
        <time>2022-06-11T08:14:53Z</time>
      </trkpt>
      <trkpt lat="42.95238" lon="-0.01391">
        <ele>1134</ele>
        <time>2022-06-11T08:14:55Z</time>
      </trkpt>
      <trkpt lat="42.95236" lon="-0.01392">
        <ele>1133.6</ele>
        <time>2022-06-11T08:14:57Z</time>
      </trkpt>
      <trkpt lat="42.9523" lon="-0.01398">
        <ele>1133.2</ele>
        <time>2022-06-11T08:15:00Z</time>
      </trkpt>
      <trkpt lat="42.95225" lon="-0.01402">
        <ele>1132.8</ele>
        <time>2022-06-11T08:15:03Z</time>
      </trkpt>
      <trkpt lat="42.95224" lon="-0.01405">
        <ele>1132.4</ele>
        <time>2022-06-11T08:15:04Z</time>
      </trkpt>
      <trkpt lat="42.95222" lon="-0.01407">
        <ele>1132.4</ele>
        <time>2022-06-11T08:15:05Z</time>
      </trkpt>
      <trkpt lat="42.95217" lon="-0.01423">
        <ele>1131.8</ele>
        <time>2022-06-11T08:15:11Z</time>
      </trkpt>
      <trkpt lat="42.95217" lon="-0.01433">
        <ele>1131.6</ele>
        <time>2022-06-11T08:15:13Z</time>
      </trkpt>
      <trkpt lat="42.95217" lon="-0.01448">
        <ele>1131.2</ele>
        <time>2022-06-11T08:15:16Z</time>
      </trkpt>
      <trkpt lat="42.95215" lon="-0.01467">
        <ele>1130.4</ele>
        <time>2022-06-11T08:15:20Z</time>
      </trkpt>
      <trkpt lat="42.95212" lon="-0.01477">
        <ele>1129.6</ele>
        <time>2022-06-11T08:15:22Z</time>
      </trkpt>
      <trkpt lat="42.95211" lon="-0.0148">
        <ele>1129</ele>
        <time>2022-06-11T08:15:23Z</time>
      </trkpt>
      <trkpt lat="42.95207" lon="-0.01498">
        <ele>1128</ele>
        <time>2022-06-11T08:15:27Z</time>
      </trkpt>
      <trkpt lat="42.95204" lon="-0.01512">
        <ele>1127.2</ele>
        <time>2022-06-11T08:15:30Z</time>
      </trkpt>
      <trkpt lat="42.95203" lon="-0.01516">
        <ele>1127</ele>
        <time>2022-06-11T08:15:31Z</time>
      </trkpt>
      <trkpt lat="42.95199" lon="-0.01531">
        <ele>1125.8</ele>
        <time>2022-06-11T08:15:34Z</time>
      </trkpt>
      <trkpt lat="42.95195" lon="-0.01539">
        <ele>1125.2</ele>
        <time>2022-06-11T08:15:36Z</time>
      </trkpt>
      <trkpt lat="42.95188" lon="-0.01547">
        <ele>1124.8</ele>
        <time>2022-06-11T08:15:38Z</time>
      </trkpt>
      <trkpt lat="42.95183" lon="-0.01555">
        <ele>1124.2</ele>
        <time>2022-06-11T08:15:40Z</time>
      </trkpt>
      <trkpt lat="42.95181" lon="-0.01559">
        <ele>1123.6</ele>
        <time>2022-06-11T08:15:41Z</time>
      </trkpt>
      <trkpt lat="42.9518" lon="-0.01569">
        <ele>1122.8</ele>
        <time>2022-06-11T08:15:43Z</time>
      </trkpt>
      <trkpt lat="42.9518" lon="-0.01573">
        <ele>1122</ele>
        <time>2022-06-11T08:15:44Z</time>
      </trkpt>
      <trkpt lat="42.95179" lon="-0.01582">
        <ele>1121</ele>
        <time>2022-06-11T08:15:46Z</time>
      </trkpt>
      <trkpt lat="42.95176" lon="-0.01592">
        <ele>1120</ele>
        <time>2022-06-11T08:15:48Z</time>
      </trkpt>
      <trkpt lat="42.95169" lon="-0.01607">
        <ele>1118.6</ele>
        <time>2022-06-11T08:15:51Z</time>
      </trkpt>
      <trkpt lat="42.95165" lon="-0.01614">
        <ele>1117.4</ele>
        <time>2022-06-11T08:15:53Z</time>
      </trkpt>
      <trkpt lat="42.95158" lon="-0.01625">
        <ele>1116.4</ele>
        <time>2022-06-11T08:15:56Z</time>
      </trkpt>
      <trkpt lat="42.95156" lon="-0.01629">
        <ele>1116</ele>
        <time>2022-06-11T08:15:57Z</time>
      </trkpt>
      <trkpt lat="42.95153" lon="-0.01633">
        <ele>1115.2</ele>
        <time>2022-06-11T08:15:59Z</time>
      </trkpt>
      <trkpt lat="42.95152" lon="-0.01634">
        <ele>1114.2</ele>
        <time>2022-06-11T08:16:02Z</time>
      </trkpt>
      <trkpt lat="42.95148" lon="-0.01634">
        <ele>1113</ele>
        <time>2022-06-11T08:16:07Z</time>
      </trkpt>
      <trkpt lat="42.95147" lon="-0.01634">
        <ele>1113</ele>
        <time>2022-06-11T08:16:08Z</time>
      </trkpt>
      <trkpt lat="42.95147" lon="-0.01634">
        <ele>1112.4</ele>
        <time>2022-06-11T08:16:15Z</time>
      </trkpt>
      <trkpt lat="42.95147" lon="-0.01634">
        <ele>1112.2</ele>
        <time>2022-06-11T08:16:34Z</time>
      </trkpt>
      <trkpt lat="42.95145" lon="-0.01636">
        <ele>1112.2</ele>
        <time>2022-06-11T08:16:36Z</time>
      </trkpt>
      <trkpt lat="42.95141" lon="-0.01642">
        <ele>1112</ele>
        <time>2022-06-11T08:16:38Z</time>
      </trkpt>
      <trkpt lat="42.95129" lon="-0.01658">
        <ele>1111.8</ele>
        <time>2022-06-11T08:16:43Z</time>
      </trkpt>
      <trkpt lat="42.95114" lon="-0.01681">
        <ele>1111.2</ele>
        <time>2022-06-11T08:16:48Z</time>
      </trkpt>
      <trkpt lat="42.95106" lon="-0.01694">
        <ele>1110.8</ele>
        <time>2022-06-11T08:16:51Z</time>
      </trkpt>
      <trkpt lat="42.95102" lon="-0.01705">
        <ele>1110</ele>
        <time>2022-06-11T08:16:54Z</time>
      </trkpt>
      <trkpt lat="42.951" lon="-0.01709">
        <ele>1110</ele>
        <time>2022-06-11T08:16:55Z</time>
      </trkpt>
      <trkpt lat="42.95092" lon="-0.01731">
        <ele>1109.4</ele>
        <time>2022-06-11T08:17:01Z</time>
      </trkpt>
      <trkpt lat="42.9509" lon="-0.01745">
        <ele>1109.2</ele>
        <time>2022-06-11T08:17:07Z</time>
      </trkpt>
      <trkpt lat="42.95084" lon="-0.01763">
        <ele>1109.4</ele>
        <time>2022-06-11T08:17:12Z</time>
      </trkpt>
      <trkpt lat="42.95083" lon="-0.01787">
        <ele>1109</ele>
        <time>2022-06-11T08:17:17Z</time>
      </trkpt>
      <trkpt lat="42.95078" lon="-0.01807">
        <ele>1107.8</ele>
        <time>2022-06-11T08:17:22Z</time>
      </trkpt>
      <trkpt lat="42.95077" lon="-0.01812">
        <ele>1107.8</ele>
        <time>2022-06-11T08:17:23Z</time>
      </trkpt>
      <trkpt lat="42.95069" lon="-0.01838">
        <ele>1106.6</ele>
        <time>2022-06-11T08:17:28Z</time>
      </trkpt>
      <trkpt lat="42.95066" lon="-0.01848">
        <ele>1105.8</ele>
        <time>2022-06-11T08:17:30Z</time>
      </trkpt>
      <trkpt lat="42.95063" lon="-0.01856">
        <ele>1105.2</ele>
        <time>2022-06-11T08:17:32Z</time>
      </trkpt>
      <trkpt lat="42.95055" lon="-0.01868">
        <ele>1104.4</ele>
        <time>2022-06-11T08:17:35Z</time>
      </trkpt>
      <trkpt lat="42.9505" lon="-0.01873">
        <ele>1103.8</ele>
        <time>2022-06-11T08:17:37Z</time>
      </trkpt>
      <trkpt lat="42.95045" lon="-0.0188">
        <ele>1102.6</ele>
        <time>2022-06-11T08:17:40Z</time>
      </trkpt>
      <trkpt lat="42.95042" lon="-0.01883">
        <ele>1102.4</ele>
        <time>2022-06-11T08:17:41Z</time>
      </trkpt>
      <trkpt lat="42.95035" lon="-0.01894">
        <ele>1101.6</ele>
        <time>2022-06-11T08:17:44Z</time>
      </trkpt>
      <trkpt lat="42.95029" lon="-0.0191">
        <ele>1100.6</ele>
        <time>2022-06-11T08:17:48Z</time>
      </trkpt>
      <trkpt lat="42.95021" lon="-0.0193">
        <ele>1099.6</ele>
        <time>2022-06-11T08:17:53Z</time>
      </trkpt>
      <trkpt lat="42.9502" lon="-0.01932">
        <ele>1099.4</ele>
        <time>2022-06-11T08:17:54Z</time>
      </trkpt>
      <trkpt lat="42.95016" lon="-0.01944">
        <ele>1098.4</ele>
        <time>2022-06-11T08:17:58Z</time>
      </trkpt>
      <trkpt lat="42.95012" lon="-0.01952">
        <ele>1097.8</ele>
        <time>2022-06-11T08:18:01Z</time>
      </trkpt>
      <trkpt lat="42.9501" lon="-0.0196">
        <ele>1097.2</ele>
        <time>2022-06-11T08:18:04Z</time>
      </trkpt>
      <trkpt lat="42.95003" lon="-0.01978">
        <ele>1096.2</ele>
        <time>2022-06-11T08:18:11Z</time>
      </trkpt>
      <trkpt lat="42.94999" lon="-0.01992">
        <ele>1095.8</ele>
        <time>2022-06-11T08:18:18Z</time>
      </trkpt>
      <trkpt lat="42.94999" lon="-0.02008">
        <ele>1095.2</ele>
        <time>2022-06-11T08:18:24Z</time>
      </trkpt>
      <trkpt lat="42.94999" lon="-0.02011">
        <ele>1095.2</ele>
        <time>2022-06-11T08:18:25Z</time>
      </trkpt>
      <trkpt lat="42.94999" lon="-0.0202">
        <ele>1094.6</ele>
        <time>2022-06-11T08:18:29Z</time>
      </trkpt>
      <trkpt lat="42.94999" lon="-0.02023">
        <ele>1094.6</ele>
        <time>2022-06-11T08:18:31Z</time>
      </trkpt>
      <trkpt lat="42.94997" lon="-0.02034">
        <ele>1094.2</ele>
        <time>2022-06-11T08:18:36Z</time>
      </trkpt>
      <trkpt lat="42.94995" lon="-0.02046">
        <ele>1093.8</ele>
        <time>2022-06-11T08:18:42Z</time>
      </trkpt>
      <trkpt lat="42.94995" lon="-0.02054">
        <ele>1093.4</ele>
        <time>2022-06-11T08:18:47Z</time>
      </trkpt>
      <trkpt lat="42.94995" lon="-0.02054">
        <ele>1093</ele>
        <time>2022-06-11T08:18:49Z</time>
      </trkpt>
      <trkpt lat="42.94995" lon="-0.02054">
        <ele>1092.4</ele>
        <time>2022-06-11T08:18:53Z</time>
      </trkpt>
      <trkpt lat="42.94995" lon="-0.02054">
        <ele>1092.2</ele>
        <time>2022-06-11T08:19:01Z</time>
      </trkpt>
      <trkpt lat="42.94996" lon="-0.02054">
        <ele>1092.2</ele>
        <time>2022-06-11T08:19:14Z</time>
      </trkpt>
      <trkpt lat="42.94997" lon="-0.02057">
        <ele>1094</ele>
        <time>2022-06-11T08:19:29Z</time>
      </trkpt>
      <trkpt lat="42.94997" lon="-0.02057">
        <ele>1095</ele>
        <time>2022-06-11T08:19:36Z</time>
      </trkpt>
      <trkpt lat="42.94998" lon="-0.02056">
        <ele>1096.4</ele>
        <time>2022-06-11T08:19:44Z</time>
      </trkpt>
      <trkpt lat="42.95" lon="-0.02055">
        <ele>1097.4</ele>
        <time>2022-06-11T08:19:52Z</time>
      </trkpt>
      <trkpt lat="42.95" lon="-0.02055">
        <ele>1097.6</ele>
        <time>2022-06-11T08:19:54Z</time>
      </trkpt>
      <trkpt lat="42.95" lon="-0.02056">
        <ele>1098.4</ele>
        <time>2022-06-11T08:19:59Z</time>
      </trkpt>
      <trkpt lat="42.95" lon="-0.02056">
        <ele>1098.6</ele>
        <time>2022-06-11T08:20:01Z</time>
      </trkpt>
      <trkpt lat="42.95001" lon="-0.02056">
        <ele>1099.8</ele>
        <time>2022-06-11T08:20:08Z</time>
      </trkpt>
      <trkpt lat="42.95003" lon="-0.02057">
        <ele>1101</ele>
        <time>2022-06-11T08:20:21Z</time>
      </trkpt>
      <trkpt lat="42.95003" lon="-0.02057">
        <ele>1102.2</ele>
        <time>2022-06-11T08:20:42Z</time>
      </trkpt>
      <trkpt lat="42.95003" lon="-0.02057">
        <ele>1103.4</ele>
        <time>2022-06-11T08:21:00Z</time>
      </trkpt>
      <trkpt lat="42.95006" lon="-0.02058">
        <ele>1104.8</ele>
        <time>2022-06-11T08:21:13Z</time>
      </trkpt>
      <trkpt lat="42.95011" lon="-0.02059">
        <ele>1105.8</ele>
        <time>2022-06-11T08:21:20Z</time>
      </trkpt>
      <trkpt lat="42.95011" lon="-0.02059">
        <ele>1106.2</ele>
        <time>2022-06-11T08:21:21Z</time>
      </trkpt>
      <trkpt lat="42.95013" lon="-0.02059">
        <ele>1107.2</ele>
        <time>2022-06-11T08:21:32Z</time>
      </trkpt>
      <trkpt lat="42.95013" lon="-0.02059">
        <ele>1107.6</ele>
        <time>2022-06-11T08:21:35Z</time>
      </trkpt>
      <trkpt lat="42.95014" lon="-0.02059">
        <ele>1108.4</ele>
        <time>2022-06-11T08:21:41Z</time>
      </trkpt>
      <trkpt lat="42.95015" lon="-0.02059">
        <ele>1109.6</ele>
        <time>2022-06-11T08:21:50Z</time>
      </trkpt>
      <trkpt lat="42.95015" lon="-0.02059">
        <ele>1110.6</ele>
        <time>2022-06-11T08:22:02Z</time>
      </trkpt>
      <trkpt lat="42.95018" lon="-0.02058">
        <ele>1111.8</ele>
        <time>2022-06-11T08:22:16Z</time>
      </trkpt>
      <trkpt lat="42.95018" lon="-0.02058">
        <ele>1113</ele>
        <time>2022-06-11T08:22:24Z</time>
      </trkpt>
      <trkpt lat="42.9502" lon="-0.02057">
        <ele>1114.2</ele>
        <time>2022-06-11T08:22:32Z</time>
      </trkpt>
      <trkpt lat="42.95022" lon="-0.02056">
        <ele>1115.6</ele>
        <time>2022-06-11T08:22:45Z</time>
      </trkpt>
      <trkpt lat="42.95026" lon="-0.02053">
        <ele>1116.6</ele>
        <time>2022-06-11T08:22:57Z</time>
      </trkpt>
      <trkpt lat="42.95029" lon="-0.02051">
        <ele>1117.8</ele>
        <time>2022-06-11T08:23:06Z</time>
      </trkpt>
      <trkpt lat="42.95035" lon="-0.02048">
        <ele>1118</ele>
        <time>2022-06-11T08:23:49Z</time>
      </trkpt>
      <trkpt lat="42.95035" lon="-0.02048">
        <ele>1117.6</ele>
        <time>2022-06-11T08:24:10Z</time>
      </trkpt>
      <trkpt lat="42.95035" lon="-0.02048">
        <ele>1117.8</ele>
        <time>2022-06-11T08:24:17Z</time>
      </trkpt>
      <trkpt lat="42.95035" lon="-0.02049">
        <ele>1117.8</ele>
        <time>2022-06-11T08:24:26Z</time>
      </trkpt>
      <trkpt lat="42.95035" lon="-0.02055">
        <ele>1117.8</ele>
        <time>2022-06-11T08:24:29Z</time>
      </trkpt>
      <trkpt lat="42.95036" lon="-0.02072">
        <ele>1118</ele>
        <time>2022-06-11T08:24:37Z</time>
      </trkpt>
      <trkpt lat="42.95033" lon="-0.02096">
        <ele>1118</ele>
        <time>2022-06-11T08:24:46Z</time>
      </trkpt>
      <trkpt lat="42.95033" lon="-0.02101">
        <ele>1118</ele>
        <time>2022-06-11T08:24:48Z</time>
      </trkpt>
      <trkpt lat="42.95033" lon="-0.02113">
        <ele>1118</ele>
        <time>2022-06-11T08:24:52Z</time>
      </trkpt>
      <trkpt lat="42.95033" lon="-0.02136">
        <ele>1118</ele>
        <time>2022-06-11T08:24:59Z</time>
      </trkpt>
      <trkpt lat="42.95037" lon="-0.02161">
        <ele>1118</ele>
        <time>2022-06-11T08:25:08Z</time>
      </trkpt>
      <trkpt lat="42.95041" lon="-0.02183">
        <ele>1118</ele>
        <time>2022-06-11T08:25:14Z</time>
      </trkpt>
      <trkpt lat="42.95043" lon="-0.02203">
        <ele>1118</ele>
        <time>2022-06-11T08:25:20Z</time>
      </trkpt>
      <trkpt lat="42.95041" lon="-0.02228">
        <ele>1118.2</ele>
        <time>2022-06-11T08:25:27Z</time>
      </trkpt>
      <trkpt lat="42.95041" lon="-0.02257">
        <ele>1118</ele>
        <time>2022-06-11T08:25:35Z</time>
      </trkpt>
      <trkpt lat="42.95041" lon="-0.02263">
        <ele>1118</ele>
        <time>2022-06-11T08:25:37Z</time>
      </trkpt>
      <trkpt lat="42.95042" lon="-0.02286">
        <ele>1117.6</ele>
        <time>2022-06-11T08:25:44Z</time>
      </trkpt>
      <trkpt lat="42.95045" lon="-0.02318">
        <ele>1117.8</ele>
        <time>2022-06-11T08:25:54Z</time>
      </trkpt>
      <trkpt lat="42.95053" lon="-0.02345">
        <ele>1117.8</ele>
        <time>2022-06-11T08:26:02Z</time>
      </trkpt>
      <trkpt lat="42.95063" lon="-0.02377">
        <ele>1117.6</ele>
        <time>2022-06-11T08:26:12Z</time>
      </trkpt>
      <trkpt lat="42.95065" lon="-0.02399">
        <ele>1117.8</ele>
        <time>2022-06-11T08:26:19Z</time>
      </trkpt>
      <trkpt lat="42.95066" lon="-0.02405">
        <ele>1117.6</ele>
        <time>2022-06-11T08:26:21Z</time>
      </trkpt>
      <trkpt lat="42.95073" lon="-0.02438">
        <ele>1117.4</ele>
        <time>2022-06-11T08:26:31Z</time>
      </trkpt>
      <trkpt lat="42.95079" lon="-0.02465">
        <ele>1117.6</ele>
        <time>2022-06-11T08:26:39Z</time>
      </trkpt>
      <trkpt lat="42.95079" lon="-0.02486">
        <ele>1117.6</ele>
        <time>2022-06-11T08:26:45Z</time>
      </trkpt>
      <trkpt lat="42.95078" lon="-0.02507">
        <ele>1117.6</ele>
        <time>2022-06-11T08:26:51Z</time>
      </trkpt>
      <trkpt lat="42.9508" lon="-0.02537">
        <ele>1117.6</ele>
        <time>2022-06-11T08:26:59Z</time>
      </trkpt>
      <trkpt lat="42.95086" lon="-0.02566">
        <ele>1117.6</ele>
        <time>2022-06-11T08:27:07Z</time>
      </trkpt>
      <trkpt lat="42.95104" lon="-0.02599">
        <ele>1117</ele>
        <time>2022-06-11T08:27:18Z</time>
      </trkpt>
      <trkpt lat="42.95117" lon="-0.02621">
        <ele>1117</ele>
        <time>2022-06-11T08:27:25Z</time>
      </trkpt>
      <trkpt lat="42.95118" lon="-0.02625">
        <ele>1117</ele>
        <time>2022-06-11T08:27:26Z</time>
      </trkpt>
      <trkpt lat="42.95118" lon="-0.02646">
        <ele>1117.2</ele>
        <time>2022-06-11T08:27:32Z</time>
      </trkpt>
      <trkpt lat="42.95115" lon="-0.02679">
        <ele>1117.2</ele>
        <time>2022-06-11T08:27:41Z</time>
      </trkpt>
      <trkpt lat="42.95123" lon="-0.02721">
        <ele>1116.8</ele>
        <time>2022-06-11T08:27:52Z</time>
      </trkpt>
      <trkpt lat="42.95135" lon="-0.02745">
        <ele>1116.8</ele>
        <time>2022-06-11T08:28:00Z</time>
      </trkpt>
      <trkpt lat="42.95147" lon="-0.02774">
        <ele>1116.6</ele>
        <time>2022-06-11T08:28:09Z</time>
      </trkpt>
      <trkpt lat="42.95159" lon="-0.02806">
        <ele>1116.8</ele>
        <time>2022-06-11T08:28:19Z</time>
      </trkpt>
      <trkpt lat="42.95161" lon="-0.02809">
        <ele>1116.6</ele>
        <time>2022-06-11T08:28:22Z</time>
      </trkpt>
      <trkpt lat="42.95161" lon="-0.02809">
        <ele>1116.2</ele>
        <time>2022-06-11T08:28:25Z</time>
      </trkpt>
      <trkpt lat="42.95161" lon="-0.02809">
        <ele>1115.4</ele>
        <time>2022-06-11T08:28:42Z</time>
      </trkpt>
      <trkpt lat="42.95161" lon="-0.02809">
        <ele>1115.2</ele>
        <time>2022-06-11T08:28:52Z</time>
      </trkpt>
      <trkpt lat="42.95164" lon="-0.02814">
        <ele>1115</ele>
        <time>2022-06-11T08:29:06Z</time>
      </trkpt>
      <trkpt lat="42.95178" lon="-0.02834">
        <ele>1115.4</ele>
        <time>2022-06-11T08:29:13Z</time>
      </trkpt>
      <trkpt lat="42.9519" lon="-0.02856">
        <ele>1115.8</ele>
        <time>2022-06-11T08:29:20Z</time>
      </trkpt>
      <trkpt lat="42.95193" lon="-0.02864">
        <ele>1116</ele>
        <time>2022-06-11T08:29:22Z</time>
      </trkpt>
      <trkpt lat="42.95203" lon="-0.02879">
        <ele>1115.8</ele>
        <time>2022-06-11T08:29:27Z</time>
      </trkpt>
      <trkpt lat="42.9521" lon="-0.02901">
        <ele>1115.8</ele>
        <time>2022-06-11T08:29:33Z</time>
      </trkpt>
      <trkpt lat="42.95225" lon="-0.02921">
        <ele>1115.8</ele>
        <time>2022-06-11T08:29:40Z</time>
      </trkpt>
      <trkpt lat="42.95242" lon="-0.02946">
        <ele>1115.8</ele>
        <time>2022-06-11T08:29:49Z</time>
      </trkpt>
      <trkpt lat="42.95246" lon="-0.02964">
        <ele>1116.2</ele>
        <time>2022-06-11T08:29:54Z</time>
      </trkpt>
      <trkpt lat="42.95251" lon="-0.02988">
        <ele>1116.2</ele>
        <time>2022-06-11T08:30:00Z</time>
      </trkpt>
      <trkpt lat="42.95254" lon="-0.02996">
        <ele>1116</ele>
        <time>2022-06-11T08:30:02Z</time>
      </trkpt>
      <trkpt lat="42.95264" lon="-0.03031">
        <ele>1116</ele>
        <time>2022-06-11T08:30:10Z</time>
      </trkpt>
      <trkpt lat="42.95275" lon="-0.03054">
        <ele>1115.8</ele>
        <time>2022-06-11T08:30:17Z</time>
      </trkpt>
      <trkpt lat="42.95286" lon="-0.03066">
        <ele>1115.4</ele>
        <time>2022-06-11T08:30:23Z</time>
      </trkpt>
      <trkpt lat="42.95299" lon="-0.03085">
        <ele>1115.4</ele>
        <time>2022-06-11T08:30:30Z</time>
      </trkpt>
      <trkpt lat="42.95312" lon="-0.03106">
        <ele>1115.6</ele>
        <time>2022-06-11T08:30:38Z</time>
      </trkpt>
      <trkpt lat="42.95329" lon="-0.03125">
        <ele>1115.6</ele>
        <time>2022-06-11T08:30:46Z</time>
      </trkpt>
      <trkpt lat="42.95339" lon="-0.03149">
        <ele>1115.8</ele>
        <time>2022-06-11T08:30:53Z</time>
      </trkpt>
      <trkpt lat="42.95353" lon="-0.03164">
        <ele>1115.6</ele>
        <time>2022-06-11T08:30:59Z</time>
      </trkpt>
      <trkpt lat="42.9537" lon="-0.03179">
        <ele>1115.8</ele>
        <time>2022-06-11T08:31:06Z</time>
      </trkpt>
      <trkpt lat="42.95388" lon="-0.03189">
        <ele>1116</ele>
        <time>2022-06-11T08:31:12Z</time>
      </trkpt>
      <trkpt lat="42.95403" lon="-0.03206">
        <ele>1116</ele>
        <time>2022-06-11T08:31:19Z</time>
      </trkpt>
      <trkpt lat="42.95414" lon="-0.0323">
        <ele>1115.8</ele>
        <time>2022-06-11T08:31:26Z</time>
      </trkpt>
      <trkpt lat="42.95423" lon="-0.03243">
        <ele>1115.6</ele>
        <time>2022-06-11T08:31:31Z</time>
      </trkpt>
      <trkpt lat="42.95428" lon="-0.03247">
        <ele>1115.6</ele>
        <time>2022-06-11T08:31:33Z</time>
      </trkpt>
      <trkpt lat="42.95444" lon="-0.0326">
        <ele>1115.4</ele>
        <time>2022-06-11T08:31:40Z</time>
      </trkpt>
      <trkpt lat="42.95461" lon="-0.0328">
        <ele>1114.8</ele>
        <time>2022-06-11T08:31:47Z</time>
      </trkpt>
      <trkpt lat="42.95465" lon="-0.03289">
        <ele>1114.8</ele>
        <time>2022-06-11T08:31:50Z</time>
      </trkpt>
      <trkpt lat="42.95468" lon="-0.03301">
        <ele>1114.8</ele>
        <time>2022-06-11T08:31:53Z</time>
      </trkpt>
      <trkpt lat="42.95473" lon="-0.03316">
        <ele>1115</ele>
        <time>2022-06-11T08:31:58Z</time>
      </trkpt>
      <trkpt lat="42.95487" lon="-0.03326">
        <ele>1115.2</ele>
        <time>2022-06-11T08:32:04Z</time>
      </trkpt>
      <trkpt lat="42.95497" lon="-0.03345">
        <ele>1115.2</ele>
        <time>2022-06-11T08:32:11Z</time>
      </trkpt>
      <trkpt lat="42.95497" lon="-0.03353">
        <ele>1115.2</ele>
        <time>2022-06-11T08:32:14Z</time>
      </trkpt>
      <trkpt lat="42.95498" lon="-0.03358">
        <ele>1115.2</ele>
        <time>2022-06-11T08:32:16Z</time>
      </trkpt>
      <trkpt lat="42.95498" lon="-0.03381">
        <ele>1115</ele>
        <time>2022-06-11T08:32:23Z</time>
      </trkpt>
      <trkpt lat="42.95495" lon="-0.03409">
        <ele>1115</ele>
        <time>2022-06-11T08:32:30Z</time>
      </trkpt>
      <trkpt lat="42.95491" lon="-0.03441">
        <ele>1114.8</ele>
        <time>2022-06-11T08:32:39Z</time>
      </trkpt>
      <trkpt lat="42.9549" lon="-0.03444">
        <ele>1114.4</ele>
        <time>2022-06-11T08:32:42Z</time>
      </trkpt>
      <trkpt lat="42.95488" lon="-0.03453">
        <ele>1114.2</ele>
        <time>2022-06-11T08:32:49Z</time>
      </trkpt>
      <trkpt lat="42.95482" lon="-0.03464">
        <ele>1114</ele>
        <time>2022-06-11T08:32:53Z</time>
      </trkpt>
      <trkpt lat="42.95482" lon="-0.03467">
        <ele>1114</ele>
        <time>2022-06-11T08:32:54Z</time>
      </trkpt>
      <trkpt lat="42.95482" lon="-0.03485">
        <ele>1113.8</ele>
        <time>2022-06-11T08:33:00Z</time>
      </trkpt>
      <trkpt lat="42.95489" lon="-0.03506">
        <ele>1113.8</ele>
        <time>2022-06-11T08:33:07Z</time>
      </trkpt>
      <trkpt lat="42.95491" lon="-0.0353">
        <ele>1114</ele>
        <time>2022-06-11T08:33:13Z</time>
      </trkpt>
      <trkpt lat="42.95489" lon="-0.03545">
        <ele>1114</ele>
        <time>2022-06-11T08:33:17Z</time>
      </trkpt>
      <trkpt lat="42.95485" lon="-0.0355">
        <ele>1114</ele>
        <time>2022-06-11T08:33:19Z</time>
      </trkpt>
      <trkpt lat="42.95475" lon="-0.03563">
        <ele>1113.8</ele>
        <time>2022-06-11T08:33:24Z</time>
      </trkpt>
      <trkpt lat="42.95469" lon="-0.03577">
        <ele>1113.6</ele>
        <time>2022-06-11T08:33:30Z</time>
      </trkpt>
      <trkpt lat="42.95468" lon="-0.03583">
        <ele>1113.4</ele>
        <time>2022-06-11T08:33:32Z</time>
      </trkpt>
      <trkpt lat="42.95471" lon="-0.03592">
        <ele>1113.2</ele>
        <time>2022-06-11T08:33:35Z</time>
      </trkpt>
      <trkpt lat="42.95472" lon="-0.03597">
        <ele>1113.2</ele>
        <time>2022-06-11T08:33:37Z</time>
      </trkpt>
      <trkpt lat="42.95481" lon="-0.03621">
        <ele>1113.4</ele>
        <time>2022-06-11T08:33:44Z</time>
      </trkpt>
      <trkpt lat="42.95494" lon="-0.03649">
        <ele>1113.2</ele>
        <time>2022-06-11T08:33:52Z</time>
      </trkpt>
      <trkpt lat="42.95507" lon="-0.03668">
        <ele>1113.2</ele>
        <time>2022-06-11T08:33:59Z</time>
      </trkpt>
      <trkpt lat="42.95522" lon="-0.0369">
        <ele>1113.4</ele>
        <time>2022-06-11T08:34:07Z</time>
      </trkpt>
      <trkpt lat="42.95536" lon="-0.03709">
        <ele>1113.4</ele>
        <time>2022-06-11T08:34:14Z</time>
      </trkpt>
      <trkpt lat="42.95552" lon="-0.03726">
        <ele>1113.4</ele>
        <time>2022-06-11T08:34:22Z</time>
      </trkpt>
      <trkpt lat="42.95565" lon="-0.0373">
        <ele>1113.6</ele>
        <time>2022-06-11T08:34:27Z</time>
      </trkpt>
      <trkpt lat="42.95579" lon="-0.03746">
        <ele>1113.8</ele>
        <time>2022-06-11T08:34:34Z</time>
      </trkpt>
      <trkpt lat="42.9559" lon="-0.03766">
        <ele>1113.8</ele>
        <time>2022-06-11T08:34:41Z</time>
      </trkpt>
      <trkpt lat="42.95585" lon="-0.03796">
        <ele>1113.6</ele>
        <time>2022-06-11T08:34:49Z</time>
      </trkpt>
      <trkpt lat="42.95589" lon="-0.03817">
        <ele>1113.4</ele>
        <time>2022-06-11T08:34:55Z</time>
      </trkpt>
      <trkpt lat="42.95585" lon="-0.0384">
        <ele>1113.2</ele>
        <time>2022-06-11T08:35:02Z</time>
      </trkpt>
      <trkpt lat="42.95591" lon="-0.03855">
        <ele>1113</ele>
        <time>2022-06-11T08:35:07Z</time>
      </trkpt>
      <trkpt lat="42.95594" lon="-0.0386">
        <ele>1113</ele>
        <time>2022-06-11T08:35:09Z</time>
      </trkpt>
      <trkpt lat="42.95604" lon="-0.03879">
        <ele>1112.8</ele>
        <time>2022-06-11T08:35:15Z</time>
      </trkpt>
      <trkpt lat="42.95608" lon="-0.0391">
        <ele>1112.4</ele>
        <time>2022-06-11T08:35:23Z</time>
      </trkpt>
      <trkpt lat="42.95618" lon="-0.03941">
        <ele>1112.4</ele>
        <time>2022-06-11T08:35:32Z</time>
      </trkpt>
      <trkpt lat="42.95624" lon="-0.03961">
        <ele>1112.2</ele>
        <time>2022-06-11T08:35:38Z</time>
      </trkpt>
      <trkpt lat="42.95629" lon="-0.0398">
        <ele>1112.4</ele>
        <time>2022-06-11T08:35:43Z</time>
      </trkpt>
      <trkpt lat="42.95634" lon="-0.03994">
        <ele>1112.2</ele>
        <time>2022-06-11T08:35:47Z</time>
      </trkpt>
      <trkpt lat="42.95643" lon="-0.04016">
        <ele>1112</ele>
        <time>2022-06-11T08:35:54Z</time>
      </trkpt>
      <trkpt lat="42.95661" lon="-0.04035">
        <ele>1112</ele>
        <time>2022-06-11T08:36:01Z</time>
      </trkpt>
      <trkpt lat="42.9567" lon="-0.04048">
        <ele>1111.6</ele>
        <time>2022-06-11T08:36:07Z</time>
      </trkpt>
      <trkpt lat="42.95679" lon="-0.04064">
        <ele>1111.6</ele>
        <time>2022-06-11T08:36:15Z</time>
      </trkpt>
      <trkpt lat="42.95682" lon="-0.04068">
        <ele>1111.8</ele>
        <time>2022-06-11T08:36:17Z</time>
      </trkpt>
      <trkpt lat="42.95692" lon="-0.0408">
        <ele>1111.6</ele>
        <time>2022-06-11T08:36:24Z</time>
      </trkpt>
      <trkpt lat="42.95701" lon="-0.04102">
        <ele>1111.4</ele>
        <time>2022-06-11T08:36:32Z</time>
      </trkpt>
      <trkpt lat="42.95707" lon="-0.04116">
        <ele>1111.6</ele>
        <time>2022-06-11T08:36:39Z</time>
      </trkpt>
      <trkpt lat="42.95716" lon="-0.04131">
        <ele>1111.8</ele>
        <time>2022-06-11T08:36:46Z</time>
      </trkpt>
      <trkpt lat="42.95729" lon="-0.04147">
        <ele>1111</ele>
        <time>2022-06-11T08:36:55Z</time>
      </trkpt>
      <trkpt lat="42.95734" lon="-0.04149">
        <ele>1110.8</ele>
        <time>2022-06-11T08:36:57Z</time>
      </trkpt>
      <trkpt lat="42.95743" lon="-0.04153">
        <ele>1111.6</ele>
        <time>2022-06-11T08:37:02Z</time>
      </trkpt>
      <trkpt lat="42.95745" lon="-0.04154">
        <ele>1112</ele>
        <time>2022-06-11T08:37:03Z</time>
      </trkpt>
      <trkpt lat="42.9575" lon="-0.04158">
        <ele>1113.8</ele>
        <time>2022-06-11T08:37:06Z</time>
      </trkpt>
      <trkpt lat="42.95754" lon="-0.04162">
        <ele>1115</ele>
        <time>2022-06-11T08:37:08Z</time>
      </trkpt>
      <trkpt lat="42.95758" lon="-0.04166">
        <ele>1116</ele>
        <time>2022-06-11T08:37:10Z</time>
      </trkpt>
      <trkpt lat="42.9576" lon="-0.04168">
        <ele>1117</ele>
        <time>2022-06-11T08:37:12Z</time>
      </trkpt>
      <trkpt lat="42.95761" lon="-0.04168">
        <ele>1117.2</ele>
        <time>2022-06-11T08:37:13Z</time>
      </trkpt>
      <trkpt lat="42.95761" lon="-0.04168">
        <ele>1118.2</ele>
        <time>2022-06-11T08:37:16Z</time>
      </trkpt>
      <trkpt lat="42.95763" lon="-0.0417">
        <ele>1119.2</ele>
        <time>2022-06-11T08:37:23Z</time>
      </trkpt>
      <trkpt lat="42.95769" lon="-0.04177">
        <ele>1119.6</ele>
        <time>2022-06-11T08:37:27Z</time>
      </trkpt>
      <trkpt lat="42.95772" lon="-0.04181">
        <ele>1119.8</ele>
        <time>2022-06-11T08:37:29Z</time>
      </trkpt>
      <trkpt lat="42.95775" lon="-0.04185">
        <ele>1120.8</ele>
        <time>2022-06-11T08:37:33Z</time>
      </trkpt>
      <trkpt lat="42.95775" lon="-0.04185">
        <ele>1121.2</ele>
        <time>2022-06-11T08:37:34Z</time>
      </trkpt>
      <trkpt lat="42.95776" lon="-0.04185">
        <ele>1121.8</ele>
        <time>2022-06-11T08:37:37Z</time>
      </trkpt>
      <trkpt lat="42.95779" lon="-0.04189">
        <ele>1122.4</ele>
        <time>2022-06-11T08:37:42Z</time>
      </trkpt>
      <trkpt lat="42.95789" lon="-0.04202">
        <ele>1123</ele>
        <time>2022-06-11T08:37:48Z</time>
      </trkpt>
      <trkpt lat="42.95796" lon="-0.04211">
        <ele>1124</ele>
        <time>2022-06-11T08:37:52Z</time>
      </trkpt>
      <trkpt lat="42.95801" lon="-0.04217">
        <ele>1124.8</ele>
        <time>2022-06-11T08:37:55Z</time>
      </trkpt>
      <trkpt lat="42.95805" lon="-0.04221">
        <ele>1125.2</ele>
        <time>2022-06-11T08:37:57Z</time>
      </trkpt>
      <trkpt lat="42.95812" lon="-0.04229">
        <ele>1126.6</ele>
        <time>2022-06-11T08:38:01Z</time>
      </trkpt>
      <trkpt lat="42.95819" lon="-0.04236">
        <ele>1127.6</ele>
        <time>2022-06-11T08:38:05Z</time>
      </trkpt>
      <trkpt lat="42.95828" lon="-0.04244">
        <ele>1128.8</ele>
        <time>2022-06-11T08:38:10Z</time>
      </trkpt>
      <trkpt lat="42.9583" lon="-0.04246">
        <ele>1129.2</ele>
        <time>2022-06-11T08:38:11Z</time>
      </trkpt>
      <trkpt lat="42.95837" lon="-0.04253">
        <ele>1129.8</ele>
        <time>2022-06-11T08:38:15Z</time>
      </trkpt>
      <trkpt lat="42.95842" lon="-0.04258">
        <ele>1131.2</ele>
        <time>2022-06-11T08:38:18Z</time>
      </trkpt>
      <trkpt lat="42.95846" lon="-0.04263">
        <ele>1132.2</ele>
        <time>2022-06-11T08:38:21Z</time>
      </trkpt>
      <trkpt lat="42.95849" lon="-0.04268">
        <ele>1133.4</ele>
        <time>2022-06-11T08:38:23Z</time>
      </trkpt>
      <trkpt lat="42.95853" lon="-0.04278">
        <ele>1134.6</ele>
        <time>2022-06-11T08:38:27Z</time>
      </trkpt>
      <trkpt lat="42.95856" lon="-0.04287">
        <ele>1135.4</ele>
        <time>2022-06-11T08:38:30Z</time>
      </trkpt>
      <trkpt lat="42.95857" lon="-0.04292">
        <ele>1135.8</ele>
        <time>2022-06-11T08:38:32Z</time>
      </trkpt>
      <trkpt lat="42.95862" lon="-0.04303">
        <ele>1136.6</ele>
        <time>2022-06-11T08:38:37Z</time>
      </trkpt>
      <trkpt lat="42.95867" lon="-0.04311">
        <ele>1137</ele>
        <time>2022-06-11T08:38:41Z</time>
      </trkpt>
      <trkpt lat="42.95876" lon="-0.0432">
        <ele>1137</ele>
        <time>2022-06-11T08:38:46Z</time>
      </trkpt>
      <trkpt lat="42.95885" lon="-0.04339">
        <ele>1137.4</ele>
        <time>2022-06-11T08:38:52Z</time>
      </trkpt>
      <trkpt lat="42.95889" lon="-0.04353">
        <ele>1138.2</ele>
        <time>2022-06-11T08:38:56Z</time>
      </trkpt>
      <trkpt lat="42.95893" lon="-0.04357">
        <ele>1138.4</ele>
        <time>2022-06-11T08:39:00Z</time>
      </trkpt>
      <trkpt lat="42.95893" lon="-0.04357">
        <ele>1138.4</ele>
        <time>2022-06-11T08:39:01Z</time>
      </trkpt>
      <trkpt lat="42.95893" lon="-0.04357">
        <ele>1138.2</ele>
        <time>2022-06-11T08:39:16Z</time>
      </trkpt>
      <trkpt lat="42.95895" lon="-0.04356">
        <ele>1137.6</ele>
        <time>2022-06-11T08:39:40Z</time>
      </trkpt>
      <trkpt lat="42.95895" lon="-0.04356">
        <ele>1137.4</ele>
        <time>2022-06-11T08:39:46Z</time>
      </trkpt>
      <trkpt lat="42.959" lon="-0.04359">
        <ele>1137.4</ele>
        <time>2022-06-11T08:40:03Z</time>
      </trkpt>
      <trkpt lat="42.95919" lon="-0.04367">
        <ele>1137.6</ele>
        <time>2022-06-11T08:40:11Z</time>
      </trkpt>
      <trkpt lat="42.95925" lon="-0.04371">
        <ele>1137.6</ele>
        <time>2022-06-11T08:40:15Z</time>
      </trkpt>
      <trkpt lat="42.9593" lon="-0.04374">
        <ele>1137.8</ele>
        <time>2022-06-11T08:40:18Z</time>
      </trkpt>
      <trkpt lat="42.95941" lon="-0.04385">
        <ele>1137</ele>
        <time>2022-06-11T08:40:26Z</time>
      </trkpt>
      <trkpt lat="42.95944" lon="-0.04389">
        <ele>1136.4</ele>
        <time>2022-06-11T08:40:29Z</time>
      </trkpt>
      <trkpt lat="42.95946" lon="-0.0439">
        <ele>1135.6</ele>
        <time>2022-06-11T08:40:31Z</time>
      </trkpt>
      <trkpt lat="42.95951" lon="-0.04395">
        <ele>1134</ele>
        <time>2022-06-11T08:40:35Z</time>
      </trkpt>
      <trkpt lat="42.95956" lon="-0.044">
        <ele>1133</ele>
        <time>2022-06-11T08:40:39Z</time>
      </trkpt>
      <trkpt lat="42.95958" lon="-0.04401">
        <ele>1132.6</ele>
        <time>2022-06-11T08:40:40Z</time>
      </trkpt>
      <trkpt lat="42.95958" lon="-0.04402">
        <ele>1131.4</ele>
        <time>2022-06-11T08:40:42Z</time>
      </trkpt>
      <trkpt lat="42.95958" lon="-0.04403">
        <ele>1131.2</ele>
        <time>2022-06-11T08:40:43Z</time>
      </trkpt>
      <trkpt lat="42.95958" lon="-0.04403">
        <ele>1130.4</ele>
        <time>2022-06-11T08:40:46Z</time>
      </trkpt>
      <trkpt lat="42.95955" lon="-0.04405">
        <ele>1130</ele>
        <time>2022-06-11T08:40:51Z</time>
      </trkpt>
      <trkpt lat="42.95951" lon="-0.04406">
        <ele>1129.6</ele>
        <time>2022-06-11T08:40:53Z</time>
      </trkpt>
      <trkpt lat="42.95947" lon="-0.04406">
        <ele>1129.4</ele>
        <time>2022-06-11T08:40:55Z</time>
      </trkpt>
      <trkpt lat="42.95944" lon="-0.04407">
        <ele>1128.4</ele>
        <time>2022-06-11T08:40:57Z</time>
      </trkpt>
      <trkpt lat="42.9594" lon="-0.04408">
        <ele>1127.2</ele>
        <time>2022-06-11T08:41:00Z</time>
      </trkpt>
      <trkpt lat="42.95937" lon="-0.0441">
        <ele>1125.8</ele>
        <time>2022-06-11T08:41:03Z</time>
      </trkpt>
      <trkpt lat="42.95934" lon="-0.04411">
        <ele>1124.8</ele>
        <time>2022-06-11T08:41:05Z</time>
      </trkpt>
      <trkpt lat="42.95933" lon="-0.04411">
        <ele>1124.6</ele>
        <time>2022-06-11T08:41:06Z</time>
      </trkpt>
      <trkpt lat="42.95931" lon="-0.04412">
        <ele>1123.4</ele>
        <time>2022-06-11T08:41:09Z</time>
      </trkpt>
      <trkpt lat="42.9593" lon="-0.04413">
        <ele>1122.2</ele>
        <time>2022-06-11T08:41:10Z</time>
      </trkpt>
      <trkpt lat="42.95928" lon="-0.04414">
        <ele>1121.8</ele>
        <time>2022-06-11T08:41:11Z</time>
      </trkpt>
      <trkpt lat="42.95921" lon="-0.04416">
        <ele>1121.2</ele>
        <time>2022-06-11T08:41:14Z</time>
      </trkpt>
      <trkpt lat="42.95911" lon="-0.04419">
        <ele>1120.2</ele>
        <time>2022-06-11T08:41:17Z</time>
      </trkpt>
      <trkpt lat="42.95907" lon="-0.04421">
        <ele>1119.8</ele>
        <time>2022-06-11T08:41:18Z</time>
      </trkpt>
      <trkpt lat="42.95903" lon="-0.04424">
        <ele>1118.4</ele>
        <time>2022-06-11T08:41:20Z</time>
      </trkpt>
      <trkpt lat="42.95898" lon="-0.04426">
        <ele>1117</ele>
        <time>2022-06-11T08:41:22Z</time>
      </trkpt>
      <trkpt lat="42.95895" lon="-0.04427">
        <ele>1115.8</ele>
        <time>2022-06-11T08:41:24Z</time>
      </trkpt>
      <trkpt lat="42.9589" lon="-0.04429">
        <ele>1114.2</ele>
        <time>2022-06-11T08:41:26Z</time>
      </trkpt>
      <trkpt lat="42.95889" lon="-0.0443">
        <ele>1113</ele>
        <time>2022-06-11T08:41:27Z</time>
      </trkpt>
      <trkpt lat="42.95889" lon="-0.04431">
        <ele>1111.6</ele>
        <time>2022-06-11T08:41:29Z</time>
      </trkpt>
      <trkpt lat="42.95889" lon="-0.04431">
        <ele>1110.4</ele>
        <time>2022-06-11T08:41:31Z</time>
      </trkpt>
      <trkpt lat="42.95889" lon="-0.04431">
        <ele>1110</ele>
        <time>2022-06-11T08:41:32Z</time>
      </trkpt>
      <trkpt lat="42.95892" lon="-0.04435">
        <ele>1109.2</ele>
        <time>2022-06-11T08:41:35Z</time>
      </trkpt>
      <trkpt lat="42.95895" lon="-0.04438">
        <ele>1108.8</ele>
        <time>2022-06-11T08:41:37Z</time>
      </trkpt>
      <trkpt lat="42.95901" lon="-0.04443">
        <ele>1108</ele>
        <time>2022-06-11T08:41:40Z</time>
      </trkpt>
      <trkpt lat="42.95906" lon="-0.0445">
        <ele>1107</ele>
        <time>2022-06-11T08:41:43Z</time>
      </trkpt>
      <trkpt lat="42.95911" lon="-0.04453">
        <ele>1106.4</ele>
        <time>2022-06-11T08:41:45Z</time>
      </trkpt>
      <trkpt lat="42.95913" lon="-0.04454">
        <ele>1105.4</ele>
        <time>2022-06-11T08:41:46Z</time>
      </trkpt>
      <trkpt lat="42.95918" lon="-0.04458">
        <ele>1103.8</ele>
        <time>2022-06-11T08:41:48Z</time>
      </trkpt>
      <trkpt lat="42.95921" lon="-0.04462">
        <ele>1102.6</ele>
        <time>2022-06-11T08:41:50Z</time>
      </trkpt>
      <trkpt lat="42.95923" lon="-0.04464">
        <ele>1102.2</ele>
        <time>2022-06-11T08:41:51Z</time>
      </trkpt>
      <trkpt lat="42.95927" lon="-0.04469">
        <ele>1101.2</ele>
        <time>2022-06-11T08:41:53Z</time>
      </trkpt>
      <trkpt lat="42.95933" lon="-0.04474">
        <ele>1100.2</ele>
        <time>2022-06-11T08:41:56Z</time>
      </trkpt>
      <trkpt lat="42.9594" lon="-0.0448">
        <ele>1098.8</ele>
        <time>2022-06-11T08:41:59Z</time>
      </trkpt>
      <trkpt lat="42.95942" lon="-0.04482">
        <ele>1098.6</ele>
        <time>2022-06-11T08:42:00Z</time>
      </trkpt>
      <trkpt lat="42.95943" lon="-0.04483">
        <ele>1097.8</ele>
        <time>2022-06-11T08:42:01Z</time>
      </trkpt>
      <trkpt lat="42.95944" lon="-0.04485">
        <ele>1097.2</ele>
        <time>2022-06-11T08:42:02Z</time>
      </trkpt>
      <trkpt lat="42.95946" lon="-0.04487">
        <ele>1096.2</ele>
        <time>2022-06-11T08:42:03Z</time>
      </trkpt>
      <trkpt lat="42.95947" lon="-0.04489">
        <ele>1095.6</ele>
        <time>2022-06-11T08:42:04Z</time>
      </trkpt>
      <trkpt lat="42.95948" lon="-0.0449">
        <ele>1095</ele>
        <time>2022-06-11T08:42:05Z</time>
      </trkpt>
      <trkpt lat="42.9595" lon="-0.04492">
        <ele>1094.2</ele>
        <time>2022-06-11T08:42:06Z</time>
      </trkpt>
      <trkpt lat="42.95951" lon="-0.04495">
        <ele>1093.8</ele>
        <time>2022-06-11T08:42:07Z</time>
      </trkpt>
      <trkpt lat="42.95957" lon="-0.045">
        <ele>1092.4</ele>
        <time>2022-06-11T08:42:10Z</time>
      </trkpt>
      <trkpt lat="42.95961" lon="-0.04503">
        <ele>1091</ele>
        <time>2022-06-11T08:42:12Z</time>
      </trkpt>
      <trkpt lat="42.95963" lon="-0.04504">
        <ele>1090.8</ele>
        <time>2022-06-11T08:42:13Z</time>
      </trkpt>
      <trkpt lat="42.95966" lon="-0.04507">
        <ele>1090</ele>
        <time>2022-06-11T08:42:15Z</time>
      </trkpt>
      <trkpt lat="42.95967" lon="-0.04508">
        <ele>1088.6</ele>
        <time>2022-06-11T08:42:16Z</time>
      </trkpt>
      <trkpt lat="42.95967" lon="-0.04509">
        <ele>1088.2</ele>
        <time>2022-06-11T08:42:17Z</time>
      </trkpt>
      <trkpt lat="42.95968" lon="-0.0451">
        <ele>1087.6</ele>
        <time>2022-06-11T08:42:18Z</time>
      </trkpt>
      <trkpt lat="42.95971" lon="-0.04513">
        <ele>1086</ele>
        <time>2022-06-11T08:42:21Z</time>
      </trkpt>
      <trkpt lat="42.95971" lon="-0.04514">
        <ele>1085.8</ele>
        <time>2022-06-11T08:42:22Z</time>
      </trkpt>
      <trkpt lat="42.95974" lon="-0.04517">
        <ele>1084.8</ele>
        <time>2022-06-11T08:42:24Z</time>
      </trkpt>
      <trkpt lat="42.95975" lon="-0.04518">
        <ele>1083.4</ele>
        <time>2022-06-11T08:42:27Z</time>
      </trkpt>
      <trkpt lat="42.95976" lon="-0.04518">
        <ele>1083</ele>
        <time>2022-06-11T08:42:28Z</time>
      </trkpt>
      <trkpt lat="42.95977" lon="-0.04519">
        <ele>1082.2</ele>
        <time>2022-06-11T08:42:30Z</time>
      </trkpt>
      <trkpt lat="42.95979" lon="-0.04522">
        <ele>1080.8</ele>
        <time>2022-06-11T08:42:33Z</time>
      </trkpt>
      <trkpt lat="42.95981" lon="-0.04524">
        <ele>1079.4</ele>
        <time>2022-06-11T08:42:35Z</time>
      </trkpt>
      <trkpt lat="42.95983" lon="-0.04525">
        <ele>1078</ele>
        <time>2022-06-11T08:42:38Z</time>
      </trkpt>
      <trkpt lat="42.95985" lon="-0.04525">
        <ele>1077.6</ele>
        <time>2022-06-11T08:42:39Z</time>
      </trkpt>
      <trkpt lat="42.95986" lon="-0.04525">
        <ele>1076.8</ele>
        <time>2022-06-11T08:42:40Z</time>
      </trkpt>
      <trkpt lat="42.95988" lon="-0.04524">
        <ele>1075.4</ele>
        <time>2022-06-11T08:42:42Z</time>
      </trkpt>
      <trkpt lat="42.95988" lon="-0.04524">
        <ele>1074.4</ele>
        <time>2022-06-11T08:42:44Z</time>
      </trkpt>
      <trkpt lat="42.9599" lon="-0.04527">
        <ele>1073.8</ele>
        <time>2022-06-11T08:42:46Z</time>
      </trkpt>
      <trkpt lat="42.95992" lon="-0.04527">
        <ele>1073.2</ele>
        <time>2022-06-11T08:42:47Z</time>
      </trkpt>
      <trkpt lat="42.95994" lon="-0.04528">
        <ele>1071.6</ele>
        <time>2022-06-11T08:42:49Z</time>
      </trkpt>
      <trkpt lat="42.96" lon="-0.0453">
        <ele>1070.4</ele>
        <time>2022-06-11T08:42:51Z</time>
      </trkpt>
      <trkpt lat="42.96007" lon="-0.04533">
        <ele>1069</ele>
        <time>2022-06-11T08:42:53Z</time>
      </trkpt>
      <trkpt lat="42.96014" lon="-0.04534">
        <ele>1067.8</ele>
        <time>2022-06-11T08:42:55Z</time>
      </trkpt>
      <trkpt lat="42.96016" lon="-0.04534">
        <ele>1067.4</ele>
        <time>2022-06-11T08:42:56Z</time>
      </trkpt>
      <trkpt lat="42.96023" lon="-0.04536">
        <ele>1066.4</ele>
        <time>2022-06-11T08:42:58Z</time>
      </trkpt>
      <trkpt lat="42.96025" lon="-0.04536">
        <ele>1065.2</ele>
        <time>2022-06-11T08:43:00Z</time>
      </trkpt>
      <trkpt lat="42.9603" lon="-0.04536">
        <ele>1063.8</ele>
        <time>2022-06-11T08:43:02Z</time>
      </trkpt>
      <trkpt lat="42.96033" lon="-0.04537">
        <ele>1063</ele>
        <time>2022-06-11T08:43:03Z</time>
      </trkpt>
      <trkpt lat="42.96033" lon="-0.04537">
        <ele>1062.2</ele>
        <time>2022-06-11T08:43:04Z</time>
      </trkpt>
      <trkpt lat="42.96039" lon="-0.04534">
        <ele>1061.2</ele>
        <time>2022-06-11T08:43:07Z</time>
      </trkpt>
      <trkpt lat="42.96043" lon="-0.04534">
        <ele>1060</ele>
        <time>2022-06-11T08:43:08Z</time>
      </trkpt>
      <trkpt lat="42.96047" lon="-0.04531">
        <ele>1059.6</ele>
        <time>2022-06-11T08:43:09Z</time>
      </trkpt>
      <trkpt lat="42.9605" lon="-0.04529">
        <ele>1058.8</ele>
        <time>2022-06-11T08:43:10Z</time>
      </trkpt>
      <trkpt lat="42.96058" lon="-0.04527">
        <ele>1057.2</ele>
        <time>2022-06-11T08:43:13Z</time>
      </trkpt>
      <trkpt lat="42.96062" lon="-0.04525">
        <ele>1056.2</ele>
        <time>2022-06-11T08:43:14Z</time>
      </trkpt>
      <trkpt lat="42.96066" lon="-0.04523">
        <ele>1055.2</ele>
        <time>2022-06-11T08:43:16Z</time>
      </trkpt>
      <trkpt lat="42.96071" lon="-0.0452">
        <ele>1053.8</ele>
        <time>2022-06-11T08:43:18Z</time>
      </trkpt>
      <trkpt lat="42.96077" lon="-0.04516">
        <ele>1052.6</ele>
        <time>2022-06-11T08:43:20Z</time>
      </trkpt>
      <trkpt lat="42.96082" lon="-0.04515">
        <ele>1051.6</ele>
        <time>2022-06-11T08:43:22Z</time>
      </trkpt>
      <trkpt lat="42.96088" lon="-0.04515">
        <ele>1050</ele>
        <time>2022-06-11T08:43:25Z</time>
      </trkpt>
      <trkpt lat="42.96097" lon="-0.04511">
        <ele>1048.6</ele>
        <time>2022-06-11T08:43:28Z</time>
      </trkpt>
      <trkpt lat="42.96105" lon="-0.04509">
        <ele>1047</ele>
        <time>2022-06-11T08:43:31Z</time>
      </trkpt>
      <trkpt lat="42.96107" lon="-0.04509">
        <ele>1046.6</ele>
        <time>2022-06-11T08:43:32Z</time>
      </trkpt>
      <trkpt lat="42.96111" lon="-0.04507">
        <ele>1044.6</ele>
        <time>2022-06-11T08:43:34Z</time>
      </trkpt>
      <trkpt lat="42.96115" lon="-0.04504">
        <ele>1043.2</ele>
        <time>2022-06-11T08:43:36Z</time>
      </trkpt>
      <trkpt lat="42.96119" lon="-0.04504">
        <ele>1042</ele>
        <time>2022-06-11T08:43:38Z</time>
      </trkpt>
      <trkpt lat="42.96122" lon="-0.04504">
        <ele>1041.4</ele>
        <time>2022-06-11T08:43:39Z</time>
      </trkpt>
      <trkpt lat="42.96124" lon="-0.04504">
        <ele>1040.6</ele>
        <time>2022-06-11T08:43:40Z</time>
      </trkpt>
      <trkpt lat="42.96129" lon="-0.04502">
        <ele>1039.2</ele>
        <time>2022-06-11T08:43:42Z</time>
      </trkpt>
      <trkpt lat="42.96132" lon="-0.04501">
        <ele>1038.2</ele>
        <time>2022-06-11T08:43:44Z</time>
      </trkpt>
      <trkpt lat="42.96134" lon="-0.04499">
        <ele>1037</ele>
        <time>2022-06-11T08:43:46Z</time>
      </trkpt>
      <trkpt lat="42.96141" lon="-0.04494">
        <ele>1035.6</ele>
        <time>2022-06-11T08:43:49Z</time>
      </trkpt>
      <trkpt lat="42.96147" lon="-0.04493">
        <ele>1034.4</ele>
        <time>2022-06-11T08:43:51Z</time>
      </trkpt>
      <trkpt lat="42.96153" lon="-0.04493">
        <ele>1032.6</ele>
        <time>2022-06-11T08:43:53Z</time>
      </trkpt>
      <trkpt lat="42.96156" lon="-0.04494">
        <ele>1031</ele>
        <time>2022-06-11T08:43:55Z</time>
      </trkpt>
      <trkpt lat="42.96163" lon="-0.04493">
        <ele>1030</ele>
        <time>2022-06-11T08:43:57Z</time>
      </trkpt>
      <trkpt lat="42.96167" lon="-0.04492">
        <ele>1028.8</ele>
        <time>2022-06-11T08:43:59Z</time>
      </trkpt>
      <trkpt lat="42.96177" lon="-0.0449">
        <ele>1027.2</ele>
        <time>2022-06-11T08:44:02Z</time>
      </trkpt>
      <trkpt lat="42.96183" lon="-0.04488">
        <ele>1025.8</ele>
        <time>2022-06-11T08:44:04Z</time>
      </trkpt>
      <trkpt lat="42.96187" lon="-0.04484">
        <ele>1025.4</ele>
        <time>2022-06-11T08:44:05Z</time>
      </trkpt>
      <trkpt lat="42.9619" lon="-0.0448">
        <ele>1024.4</ele>
        <time>2022-06-11T08:44:06Z</time>
      </trkpt>
      <trkpt lat="42.96193" lon="-0.04477">
        <ele>1024</ele>
        <time>2022-06-11T08:44:07Z</time>
      </trkpt>
      <trkpt lat="42.96196" lon="-0.04474">
        <ele>1023.4</ele>
        <time>2022-06-11T08:44:08Z</time>
      </trkpt>
      <trkpt lat="42.96207" lon="-0.04459">
        <ele>1022.6</ele>
        <time>2022-06-11T08:44:11Z</time>
      </trkpt>
      <trkpt lat="42.9621" lon="-0.04455">
        <ele>1021.4</ele>
        <time>2022-06-11T08:44:12Z</time>
      </trkpt>
      <trkpt lat="42.96216" lon="-0.04447">
        <ele>1020</ele>
        <time>2022-06-11T08:44:14Z</time>
      </trkpt>
      <trkpt lat="42.9622" lon="-0.04439">
        <ele>1019.2</ele>
        <time>2022-06-11T08:44:16Z</time>
      </trkpt>
      <trkpt lat="42.96222" lon="-0.04435">
        <ele>1018.8</ele>
        <time>2022-06-11T08:44:18Z</time>
      </trkpt>
      <trkpt lat="42.96226" lon="-0.04432">
        <ele>1017.6</ele>
        <time>2022-06-11T08:44:20Z</time>
      </trkpt>
      <trkpt lat="42.9623" lon="-0.04428">
        <ele>1016.8</ele>
        <time>2022-06-11T08:44:22Z</time>
      </trkpt>
      <trkpt lat="42.96232" lon="-0.04428">
        <ele>1016</ele>
        <time>2022-06-11T08:44:23Z</time>
      </trkpt>
      <trkpt lat="42.96235" lon="-0.04429">
        <ele>1015.8</ele>
        <time>2022-06-11T08:44:24Z</time>
      </trkpt>
      <trkpt lat="42.96241" lon="-0.04432">
        <ele>1014.6</ele>
        <time>2022-06-11T08:44:27Z</time>
      </trkpt>
      <trkpt lat="42.96244" lon="-0.04435">
        <ele>1013.8</ele>
        <time>2022-06-11T08:44:29Z</time>
      </trkpt>
      <trkpt lat="42.9625" lon="-0.04439">
        <ele>1013.2</ele>
        <time>2022-06-11T08:44:31Z</time>
      </trkpt>
      <trkpt lat="42.96252" lon="-0.04441">
        <ele>1012.8</ele>
        <time>2022-06-11T08:44:32Z</time>
      </trkpt>
      <trkpt lat="42.9626" lon="-0.04446">
        <ele>1012.6</ele>
        <time>2022-06-11T08:44:35Z</time>
      </trkpt>
      <trkpt lat="42.96272" lon="-0.04458">
        <ele>1012.6</ele>
        <time>2022-06-11T08:44:41Z</time>
      </trkpt>
      <trkpt lat="42.96281" lon="-0.04471">
        <ele>1012.8</ele>
        <time>2022-06-11T08:44:45Z</time>
      </trkpt>
      <trkpt lat="42.96295" lon="-0.04482">
        <ele>1013.4</ele>
        <time>2022-06-11T08:44:51Z</time>
      </trkpt>
      <trkpt lat="42.96306" lon="-0.04491">
        <ele>1014</ele>
        <time>2022-06-11T08:44:57Z</time>
      </trkpt>
      <trkpt lat="42.96307" lon="-0.04492">
        <ele>1014.2</ele>
        <time>2022-06-11T08:44:58Z</time>
      </trkpt>
      <trkpt lat="42.96313" lon="-0.04496">
        <ele>1015.4</ele>
        <time>2022-06-11T08:45:02Z</time>
      </trkpt>
      <trkpt lat="42.96316" lon="-0.04498">
        <ele>1015.8</ele>
        <time>2022-06-11T08:45:04Z</time>
      </trkpt>
      <trkpt lat="42.96327" lon="-0.04504">
        <ele>1016</ele>
        <time>2022-06-11T08:45:09Z</time>
      </trkpt>
      <trkpt lat="42.96329" lon="-0.04504">
        <ele>1015.8</ele>
        <time>2022-06-11T08:45:10Z</time>
      </trkpt>
      <trkpt lat="42.96332" lon="-0.04506">
        <ele>1015.8</ele>
        <time>2022-06-11T08:45:12Z</time>
      </trkpt>
      <trkpt lat="42.96334" lon="-0.04509">
        <ele>1015.8</ele>
        <time>2022-06-11T08:45:13Z</time>
      </trkpt>
      <trkpt lat="42.96337" lon="-0.04512">
        <ele>1015.8</ele>
        <time>2022-06-11T08:45:14Z</time>
      </trkpt>
      <trkpt lat="42.96342" lon="-0.04517">
        <ele>1015.6</ele>
        <time>2022-06-11T08:45:16Z</time>
      </trkpt>
      <trkpt lat="42.96349" lon="-0.04527">
        <ele>1014.8</ele>
        <time>2022-06-11T08:45:21Z</time>
      </trkpt>
      <trkpt lat="42.96351" lon="-0.04529">
        <ele>1014.8</ele>
        <time>2022-06-11T08:45:22Z</time>
      </trkpt>
      <trkpt lat="42.96356" lon="-0.04539">
        <ele>1015</ele>
        <time>2022-06-11T08:45:26Z</time>
      </trkpt>
      <trkpt lat="42.96365" lon="-0.04553">
        <ele>1015.2</ele>
        <time>2022-06-11T08:45:32Z</time>
      </trkpt>
      <trkpt lat="42.96375" lon="-0.04572">
        <ele>1016.2</ele>
        <time>2022-06-11T08:45:40Z</time>
      </trkpt>
      <trkpt lat="42.96382" lon="-0.04579">
        <ele>1016.4</ele>
        <time>2022-06-11T08:45:45Z</time>
      </trkpt>
      <trkpt lat="42.96383" lon="-0.0458">
        <ele>1016.4</ele>
        <time>2022-06-11T08:45:47Z</time>
      </trkpt>
      <trkpt lat="42.96383" lon="-0.0458">
        <ele>1016.6</ele>
        <time>2022-06-11T08:45:53Z</time>
      </trkpt>
      <trkpt lat="42.96383" lon="-0.0458">
        <ele>1016.6</ele>
        <time>2022-06-11T08:45:54Z</time>
      </trkpt>
      <trkpt lat="42.96383" lon="-0.0458">
        <ele>1016.8</ele>
        <time>2022-06-11T08:46:05Z</time>
      </trkpt>
      <trkpt lat="42.96384" lon="-0.04582">
        <ele>1016.6</ele>
        <time>2022-06-11T08:46:48Z</time>
      </trkpt>
      <trkpt lat="42.96384" lon="-0.04583">
        <ele>1016.4</ele>
        <time>2022-06-11T08:46:55Z</time>
      </trkpt>
      <trkpt lat="42.96388" lon="-0.04588">
        <ele>1016.4</ele>
        <time>2022-06-11T08:46:58Z</time>
      </trkpt>
      <trkpt lat="42.96394" lon="-0.04601">
        <ele>1016.4</ele>
        <time>2022-06-11T08:47:04Z</time>
      </trkpt>
      <trkpt lat="42.96395" lon="-0.04604">
        <ele>1016.4</ele>
        <time>2022-06-11T08:47:05Z</time>
      </trkpt>
      <trkpt lat="42.96402" lon="-0.04623">
        <ele>1016.4</ele>
        <time>2022-06-11T08:47:10Z</time>
      </trkpt>
      <trkpt lat="42.96404" lon="-0.04625">
        <ele>1016.4</ele>
        <time>2022-06-11T08:47:11Z</time>
      </trkpt>
      <trkpt lat="42.96411" lon="-0.04633">
        <ele>1016.2</ele>
        <time>2022-06-11T08:47:15Z</time>
      </trkpt>
      <trkpt lat="42.96413" lon="-0.04634">
        <ele>1016.2</ele>
        <time>2022-06-11T08:47:17Z</time>
      </trkpt>
      <trkpt lat="42.96416" lon="-0.04634">
        <ele>1016.2</ele>
        <time>2022-06-11T08:47:19Z</time>
      </trkpt>
      <trkpt lat="42.96417" lon="-0.04634">
        <ele>1016.2</ele>
        <time>2022-06-11T08:47:20Z</time>
      </trkpt>
      <trkpt lat="42.96421" lon="-0.04637">
        <ele>1016</ele>
        <time>2022-06-11T08:47:22Z</time>
      </trkpt>
      <trkpt lat="42.96423" lon="-0.04638">
        <ele>1015.8</ele>
        <time>2022-06-11T08:47:23Z</time>
      </trkpt>
      <trkpt lat="42.96427" lon="-0.0464">
        <ele>1015.4</ele>
        <time>2022-06-11T08:47:25Z</time>
      </trkpt>
      <trkpt lat="42.96432" lon="-0.04643">
        <ele>1014.8</ele>
        <time>2022-06-11T08:47:27Z</time>
      </trkpt>
      <trkpt lat="42.96438" lon="-0.04646">
        <ele>1013.6</ele>
        <time>2022-06-11T08:47:29Z</time>
      </trkpt>
      <trkpt lat="42.96443" lon="-0.04649">
        <ele>1012.2</ele>
        <time>2022-06-11T08:47:31Z</time>
      </trkpt>
      <trkpt lat="42.96448" lon="-0.04652">
        <ele>1011.2</ele>
        <time>2022-06-11T08:47:33Z</time>
      </trkpt>
      <trkpt lat="42.9645" lon="-0.04653">
        <ele>1010.8</ele>
        <time>2022-06-11T08:47:34Z</time>
      </trkpt>
      <trkpt lat="42.96452" lon="-0.04656">
        <ele>1009.8</ele>
        <time>2022-06-11T08:47:36Z</time>
      </trkpt>
      <trkpt lat="42.96457" lon="-0.04659">
        <ele>1009</ele>
        <time>2022-06-11T08:47:38Z</time>
      </trkpt>
      <trkpt lat="42.96459" lon="-0.04661">
        <ele>1008.8</ele>
        <time>2022-06-11T08:47:39Z</time>
      </trkpt>
      <trkpt lat="42.96464" lon="-0.04667">
        <ele>1007</ele>
        <time>2022-06-11T08:47:42Z</time>
      </trkpt>
      <trkpt lat="42.96468" lon="-0.04673">
        <ele>1005.8</ele>
        <time>2022-06-11T08:47:44Z</time>
      </trkpt>
      <trkpt lat="42.96476" lon="-0.04682">
        <ele>1004.8</ele>
        <time>2022-06-11T08:47:47Z</time>
      </trkpt>
      <trkpt lat="42.96479" lon="-0.04684">
        <ele>1003.2</ele>
        <time>2022-06-11T08:47:48Z</time>
      </trkpt>
      <trkpt lat="42.96483" lon="-0.04687">
        <ele>1002.4</ele>
        <time>2022-06-11T08:47:49Z</time>
      </trkpt>
      <trkpt lat="42.96487" lon="-0.04691">
        <ele>1002.2</ele>
        <time>2022-06-11T08:47:50Z</time>
      </trkpt>
      <trkpt lat="42.96501" lon="-0.047">
        <ele>1000.4</ele>
        <time>2022-06-11T08:47:53Z</time>
      </trkpt>
      <trkpt lat="42.96506" lon="-0.04702">
        <ele>1000</ele>
        <time>2022-06-11T08:47:54Z</time>
      </trkpt>
      <trkpt lat="42.96511" lon="-0.04704">
        <ele>999</ele>
        <time>2022-06-11T08:47:55Z</time>
      </trkpt>
      <trkpt lat="42.96516" lon="-0.04707">
        <ele>998.6</ele>
        <time>2022-06-11T08:47:56Z</time>
      </trkpt>
      <trkpt lat="42.96521" lon="-0.04711">
        <ele>997.4</ele>
        <time>2022-06-11T08:47:57Z</time>
      </trkpt>
      <trkpt lat="42.96532" lon="-0.04723">
        <ele>996.2</ele>
        <time>2022-06-11T08:47:59Z</time>
      </trkpt>
      <trkpt lat="42.96544" lon="-0.04734">
        <ele>995</ele>
        <time>2022-06-11T08:48:01Z</time>
      </trkpt>
      <trkpt lat="42.9656" lon="-0.04749">
        <ele>993.8</ele>
        <time>2022-06-11T08:48:04Z</time>
      </trkpt>
      <trkpt lat="42.96566" lon="-0.04754">
        <ele>993.6</ele>
        <time>2022-06-11T08:48:05Z</time>
      </trkpt>
      <trkpt lat="42.96571" lon="-0.04759">
        <ele>993</ele>
        <time>2022-06-11T08:48:06Z</time>
      </trkpt>
      <trkpt lat="42.96576" lon="-0.04763">
        <ele>992.6</ele>
        <time>2022-06-11T08:48:07Z</time>
      </trkpt>
      <trkpt lat="42.96582" lon="-0.04766">
        <ele>992.2</ele>
        <time>2022-06-11T08:48:08Z</time>
      </trkpt>
      <trkpt lat="42.96588" lon="-0.04767">
        <ele>991.8</ele>
        <time>2022-06-11T08:48:09Z</time>
      </trkpt>
      <trkpt lat="42.96593" lon="-0.04768">
        <ele>991.4</ele>
        <time>2022-06-11T08:48:10Z</time>
      </trkpt>
      <trkpt lat="42.96602" lon="-0.04768">
        <ele>990.4</ele>
        <time>2022-06-11T08:48:13Z</time>
      </trkpt>
      <trkpt lat="42.96602" lon="-0.04768">
        <ele>989.6</ele>
        <time>2022-06-11T08:48:16Z</time>
      </trkpt>
      <trkpt lat="42.96603" lon="-0.04767">
        <ele>989.4</ele>
        <time>2022-06-11T08:48:19Z</time>
      </trkpt>
      <trkpt lat="42.96605" lon="-0.04764">
        <ele>989.2</ele>
        <time>2022-06-11T08:48:21Z</time>
      </trkpt>
      <trkpt lat="42.96607" lon="-0.04761">
        <ele>989.2</ele>
        <time>2022-06-11T08:48:22Z</time>
      </trkpt>
      <trkpt lat="42.9661" lon="-0.04757">
        <ele>989</ele>
        <time>2022-06-11T08:48:23Z</time>
      </trkpt>
      <trkpt lat="42.96618" lon="-0.04744">
        <ele>988.2</ele>
        <time>2022-06-11T08:48:25Z</time>
      </trkpt>
      <trkpt lat="42.96634" lon="-0.04718">
        <ele>986.4</ele>
        <time>2022-06-11T08:48:29Z</time>
      </trkpt>
      <trkpt lat="42.96637" lon="-0.04713">
        <ele>985.6</ele>
        <time>2022-06-11T08:48:30Z</time>
      </trkpt>
      <trkpt lat="42.96641" lon="-0.04708">
        <ele>984.2</ele>
        <time>2022-06-11T08:48:31Z</time>
      </trkpt>
      <trkpt lat="42.96647" lon="-0.04698">
        <ele>982.6</ele>
        <time>2022-06-11T08:48:33Z</time>
      </trkpt>
      <trkpt lat="42.96649" lon="-0.04694">
        <ele>981.4</ele>
        <time>2022-06-11T08:48:34Z</time>
      </trkpt>
      <trkpt lat="42.96651" lon="-0.04692">
        <ele>980</ele>
        <time>2022-06-11T08:48:35Z</time>
      </trkpt>
      <trkpt lat="42.96653" lon="-0.04693">
        <ele>978.8</ele>
        <time>2022-06-11T08:48:36Z</time>
      </trkpt>
      <trkpt lat="42.96655" lon="-0.04699">
        <ele>977.6</ele>
        <time>2022-06-11T08:48:38Z</time>
      </trkpt>
      <trkpt lat="42.96655" lon="-0.0471">
        <ele>976.8</ele>
        <time>2022-06-11T08:48:40Z</time>
      </trkpt>
      <trkpt lat="42.96653" lon="-0.04721">
        <ele>975.2</ele>
        <time>2022-06-11T08:48:42Z</time>
      </trkpt>
      <trkpt lat="42.96655" lon="-0.04728">
        <ele>973.8</ele>
        <time>2022-06-11T08:48:44Z</time>
      </trkpt>
      <trkpt lat="42.96656" lon="-0.04729">
        <ele>973.4</ele>
        <time>2022-06-11T08:48:45Z</time>
      </trkpt>
      <trkpt lat="42.96659" lon="-0.04727">
        <ele>972.4</ele>
        <time>2022-06-11T08:48:46Z</time>
      </trkpt>
      <trkpt lat="42.96666" lon="-0.04721">
        <ele>970.8</ele>
        <time>2022-06-11T08:48:48Z</time>
      </trkpt>
      <trkpt lat="42.96674" lon="-0.04714">
        <ele>969.4</ele>
        <time>2022-06-11T08:48:50Z</time>
      </trkpt>
      <trkpt lat="42.96685" lon="-0.04707">
        <ele>968.4</ele>
        <time>2022-06-11T08:48:52Z</time>
      </trkpt>
      <trkpt lat="42.96689" lon="-0.04703">
        <ele>967.4</ele>
        <time>2022-06-11T08:48:53Z</time>
      </trkpt>
      <trkpt lat="42.96693" lon="-0.047">
        <ele>966.8</ele>
        <time>2022-06-11T08:48:54Z</time>
      </trkpt>
      <trkpt lat="42.96697" lon="-0.04697">
        <ele>965.6</ele>
        <time>2022-06-11T08:48:55Z</time>
      </trkpt>
      <trkpt lat="42.96706" lon="-0.0469">
        <ele>964.4</ele>
        <time>2022-06-11T08:48:57Z</time>
      </trkpt>
      <trkpt lat="42.96714" lon="-0.04684">
        <ele>962</ele>
        <time>2022-06-11T08:48:59Z</time>
      </trkpt>
      <trkpt lat="42.9672" lon="-0.04679">
        <ele>960</ele>
        <time>2022-06-11T08:49:01Z</time>
      </trkpt>
      <trkpt lat="42.96724" lon="-0.04674">
        <ele>959.4</ele>
        <time>2022-06-11T08:49:02Z</time>
      </trkpt>
      <trkpt lat="42.96728" lon="-0.0467">
        <ele>958.2</ele>
        <time>2022-06-11T08:49:03Z</time>
      </trkpt>
      <trkpt lat="42.96733" lon="-0.04665">
        <ele>957</ele>
        <time>2022-06-11T08:49:04Z</time>
      </trkpt>
      <trkpt lat="42.96738" lon="-0.0466">
        <ele>956.6</ele>
        <time>2022-06-11T08:49:05Z</time>
      </trkpt>
      <trkpt lat="42.96743" lon="-0.04655">
        <ele>955.4</ele>
        <time>2022-06-11T08:49:06Z</time>
      </trkpt>
      <trkpt lat="42.9676" lon="-0.0464">
        <ele>953.8</ele>
        <time>2022-06-11T08:49:09Z</time>
      </trkpt>
      <trkpt lat="42.96766" lon="-0.04635">
        <ele>952.8</ele>
        <time>2022-06-11T08:49:10Z</time>
      </trkpt>
      <trkpt lat="42.96776" lon="-0.04625">
        <ele>950.2</ele>
        <time>2022-06-11T08:49:12Z</time>
      </trkpt>
      <trkpt lat="42.9678" lon="-0.0462">
        <ele>949.6</ele>
        <time>2022-06-11T08:49:13Z</time>
      </trkpt>
      <trkpt lat="42.96784" lon="-0.04615">
        <ele>948.6</ele>
        <time>2022-06-11T08:49:14Z</time>
      </trkpt>
      <trkpt lat="42.96791" lon="-0.04606">
        <ele>946.4</ele>
        <time>2022-06-11T08:49:16Z</time>
      </trkpt>
      <trkpt lat="42.96797" lon="-0.04598">
        <ele>944.8</ele>
        <time>2022-06-11T08:49:18Z</time>
      </trkpt>
      <trkpt lat="42.96799" lon="-0.04594">
        <ele>943.8</ele>
        <time>2022-06-11T08:49:19Z</time>
      </trkpt>
      <trkpt lat="42.96803" lon="-0.0459">
        <ele>941.6</ele>
        <time>2022-06-11T08:49:21Z</time>
      </trkpt>
      <trkpt lat="42.96808" lon="-0.04582">
        <ele>940.4</ele>
        <time>2022-06-11T08:49:23Z</time>
      </trkpt>
      <trkpt lat="42.96811" lon="-0.04578">
        <ele>940</ele>
        <time>2022-06-11T08:49:24Z</time>
      </trkpt>
      <trkpt lat="42.96815" lon="-0.04574">
        <ele>938.6</ele>
        <time>2022-06-11T08:49:25Z</time>
      </trkpt>
      <trkpt lat="42.96818" lon="-0.04569">
        <ele>938</ele>
        <time>2022-06-11T08:49:26Z</time>
      </trkpt>
      <trkpt lat="42.96821" lon="-0.04564">
        <ele>937</ele>
        <time>2022-06-11T08:49:27Z</time>
      </trkpt>
      <trkpt lat="42.96825" lon="-0.04559">
        <ele>936.8</ele>
        <time>2022-06-11T08:49:28Z</time>
      </trkpt>
      <trkpt lat="42.96828" lon="-0.04554">
        <ele>936</ele>
        <time>2022-06-11T08:49:29Z</time>
      </trkpt>
      <trkpt lat="42.96835" lon="-0.04543">
        <ele>934.6</ele>
        <time>2022-06-11T08:49:31Z</time>
      </trkpt>
      <trkpt lat="42.96838" lon="-0.04538">
        <ele>933.6</ele>
        <time>2022-06-11T08:49:32Z</time>
      </trkpt>
      <trkpt lat="42.96841" lon="-0.04535">
        <ele>932.2</ele>
        <time>2022-06-11T08:49:33Z</time>
      </trkpt>
      <trkpt lat="42.96843" lon="-0.04533">
        <ele>931</ele>
        <time>2022-06-11T08:49:34Z</time>
      </trkpt>
      <trkpt lat="42.96845" lon="-0.0453">
        <ele>930.2</ele>
        <time>2022-06-11T08:49:35Z</time>
      </trkpt>
      <trkpt lat="42.96846" lon="-0.04528">
        <ele>928.8</ele>
        <time>2022-06-11T08:49:36Z</time>
      </trkpt>
      <trkpt lat="42.96846" lon="-0.04527">
        <ele>927.2</ele>
        <time>2022-06-11T08:49:38Z</time>
      </trkpt>
      <trkpt lat="42.96848" lon="-0.04525">
        <ele>926</ele>
        <time>2022-06-11T08:49:40Z</time>
      </trkpt>
      <trkpt lat="42.9685" lon="-0.04523">
        <ele>926</ele>
        <time>2022-06-11T08:49:41Z</time>
      </trkpt>
      <trkpt lat="42.96852" lon="-0.04519">
        <ele>925.6</ele>
        <time>2022-06-11T08:49:42Z</time>
      </trkpt>
      <trkpt lat="42.96861" lon="-0.04502">
        <ele>924.8</ele>
        <time>2022-06-11T08:49:46Z</time>
      </trkpt>
      <trkpt lat="42.96864" lon="-0.04496">
        <ele>924.8</ele>
        <time>2022-06-11T08:49:47Z</time>
      </trkpt>
      <trkpt lat="42.96877" lon="-0.04477">
        <ele>923.2</ele>
        <time>2022-06-11T08:49:51Z</time>
      </trkpt>
      <trkpt lat="42.96885" lon="-0.04466">
        <ele>922</ele>
        <time>2022-06-11T08:49:54Z</time>
      </trkpt>
      <trkpt lat="42.9689" lon="-0.04456">
        <ele>921</ele>
        <time>2022-06-11T08:49:56Z</time>
      </trkpt>
      <trkpt lat="42.96892" lon="-0.04451">
        <ele>920.4</ele>
        <time>2022-06-11T08:49:57Z</time>
      </trkpt>
      <trkpt lat="42.96898" lon="-0.04438">
        <ele>919.4</ele>
        <time>2022-06-11T08:49:59Z</time>
      </trkpt>
      <trkpt lat="42.96906" lon="-0.04423">
        <ele>918</ele>
        <time>2022-06-11T08:50:01Z</time>
      </trkpt>
      <trkpt lat="42.96915" lon="-0.04406">
        <ele>917</ele>
        <time>2022-06-11T08:50:03Z</time>
      </trkpt>
      <trkpt lat="42.96923" lon="-0.04389">
        <ele>916</ele>
        <time>2022-06-11T08:50:05Z</time>
      </trkpt>
      <trkpt lat="42.96932" lon="-0.04371">
        <ele>915</ele>
        <time>2022-06-11T08:50:07Z</time>
      </trkpt>
      <trkpt lat="42.96936" lon="-0.04362">
        <ele>914.6</ele>
        <time>2022-06-11T08:50:08Z</time>
      </trkpt>
      <trkpt lat="42.96942" lon="-0.04345">
        <ele>913</ele>
        <time>2022-06-11T08:50:10Z</time>
      </trkpt>
      <trkpt lat="42.96945" lon="-0.04338">
        <ele>912.8</ele>
        <time>2022-06-11T08:50:11Z</time>
      </trkpt>
      <trkpt lat="42.9695" lon="-0.04325">
        <ele>912.2</ele>
        <time>2022-06-11T08:50:14Z</time>
      </trkpt>
      <trkpt lat="42.96957" lon="-0.04309">
        <ele>912.6</ele>
        <time>2022-06-11T08:50:20Z</time>
      </trkpt>
      <trkpt lat="42.96967" lon="-0.04294">
        <ele>914</ele>
        <time>2022-06-11T08:50:27Z</time>
      </trkpt>
      <trkpt lat="42.96968" lon="-0.04291">
        <ele>914</ele>
        <time>2022-06-11T08:50:28Z</time>
      </trkpt>
      <trkpt lat="42.96974" lon="-0.04276">
        <ele>915.2</ele>
        <time>2022-06-11T08:50:35Z</time>
      </trkpt>
      <trkpt lat="42.96985" lon="-0.04253">
        <ele>916.2</ele>
        <time>2022-06-11T08:50:44Z</time>
      </trkpt>
      <trkpt lat="42.96987" lon="-0.04248">
        <ele>916.4</ele>
        <time>2022-06-11T08:50:46Z</time>
      </trkpt>
      <trkpt lat="42.96992" lon="-0.04232">
        <ele>916.8</ele>
        <time>2022-06-11T08:50:52Z</time>
      </trkpt>
      <trkpt lat="42.96995" lon="-0.04216">
        <ele>917.4</ele>
        <time>2022-06-11T08:50:59Z</time>
      </trkpt>
      <trkpt lat="42.96996" lon="-0.04213">
        <ele>917.4</ele>
        <time>2022-06-11T08:51:00Z</time>
      </trkpt>
      <trkpt lat="42.96996" lon="-0.04197">
        <ele>918.4</ele>
        <time>2022-06-11T08:51:06Z</time>
      </trkpt>
      <trkpt lat="42.96996" lon="-0.04189">
        <ele>919</ele>
        <time>2022-06-11T08:51:09Z</time>
      </trkpt>
      <trkpt lat="42.96996" lon="-0.04181">
        <ele>919.6</ele>
        <time>2022-06-11T08:51:12Z</time>
      </trkpt>
      <trkpt lat="42.96997" lon="-0.04165">
        <ele>920.6</ele>
        <time>2022-06-11T08:51:18Z</time>
      </trkpt>
      <trkpt lat="42.96997" lon="-0.04161">
        <ele>921</ele>
        <time>2022-06-11T08:51:20Z</time>
      </trkpt>
      <trkpt lat="42.96997" lon="-0.04149">
        <ele>922.2</ele>
        <time>2022-06-11T08:51:25Z</time>
      </trkpt>
      <trkpt lat="42.96998" lon="-0.04141">
        <ele>922.8</ele>
        <time>2022-06-11T08:51:28Z</time>
      </trkpt>
      <trkpt lat="42.97001" lon="-0.04132">
        <ele>923.4</ele>
        <time>2022-06-11T08:51:31Z</time>
      </trkpt>
      <trkpt lat="42.97005" lon="-0.04116">
        <ele>923.8</ele>
        <time>2022-06-11T08:51:36Z</time>
      </trkpt>
      <trkpt lat="42.97012" lon="-0.04097">
        <ele>924.2</ele>
        <time>2022-06-11T08:51:42Z</time>
      </trkpt>
      <trkpt lat="42.97012" lon="-0.04094">
        <ele>924.4</ele>
        <time>2022-06-11T08:51:43Z</time>
      </trkpt>
      <trkpt lat="42.97013" lon="-0.04091">
        <ele>924.4</ele>
        <time>2022-06-11T08:51:44Z</time>
      </trkpt>
      <trkpt lat="42.97018" lon="-0.04086">
        <ele>924.6</ele>
        <time>2022-06-11T08:51:47Z</time>
      </trkpt>
      <trkpt lat="42.9703" lon="-0.04071">
        <ele>925.4</ele>
        <time>2022-06-11T08:51:54Z</time>
      </trkpt>
      <trkpt lat="42.97032" lon="-0.04068">
        <ele>925.6</ele>
        <time>2022-06-11T08:51:55Z</time>
      </trkpt>
      <trkpt lat="42.97037" lon="-0.04059">
        <ele>926.6</ele>
        <time>2022-06-11T08:52:00Z</time>
      </trkpt>
      <trkpt lat="42.97038" lon="-0.04057">
        <ele>926.8</ele>
        <time>2022-06-11T08:52:01Z</time>
      </trkpt>
      <trkpt lat="42.97044" lon="-0.04049">
        <ele>928</ele>
        <time>2022-06-11T08:52:05Z</time>
      </trkpt>
      <trkpt lat="42.97047" lon="-0.04044">
        <ele>928.8</ele>
        <time>2022-06-11T08:52:08Z</time>
      </trkpt>
      <trkpt lat="42.97049" lon="-0.0404">
        <ele>929.2</ele>
        <time>2022-06-11T08:52:10Z</time>
      </trkpt>
      <trkpt lat="42.97055" lon="-0.04031">
        <ele>930.2</ele>
        <time>2022-06-11T08:52:14Z</time>
      </trkpt>
      <trkpt lat="42.97067" lon="-0.04007">
        <ele>931</ele>
        <time>2022-06-11T08:52:23Z</time>
      </trkpt>
      <trkpt lat="42.97072" lon="-0.03994">
        <ele>931.4</ele>
        <time>2022-06-11T08:52:28Z</time>
      </trkpt>
      <trkpt lat="42.97077" lon="-0.03987">
        <ele>932</ele>
        <time>2022-06-11T08:52:32Z</time>
      </trkpt>
      <trkpt lat="42.97081" lon="-0.03981">
        <ele>932.6</ele>
        <time>2022-06-11T08:52:35Z</time>
      </trkpt>
      <trkpt lat="42.97083" lon="-0.03976">
        <ele>933.4</ele>
        <time>2022-06-11T08:52:38Z</time>
      </trkpt>
      <trkpt lat="42.97085" lon="-0.03972">
        <ele>933.8</ele>
        <time>2022-06-11T08:52:40Z</time>
      </trkpt>
      <trkpt lat="42.97086" lon="-0.03968">
        <ele>934.2</ele>
        <time>2022-06-11T08:52:42Z</time>
      </trkpt>
      <trkpt lat="42.97088" lon="-0.03964">
        <ele>935.2</ele>
        <time>2022-06-11T08:52:44Z</time>
      </trkpt>
      <trkpt lat="42.97091" lon="-0.03953">
        <ele>936.4</ele>
        <time>2022-06-11T08:52:50Z</time>
      </trkpt>
      <trkpt lat="42.97091" lon="-0.03948">
        <ele>936.8</ele>
        <time>2022-06-11T08:52:52Z</time>
      </trkpt>
      <trkpt lat="42.97092" lon="-0.03943">
        <ele>937.2</ele>
        <time>2022-06-11T08:52:54Z</time>
      </trkpt>
      <trkpt lat="42.97092" lon="-0.0394">
        <ele>937.6</ele>
        <time>2022-06-11T08:52:55Z</time>
      </trkpt>
      <trkpt lat="42.97093" lon="-0.0393">
        <ele>938.8</ele>
        <time>2022-06-11T08:52:59Z</time>
      </trkpt>
      <trkpt lat="42.97094" lon="-0.03928">
        <ele>939.2</ele>
        <time>2022-06-11T08:53:00Z</time>
      </trkpt>
      <trkpt lat="42.971" lon="-0.03919">
        <ele>939.8</ele>
        <time>2022-06-11T08:53:04Z</time>
      </trkpt>
      <trkpt lat="42.97101" lon="-0.03917">
        <ele>940.2</ele>
        <time>2022-06-11T08:53:05Z</time>
      </trkpt>
      <trkpt lat="42.97102" lon="-0.03915">
        <ele>940.4</ele>
        <time>2022-06-11T08:53:06Z</time>
      </trkpt>
      <trkpt lat="42.97104" lon="-0.03907">
        <ele>941.6</ele>
        <time>2022-06-11T08:53:10Z</time>
      </trkpt>
      <trkpt lat="42.97105" lon="-0.03905">
        <ele>941.6</ele>
        <time>2022-06-11T08:53:11Z</time>
      </trkpt>
      <trkpt lat="42.9711" lon="-0.03898">
        <ele>942.4</ele>
        <time>2022-06-11T08:53:14Z</time>
      </trkpt>
      <trkpt lat="42.97111" lon="-0.03898">
        <ele>942.6</ele>
        <time>2022-06-11T08:53:15Z</time>
      </trkpt>
      <trkpt lat="42.97114" lon="-0.03893">
        <ele>943.6</ele>
        <time>2022-06-11T08:53:18Z</time>
      </trkpt>
      <trkpt lat="42.97118" lon="-0.03887">
        <ele>944.6</ele>
        <time>2022-06-11T08:53:22Z</time>
      </trkpt>
      <trkpt lat="42.97121" lon="-0.03886">
        <ele>945</ele>
        <time>2022-06-11T08:53:24Z</time>
      </trkpt>
      <trkpt lat="42.97124" lon="-0.03888">
        <ele>945.4</ele>
        <time>2022-06-11T08:53:26Z</time>
      </trkpt>
      <trkpt lat="42.97126" lon="-0.03889">
        <ele>945.8</ele>
        <time>2022-06-11T08:53:27Z</time>
      </trkpt>
      <trkpt lat="42.97128" lon="-0.03891">
        <ele>946</ele>
        <time>2022-06-11T08:53:28Z</time>
      </trkpt>
      <trkpt lat="42.97136" lon="-0.03903">
        <ele>946.6</ele>
        <time>2022-06-11T08:53:34Z</time>
      </trkpt>
      <trkpt lat="42.97137" lon="-0.03906">
        <ele>946.8</ele>
        <time>2022-06-11T08:53:36Z</time>
      </trkpt>
      <trkpt lat="42.9714" lon="-0.03918">
        <ele>947.4</ele>
        <time>2022-06-11T08:53:41Z</time>
      </trkpt>
      <trkpt lat="42.97142" lon="-0.03931">
        <ele>947.8</ele>
        <time>2022-06-11T08:53:47Z</time>
      </trkpt>
      <trkpt lat="42.97143" lon="-0.03934">
        <ele>948</ele>
        <time>2022-06-11T08:53:48Z</time>
      </trkpt>
      <trkpt lat="42.97148" lon="-0.03952">
        <ele>948.6</ele>
        <time>2022-06-11T08:53:54Z</time>
      </trkpt>
      <trkpt lat="42.97159" lon="-0.03965">
        <ele>948.8</ele>
        <time>2022-06-11T08:53:58Z</time>
      </trkpt>
      <trkpt lat="42.97171" lon="-0.03972">
        <ele>947.8</ele>
        <time>2022-06-11T08:54:03Z</time>
      </trkpt>
      <trkpt lat="42.97173" lon="-0.03973">
        <ele>947.6</ele>
        <time>2022-06-11T08:54:04Z</time>
      </trkpt>
      <trkpt lat="42.97179" lon="-0.03978">
        <ele>946.6</ele>
        <time>2022-06-11T08:54:06Z</time>
      </trkpt>
      <trkpt lat="42.97185" lon="-0.03982">
        <ele>945.6</ele>
        <time>2022-06-11T08:54:08Z</time>
      </trkpt>
      <trkpt lat="42.9719" lon="-0.03988">
        <ele>944.2</ele>
        <time>2022-06-11T08:54:10Z</time>
      </trkpt>
      <trkpt lat="42.97195" lon="-0.04">
        <ele>942.8</ele>
        <time>2022-06-11T08:54:13Z</time>
      </trkpt>
      <trkpt lat="42.97196" lon="-0.04009">
        <ele>941.8</ele>
        <time>2022-06-11T08:54:15Z</time>
      </trkpt>
      <trkpt lat="42.97199" lon="-0.04019">
        <ele>940.4</ele>
        <time>2022-06-11T08:54:17Z</time>
      </trkpt>
      <trkpt lat="42.97201" lon="-0.04024">
        <ele>939.4</ele>
        <time>2022-06-11T08:54:18Z</time>
      </trkpt>
      <trkpt lat="42.97204" lon="-0.04029">
        <ele>938.8</ele>
        <time>2022-06-11T08:54:19Z</time>
      </trkpt>
      <trkpt lat="42.97207" lon="-0.04034">
        <ele>938.2</ele>
        <time>2022-06-11T08:54:20Z</time>
      </trkpt>
      <trkpt lat="42.97213" lon="-0.04042">
        <ele>937</ele>
        <time>2022-06-11T08:54:22Z</time>
      </trkpt>
      <trkpt lat="42.97219" lon="-0.04049">
        <ele>935.6</ele>
        <time>2022-06-11T08:54:24Z</time>
      </trkpt>
      <trkpt lat="42.97223" lon="-0.04051">
        <ele>934.4</ele>
        <time>2022-06-11T08:54:25Z</time>
      </trkpt>
      <trkpt lat="42.97234" lon="-0.04061">
        <ele>933.2</ele>
        <time>2022-06-11T08:54:28Z</time>
      </trkpt>
      <trkpt lat="42.97239" lon="-0.04066">
        <ele>932</ele>
        <time>2022-06-11T08:54:29Z</time>
      </trkpt>
      <trkpt lat="42.97244" lon="-0.04071">
        <ele>931.6</ele>
        <time>2022-06-11T08:54:30Z</time>
      </trkpt>
      <trkpt lat="42.97249" lon="-0.0408">
        <ele>930.6</ele>
        <time>2022-06-11T08:54:31Z</time>
      </trkpt>
      <trkpt lat="42.97261" lon="-0.04098">
        <ele>929</ele>
        <time>2022-06-11T08:54:33Z</time>
      </trkpt>
      <trkpt lat="42.97275" lon="-0.04114">
        <ele>927.2</ele>
        <time>2022-06-11T08:54:35Z</time>
      </trkpt>
      <trkpt lat="42.97281" lon="-0.04119">
        <ele>926.4</ele>
        <time>2022-06-11T08:54:36Z</time>
      </trkpt>
      <trkpt lat="42.97286" lon="-0.04124">
        <ele>925.4</ele>
        <time>2022-06-11T08:54:37Z</time>
      </trkpt>
      <trkpt lat="42.97294" lon="-0.0413">
        <ele>924.2</ele>
        <time>2022-06-11T08:54:39Z</time>
      </trkpt>
      <trkpt lat="42.97296" lon="-0.04133">
        <ele>923.8</ele>
        <time>2022-06-11T08:54:40Z</time>
      </trkpt>
      <trkpt lat="42.97308" lon="-0.04145">
        <ele>923.4</ele>
        <time>2022-06-11T08:54:45Z</time>
      </trkpt>
      <trkpt lat="42.97312" lon="-0.04148">
        <ele>923.2</ele>
        <time>2022-06-11T08:54:46Z</time>
      </trkpt>
      <trkpt lat="42.97321" lon="-0.04155">
        <ele>923.2</ele>
        <time>2022-06-11T08:54:48Z</time>
      </trkpt>
      <trkpt lat="42.97326" lon="-0.04157">
        <ele>923.2</ele>
        <time>2022-06-11T08:54:49Z</time>
      </trkpt>
      <trkpt lat="42.97349" lon="-0.04167">
        <ele>922.6</ele>
        <time>2022-06-11T08:54:53Z</time>
      </trkpt>
      <trkpt lat="42.97356" lon="-0.04171">
        <ele>922.2</ele>
        <time>2022-06-11T08:54:54Z</time>
      </trkpt>
      <trkpt lat="42.97378" lon="-0.04182">
        <ele>920.6</ele>
        <time>2022-06-11T08:54:57Z</time>
      </trkpt>
      <trkpt lat="42.97392" lon="-0.04185">
        <ele>919.4</ele>
        <time>2022-06-11T08:54:59Z</time>
      </trkpt>
      <trkpt lat="42.97401" lon="-0.04183">
        <ele>917.8</ele>
        <time>2022-06-11T08:55:01Z</time>
      </trkpt>
      <trkpt lat="42.97406" lon="-0.0418">
        <ele>917.4</ele>
        <time>2022-06-11T08:55:02Z</time>
      </trkpt>
      <trkpt lat="42.97411" lon="-0.04177">
        <ele>916.6</ele>
        <time>2022-06-11T08:55:03Z</time>
      </trkpt>
      <trkpt lat="42.97416" lon="-0.04175">
        <ele>916.6</ele>
        <time>2022-06-11T08:55:04Z</time>
      </trkpt>
      <trkpt lat="42.9743" lon="-0.04174">
        <ele>915.8</ele>
        <time>2022-06-11T08:55:06Z</time>
      </trkpt>
      <trkpt lat="42.97451" lon="-0.04176">
        <ele>914.8</ele>
        <time>2022-06-11T08:55:09Z</time>
      </trkpt>
      <trkpt lat="42.97458" lon="-0.04178">
        <ele>914</ele>
        <time>2022-06-11T08:55:10Z</time>
      </trkpt>
      <trkpt lat="42.97465" lon="-0.04181">
        <ele>913.8</ele>
        <time>2022-06-11T08:55:11Z</time>
      </trkpt>
      <trkpt lat="42.97471" lon="-0.04184">
        <ele>913.2</ele>
        <time>2022-06-11T08:55:12Z</time>
      </trkpt>
      <trkpt lat="42.97483" lon="-0.04192">
        <ele>912</ele>
        <time>2022-06-11T08:55:14Z</time>
      </trkpt>
      <trkpt lat="42.97492" lon="-0.04196">
        <ele>910.6</ele>
        <time>2022-06-11T08:55:16Z</time>
      </trkpt>
      <trkpt lat="42.97503" lon="-0.04196">
        <ele>908</ele>
        <time>2022-06-11T08:55:18Z</time>
      </trkpt>
      <trkpt lat="42.97507" lon="-0.04194">
        <ele>907</ele>
        <time>2022-06-11T08:55:19Z</time>
      </trkpt>
      <trkpt lat="42.97513" lon="-0.04193">
        <ele>905.6</ele>
        <time>2022-06-11T08:55:20Z</time>
      </trkpt>
      <trkpt lat="42.97523" lon="-0.04188">
        <ele>904.4</ele>
        <time>2022-06-11T08:55:22Z</time>
      </trkpt>
      <trkpt lat="42.97528" lon="-0.04185">
        <ele>904.2</ele>
        <time>2022-06-11T08:55:23Z</time>
      </trkpt>
      <trkpt lat="42.97532" lon="-0.04184">
        <ele>903</ele>
        <time>2022-06-11T08:55:24Z</time>
      </trkpt>
      <trkpt lat="42.97537" lon="-0.04188">
        <ele>902.2</ele>
        <time>2022-06-11T08:55:25Z</time>
      </trkpt>
      <trkpt lat="42.97544" lon="-0.04192">
        <ele>901.8</ele>
        <time>2022-06-11T08:55:26Z</time>
      </trkpt>
      <trkpt lat="42.97568" lon="-0.04193">
        <ele>899.8</ele>
        <time>2022-06-11T08:55:29Z</time>
      </trkpt>
      <trkpt lat="42.97576" lon="-0.04192">
        <ele>899.6</ele>
        <time>2022-06-11T08:55:30Z</time>
      </trkpt>
      <trkpt lat="42.97592" lon="-0.04191">
        <ele>898.8</ele>
        <time>2022-06-11T08:55:32Z</time>
      </trkpt>
      <trkpt lat="42.97605" lon="-0.0419">
        <ele>897.8</ele>
        <time>2022-06-11T08:55:34Z</time>
      </trkpt>
      <trkpt lat="42.97613" lon="-0.04191">
        <ele>897</ele>
        <time>2022-06-11T08:55:35Z</time>
      </trkpt>
      <trkpt lat="42.97618" lon="-0.04191">
        <ele>896.6</ele>
        <time>2022-06-11T08:55:36Z</time>
      </trkpt>
      <trkpt lat="42.97634" lon="-0.04201">
        <ele>895.6</ele>
        <time>2022-06-11T08:55:38Z</time>
      </trkpt>
      <trkpt lat="42.9764" lon="-0.04209">
        <ele>894.8</ele>
        <time>2022-06-11T08:55:39Z</time>
      </trkpt>
      <trkpt lat="42.97647" lon="-0.04223">
        <ele>894</ele>
        <time>2022-06-11T08:55:41Z</time>
      </trkpt>
      <trkpt lat="42.97652" lon="-0.04228">
        <ele>893.6</ele>
        <time>2022-06-11T08:55:42Z</time>
      </trkpt>
      <trkpt lat="42.97657" lon="-0.0423">
        <ele>893</ele>
        <time>2022-06-11T08:55:43Z</time>
      </trkpt>
      <trkpt lat="42.97661" lon="-0.0423">
        <ele>891.2</ele>
        <time>2022-06-11T08:55:44Z</time>
      </trkpt>
      <trkpt lat="42.97667" lon="-0.04233">
        <ele>889.2</ele>
        <time>2022-06-11T08:55:46Z</time>
      </trkpt>
      <trkpt lat="42.97665" lon="-0.04239">
        <ele>887.6</ele>
        <time>2022-06-11T08:55:48Z</time>
      </trkpt>
      <trkpt lat="42.97661" lon="-0.0424">
        <ele>886.2</ele>
        <time>2022-06-11T08:55:50Z</time>
      </trkpt>
      <trkpt lat="42.97654" lon="-0.04242">
        <ele>885</ele>
        <time>2022-06-11T08:55:52Z</time>
      </trkpt>
      <trkpt lat="42.97651" lon="-0.04243">
        <ele>884.6</ele>
        <time>2022-06-11T08:55:53Z</time>
      </trkpt>
      <trkpt lat="42.97648" lon="-0.04247">
        <ele>883.8</ele>
        <time>2022-06-11T08:55:54Z</time>
      </trkpt>
      <trkpt lat="42.97648" lon="-0.04251">
        <ele>883</ele>
        <time>2022-06-11T08:55:55Z</time>
      </trkpt>
      <trkpt lat="42.97651" lon="-0.04254">
        <ele>882.6</ele>
        <time>2022-06-11T08:55:56Z</time>
      </trkpt>
      <trkpt lat="42.97659" lon="-0.0425">
        <ele>881</ele>
        <time>2022-06-11T08:55:59Z</time>
      </trkpt>
      <trkpt lat="42.97677" lon="-0.04251">
        <ele>879.4</ele>
        <time>2022-06-11T08:56:03Z</time>
      </trkpt>
      <trkpt lat="42.97694" lon="-0.04255">
        <ele>878.2</ele>
        <time>2022-06-11T08:56:06Z</time>
      </trkpt>
      <trkpt lat="42.97701" lon="-0.04255">
        <ele>877.4</ele>
        <time>2022-06-11T08:56:08Z</time>
      </trkpt>
      <trkpt lat="42.97705" lon="-0.04254">
        <ele>876.2</ele>
        <time>2022-06-11T08:56:09Z</time>
      </trkpt>
      <trkpt lat="42.97713" lon="-0.04253">
        <ele>874.2</ele>
        <time>2022-06-11T08:56:11Z</time>
      </trkpt>
      <trkpt lat="42.97716" lon="-0.04253">
        <ele>873.4</ele>
        <time>2022-06-11T08:56:12Z</time>
      </trkpt>
      <trkpt lat="42.9772" lon="-0.04255">
        <ele>872.6</ele>
        <time>2022-06-11T08:56:13Z</time>
      </trkpt>
      <trkpt lat="42.97724" lon="-0.04258">
        <ele>871.2</ele>
        <time>2022-06-11T08:56:14Z</time>
      </trkpt>
      <trkpt lat="42.9773" lon="-0.0426">
        <ele>869.6</ele>
        <time>2022-06-11T08:56:16Z</time>
      </trkpt>
      <trkpt lat="42.97734" lon="-0.0426">
        <ele>869.2</ele>
        <time>2022-06-11T08:56:17Z</time>
      </trkpt>
      <trkpt lat="42.97738" lon="-0.04261">
        <ele>868.4</ele>
        <time>2022-06-11T08:56:18Z</time>
      </trkpt>
      <trkpt lat="42.97754" lon="-0.04266">
        <ele>867.2</ele>
        <time>2022-06-11T08:56:21Z</time>
      </trkpt>
      <trkpt lat="42.97761" lon="-0.04268">
        <ele>866.8</ele>
        <time>2022-06-11T08:56:22Z</time>
      </trkpt>
      <trkpt lat="42.97792" lon="-0.04278">
        <ele>866</ele>
        <time>2022-06-11T08:56:26Z</time>
      </trkpt>
      <trkpt lat="42.97799" lon="-0.04282">
        <ele>865.8</ele>
        <time>2022-06-11T08:56:27Z</time>
      </trkpt>
      <trkpt lat="42.97812" lon="-0.04293">
        <ele>865.2</ele>
        <time>2022-06-11T08:56:29Z</time>
      </trkpt>
      <trkpt lat="42.97823" lon="-0.04306">
        <ele>864.4</ele>
        <time>2022-06-11T08:56:31Z</time>
      </trkpt>
      <trkpt lat="42.97837" lon="-0.04328">
        <ele>863.4</ele>
        <time>2022-06-11T08:56:35Z</time>
      </trkpt>
      <trkpt lat="42.97846" lon="-0.04339">
        <ele>863.4</ele>
        <time>2022-06-11T08:56:39Z</time>
      </trkpt>
      <trkpt lat="42.97861" lon="-0.04342">
        <ele>864.6</ele>
        <time>2022-06-11T08:56:45Z</time>
      </trkpt>
      <trkpt lat="42.97868" lon="-0.04341">
        <ele>865.6</ele>
        <time>2022-06-11T08:56:48Z</time>
      </trkpt>
      <trkpt lat="42.97875" lon="-0.04338">
        <ele>866.2</ele>
        <time>2022-06-11T08:56:51Z</time>
      </trkpt>
      <trkpt lat="42.97882" lon="-0.04335">
        <ele>867</ele>
        <time>2022-06-11T08:56:54Z</time>
      </trkpt>
      <trkpt lat="42.97894" lon="-0.04333">
        <ele>868.2</ele>
        <time>2022-06-11T08:56:59Z</time>
      </trkpt>
      <trkpt lat="42.97896" lon="-0.04332">
        <ele>868.4</ele>
        <time>2022-06-11T08:57:00Z</time>
      </trkpt>
      <trkpt lat="42.97905" lon="-0.0433">
        <ele>869.2</ele>
        <time>2022-06-11T08:57:04Z</time>
      </trkpt>
      <trkpt lat="42.97915" lon="-0.04326">
        <ele>870.6</ele>
        <time>2022-06-11T08:57:09Z</time>
      </trkpt>
      <trkpt lat="42.97917" lon="-0.04325">
        <ele>870.6</ele>
        <time>2022-06-11T08:57:10Z</time>
      </trkpt>
      <trkpt lat="42.97925" lon="-0.0432">
        <ele>871.6</ele>
        <time>2022-06-11T08:57:14Z</time>
      </trkpt>
      <trkpt lat="42.97933" lon="-0.04313">
        <ele>872.4</ele>
        <time>2022-06-11T08:57:18Z</time>
      </trkpt>
      <trkpt lat="42.97935" lon="-0.04308">
        <ele>872.8</ele>
        <time>2022-06-11T08:57:20Z</time>
      </trkpt>
      <trkpt lat="42.97939" lon="-0.04299">
        <ele>873.6</ele>
        <time>2022-06-11T08:57:24Z</time>
      </trkpt>
      <trkpt lat="42.9794" lon="-0.04297">
        <ele>873.8</ele>
        <time>2022-06-11T08:57:25Z</time>
      </trkpt>
      <trkpt lat="42.97945" lon="-0.04287">
        <ele>875.4</ele>
        <time>2022-06-11T08:57:29Z</time>
      </trkpt>
      <trkpt lat="42.97947" lon="-0.04285">
        <ele>875.6</ele>
        <time>2022-06-11T08:57:30Z</time>
      </trkpt>
      <trkpt lat="42.97952" lon="-0.0428">
        <ele>876.6</ele>
        <time>2022-06-11T08:57:33Z</time>
      </trkpt>
      <trkpt lat="42.97961" lon="-0.04279">
        <ele>877.6</ele>
        <time>2022-06-11T08:57:37Z</time>
      </trkpt>
      <trkpt lat="42.97971" lon="-0.04284">
        <ele>878.6</ele>
        <time>2022-06-11T08:57:42Z</time>
      </trkpt>
      <trkpt lat="42.97973" lon="-0.04286">
        <ele>879</ele>
        <time>2022-06-11T08:57:43Z</time>
      </trkpt>
      <trkpt lat="42.97977" lon="-0.04297">
        <ele>879.8</ele>
        <time>2022-06-11T08:57:47Z</time>
      </trkpt>
      <trkpt lat="42.97979" lon="-0.0431">
        <ele>880.6</ele>
        <time>2022-06-11T08:57:51Z</time>
      </trkpt>
      <trkpt lat="42.9798" lon="-0.04313">
        <ele>881</ele>
        <time>2022-06-11T08:57:52Z</time>
      </trkpt>
      <trkpt lat="42.97983" lon="-0.04331">
        <ele>882</ele>
        <time>2022-06-11T08:57:58Z</time>
      </trkpt>
      <trkpt lat="42.97987" lon="-0.0435">
        <ele>883</ele>
        <time>2022-06-11T08:58:04Z</time>
      </trkpt>
      <trkpt lat="42.97988" lon="-0.04353">
        <ele>883.2</ele>
        <time>2022-06-11T08:58:05Z</time>
      </trkpt>
      <trkpt lat="42.97996" lon="-0.04367">
        <ele>884</ele>
        <time>2022-06-11T08:58:11Z</time>
      </trkpt>
      <trkpt lat="42.97999" lon="-0.04371">
        <ele>884.4</ele>
        <time>2022-06-11T08:58:13Z</time>
      </trkpt>
      <trkpt lat="42.98005" lon="-0.04379">
        <ele>885.2</ele>
        <time>2022-06-11T08:58:17Z</time>
      </trkpt>
      <trkpt lat="42.98011" lon="-0.04385">
        <ele>885.8</ele>
        <time>2022-06-11T08:58:20Z</time>
      </trkpt>
      <trkpt lat="42.98017" lon="-0.04392">
        <ele>886.4</ele>
        <time>2022-06-11T08:58:24Z</time>
      </trkpt>
      <trkpt lat="42.98024" lon="-0.04396">
        <ele>887.2</ele>
        <time>2022-06-11T08:58:28Z</time>
      </trkpt>
      <trkpt lat="42.98028" lon="-0.04399">
        <ele>887.6</ele>
        <time>2022-06-11T08:58:30Z</time>
      </trkpt>
      <trkpt lat="42.98031" lon="-0.04402">
        <ele>888.4</ele>
        <time>2022-06-11T08:58:32Z</time>
      </trkpt>
      <trkpt lat="42.98034" lon="-0.04405">
        <ele>889</ele>
        <time>2022-06-11T08:58:34Z</time>
      </trkpt>
      <trkpt lat="42.98043" lon="-0.04412">
        <ele>890.4</ele>
        <time>2022-06-11T08:58:39Z</time>
      </trkpt>
      <trkpt lat="42.98047" lon="-0.04415">
        <ele>890.8</ele>
        <time>2022-06-11T08:58:41Z</time>
      </trkpt>
      <trkpt lat="42.98051" lon="-0.04416">
        <ele>891.4</ele>
        <time>2022-06-11T08:58:43Z</time>
      </trkpt>
      <trkpt lat="42.98064" lon="-0.04415">
        <ele>892.6</ele>
        <time>2022-06-11T08:58:49Z</time>
      </trkpt>
      <trkpt lat="42.98074" lon="-0.04413">
        <ele>893.8</ele>
        <time>2022-06-11T08:58:54Z</time>
      </trkpt>
      <trkpt lat="42.98075" lon="-0.04411">
        <ele>894</ele>
        <time>2022-06-11T08:58:55Z</time>
      </trkpt>
      <trkpt lat="42.98083" lon="-0.04409">
        <ele>894.8</ele>
        <time>2022-06-11T08:58:59Z</time>
      </trkpt>
      <trkpt lat="42.98089" lon="-0.04406">
        <ele>896</ele>
        <time>2022-06-11T08:59:02Z</time>
      </trkpt>
      <trkpt lat="42.98099" lon="-0.04403">
        <ele>897.2</ele>
        <time>2022-06-11T08:59:07Z</time>
      </trkpt>
      <trkpt lat="42.98103" lon="-0.04403">
        <ele>897.8</ele>
        <time>2022-06-11T08:59:09Z</time>
      </trkpt>
      <trkpt lat="42.98107" lon="-0.04402">
        <ele>898.2</ele>
        <time>2022-06-11T08:59:11Z</time>
      </trkpt>
      <trkpt lat="42.98115" lon="-0.04405">
        <ele>899.4</ele>
        <time>2022-06-11T08:59:16Z</time>
      </trkpt>
      <trkpt lat="42.9812" lon="-0.04407">
        <ele>900.4</ele>
        <time>2022-06-11T08:59:19Z</time>
      </trkpt>
      <trkpt lat="42.98124" lon="-0.04408">
        <ele>901</ele>
        <time>2022-06-11T08:59:21Z</time>
      </trkpt>
      <trkpt lat="42.98126" lon="-0.04408">
        <ele>901.6</ele>
        <time>2022-06-11T08:59:22Z</time>
      </trkpt>
      <trkpt lat="42.98133" lon="-0.04412">
        <ele>902.6</ele>
        <time>2022-06-11T08:59:26Z</time>
      </trkpt>
      <trkpt lat="42.9814" lon="-0.04417">
        <ele>903.8</ele>
        <time>2022-06-11T08:59:30Z</time>
      </trkpt>
      <trkpt lat="42.98141" lon="-0.04418">
        <ele>904</ele>
        <time>2022-06-11T08:59:31Z</time>
      </trkpt>
      <trkpt lat="42.98143" lon="-0.0442">
        <ele>904.4</ele>
        <time>2022-06-11T08:59:32Z</time>
      </trkpt>
      <trkpt lat="42.98146" lon="-0.04423">
        <ele>904.8</ele>
        <time>2022-06-11T08:59:34Z</time>
      </trkpt>
      <trkpt lat="42.9815" lon="-0.04427">
        <ele>905.4</ele>
        <time>2022-06-11T08:59:36Z</time>
      </trkpt>
      <trkpt lat="42.98152" lon="-0.04428">
        <ele>906</ele>
        <time>2022-06-11T08:59:37Z</time>
      </trkpt>
      <trkpt lat="42.98159" lon="-0.0443">
        <ele>906.8</ele>
        <time>2022-06-11T08:59:41Z</time>
      </trkpt>
      <trkpt lat="42.98162" lon="-0.04434">
        <ele>907.4</ele>
        <time>2022-06-11T08:59:43Z</time>
      </trkpt>
      <trkpt lat="42.98166" lon="-0.0444">
        <ele>908.4</ele>
        <time>2022-06-11T08:59:47Z</time>
      </trkpt>
      <trkpt lat="42.98169" lon="-0.04447">
        <ele>909.2</ele>
        <time>2022-06-11T08:59:50Z</time>
      </trkpt>
      <trkpt lat="42.9817" lon="-0.0445">
        <ele>909.6</ele>
        <time>2022-06-11T08:59:51Z</time>
      </trkpt>
      <trkpt lat="42.98171" lon="-0.04453">
        <ele>909.6</ele>
        <time>2022-06-11T08:59:52Z</time>
      </trkpt>
      <trkpt lat="42.98174" lon="-0.04464">
        <ele>910.4</ele>
        <time>2022-06-11T08:59:56Z</time>
      </trkpt>
      <trkpt lat="42.98175" lon="-0.04468">
        <ele>910.6</ele>
        <time>2022-06-11T08:59:57Z</time>
      </trkpt>
      <trkpt lat="42.98182" lon="-0.0448">
        <ele>911.4</ele>
        <time>2022-06-11T09:00:02Z</time>
      </trkpt>
      <trkpt lat="42.98186" lon="-0.04484">
        <ele>911.6</ele>
        <time>2022-06-11T09:00:04Z</time>
      </trkpt>
      <trkpt lat="42.98198" lon="-0.04489">
        <ele>912.2</ele>
        <time>2022-06-11T09:00:10Z</time>
      </trkpt>
      <trkpt lat="42.98208" lon="-0.04489">
        <ele>912.8</ele>
        <time>2022-06-11T09:00:15Z</time>
      </trkpt>
      <trkpt lat="42.98219" lon="-0.04488">
        <ele>913.8</ele>
        <time>2022-06-11T09:00:20Z</time>
      </trkpt>
      <trkpt lat="42.98221" lon="-0.04488">
        <ele>914</ele>
        <time>2022-06-11T09:00:21Z</time>
      </trkpt>
      <trkpt lat="42.98233" lon="-0.04485">
        <ele>915</ele>
        <time>2022-06-11T09:00:27Z</time>
      </trkpt>
      <trkpt lat="42.9824" lon="-0.04484">
        <ele>915.6</ele>
        <time>2022-06-11T09:00:30Z</time>
      </trkpt>
      <trkpt lat="42.98245" lon="-0.04482">
        <ele>916.2</ele>
        <time>2022-06-11T09:00:32Z</time>
      </trkpt>
      <trkpt lat="42.98256" lon="-0.04478">
        <ele>917.2</ele>
        <time>2022-06-11T09:00:37Z</time>
      </trkpt>
      <trkpt lat="42.98261" lon="-0.04477">
        <ele>917.6</ele>
        <time>2022-06-11T09:00:39Z</time>
      </trkpt>
      <trkpt lat="42.98267" lon="-0.04475">
        <ele>918.2</ele>
        <time>2022-06-11T09:00:42Z</time>
      </trkpt>
      <trkpt lat="42.98279" lon="-0.04472">
        <ele>919.4</ele>
        <time>2022-06-11T09:00:47Z</time>
      </trkpt>
      <trkpt lat="42.98287" lon="-0.04469">
        <ele>920.2</ele>
        <time>2022-06-11T09:00:51Z</time>
      </trkpt>
      <trkpt lat="42.98289" lon="-0.04468">
        <ele>920.8</ele>
        <time>2022-06-11T09:00:52Z</time>
      </trkpt>
      <trkpt lat="42.983" lon="-0.04463">
        <ele>922</ele>
        <time>2022-06-11T09:00:58Z</time>
      </trkpt>
      <trkpt lat="42.98302" lon="-0.04462">
        <ele>922.2</ele>
        <time>2022-06-11T09:00:59Z</time>
      </trkpt>
      <trkpt lat="42.98309" lon="-0.04458">
        <ele>923</ele>
        <time>2022-06-11T09:01:03Z</time>
      </trkpt>
      <trkpt lat="42.98313" lon="-0.04456">
        <ele>923.6</ele>
        <time>2022-06-11T09:01:05Z</time>
      </trkpt>
      <trkpt lat="42.98315" lon="-0.04456">
        <ele>924</ele>
        <time>2022-06-11T09:01:06Z</time>
      </trkpt>
      <trkpt lat="42.98317" lon="-0.04456">
        <ele>924.4</ele>
        <time>2022-06-11T09:01:07Z</time>
      </trkpt>
      <trkpt lat="42.98325" lon="-0.04456">
        <ele>925.4</ele>
        <time>2022-06-11T09:01:11Z</time>
      </trkpt>
      <trkpt lat="42.9833" lon="-0.04457">
        <ele>926</ele>
        <time>2022-06-11T09:01:14Z</time>
      </trkpt>
      <trkpt lat="42.98336" lon="-0.04458">
        <ele>926.6</ele>
        <time>2022-06-11T09:01:17Z</time>
      </trkpt>
      <trkpt lat="42.98345" lon="-0.04461">
        <ele>927.4</ele>
        <time>2022-06-11T09:01:21Z</time>
      </trkpt>
      <trkpt lat="42.98347" lon="-0.04462">
        <ele>927.6</ele>
        <time>2022-06-11T09:01:22Z</time>
      </trkpt>
      <trkpt lat="42.98359" lon="-0.04467">
        <ele>928.8</ele>
        <time>2022-06-11T09:01:28Z</time>
      </trkpt>
      <trkpt lat="42.98365" lon="-0.04469">
        <ele>929.4</ele>
        <time>2022-06-11T09:01:31Z</time>
      </trkpt>
      <trkpt lat="42.98372" lon="-0.04471">
        <ele>930.4</ele>
        <time>2022-06-11T09:01:34Z</time>
      </trkpt>
      <trkpt lat="42.98383" lon="-0.04472">
        <ele>931.6</ele>
        <time>2022-06-11T09:01:39Z</time>
      </trkpt>
      <trkpt lat="42.98385" lon="-0.04472">
        <ele>931.8</ele>
        <time>2022-06-11T09:01:40Z</time>
      </trkpt>
      <trkpt lat="42.98391" lon="-0.04473">
        <ele>932.6</ele>
        <time>2022-06-11T09:01:43Z</time>
      </trkpt>
      <trkpt lat="42.98401" lon="-0.04468">
        <ele>933.8</ele>
        <time>2022-06-11T09:01:48Z</time>
      </trkpt>
      <trkpt lat="42.98405" lon="-0.04463">
        <ele>935</ele>
        <time>2022-06-11T09:01:51Z</time>
      </trkpt>
      <trkpt lat="42.98406" lon="-0.04458">
        <ele>935.4</ele>
        <time>2022-06-11T09:01:53Z</time>
      </trkpt>
      <trkpt lat="42.98406" lon="-0.0445">
        <ele>936.4</ele>
        <time>2022-06-11T09:01:56Z</time>
      </trkpt>
      <trkpt lat="42.98408" lon="-0.04439">
        <ele>937.2</ele>
        <time>2022-06-11T09:02:00Z</time>
      </trkpt>
      <trkpt lat="42.98409" lon="-0.04433">
        <ele>937.6</ele>
        <time>2022-06-11T09:02:02Z</time>
      </trkpt>
      <trkpt lat="42.98409" lon="-0.04423">
        <ele>938.8</ele>
        <time>2022-06-11T09:02:06Z</time>
      </trkpt>
      <trkpt lat="42.9841" lon="-0.04416">
        <ele>939.8</ele>
        <time>2022-06-11T09:02:09Z</time>
      </trkpt>
      <trkpt lat="42.98411" lon="-0.04407">
        <ele>941</ele>
        <time>2022-06-11T09:02:13Z</time>
      </trkpt>
      <trkpt lat="42.98411" lon="-0.04398">
        <ele>941.8</ele>
        <time>2022-06-11T09:02:17Z</time>
      </trkpt>
      <trkpt lat="42.9841" lon="-0.04396">
        <ele>941.8</ele>
        <time>2022-06-11T09:02:18Z</time>
      </trkpt>
      <trkpt lat="42.98409" lon="-0.04394">
        <ele>942.4</ele>
        <time>2022-06-11T09:02:19Z</time>
      </trkpt>
      <trkpt lat="42.98405" lon="-0.0439">
        <ele>943.6</ele>
        <time>2022-06-11T09:02:22Z</time>
      </trkpt>
      <trkpt lat="42.98389" lon="-0.04377">
        <ele>944.2</ele>
        <time>2022-06-11T09:02:30Z</time>
      </trkpt>
      <trkpt lat="42.98369" lon="-0.04362">
        <ele>944.2</ele>
        <time>2022-06-11T09:02:38Z</time>
      </trkpt>
      <trkpt lat="42.98364" lon="-0.0436">
        <ele>944.2</ele>
        <time>2022-06-11T09:02:40Z</time>
      </trkpt>
      <trkpt lat="42.98346" lon="-0.04354">
        <ele>944.2</ele>
        <time>2022-06-11T09:02:47Z</time>
      </trkpt>
      <trkpt lat="42.98337" lon="-0.04353">
        <ele>944.2</ele>
        <time>2022-06-11T09:02:51Z</time>
      </trkpt>
      <trkpt lat="42.98335" lon="-0.04354">
        <ele>944.4</ele>
        <time>2022-06-11T09:02:52Z</time>
      </trkpt>
      <trkpt lat="42.98322" lon="-0.04354">
        <ele>944.8</ele>
        <time>2022-06-11T09:02:56Z</time>
      </trkpt>
      <trkpt lat="42.98318" lon="-0.04354">
        <ele>944.8</ele>
        <time>2022-06-11T09:02:57Z</time>
      </trkpt>
      <trkpt lat="42.98295" lon="-0.04353">
        <ele>945</ele>
        <time>2022-06-11T09:03:03Z</time>
      </trkpt>
      <trkpt lat="42.98262" lon="-0.04353">
        <ele>944.6</ele>
        <time>2022-06-11T09:03:11Z</time>
      </trkpt>
      <trkpt lat="42.98243" lon="-0.04354">
        <ele>944.2</ele>
        <time>2022-06-11T09:03:17Z</time>
      </trkpt>
      <trkpt lat="42.98231" lon="-0.04355">
        <ele>944.2</ele>
        <time>2022-06-11T09:03:21Z</time>
      </trkpt>
      <trkpt lat="42.98212" lon="-0.04355">
        <ele>944.8</ele>
        <time>2022-06-11T09:03:28Z</time>
      </trkpt>
      <trkpt lat="42.98201" lon="-0.04349">
        <ele>945.2</ele>
        <time>2022-06-11T09:03:33Z</time>
      </trkpt>
      <trkpt lat="42.98193" lon="-0.04345">
        <ele>945.8</ele>
        <time>2022-06-11T09:03:37Z</time>
      </trkpt>
      <trkpt lat="42.98188" lon="-0.04344">
        <ele>946</ele>
        <time>2022-06-11T09:03:39Z</time>
      </trkpt>
      <trkpt lat="42.98179" lon="-0.04341">
        <ele>946.8</ele>
        <time>2022-06-11T09:03:44Z</time>
      </trkpt>
      <trkpt lat="42.98177" lon="-0.04341">
        <ele>947.2</ele>
        <time>2022-06-11T09:03:45Z</time>
      </trkpt>
      <trkpt lat="42.98171" lon="-0.0434">
        <ele>948</ele>
        <time>2022-06-11T09:03:48Z</time>
      </trkpt>
      <trkpt lat="42.98166" lon="-0.04338">
        <ele>948.6</ele>
        <time>2022-06-11T09:03:51Z</time>
      </trkpt>
      <trkpt lat="42.98161" lon="-0.04335">
        <ele>949.2</ele>
        <time>2022-06-11T09:03:54Z</time>
      </trkpt>
      <trkpt lat="42.98159" lon="-0.04334">
        <ele>949.4</ele>
        <time>2022-06-11T09:03:55Z</time>
      </trkpt>
      <trkpt lat="42.98153" lon="-0.04332">
        <ele>950</ele>
        <time>2022-06-11T09:03:58Z</time>
      </trkpt>
      <trkpt lat="42.9815" lon="-0.04329">
        <ele>950.4</ele>
        <time>2022-06-11T09:04:00Z</time>
      </trkpt>
      <trkpt lat="42.98146" lon="-0.04323">
        <ele>951</ele>
        <time>2022-06-11T09:04:03Z</time>
      </trkpt>
      <trkpt lat="42.98143" lon="-0.04317">
        <ele>951.4</ele>
        <time>2022-06-11T09:04:05Z</time>
      </trkpt>
      <trkpt lat="42.98139" lon="-0.04313">
        <ele>951.8</ele>
        <time>2022-06-11T09:04:07Z</time>
      </trkpt>
      <trkpt lat="42.98134" lon="-0.04309">
        <ele>952</ele>
        <time>2022-06-11T09:04:09Z</time>
      </trkpt>
      <trkpt lat="42.98128" lon="-0.04302">
        <ele>952.8</ele>
        <time>2022-06-11T09:04:13Z</time>
      </trkpt>
      <trkpt lat="42.98123" lon="-0.04297">
        <ele>953.2</ele>
        <time>2022-06-11T09:04:16Z</time>
      </trkpt>
      <trkpt lat="42.98114" lon="-0.04284">
        <ele>953.8</ele>
        <time>2022-06-11T09:04:22Z</time>
      </trkpt>
      <trkpt lat="42.98113" lon="-0.04282">
        <ele>953.8</ele>
        <time>2022-06-11T09:04:23Z</time>
      </trkpt>
      <trkpt lat="42.98111" lon="-0.04275">
        <ele>954</ele>
        <time>2022-06-11T09:04:26Z</time>
      </trkpt>
      <trkpt lat="42.9811" lon="-0.04265">
        <ele>954.2</ele>
        <time>2022-06-11T09:04:29Z</time>
      </trkpt>
      <trkpt lat="42.98106" lon="-0.04244">
        <ele>954.6</ele>
        <time>2022-06-11T09:04:35Z</time>
      </trkpt>
      <trkpt lat="42.98102" lon="-0.04225">
        <ele>954.6</ele>
        <time>2022-06-11T09:04:41Z</time>
      </trkpt>
      <trkpt lat="42.98098" lon="-0.04214">
        <ele>954.8</ele>
        <time>2022-06-11T09:04:45Z</time>
      </trkpt>
      <trkpt lat="42.98096" lon="-0.04208">
        <ele>955</ele>
        <time>2022-06-11T09:04:47Z</time>
      </trkpt>
      <trkpt lat="42.98089" lon="-0.04187">
        <ele>955.4</ele>
        <time>2022-06-11T09:04:54Z</time>
      </trkpt>
      <trkpt lat="42.98084" lon="-0.04174">
        <ele>956</ele>
        <time>2022-06-11T09:04:58Z</time>
      </trkpt>
      <trkpt lat="42.98082" lon="-0.04168">
        <ele>956.4</ele>
        <time>2022-06-11T09:05:00Z</time>
      </trkpt>
      <trkpt lat="42.98082" lon="-0.04166">
        <ele>956.4</ele>
        <time>2022-06-11T09:05:01Z</time>
      </trkpt>
      <trkpt lat="42.9808" lon="-0.0416">
        <ele>957</ele>
        <time>2022-06-11T09:05:03Z</time>
      </trkpt>
      <trkpt lat="42.98074" lon="-0.04146">
        <ele>958</ele>
        <time>2022-06-11T09:05:08Z</time>
      </trkpt>
      <trkpt lat="42.98074" lon="-0.04144">
        <ele>958.2</ele>
        <time>2022-06-11T09:05:09Z</time>
      </trkpt>
      <trkpt lat="42.98065" lon="-0.04129">
        <ele>959.2</ele>
        <time>2022-06-11T09:05:14Z</time>
      </trkpt>
      <trkpt lat="42.98063" lon="-0.04127">
        <ele>959.4</ele>
        <time>2022-06-11T09:05:15Z</time>
      </trkpt>
      <trkpt lat="42.98047" lon="-0.0412">
        <ele>960.4</ele>
        <time>2022-06-11T09:05:22Z</time>
      </trkpt>
      <trkpt lat="42.98035" lon="-0.04118">
        <ele>961.4</ele>
        <time>2022-06-11T09:05:28Z</time>
      </trkpt>
      <trkpt lat="42.9802" lon="-0.04103">
        <ele>962</ele>
        <time>2022-06-11T09:05:35Z</time>
      </trkpt>
      <trkpt lat="42.98008" lon="-0.04084">
        <ele>962</ele>
        <time>2022-06-11T09:05:41Z</time>
      </trkpt>
      <trkpt lat="42.97996" lon="-0.04061">
        <ele>962</ele>
        <time>2022-06-11T09:05:47Z</time>
      </trkpt>
      <trkpt lat="42.97976" lon="-0.04029">
        <ele>961.8</ele>
        <time>2022-06-11T09:05:55Z</time>
      </trkpt>
      <trkpt lat="42.97958" lon="-0.03994">
        <ele>962.2</ele>
        <time>2022-06-11T09:06:03Z</time>
      </trkpt>
      <trkpt lat="42.97945" lon="-0.0397">
        <ele>961.6</ele>
        <time>2022-06-11T09:06:08Z</time>
      </trkpt>
      <trkpt lat="42.9793" lon="-0.03953">
        <ele>961.2</ele>
        <time>2022-06-11T09:06:14Z</time>
      </trkpt>
      <trkpt lat="42.97914" lon="-0.03937">
        <ele>962</ele>
        <time>2022-06-11T09:06:21Z</time>
      </trkpt>
      <trkpt lat="42.97908" lon="-0.03929">
        <ele>962.6</ele>
        <time>2022-06-11T09:06:24Z</time>
      </trkpt>
      <trkpt lat="42.97903" lon="-0.03922">
        <ele>963.6</ele>
        <time>2022-06-11T09:06:27Z</time>
      </trkpt>
      <trkpt lat="42.97899" lon="-0.03916">
        <ele>964</ele>
        <time>2022-06-11T09:06:29Z</time>
      </trkpt>
      <trkpt lat="42.97896" lon="-0.03911">
        <ele>964.6</ele>
        <time>2022-06-11T09:06:31Z</time>
      </trkpt>
      <trkpt lat="42.97889" lon="-0.03899">
        <ele>965.6</ele>
        <time>2022-06-11T09:06:35Z</time>
      </trkpt>
      <trkpt lat="42.97877" lon="-0.03883">
        <ele>966.8</ele>
        <time>2022-06-11T09:06:41Z</time>
      </trkpt>
      <trkpt lat="42.97874" lon="-0.03878">
        <ele>967.2</ele>
        <time>2022-06-11T09:06:43Z</time>
      </trkpt>
      <trkpt lat="42.97863" lon="-0.0387">
        <ele>968.2</ele>
        <time>2022-06-11T09:06:48Z</time>
      </trkpt>
      <trkpt lat="42.97861" lon="-0.03869">
        <ele>968.4</ele>
        <time>2022-06-11T09:06:49Z</time>
      </trkpt>
      <trkpt lat="42.97851" lon="-0.03867">
        <ele>969.4</ele>
        <time>2022-06-11T09:06:53Z</time>
      </trkpt>
      <trkpt lat="42.97847" lon="-0.03864">
        <ele>969.8</ele>
        <time>2022-06-11T09:06:55Z</time>
      </trkpt>
      <trkpt lat="42.97842" lon="-0.03861">
        <ele>970.6</ele>
        <time>2022-06-11T09:06:58Z</time>
      </trkpt>
      <trkpt lat="42.97836" lon="-0.03857">
        <ele>971.8</ele>
        <time>2022-06-11T09:07:01Z</time>
      </trkpt>
      <trkpt lat="42.97828" lon="-0.03851">
        <ele>972.8</ele>
        <time>2022-06-11T09:07:05Z</time>
      </trkpt>
      <trkpt lat="42.97819" lon="-0.03848">
        <ele>973.4</ele>
        <time>2022-06-11T09:07:08Z</time>
      </trkpt>
      <trkpt lat="42.97811" lon="-0.03847">
        <ele>974</ele>
        <time>2022-06-11T09:07:11Z</time>
      </trkpt>
      <trkpt lat="42.97803" lon="-0.03845">
        <ele>974.8</ele>
        <time>2022-06-11T09:07:14Z</time>
      </trkpt>
      <trkpt lat="42.978" lon="-0.03845">
        <ele>975.2</ele>
        <time>2022-06-11T09:07:15Z</time>
      </trkpt>
      <trkpt lat="42.9779" lon="-0.03845">
        <ele>976.2</ele>
        <time>2022-06-11T09:07:19Z</time>
      </trkpt>
      <trkpt lat="42.97785" lon="-0.03846">
        <ele>976.8</ele>
        <time>2022-06-11T09:07:22Z</time>
      </trkpt>
      <trkpt lat="42.97782" lon="-0.03846">
        <ele>977.2</ele>
        <time>2022-06-11T09:07:24Z</time>
      </trkpt>
      <trkpt lat="42.97775" lon="-0.03847">
        <ele>978.6</ele>
        <time>2022-06-11T09:07:28Z</time>
      </trkpt>
      <trkpt lat="42.97768" lon="-0.03847">
        <ele>979.6</ele>
        <time>2022-06-11T09:07:32Z</time>
      </trkpt>
      <trkpt lat="42.97758" lon="-0.03847">
        <ele>980.6</ele>
        <time>2022-06-11T09:07:37Z</time>
      </trkpt>
      <trkpt lat="42.97747" lon="-0.03843">
        <ele>982</ele>
        <time>2022-06-11T09:07:43Z</time>
      </trkpt>
      <trkpt lat="42.97743" lon="-0.03841">
        <ele>982.2</ele>
        <time>2022-06-11T09:07:45Z</time>
      </trkpt>
      <trkpt lat="42.97737" lon="-0.03836">
        <ele>983</ele>
        <time>2022-06-11T09:07:49Z</time>
      </trkpt>
      <trkpt lat="42.97731" lon="-0.03829">
        <ele>983.8</ele>
        <time>2022-06-11T09:07:54Z</time>
      </trkpt>
      <trkpt lat="42.97729" lon="-0.03825">
        <ele>984</ele>
        <time>2022-06-11T09:07:56Z</time>
      </trkpt>
      <trkpt lat="42.97724" lon="-0.03817">
        <ele>985.2</ele>
        <time>2022-06-11T09:08:01Z</time>
      </trkpt>
      <trkpt lat="42.97722" lon="-0.03816">
        <ele>985.2</ele>
        <time>2022-06-11T09:08:02Z</time>
      </trkpt>
      <trkpt lat="42.9772" lon="-0.03805">
        <ele>986.2</ele>
        <time>2022-06-11T09:08:07Z</time>
      </trkpt>
      <trkpt lat="42.97721" lon="-0.03803">
        <ele>986.2</ele>
        <time>2022-06-11T09:08:08Z</time>
      </trkpt>
      <trkpt lat="42.97723" lon="-0.03799">
        <ele>986.6</ele>
        <time>2022-06-11T09:08:10Z</time>
      </trkpt>
      <trkpt lat="42.97726" lon="-0.03798">
        <ele>987.4</ele>
        <time>2022-06-11T09:08:12Z</time>
      </trkpt>
      <trkpt lat="42.97728" lon="-0.03798">
        <ele>987.4</ele>
        <time>2022-06-11T09:08:13Z</time>
      </trkpt>
      <trkpt lat="42.97738" lon="-0.038">
        <ele>988.4</ele>
        <time>2022-06-11T09:08:19Z</time>
      </trkpt>
      <trkpt lat="42.97746" lon="-0.038">
        <ele>989.4</ele>
        <time>2022-06-11T09:08:23Z</time>
      </trkpt>
      <trkpt lat="42.97748" lon="-0.038">
        <ele>989.8</ele>
        <time>2022-06-11T09:08:24Z</time>
      </trkpt>
      <trkpt lat="42.97758" lon="-0.038">
        <ele>990.8</ele>
        <time>2022-06-11T09:08:29Z</time>
      </trkpt>
      <trkpt lat="42.97766" lon="-0.03799">
        <ele>991.8</ele>
        <time>2022-06-11T09:08:33Z</time>
      </trkpt>
      <trkpt lat="42.9777" lon="-0.03799">
        <ele>992</ele>
        <time>2022-06-11T09:08:35Z</time>
      </trkpt>
      <trkpt lat="42.97778" lon="-0.03794">
        <ele>992.8</ele>
        <time>2022-06-11T09:08:40Z</time>
      </trkpt>
      <trkpt lat="42.97779" lon="-0.03792">
        <ele>993.2</ele>
        <time>2022-06-11T09:08:41Z</time>
      </trkpt>
      <trkpt lat="42.97784" lon="-0.03782">
        <ele>994.6</ele>
        <time>2022-06-11T09:08:46Z</time>
      </trkpt>
      <trkpt lat="42.97785" lon="-0.03778">
        <ele>994.8</ele>
        <time>2022-06-11T09:08:48Z</time>
      </trkpt>
      <trkpt lat="42.97785" lon="-0.03767">
        <ele>995.8</ele>
        <time>2022-06-11T09:08:52Z</time>
      </trkpt>
      <trkpt lat="42.97783" lon="-0.03757">
        <ele>996.8</ele>
        <time>2022-06-11T09:08:56Z</time>
      </trkpt>
      <trkpt lat="42.97782" lon="-0.03754">
        <ele>997</ele>
        <time>2022-06-11T09:08:57Z</time>
      </trkpt>
      <trkpt lat="42.97779" lon="-0.03744">
        <ele>998.2</ele>
        <time>2022-06-11T09:09:01Z</time>
      </trkpt>
      <trkpt lat="42.97775" lon="-0.03738">
        <ele>998.6</ele>
        <time>2022-06-11T09:09:04Z</time>
      </trkpt>
      <trkpt lat="42.9777" lon="-0.0373">
        <ele>999.2</ele>
        <time>2022-06-11T09:09:08Z</time>
      </trkpt>
      <trkpt lat="42.97765" lon="-0.03721">
        <ele>1000.2</ele>
        <time>2022-06-11T09:09:12Z</time>
      </trkpt>
      <trkpt lat="42.97764" lon="-0.03719">
        <ele>1000.2</ele>
        <time>2022-06-11T09:09:13Z</time>
      </trkpt>
      <trkpt lat="42.97758" lon="-0.03709">
        <ele>1001.2</ele>
        <time>2022-06-11T09:09:19Z</time>
      </trkpt>
      <trkpt lat="42.9775" lon="-0.03698">
        <ele>1002.2</ele>
        <time>2022-06-11T09:09:25Z</time>
      </trkpt>
      <trkpt lat="42.97748" lon="-0.03696">
        <ele>1002.4</ele>
        <time>2022-06-11T09:09:26Z</time>
      </trkpt>
      <trkpt lat="42.97737" lon="-0.03685">
        <ele>1003.4</ele>
        <time>2022-06-11T09:09:33Z</time>
      </trkpt>
      <trkpt lat="42.97733" lon="-0.03679">
        <ele>1003.8</ele>
        <time>2022-06-11T09:09:36Z</time>
      </trkpt>
      <trkpt lat="42.97728" lon="-0.03674">
        <ele>1004.4</ele>
        <time>2022-06-11T09:09:39Z</time>
      </trkpt>
      <trkpt lat="42.97721" lon="-0.03668">
        <ele>1005.2</ele>
        <time>2022-06-11T09:09:43Z</time>
      </trkpt>
      <trkpt lat="42.97719" lon="-0.03666">
        <ele>1005.4</ele>
        <time>2022-06-11T09:09:45Z</time>
      </trkpt>
      <trkpt lat="42.97712" lon="-0.03658">
        <ele>1006.6</ele>
        <time>2022-06-11T09:09:51Z</time>
      </trkpt>
      <trkpt lat="42.97709" lon="-0.03656">
        <ele>1007</ele>
        <time>2022-06-11T09:09:53Z</time>
      </trkpt>
      <trkpt lat="42.97706" lon="-0.03653">
        <ele>1007.6</ele>
        <time>2022-06-11T09:09:55Z</time>
      </trkpt>
      <trkpt lat="42.977" lon="-0.03648">
        <ele>1009</ele>
        <time>2022-06-11T09:09:59Z</time>
      </trkpt>
      <trkpt lat="42.97695" lon="-0.03644">
        <ele>1009.8</ele>
        <time>2022-06-11T09:10:02Z</time>
      </trkpt>
      <trkpt lat="42.97694" lon="-0.03643">
        <ele>1010</ele>
        <time>2022-06-11T09:10:03Z</time>
      </trkpt>
      <trkpt lat="42.97686" lon="-0.03636">
        <ele>1011.2</ele>
        <time>2022-06-11T09:10:09Z</time>
      </trkpt>
      <trkpt lat="42.97683" lon="-0.03634">
        <ele>1011.4</ele>
        <time>2022-06-11T09:10:11Z</time>
      </trkpt>
      <trkpt lat="42.97677" lon="-0.03627">
        <ele>1012.2</ele>
        <time>2022-06-11T09:10:16Z</time>
      </trkpt>
      <trkpt lat="42.97676" lon="-0.03625">
        <ele>1012.4</ele>
        <time>2022-06-11T09:10:17Z</time>
      </trkpt>
      <trkpt lat="42.97673" lon="-0.03618">
        <ele>1013</ele>
        <time>2022-06-11T09:10:20Z</time>
      </trkpt>
      <trkpt lat="42.9767" lon="-0.03611">
        <ele>1013.6</ele>
        <time>2022-06-11T09:10:23Z</time>
      </trkpt>
      <trkpt lat="42.97667" lon="-0.03599">
        <ele>1014.8</ele>
        <time>2022-06-11T09:10:28Z</time>
      </trkpt>
      <trkpt lat="42.97665" lon="-0.03582">
        <ele>1015.8</ele>
        <time>2022-06-11T09:10:35Z</time>
      </trkpt>
      <trkpt lat="42.97663" lon="-0.03573">
        <ele>1016.4</ele>
        <time>2022-06-11T09:10:38Z</time>
      </trkpt>
      <trkpt lat="42.97661" lon="-0.03563">
        <ele>1016.8</ele>
        <time>2022-06-11T09:10:42Z</time>
      </trkpt>
      <trkpt lat="42.97659" lon="-0.03554">
        <ele>1017.4</ele>
        <time>2022-06-11T09:10:46Z</time>
      </trkpt>
      <trkpt lat="42.97656" lon="-0.03545">
        <ele>1018</ele>
        <time>2022-06-11T09:10:50Z</time>
      </trkpt>
      <trkpt lat="42.97649" lon="-0.03527">
        <ele>1019</ele>
        <time>2022-06-11T09:10:57Z</time>
      </trkpt>
      <trkpt lat="42.97636" lon="-0.03519">
        <ele>1019.6</ele>
        <time>2022-06-11T09:11:03Z</time>
      </trkpt>
      <trkpt lat="42.97629" lon="-0.0352">
        <ele>1019.8</ele>
        <time>2022-06-11T09:11:07Z</time>
      </trkpt>
      <trkpt lat="42.97627" lon="-0.03521">
        <ele>1020.2</ele>
        <time>2022-06-11T09:11:08Z</time>
      </trkpt>
      <trkpt lat="42.97625" lon="-0.03521">
        <ele>1020.4</ele>
        <time>2022-06-11T09:11:09Z</time>
      </trkpt>
      <trkpt lat="42.97619" lon="-0.03521">
        <ele>1021.2</ele>
        <time>2022-06-11T09:11:12Z</time>
      </trkpt>
      <trkpt lat="42.97609" lon="-0.0352">
        <ele>1022</ele>
        <time>2022-06-11T09:11:17Z</time>
      </trkpt>
      <trkpt lat="42.97604" lon="-0.03516">
        <ele>1022.6</ele>
        <time>2022-06-11T09:11:20Z</time>
      </trkpt>
      <trkpt lat="42.97598" lon="-0.03509">
        <ele>1023.4</ele>
        <time>2022-06-11T09:11:24Z</time>
      </trkpt>
      <trkpt lat="42.97597" lon="-0.03507">
        <ele>1023.6</ele>
        <time>2022-06-11T09:11:25Z</time>
      </trkpt>
      <trkpt lat="42.97586" lon="-0.03493">
        <ele>1024.8</ele>
        <time>2022-06-11T09:11:33Z</time>
      </trkpt>
      <trkpt lat="42.97572" lon="-0.03482">
        <ele>1026</ele>
        <time>2022-06-11T09:11:40Z</time>
      </trkpt>
      <trkpt lat="42.9757" lon="-0.03481">
        <ele>1026.2</ele>
        <time>2022-06-11T09:11:41Z</time>
      </trkpt>
      <trkpt lat="42.97561" lon="-0.03478">
        <ele>1027.4</ele>
        <time>2022-06-11T09:11:46Z</time>
      </trkpt>
      <trkpt lat="42.97552" lon="-0.03475">
        <ele>1027.8</ele>
        <time>2022-06-11T09:11:50Z</time>
      </trkpt>
      <trkpt lat="42.9754" lon="-0.03474">
        <ele>1028.6</ele>
        <time>2022-06-11T09:11:55Z</time>
      </trkpt>
      <trkpt lat="42.97537" lon="-0.03473">
        <ele>1028.8</ele>
        <time>2022-06-11T09:11:56Z</time>
      </trkpt>
      <trkpt lat="42.97535" lon="-0.03473">
        <ele>1029</ele>
        <time>2022-06-11T09:11:57Z</time>
      </trkpt>
      <trkpt lat="42.9752" lon="-0.03476">
        <ele>1029.6</ele>
        <time>2022-06-11T09:12:03Z</time>
      </trkpt>
      <trkpt lat="42.97509" lon="-0.03479">
        <ele>1030.4</ele>
        <time>2022-06-11T09:12:07Z</time>
      </trkpt>
      <trkpt lat="42.97501" lon="-0.03483">
        <ele>1030.8</ele>
        <time>2022-06-11T09:12:10Z</time>
      </trkpt>
      <trkpt lat="42.97484" lon="-0.03495">
        <ele>1031</ele>
        <time>2022-06-11T09:12:16Z</time>
      </trkpt>
      <trkpt lat="42.97462" lon="-0.03518">
        <ele>1031.4</ele>
        <time>2022-06-11T09:12:25Z</time>
      </trkpt>
      <trkpt lat="42.97454" lon="-0.03535">
        <ele>1031.8</ele>
        <time>2022-06-11T09:12:30Z</time>
      </trkpt>
      <trkpt lat="42.97453" lon="-0.03539">
        <ele>1031.8</ele>
        <time>2022-06-11T09:12:31Z</time>
      </trkpt>
      <trkpt lat="42.97452" lon="-0.03542">
        <ele>1032</ele>
        <time>2022-06-11T09:12:32Z</time>
      </trkpt>
      <trkpt lat="42.97448" lon="-0.03551">
        <ele>1032.2</ele>
        <time>2022-06-11T09:12:35Z</time>
      </trkpt>
      <trkpt lat="42.97439" lon="-0.03565">
        <ele>1032.8</ele>
        <time>2022-06-11T09:12:40Z</time>
      </trkpt>
      <trkpt lat="42.97434" lon="-0.03571">
        <ele>1033</ele>
        <time>2022-06-11T09:12:42Z</time>
      </trkpt>
      <trkpt lat="42.9742" lon="-0.03591">
        <ele>1033.4</ele>
        <time>2022-06-11T09:12:48Z</time>
      </trkpt>
      <trkpt lat="42.97404" lon="-0.03612">
        <ele>1033.8</ele>
        <time>2022-06-11T09:12:55Z</time>
      </trkpt>
      <trkpt lat="42.97403" lon="-0.03615">
        <ele>1033.8</ele>
        <time>2022-06-11T09:12:56Z</time>
      </trkpt>
      <trkpt lat="42.97396" lon="-0.03633">
        <ele>1034.6</ele>
        <time>2022-06-11T09:13:01Z</time>
      </trkpt>
      <trkpt lat="42.97392" lon="-0.03644">
        <ele>1034.8</ele>
        <time>2022-06-11T09:13:04Z</time>
      </trkpt>
      <trkpt lat="42.97385" lon="-0.03659">
        <ele>1035.2</ele>
        <time>2022-06-11T09:13:09Z</time>
      </trkpt>
      <trkpt lat="42.97371" lon="-0.03669">
        <ele>1036</ele>
        <time>2022-06-11T09:13:16Z</time>
      </trkpt>
      <trkpt lat="42.97369" lon="-0.0367">
        <ele>1036.4</ele>
        <time>2022-06-11T09:13:17Z</time>
      </trkpt>
      <trkpt lat="42.9736" lon="-0.03671">
        <ele>1037.2</ele>
        <time>2022-06-11T09:13:21Z</time>
      </trkpt>
      <trkpt lat="42.97348" lon="-0.03671">
        <ele>1038.2</ele>
        <time>2022-06-11T09:13:26Z</time>
      </trkpt>
      <trkpt lat="42.97333" lon="-0.03665">
        <ele>1039.2</ele>
        <time>2022-06-11T09:13:33Z</time>
      </trkpt>
      <trkpt lat="42.97331" lon="-0.03663">
        <ele>1039.6</ele>
        <time>2022-06-11T09:13:34Z</time>
      </trkpt>
      <trkpt lat="42.97322" lon="-0.03653">
        <ele>1040.4</ele>
        <time>2022-06-11T09:13:39Z</time>
      </trkpt>
      <trkpt lat="42.97317" lon="-0.03646">
        <ele>1041.4</ele>
        <time>2022-06-11T09:13:42Z</time>
      </trkpt>
      <trkpt lat="42.97315" lon="-0.03643">
        <ele>1041.8</ele>
        <time>2022-06-11T09:13:43Z</time>
      </trkpt>
      <trkpt lat="42.9731" lon="-0.03632">
        <ele>1042.8</ele>
        <time>2022-06-11T09:13:47Z</time>
      </trkpt>
      <trkpt lat="42.97303" lon="-0.03621">
        <ele>1043.8</ele>
        <time>2022-06-11T09:13:51Z</time>
      </trkpt>
      <trkpt lat="42.97301" lon="-0.03618">
        <ele>1044</ele>
        <time>2022-06-11T09:13:52Z</time>
      </trkpt>
      <trkpt lat="42.97295" lon="-0.03607">
        <ele>1045.2</ele>
        <time>2022-06-11T09:13:56Z</time>
      </trkpt>
      <trkpt lat="42.97294" lon="-0.03605">
        <ele>1045.4</ele>
        <time>2022-06-11T09:13:57Z</time>
      </trkpt>
      <trkpt lat="42.9729" lon="-0.03596">
        <ele>1046.6</ele>
        <time>2022-06-11T09:14:00Z</time>
      </trkpt>
      <trkpt lat="42.97286" lon="-0.03587">
        <ele>1047.4</ele>
        <time>2022-06-11T09:14:03Z</time>
      </trkpt>
      <trkpt lat="42.97285" lon="-0.03584">
        <ele>1047.6</ele>
        <time>2022-06-11T09:14:04Z</time>
      </trkpt>
      <trkpt lat="42.97283" lon="-0.03581">
        <ele>1047.8</ele>
        <time>2022-06-11T09:14:05Z</time>
      </trkpt>
      <trkpt lat="42.97279" lon="-0.0357">
        <ele>1048.6</ele>
        <time>2022-06-11T09:14:09Z</time>
      </trkpt>
      <trkpt lat="42.97274" lon="-0.03559">
        <ele>1049.6</ele>
        <time>2022-06-11T09:14:13Z</time>
      </trkpt>
      <trkpt lat="42.97272" lon="-0.03556">
        <ele>1049.8</ele>
        <time>2022-06-11T09:14:14Z</time>
      </trkpt>
      <trkpt lat="42.97264" lon="-0.03538">
        <ele>1050.8</ele>
        <time>2022-06-11T09:14:20Z</time>
      </trkpt>
      <trkpt lat="42.9726" lon="-0.03519">
        <ele>1051.6</ele>
        <time>2022-06-11T09:14:25Z</time>
      </trkpt>
      <trkpt lat="42.97259" lon="-0.03515">
        <ele>1051.8</ele>
        <time>2022-06-11T09:14:26Z</time>
      </trkpt>
      <trkpt lat="42.97257" lon="-0.035">
        <ele>1052.8</ele>
        <time>2022-06-11T09:14:30Z</time>
      </trkpt>
      <trkpt lat="42.97255" lon="-0.03489">
        <ele>1053.4</ele>
        <time>2022-06-11T09:14:33Z</time>
      </trkpt>
      <trkpt lat="42.97252" lon="-0.03478">
        <ele>1054</ele>
        <time>2022-06-11T09:14:36Z</time>
      </trkpt>
      <trkpt lat="42.9725" lon="-0.03468">
        <ele>1054.4</ele>
        <time>2022-06-11T09:14:39Z</time>
      </trkpt>
      <trkpt lat="42.97246" lon="-0.03455">
        <ele>1055.2</ele>
        <time>2022-06-11T09:14:43Z</time>
      </trkpt>
      <trkpt lat="42.97244" lon="-0.03445">
        <ele>1055.8</ele>
        <time>2022-06-11T09:14:46Z</time>
      </trkpt>
      <trkpt lat="42.97242" lon="-0.03436">
        <ele>1056.4</ele>
        <time>2022-06-11T09:14:49Z</time>
      </trkpt>
      <trkpt lat="42.97241" lon="-0.03428">
        <ele>1057</ele>
        <time>2022-06-11T09:14:52Z</time>
      </trkpt>
      <trkpt lat="42.9724" lon="-0.03425">
        <ele>1057.4</ele>
        <time>2022-06-11T09:14:53Z</time>
      </trkpt>
      <trkpt lat="42.9724" lon="-0.03422">
        <ele>1057.6</ele>
        <time>2022-06-11T09:14:54Z</time>
      </trkpt>
      <trkpt lat="42.97239" lon="-0.03411">
        <ele>1058.6</ele>
        <time>2022-06-11T09:14:58Z</time>
      </trkpt>
      <trkpt lat="42.97239" lon="-0.03408">
        <ele>1058.8</ele>
        <time>2022-06-11T09:14:59Z</time>
      </trkpt>
      <trkpt lat="42.9724" lon="-0.03399">
        <ele>1060</ele>
        <time>2022-06-11T09:15:02Z</time>
      </trkpt>
      <trkpt lat="42.97243" lon="-0.03387">
        <ele>1061.2</ele>
        <time>2022-06-11T09:15:06Z</time>
      </trkpt>
      <trkpt lat="42.97246" lon="-0.0338">
        <ele>1062.2</ele>
        <time>2022-06-11T09:15:09Z</time>
      </trkpt>
      <trkpt lat="42.97249" lon="-0.03372">
        <ele>1063.2</ele>
        <time>2022-06-11T09:15:13Z</time>
      </trkpt>
      <trkpt lat="42.9725" lon="-0.03371">
        <ele>1063.6</ele>
        <time>2022-06-11T09:15:14Z</time>
      </trkpt>
      <trkpt lat="42.97253" lon="-0.03366">
        <ele>1064.8</ele>
        <time>2022-06-11T09:15:17Z</time>
      </trkpt>
      <trkpt lat="42.97259" lon="-0.0336">
        <ele>1066</ele>
        <time>2022-06-11T09:15:21Z</time>
      </trkpt>
      <trkpt lat="42.97264" lon="-0.03357">
        <ele>1067</ele>
        <time>2022-06-11T09:15:24Z</time>
      </trkpt>
      <trkpt lat="42.97267" lon="-0.03353">
        <ele>1067.6</ele>
        <time>2022-06-11T09:15:26Z</time>
      </trkpt>
      <trkpt lat="42.97268" lon="-0.03351">
        <ele>1067.8</ele>
        <time>2022-06-11T09:15:27Z</time>
      </trkpt>
      <trkpt lat="42.9727" lon="-0.03348">
        <ele>1068.2</ele>
        <time>2022-06-11T09:15:28Z</time>
      </trkpt>
      <trkpt lat="42.97277" lon="-0.03338">
        <ele>1069.6</ele>
        <time>2022-06-11T09:15:32Z</time>
      </trkpt>
      <trkpt lat="42.97282" lon="-0.03333">
        <ele>1070.4</ele>
        <time>2022-06-11T09:15:34Z</time>
      </trkpt>
      <trkpt lat="42.97285" lon="-0.03331">
        <ele>1070.8</ele>
        <time>2022-06-11T09:15:35Z</time>
      </trkpt>
      <trkpt lat="42.97298" lon="-0.03319">
        <ele>1071.8</ele>
        <time>2022-06-11T09:15:40Z</time>
      </trkpt>
      <trkpt lat="42.97312" lon="-0.03319">
        <ele>1073.2</ele>
        <time>2022-06-11T09:15:45Z</time>
      </trkpt>
      <trkpt lat="42.97315" lon="-0.03317">
        <ele>1073.4</ele>
        <time>2022-06-11T09:15:46Z</time>
      </trkpt>
      <trkpt lat="42.97316" lon="-0.03314">
        <ele>1073.6</ele>
        <time>2022-06-11T09:15:47Z</time>
      </trkpt>
      <trkpt lat="42.97313" lon="-0.03306">
        <ele>1074.6</ele>
        <time>2022-06-11T09:15:50Z</time>
      </trkpt>
      <trkpt lat="42.97311" lon="-0.03302">
        <ele>1075</ele>
        <time>2022-06-11T09:15:52Z</time>
      </trkpt>
      <trkpt lat="42.97309" lon="-0.03298">
        <ele>1075.6</ele>
        <time>2022-06-11T09:15:54Z</time>
      </trkpt>
      <trkpt lat="42.97305" lon="-0.03292">
        <ele>1076.6</ele>
        <time>2022-06-11T09:15:57Z</time>
      </trkpt>
      <trkpt lat="42.97303" lon="-0.03287">
        <ele>1077</ele>
        <time>2022-06-11T09:15:59Z</time>
      </trkpt>
      <trkpt lat="42.97302" lon="-0.03282">
        <ele>1077.6</ele>
        <time>2022-06-11T09:16:01Z</time>
      </trkpt>
      <trkpt lat="42.97299" lon="-0.03276">
        <ele>1078.4</ele>
        <time>2022-06-11T09:16:04Z</time>
      </trkpt>
      <trkpt lat="42.97298" lon="-0.03275">
        <ele>1078.6</ele>
        <time>2022-06-11T09:16:05Z</time>
      </trkpt>
      <trkpt lat="42.97292" lon="-0.03265">
        <ele>1080</ele>
        <time>2022-06-11T09:16:09Z</time>
      </trkpt>
      <trkpt lat="42.97286" lon="-0.03257">
        <ele>1081</ele>
        <time>2022-06-11T09:16:13Z</time>
      </trkpt>
      <trkpt lat="42.97278" lon="-0.0325">
        <ele>1082</ele>
        <time>2022-06-11T09:16:17Z</time>
      </trkpt>
      <trkpt lat="42.97273" lon="-0.03241">
        <ele>1083</ele>
        <time>2022-06-11T09:16:21Z</time>
      </trkpt>
      <trkpt lat="42.97272" lon="-0.03235">
        <ele>1083.4</ele>
        <time>2022-06-11T09:16:23Z</time>
      </trkpt>
      <trkpt lat="42.97273" lon="-0.0323">
        <ele>1083.8</ele>
        <time>2022-06-11T09:16:25Z</time>
      </trkpt>
      <trkpt lat="42.97274" lon="-0.03228">
        <ele>1084.4</ele>
        <time>2022-06-11T09:16:26Z</time>
      </trkpt>
      <trkpt lat="42.97275" lon="-0.03226">
        <ele>1085.2</ele>
        <time>2022-06-11T09:16:28Z</time>
      </trkpt>
      <trkpt lat="42.97276" lon="-0.03225">
        <ele>1085.6</ele>
        <time>2022-06-11T09:16:29Z</time>
      </trkpt>
      <trkpt lat="42.97278" lon="-0.03225">
        <ele>1086</ele>
        <time>2022-06-11T09:16:30Z</time>
      </trkpt>
      <trkpt lat="42.9728" lon="-0.03224">
        <ele>1086.6</ele>
        <time>2022-06-11T09:16:32Z</time>
      </trkpt>
      <trkpt lat="42.97292" lon="-0.03223">
        <ele>1087.4</ele>
        <time>2022-06-11T09:16:36Z</time>
      </trkpt>
      <trkpt lat="42.97296" lon="-0.03223">
        <ele>1087.8</ele>
        <time>2022-06-11T09:16:37Z</time>
      </trkpt>
      <trkpt lat="42.97304" lon="-0.03225">
        <ele>1088.4</ele>
        <time>2022-06-11T09:16:40Z</time>
      </trkpt>
      <trkpt lat="42.9731" lon="-0.03228">
        <ele>1088.8</ele>
        <time>2022-06-11T09:16:42Z</time>
      </trkpt>
      <trkpt lat="42.97313" lon="-0.0323">
        <ele>1089.2</ele>
        <time>2022-06-11T09:16:43Z</time>
      </trkpt>
      <trkpt lat="42.97315" lon="-0.03229">
        <ele>1089.4</ele>
        <time>2022-06-11T09:16:44Z</time>
      </trkpt>
      <trkpt lat="42.97318" lon="-0.03225">
        <ele>1089.8</ele>
        <time>2022-06-11T09:16:46Z</time>
      </trkpt>
      <trkpt lat="42.97318" lon="-0.03218">
        <ele>1090.2</ele>
        <time>2022-06-11T09:16:48Z</time>
      </trkpt>
      <trkpt lat="42.97315" lon="-0.03213">
        <ele>1090.8</ele>
        <time>2022-06-11T09:16:51Z</time>
      </trkpt>
      <trkpt lat="42.97313" lon="-0.0321">
        <ele>1091.4</ele>
        <time>2022-06-11T09:16:52Z</time>
      </trkpt>
      <trkpt lat="42.97306" lon="-0.03203">
        <ele>1092.8</ele>
        <time>2022-06-11T09:16:56Z</time>
      </trkpt>
      <trkpt lat="42.97299" lon="-0.03197">
        <ele>1093.6</ele>
        <time>2022-06-11T09:17:00Z</time>
      </trkpt>
      <trkpt lat="42.97298" lon="-0.03195">
        <ele>1094</ele>
        <time>2022-06-11T09:17:01Z</time>
      </trkpt>
      <trkpt lat="42.97289" lon="-0.03194">
        <ele>1095.2</ele>
        <time>2022-06-11T09:17:05Z</time>
      </trkpt>
      <trkpt lat="42.97281" lon="-0.0319">
        <ele>1096.2</ele>
        <time>2022-06-11T09:17:09Z</time>
      </trkpt>
      <trkpt lat="42.97279" lon="-0.03189">
        <ele>1096.4</ele>
        <time>2022-06-11T09:17:10Z</time>
      </trkpt>
      <trkpt lat="42.97271" lon="-0.03185">
        <ele>1097.4</ele>
        <time>2022-06-11T09:17:14Z</time>
      </trkpt>
      <trkpt lat="42.97267" lon="-0.03183">
        <ele>1098</ele>
        <time>2022-06-11T09:17:16Z</time>
      </trkpt>
      <trkpt lat="42.9726" lon="-0.03178">
        <ele>1098.4</ele>
        <time>2022-06-11T09:17:19Z</time>
      </trkpt>
      <trkpt lat="42.97254" lon="-0.03173">
        <ele>1099.4</ele>
        <time>2022-06-11T09:17:22Z</time>
      </trkpt>
      <trkpt lat="42.9725" lon="-0.03171">
        <ele>1099.6</ele>
        <time>2022-06-11T09:17:24Z</time>
      </trkpt>
      <trkpt lat="42.97244" lon="-0.03168">
        <ele>1100</ele>
        <time>2022-06-11T09:17:26Z</time>
      </trkpt>
      <trkpt lat="42.97242" lon="-0.0316">
        <ele>1100.4</ele>
        <time>2022-06-11T09:17:29Z</time>
      </trkpt>
      <trkpt lat="42.97244" lon="-0.03156">
        <ele>1100.8</ele>
        <time>2022-06-11T09:17:31Z</time>
      </trkpt>
      <trkpt lat="42.97248" lon="-0.03154">
        <ele>1101.2</ele>
        <time>2022-06-11T09:17:33Z</time>
      </trkpt>
      <trkpt lat="42.97253" lon="-0.03155">
        <ele>1101.8</ele>
        <time>2022-06-11T09:17:35Z</time>
      </trkpt>
      <trkpt lat="42.97259" lon="-0.03159">
        <ele>1102.6</ele>
        <time>2022-06-11T09:17:38Z</time>
      </trkpt>
      <trkpt lat="42.97262" lon="-0.03161">
        <ele>1103.2</ele>
        <time>2022-06-11T09:17:39Z</time>
      </trkpt>
      <trkpt lat="42.97268" lon="-0.03163">
        <ele>1104.4</ele>
        <time>2022-06-11T09:17:42Z</time>
      </trkpt>
      <trkpt lat="42.97275" lon="-0.03163">
        <ele>1104.8</ele>
        <time>2022-06-11T09:17:45Z</time>
      </trkpt>
      <trkpt lat="42.97279" lon="-0.03162">
        <ele>1105.6</ele>
        <time>2022-06-11T09:17:47Z</time>
      </trkpt>
      <trkpt lat="42.97285" lon="-0.03159">
        <ele>1106.6</ele>
        <time>2022-06-11T09:17:51Z</time>
      </trkpt>
      <trkpt lat="42.97292" lon="-0.03156">
        <ele>1107.6</ele>
        <time>2022-06-11T09:17:56Z</time>
      </trkpt>
      <trkpt lat="42.97293" lon="-0.03156">
        <ele>1108.2</ele>
        <time>2022-06-11T09:17:57Z</time>
      </trkpt>
      <trkpt lat="42.97302" lon="-0.03154">
        <ele>1108.8</ele>
        <time>2022-06-11T09:18:01Z</time>
      </trkpt>
      <trkpt lat="42.97308" lon="-0.03155">
        <ele>1110</ele>
        <time>2022-06-11T09:18:03Z</time>
      </trkpt>
      <trkpt lat="42.97314" lon="-0.03154">
        <ele>1110.8</ele>
        <time>2022-06-11T09:18:05Z</time>
      </trkpt>
      <trkpt lat="42.97317" lon="-0.03155">
        <ele>1111.2</ele>
        <time>2022-06-11T09:18:06Z</time>
      </trkpt>
      <trkpt lat="42.97329" lon="-0.03156">
        <ele>1112.4</ele>
        <time>2022-06-11T09:18:10Z</time>
      </trkpt>
      <trkpt lat="42.97333" lon="-0.03157">
        <ele>1113</ele>
        <time>2022-06-11T09:18:12Z</time>
      </trkpt>
      <trkpt lat="42.9734" lon="-0.03157">
        <ele>1113.4</ele>
        <time>2022-06-11T09:18:15Z</time>
      </trkpt>
      <trkpt lat="42.9735" lon="-0.03156">
        <ele>1114.6</ele>
        <time>2022-06-11T09:18:18Z</time>
      </trkpt>
      <trkpt lat="42.97352" lon="-0.03156">
        <ele>1114.6</ele>
        <time>2022-06-11T09:18:19Z</time>
      </trkpt>
      <trkpt lat="42.97366" lon="-0.03154">
        <ele>1115.8</ele>
        <time>2022-06-11T09:18:24Z</time>
      </trkpt>
      <trkpt lat="42.97371" lon="-0.03151">
        <ele>1116.4</ele>
        <time>2022-06-11T09:18:26Z</time>
      </trkpt>
      <trkpt lat="42.97372" lon="-0.03149">
        <ele>1116.8</ele>
        <time>2022-06-11T09:18:27Z</time>
      </trkpt>
      <trkpt lat="42.97374" lon="-0.03148">
        <ele>1116.8</ele>
        <time>2022-06-11T09:18:28Z</time>
      </trkpt>
      <trkpt lat="42.97375" lon="-0.03144">
        <ele>1117.2</ele>
        <time>2022-06-11T09:18:29Z</time>
      </trkpt>
      <trkpt lat="42.97374" lon="-0.03141">
        <ele>1117.4</ele>
        <time>2022-06-11T09:18:30Z</time>
      </trkpt>
      <trkpt lat="42.97373" lon="-0.03136">
        <ele>1118</ele>
        <time>2022-06-11T09:18:32Z</time>
      </trkpt>
      <trkpt lat="42.97368" lon="-0.03129">
        <ele>1118.8</ele>
        <time>2022-06-11T09:18:35Z</time>
      </trkpt>
      <trkpt lat="42.97365" lon="-0.03127">
        <ele>1119</ele>
        <time>2022-06-11T09:18:37Z</time>
      </trkpt>
      <trkpt lat="42.97357" lon="-0.03126">
        <ele>1120</ele>
        <time>2022-06-11T09:18:41Z</time>
      </trkpt>
      <trkpt lat="42.97355" lon="-0.03126">
        <ele>1120.4</ele>
        <time>2022-06-11T09:18:42Z</time>
      </trkpt>
      <trkpt lat="42.97343" lon="-0.03125">
        <ele>1121.6</ele>
        <time>2022-06-11T09:18:46Z</time>
      </trkpt>
      <trkpt lat="42.97341" lon="-0.03125">
        <ele>1121.8</ele>
        <time>2022-06-11T09:18:47Z</time>
      </trkpt>
      <trkpt lat="42.97334" lon="-0.03122">
        <ele>1122.8</ele>
        <time>2022-06-11T09:18:50Z</time>
      </trkpt>
      <trkpt lat="42.97326" lon="-0.03114">
        <ele>1123.4</ele>
        <time>2022-06-11T09:18:54Z</time>
      </trkpt>
      <trkpt lat="42.97325" lon="-0.03113">
        <ele>1123.8</ele>
        <time>2022-06-11T09:18:55Z</time>
      </trkpt>
      <trkpt lat="42.97317" lon="-0.03108">
        <ele>1125</ele>
        <time>2022-06-11T09:18:59Z</time>
      </trkpt>
      <trkpt lat="42.97304" lon="-0.03108">
        <ele>1126</ele>
        <time>2022-06-11T09:19:04Z</time>
      </trkpt>
      <trkpt lat="42.97298" lon="-0.03109">
        <ele>1126.4</ele>
        <time>2022-06-11T09:19:06Z</time>
      </trkpt>
      <trkpt lat="42.9729" lon="-0.03106">
        <ele>1127.2</ele>
        <time>2022-06-11T09:19:09Z</time>
      </trkpt>
      <trkpt lat="42.97284" lon="-0.03102">
        <ele>1127.8</ele>
        <time>2022-06-11T09:19:12Z</time>
      </trkpt>
      <trkpt lat="42.9728" lon="-0.03097">
        <ele>1128.2</ele>
        <time>2022-06-11T09:19:14Z</time>
      </trkpt>
      <trkpt lat="42.97271" lon="-0.03092">
        <ele>1129.2</ele>
        <time>2022-06-11T09:19:18Z</time>
      </trkpt>
      <trkpt lat="42.97255" lon="-0.03089">
        <ele>1130.6</ele>
        <time>2022-06-11T09:19:25Z</time>
      </trkpt>
      <trkpt lat="42.97252" lon="-0.03089">
        <ele>1130.8</ele>
        <time>2022-06-11T09:19:26Z</time>
      </trkpt>
      <trkpt lat="42.97241" lon="-0.03086">
        <ele>1131.8</ele>
        <time>2022-06-11T09:19:30Z</time>
      </trkpt>
      <trkpt lat="42.97228" lon="-0.03081">
        <ele>1132.8</ele>
        <time>2022-06-11T09:19:35Z</time>
      </trkpt>
      <trkpt lat="42.97217" lon="-0.03069">
        <ele>1133.8</ele>
        <time>2022-06-11T09:19:41Z</time>
      </trkpt>
      <trkpt lat="42.97216" lon="-0.03066">
        <ele>1134</ele>
        <time>2022-06-11T09:19:42Z</time>
      </trkpt>
      <trkpt lat="42.97211" lon="-0.03051">
        <ele>1135.4</ele>
        <time>2022-06-11T09:19:46Z</time>
      </trkpt>
      <trkpt lat="42.97206" lon="-0.03038">
        <ele>1135.8</ele>
        <time>2022-06-11T09:19:49Z</time>
      </trkpt>
      <trkpt lat="42.972" lon="-0.03026">
        <ele>1136.4</ele>
        <time>2022-06-11T09:19:53Z</time>
      </trkpt>
      <trkpt lat="42.97197" lon="-0.03021">
        <ele>1136.8</ele>
        <time>2022-06-11T09:19:55Z</time>
      </trkpt>
      <trkpt lat="42.97187" lon="-0.03005">
        <ele>1137.6</ele>
        <time>2022-06-11T09:20:01Z</time>
      </trkpt>
      <trkpt lat="42.97179" lon="-0.02993">
        <ele>1138</ele>
        <time>2022-06-11T09:20:06Z</time>
      </trkpt>
      <trkpt lat="42.97173" lon="-0.02983">
        <ele>1138.6</ele>
        <time>2022-06-11T09:20:10Z</time>
      </trkpt>
      <trkpt lat="42.97167" lon="-0.02972">
        <ele>1139</ele>
        <time>2022-06-11T09:20:14Z</time>
      </trkpt>
      <trkpt lat="42.97164" lon="-0.02965">
        <ele>1139.4</ele>
        <time>2022-06-11T09:20:17Z</time>
      </trkpt>
      <trkpt lat="42.97161" lon="-0.0296">
        <ele>1140</ele>
        <time>2022-06-11T09:20:19Z</time>
      </trkpt>
      <trkpt lat="42.97157" lon="-0.02953">
        <ele>1140.6</ele>
        <time>2022-06-11T09:20:22Z</time>
      </trkpt>
      <trkpt lat="42.97154" lon="-0.02947">
        <ele>1140.8</ele>
        <time>2022-06-11T09:20:24Z</time>
      </trkpt>
      <trkpt lat="42.97147" lon="-0.02938">
        <ele>1141.4</ele>
        <time>2022-06-11T09:20:29Z</time>
      </trkpt>
      <trkpt lat="42.97145" lon="-0.02936">
        <ele>1141.8</ele>
        <time>2022-06-11T09:20:30Z</time>
      </trkpt>
      <trkpt lat="42.97137" lon="-0.02935">
        <ele>1143</ele>
        <time>2022-06-11T09:20:33Z</time>
      </trkpt>
      <trkpt lat="42.97133" lon="-0.02933">
        <ele>1144</ele>
        <time>2022-06-11T09:20:35Z</time>
      </trkpt>
      <trkpt lat="42.9713" lon="-0.02934">
        <ele>1144.6</ele>
        <time>2022-06-11T09:20:36Z</time>
      </trkpt>
      <trkpt lat="42.97125" lon="-0.02935">
        <ele>1145.2</ele>
        <time>2022-06-11T09:20:38Z</time>
      </trkpt>
      <trkpt lat="42.97121" lon="-0.02935">
        <ele>1145.6</ele>
        <time>2022-06-11T09:20:40Z</time>
      </trkpt>
      <trkpt lat="42.97112" lon="-0.02938">
        <ele>1146.6</ele>
        <time>2022-06-11T09:20:44Z</time>
      </trkpt>
      <trkpt lat="42.97108" lon="-0.02939">
        <ele>1147.4</ele>
        <time>2022-06-11T09:20:46Z</time>
      </trkpt>
      <trkpt lat="42.97105" lon="-0.0294">
        <ele>1147.8</ele>
        <time>2022-06-11T09:20:47Z</time>
      </trkpt>
      <trkpt lat="42.97098" lon="-0.02942">
        <ele>1148.8</ele>
        <time>2022-06-11T09:20:50Z</time>
      </trkpt>
      <trkpt lat="42.97092" lon="-0.02942">
        <ele>1149.2</ele>
        <time>2022-06-11T09:20:52Z</time>
      </trkpt>
      <trkpt lat="42.97086" lon="-0.02939">
        <ele>1150.2</ele>
        <time>2022-06-11T09:20:55Z</time>
      </trkpt>
      <trkpt lat="42.97081" lon="-0.02938">
        <ele>1150.4</ele>
        <time>2022-06-11T09:20:57Z</time>
      </trkpt>
      <trkpt lat="42.97064" lon="-0.02933">
        <ele>1151.2</ele>
        <time>2022-06-11T09:21:05Z</time>
      </trkpt>
      <trkpt lat="42.97062" lon="-0.02932">
        <ele>1151.4</ele>
        <time>2022-06-11T09:21:06Z</time>
      </trkpt>
      <trkpt lat="42.97052" lon="-0.02928">
        <ele>1152.2</ele>
        <time>2022-06-11T09:21:11Z</time>
      </trkpt>
      <trkpt lat="42.97048" lon="-0.02926">
        <ele>1152.4</ele>
        <time>2022-06-11T09:21:13Z</time>
      </trkpt>
      <trkpt lat="42.97037" lon="-0.02921">
        <ele>1153.2</ele>
        <time>2022-06-11T09:21:18Z</time>
      </trkpt>
      <trkpt lat="42.9703" lon="-0.02919">
        <ele>1153.6</ele>
        <time>2022-06-11T09:21:21Z</time>
      </trkpt>
      <trkpt lat="42.97028" lon="-0.02919">
        <ele>1153.8</ele>
        <time>2022-06-11T09:21:22Z</time>
      </trkpt>
      <trkpt lat="42.97018" lon="-0.02917">
        <ele>1154.4</ele>
        <time>2022-06-11T09:21:27Z</time>
      </trkpt>
      <trkpt lat="42.97016" lon="-0.02917">
        <ele>1154.6</ele>
        <time>2022-06-11T09:21:28Z</time>
      </trkpt>
      <trkpt lat="42.97005" lon="-0.02916">
        <ele>1155.6</ele>
        <time>2022-06-11T09:21:33Z</time>
      </trkpt>
      <trkpt lat="42.97" lon="-0.02914">
        <ele>1156</ele>
        <time>2022-06-11T09:21:35Z</time>
      </trkpt>
      <trkpt lat="42.96996" lon="-0.02913">
        <ele>1156.6</ele>
        <time>2022-06-11T09:21:37Z</time>
      </trkpt>
      <trkpt lat="42.96988" lon="-0.02908">
        <ele>1157.2</ele>
        <time>2022-06-11T09:21:41Z</time>
      </trkpt>
      <trkpt lat="42.96982" lon="-0.02904">
        <ele>1157.8</ele>
        <time>2022-06-11T09:21:44Z</time>
      </trkpt>
      <trkpt lat="42.96975" lon="-0.02898">
        <ele>1158.6</ele>
        <time>2022-06-11T09:21:48Z</time>
      </trkpt>
      <trkpt lat="42.96973" lon="-0.02896">
        <ele>1158.8</ele>
        <time>2022-06-11T09:21:49Z</time>
      </trkpt>
      <trkpt lat="42.96959" lon="-0.02891">
        <ele>1159.8</ele>
        <time>2022-06-11T09:21:55Z</time>
      </trkpt>
      <trkpt lat="42.96954" lon="-0.02892">
        <ele>1159.8</ele>
        <time>2022-06-11T09:21:57Z</time>
      </trkpt>
      <trkpt lat="42.96937" lon="-0.02889">
        <ele>1160.6</ele>
        <time>2022-06-11T09:22:04Z</time>
      </trkpt>
      <trkpt lat="42.96928" lon="-0.02885">
        <ele>1161</ele>
        <time>2022-06-11T09:22:08Z</time>
      </trkpt>
      <trkpt lat="42.96922" lon="-0.02881">
        <ele>1161.4</ele>
        <time>2022-06-11T09:22:11Z</time>
      </trkpt>
      <trkpt lat="42.96918" lon="-0.02869">
        <ele>1162</ele>
        <time>2022-06-11T09:22:16Z</time>
      </trkpt>
      <trkpt lat="42.96919" lon="-0.02856">
        <ele>1163.2</ele>
        <time>2022-06-11T09:22:21Z</time>
      </trkpt>
      <trkpt lat="42.9692" lon="-0.02847">
        <ele>1163.6</ele>
        <time>2022-06-11T09:22:24Z</time>
      </trkpt>
      <trkpt lat="42.9692" lon="-0.02841">
        <ele>1163.8</ele>
        <time>2022-06-11T09:22:26Z</time>
      </trkpt>
      <trkpt lat="42.9692" lon="-0.02836">
        <ele>1164.2</ele>
        <time>2022-06-11T09:22:28Z</time>
      </trkpt>
      <trkpt lat="42.96919" lon="-0.02831">
        <ele>1164.6</ele>
        <time>2022-06-11T09:22:30Z</time>
      </trkpt>
      <trkpt lat="42.96916" lon="-0.02824">
        <ele>1165.4</ele>
        <time>2022-06-11T09:22:33Z</time>
      </trkpt>
      <trkpt lat="42.96914" lon="-0.02816">
        <ele>1166.6</ele>
        <time>2022-06-11T09:22:36Z</time>
      </trkpt>
      <trkpt lat="42.96914" lon="-0.02805">
        <ele>1167.6</ele>
        <time>2022-06-11T09:22:40Z</time>
      </trkpt>
      <trkpt lat="42.96914" lon="-0.028">
        <ele>1168.2</ele>
        <time>2022-06-11T09:22:42Z</time>
      </trkpt>
      <trkpt lat="42.96915" lon="-0.02798">
        <ele>1168.2</ele>
        <time>2022-06-11T09:22:43Z</time>
      </trkpt>
      <trkpt lat="42.96916" lon="-0.02792">
        <ele>1168.8</ele>
        <time>2022-06-11T09:22:45Z</time>
      </trkpt>
      <trkpt lat="42.96917" lon="-0.02781">
        <ele>1169.8</ele>
        <time>2022-06-11T09:22:49Z</time>
      </trkpt>
      <trkpt lat="42.96917" lon="-0.02775">
        <ele>1170.2</ele>
        <time>2022-06-11T09:22:51Z</time>
      </trkpt>
      <trkpt lat="42.96918" lon="-0.02766">
        <ele>1171</ele>
        <time>2022-06-11T09:22:54Z</time>
      </trkpt>
      <trkpt lat="42.96918" lon="-0.02752">
        <ele>1171.6</ele>
        <time>2022-06-11T09:22:58Z</time>
      </trkpt>
      <trkpt lat="42.96917" lon="-0.02743">
        <ele>1172.2</ele>
        <time>2022-06-11T09:23:01Z</time>
      </trkpt>
      <trkpt lat="42.96917" lon="-0.02739">
        <ele>1172.6</ele>
        <time>2022-06-11T09:23:03Z</time>
      </trkpt>
      <trkpt lat="42.96918" lon="-0.02731">
        <ele>1173.2</ele>
        <time>2022-06-11T09:23:06Z</time>
      </trkpt>
      <trkpt lat="42.96918" lon="-0.02725">
        <ele>1173.6</ele>
        <time>2022-06-11T09:23:08Z</time>
      </trkpt>
      <trkpt lat="42.96918" lon="-0.02718">
        <ele>1174</ele>
        <time>2022-06-11T09:23:10Z</time>
      </trkpt>
      <trkpt lat="42.96919" lon="-0.02714">
        <ele>1174.2</ele>
        <time>2022-06-11T09:23:12Z</time>
      </trkpt>
      <trkpt lat="42.9692" lon="-0.02703">
        <ele>1175.4</ele>
        <time>2022-06-11T09:23:17Z</time>
      </trkpt>
      <trkpt lat="42.96918" lon="-0.02692">
        <ele>1176.4</ele>
        <time>2022-06-11T09:23:22Z</time>
      </trkpt>
      <trkpt lat="42.96918" lon="-0.02689">
        <ele>1177</ele>
        <time>2022-06-11T09:23:23Z</time>
      </trkpt>
      <trkpt lat="42.96918" lon="-0.0268">
        <ele>1177.4</ele>
        <time>2022-06-11T09:23:26Z</time>
      </trkpt>
      <trkpt lat="42.96918" lon="-0.02675">
        <ele>1177.6</ele>
        <time>2022-06-11T09:23:28Z</time>
      </trkpt>
      <trkpt lat="42.96918" lon="-0.02667">
        <ele>1178.4</ele>
        <time>2022-06-11T09:23:31Z</time>
      </trkpt>
      <trkpt lat="42.96917" lon="-0.02652">
        <ele>1179.8</ele>
        <time>2022-06-11T09:23:36Z</time>
      </trkpt>
      <trkpt lat="42.96914" lon="-0.02628">
        <ele>1181</ele>
        <time>2022-06-11T09:23:42Z</time>
      </trkpt>
      <trkpt lat="42.96912" lon="-0.02621">
        <ele>1181.2</ele>
        <time>2022-06-11T09:23:44Z</time>
      </trkpt>
      <trkpt lat="42.96912" lon="-0.02604">
        <ele>1182.2</ele>
        <time>2022-06-11T09:23:49Z</time>
      </trkpt>
      <trkpt lat="42.96912" lon="-0.02601">
        <ele>1182.2</ele>
        <time>2022-06-11T09:23:50Z</time>
      </trkpt>
      <trkpt lat="42.9691" lon="-0.02588">
        <ele>1183.2</ele>
        <time>2022-06-11T09:23:55Z</time>
      </trkpt>
      <trkpt lat="42.9691" lon="-0.02585">
        <ele>1183.2</ele>
        <time>2022-06-11T09:23:56Z</time>
      </trkpt>
      <trkpt lat="42.96907" lon="-0.02575">
        <ele>1184.2</ele>
        <time>2022-06-11T09:24:00Z</time>
      </trkpt>
      <trkpt lat="42.96904" lon="-0.02566">
        <ele>1184.6</ele>
        <time>2022-06-11T09:24:03Z</time>
      </trkpt>
      <trkpt lat="42.96902" lon="-0.0256">
        <ele>1185</ele>
        <time>2022-06-11T09:24:06Z</time>
      </trkpt>
      <trkpt lat="42.96902" lon="-0.02558">
        <ele>1185.2</ele>
        <time>2022-06-11T09:24:07Z</time>
      </trkpt>
      <trkpt lat="42.96905" lon="-0.02556">
        <ele>1185.2</ele>
        <time>2022-06-11T09:24:08Z</time>
      </trkpt>
      <trkpt lat="42.96914" lon="-0.02564">
        <ele>1186.6</ele>
        <time>2022-06-11T09:24:13Z</time>
      </trkpt>
      <trkpt lat="42.96922" lon="-0.02579">
        <ele>1187.6</ele>
        <time>2022-06-11T09:24:18Z</time>
      </trkpt>
      <trkpt lat="42.96925" lon="-0.02584">
        <ele>1188.2</ele>
        <time>2022-06-11T09:24:20Z</time>
      </trkpt>
      <trkpt lat="42.9693" lon="-0.02596">
        <ele>1188.4</ele>
        <time>2022-06-11T09:24:24Z</time>
      </trkpt>
      <trkpt lat="42.96934" lon="-0.02603">
        <ele>1189.2</ele>
        <time>2022-06-11T09:24:27Z</time>
      </trkpt>
      <trkpt lat="42.96943" lon="-0.02614">
        <ele>1189.6</ele>
        <time>2022-06-11T09:24:32Z</time>
      </trkpt>
      <trkpt lat="42.96945" lon="-0.02618">
        <ele>1189.8</ele>
        <time>2022-06-11T09:24:34Z</time>
      </trkpt>
      <trkpt lat="42.96954" lon="-0.02626">
        <ele>1190.6</ele>
        <time>2022-06-11T09:24:38Z</time>
      </trkpt>
      <trkpt lat="42.96962" lon="-0.02635">
        <ele>1191.6</ele>
        <time>2022-06-11T09:24:43Z</time>
      </trkpt>
      <trkpt lat="42.9697" lon="-0.02639">
        <ele>1192.6</ele>
        <time>2022-06-11T09:24:48Z</time>
      </trkpt>
      <trkpt lat="42.96976" lon="-0.02639">
        <ele>1193.2</ele>
        <time>2022-06-11T09:24:51Z</time>
      </trkpt>
      <trkpt lat="42.96981" lon="-0.02637">
        <ele>1193.8</ele>
        <time>2022-06-11T09:24:54Z</time>
      </trkpt>
      <trkpt lat="42.96989" lon="-0.02631">
        <ele>1194.6</ele>
        <time>2022-06-11T09:24:59Z</time>
      </trkpt>
      <trkpt lat="42.96993" lon="-0.02631">
        <ele>1195.2</ele>
        <time>2022-06-11T09:25:01Z</time>
      </trkpt>
      <trkpt lat="42.96996" lon="-0.02628">
        <ele>1195.8</ele>
        <time>2022-06-11T09:25:03Z</time>
      </trkpt>
      <trkpt lat="42.96998" lon="-0.02626">
        <ele>1196</ele>
        <time>2022-06-11T09:25:04Z</time>
      </trkpt>
      <trkpt lat="42.97004" lon="-0.02621">
        <ele>1197</ele>
        <time>2022-06-11T09:25:08Z</time>
      </trkpt>
      <trkpt lat="42.97014" lon="-0.02616">
        <ele>1197.8</ele>
        <time>2022-06-11T09:25:12Z</time>
      </trkpt>
      <trkpt lat="42.97016" lon="-0.02615">
        <ele>1198</ele>
        <time>2022-06-11T09:25:13Z</time>
      </trkpt>
      <trkpt lat="42.97024" lon="-0.02617">
        <ele>1199.4</ele>
        <time>2022-06-11T09:25:17Z</time>
      </trkpt>
      <trkpt lat="42.97028" lon="-0.02619">
        <ele>1199.8</ele>
        <time>2022-06-11T09:25:19Z</time>
      </trkpt>
      <trkpt lat="42.97031" lon="-0.02622">
        <ele>1200.4</ele>
        <time>2022-06-11T09:25:21Z</time>
      </trkpt>
      <trkpt lat="42.97039" lon="-0.02634">
        <ele>1201.2</ele>
        <time>2022-06-11T09:25:26Z</time>
      </trkpt>
      <trkpt lat="42.97043" lon="-0.02639">
        <ele>1201.4</ele>
        <time>2022-06-11T09:25:28Z</time>
      </trkpt>
      <trkpt lat="42.9705" lon="-0.02652">
        <ele>1202</ele>
        <time>2022-06-11T09:25:33Z</time>
      </trkpt>
      <trkpt lat="42.97061" lon="-0.02657">
        <ele>1202.2</ele>
        <time>2022-06-11T09:25:38Z</time>
      </trkpt>
      <trkpt lat="42.97074" lon="-0.02658">
        <ele>1202.4</ele>
        <time>2022-06-11T09:25:43Z</time>
      </trkpt>
      <trkpt lat="42.97079" lon="-0.02657">
        <ele>1202.6</ele>
        <time>2022-06-11T09:25:45Z</time>
      </trkpt>
      <trkpt lat="42.97094" lon="-0.02654">
        <ele>1203.4</ele>
        <time>2022-06-11T09:25:51Z</time>
      </trkpt>
      <trkpt lat="42.97098" lon="-0.02652">
        <ele>1203.8</ele>
        <time>2022-06-11T09:25:53Z</time>
      </trkpt>
      <trkpt lat="42.97105" lon="-0.02654">
        <ele>1204.8</ele>
        <time>2022-06-11T09:25:56Z</time>
      </trkpt>
      <trkpt lat="42.97115" lon="-0.02661">
        <ele>1205.6</ele>
        <time>2022-06-11T09:26:00Z</time>
      </trkpt>
      <trkpt lat="42.97118" lon="-0.02665">
        <ele>1206</ele>
        <time>2022-06-11T09:26:02Z</time>
      </trkpt>
      <trkpt lat="42.97122" lon="-0.02673">
        <ele>1206.8</ele>
        <time>2022-06-11T09:26:05Z</time>
      </trkpt>
      <trkpt lat="42.97124" lon="-0.0268">
        <ele>1207</ele>
        <time>2022-06-11T09:26:07Z</time>
      </trkpt>
      <trkpt lat="42.97131" lon="-0.02693">
        <ele>1208</ele>
        <time>2022-06-11T09:26:11Z</time>
      </trkpt>
      <trkpt lat="42.97135" lon="-0.02701">
        <ele>1208.4</ele>
        <time>2022-06-11T09:26:13Z</time>
      </trkpt>
      <trkpt lat="42.97143" lon="-0.02719">
        <ele>1209.2</ele>
        <time>2022-06-11T09:26:19Z</time>
      </trkpt>
      <trkpt lat="42.97146" lon="-0.02727">
        <ele>1209.8</ele>
        <time>2022-06-11T09:26:22Z</time>
      </trkpt>
      <trkpt lat="42.97148" lon="-0.02732">
        <ele>1210.4</ele>
        <time>2022-06-11T09:26:24Z</time>
      </trkpt>
      <trkpt lat="42.97153" lon="-0.02742">
        <ele>1211.6</ele>
        <time>2022-06-11T09:26:28Z</time>
      </trkpt>
      <trkpt lat="42.97153" lon="-0.02744">
        <ele>1211.8</ele>
        <time>2022-06-11T09:26:30Z</time>
      </trkpt>
      <trkpt lat="42.97157" lon="-0.02761">
        <ele>1212.6</ele>
        <time>2022-06-11T09:26:34Z</time>
      </trkpt>
      <trkpt lat="42.97157" lon="-0.0277">
        <ele>1213.4</ele>
        <time>2022-06-11T09:26:38Z</time>
      </trkpt>
      <trkpt lat="42.97157" lon="-0.02774">
        <ele>1213.8</ele>
        <time>2022-06-11T09:26:39Z</time>
      </trkpt>
      <trkpt lat="42.97157" lon="-0.02793">
        <ele>1215</ele>
        <time>2022-06-11T09:26:44Z</time>
      </trkpt>
      <trkpt lat="42.97158" lon="-0.02796">
        <ele>1215.2</ele>
        <time>2022-06-11T09:26:46Z</time>
      </trkpt>
      <trkpt lat="42.97163" lon="-0.02797">
        <ele>1215.6</ele>
        <time>2022-06-11T09:26:48Z</time>
      </trkpt>
      <trkpt lat="42.97165" lon="-0.02795">
        <ele>1215.8</ele>
        <time>2022-06-11T09:26:49Z</time>
      </trkpt>
      <trkpt lat="42.97165" lon="-0.02789">
        <ele>1216</ele>
        <time>2022-06-11T09:26:50Z</time>
      </trkpt>
      <trkpt lat="42.97165" lon="-0.02789">
        <ele>1216.2</ele>
        <time>2022-06-11T09:26:51Z</time>
      </trkpt>
      <trkpt lat="42.97164" lon="-0.02767">
        <ele>1217.2</ele>
        <time>2022-06-11T09:26:58Z</time>
      </trkpt>
      <trkpt lat="42.97164" lon="-0.02756">
        <ele>1217.8</ele>
        <time>2022-06-11T09:27:02Z</time>
      </trkpt>
      <trkpt lat="42.97164" lon="-0.02747">
        <ele>1218.2</ele>
        <time>2022-06-11T09:27:04Z</time>
      </trkpt>
      <trkpt lat="42.97164" lon="-0.02734">
        <ele>1219</ele>
        <time>2022-06-11T09:27:08Z</time>
      </trkpt>
      <trkpt lat="42.97163" lon="-0.02727">
        <ele>1219.4</ele>
        <time>2022-06-11T09:27:10Z</time>
      </trkpt>
      <trkpt lat="42.97162" lon="-0.0271">
        <ele>1220.6</ele>
        <time>2022-06-11T09:27:15Z</time>
      </trkpt>
      <trkpt lat="42.97162" lon="-0.02706">
        <ele>1220.8</ele>
        <time>2022-06-11T09:27:17Z</time>
      </trkpt>
      <trkpt lat="42.9716" lon="-0.02695">
        <ele>1221.6</ele>
        <time>2022-06-11T09:27:20Z</time>
      </trkpt>
      <trkpt lat="42.97159" lon="-0.02683">
        <ele>1222.6</ele>
        <time>2022-06-11T09:27:24Z</time>
      </trkpt>
      <trkpt lat="42.97158" lon="-0.02672">
        <ele>1223.4</ele>
        <time>2022-06-11T09:27:26Z</time>
      </trkpt>
      <trkpt lat="42.97157" lon="-0.02666">
        <ele>1223.8</ele>
        <time>2022-06-11T09:27:28Z</time>
      </trkpt>
      <trkpt lat="42.97157" lon="-0.02662">
        <ele>1223.8</ele>
        <time>2022-06-11T09:27:30Z</time>
      </trkpt>
      <trkpt lat="42.97155" lon="-0.02646">
        <ele>1224.6</ele>
        <time>2022-06-11T09:27:35Z</time>
      </trkpt>
      <trkpt lat="42.97155" lon="-0.02643">
        <ele>1224.8</ele>
        <time>2022-06-11T09:27:36Z</time>
      </trkpt>
      <trkpt lat="42.97158" lon="-0.02626">
        <ele>1225.8</ele>
        <time>2022-06-11T09:27:41Z</time>
      </trkpt>
      <trkpt lat="42.97158" lon="-0.02626">
        <ele>1226</ele>
        <time>2022-06-11T09:27:42Z</time>
      </trkpt>
      <trkpt lat="42.97163" lon="-0.02612">
        <ele>1227</ele>
        <time>2022-06-11T09:27:46Z</time>
      </trkpt>
      <trkpt lat="42.97165" lon="-0.02604">
        <ele>1228.2</ele>
        <time>2022-06-11T09:27:50Z</time>
      </trkpt>
      <trkpt lat="42.97169" lon="-0.02589">
        <ele>1229.4</ele>
        <time>2022-06-11T09:27:56Z</time>
      </trkpt>
      <trkpt lat="42.97171" lon="-0.02584">
        <ele>1230.2</ele>
        <time>2022-06-11T09:27:58Z</time>
      </trkpt>
      <trkpt lat="42.97172" lon="-0.02582">
        <ele>1230.6</ele>
        <time>2022-06-11T09:27:59Z</time>
      </trkpt>
      <trkpt lat="42.97173" lon="-0.02575">
        <ele>1230.6</ele>
        <time>2022-06-11T09:28:00Z</time>
      </trkpt>
      <trkpt lat="42.97172" lon="-0.02563">
        <ele>1231.4</ele>
        <time>2022-06-11T09:28:04Z</time>
      </trkpt>
      <trkpt lat="42.97172" lon="-0.02556">
        <ele>1231.8</ele>
        <time>2022-06-11T09:28:06Z</time>
      </trkpt>
      <trkpt lat="42.9717" lon="-0.02547">
        <ele>1232.8</ele>
        <time>2022-06-11T09:28:09Z</time>
      </trkpt>
      <trkpt lat="42.97168" lon="-0.02538">
        <ele>1233.4</ele>
        <time>2022-06-11T09:28:12Z</time>
      </trkpt>
      <trkpt lat="42.97166" lon="-0.02531">
        <ele>1234</ele>
        <time>2022-06-11T09:28:14Z</time>
      </trkpt>
      <trkpt lat="42.9716" lon="-0.0252">
        <ele>1235.2</ele>
        <time>2022-06-11T09:28:18Z</time>
      </trkpt>
      <trkpt lat="42.97156" lon="-0.02512">
        <ele>1235.6</ele>
        <time>2022-06-11T09:28:21Z</time>
      </trkpt>
      <trkpt lat="42.9715" lon="-0.02506">
        <ele>1236.2</ele>
        <time>2022-06-11T09:28:24Z</time>
      </trkpt>
      <trkpt lat="42.97145" lon="-0.02499">
        <ele>1236.6</ele>
        <time>2022-06-11T09:28:27Z</time>
      </trkpt>
      <trkpt lat="42.97145" lon="-0.02492">
        <ele>1237</ele>
        <time>2022-06-11T09:28:29Z</time>
      </trkpt>
      <trkpt lat="42.97148" lon="-0.0249">
        <ele>1237</ele>
        <time>2022-06-11T09:28:30Z</time>
      </trkpt>
      <trkpt lat="42.9715" lon="-0.0249">
        <ele>1237.2</ele>
        <time>2022-06-11T09:28:31Z</time>
      </trkpt>
      <trkpt lat="42.97155" lon="-0.02492">
        <ele>1237.4</ele>
        <time>2022-06-11T09:28:33Z</time>
      </trkpt>
      <trkpt lat="42.97157" lon="-0.02495">
        <ele>1237.4</ele>
        <time>2022-06-11T09:28:34Z</time>
      </trkpt>
      <trkpt lat="42.97169" lon="-0.02514">
        <ele>1238.4</ele>
        <time>2022-06-11T09:28:41Z</time>
      </trkpt>
      <trkpt lat="42.97175" lon="-0.02523">
        <ele>1238.8</ele>
        <time>2022-06-11T09:28:44Z</time>
      </trkpt>
      <trkpt lat="42.97181" lon="-0.02532">
        <ele>1239.4</ele>
        <time>2022-06-11T09:28:47Z</time>
      </trkpt>
      <trkpt lat="42.97188" lon="-0.02544">
        <ele>1240.4</ele>
        <time>2022-06-11T09:28:52Z</time>
      </trkpt>
      <trkpt lat="42.97192" lon="-0.02553">
        <ele>1241</ele>
        <time>2022-06-11T09:28:54Z</time>
      </trkpt>
      <trkpt lat="42.97197" lon="-0.02562">
        <ele>1241.8</ele>
        <time>2022-06-11T09:28:57Z</time>
      </trkpt>
      <trkpt lat="42.97204" lon="-0.02573">
        <ele>1242.8</ele>
        <time>2022-06-11T09:29:02Z</time>
      </trkpt>
      <trkpt lat="42.9721" lon="-0.02583">
        <ele>1243.8</ele>
        <time>2022-06-11T09:29:05Z</time>
      </trkpt>
      <trkpt lat="42.97218" lon="-0.02598">
        <ele>1245</ele>
        <time>2022-06-11T09:29:11Z</time>
      </trkpt>
      <trkpt lat="42.97224" lon="-0.02607">
        <ele>1245.4</ele>
        <time>2022-06-11T09:29:13Z</time>
      </trkpt>
      <trkpt lat="42.9723" lon="-0.02614">
        <ele>1246.4</ele>
        <time>2022-06-11T09:29:16Z</time>
      </trkpt>
      <trkpt lat="42.97237" lon="-0.02625">
        <ele>1247.2</ele>
        <time>2022-06-11T09:29:20Z</time>
      </trkpt>
      <trkpt lat="42.97239" lon="-0.02628">
        <ele>1247.6</ele>
        <time>2022-06-11T09:29:21Z</time>
      </trkpt>
      <trkpt lat="42.97243" lon="-0.02636">
        <ele>1248.4</ele>
        <time>2022-06-11T09:29:25Z</time>
      </trkpt>
      <trkpt lat="42.97247" lon="-0.02646">
        <ele>1249</ele>
        <time>2022-06-11T09:29:27Z</time>
      </trkpt>
      <trkpt lat="42.9725" lon="-0.0265">
        <ele>1249.6</ele>
        <time>2022-06-11T09:29:29Z</time>
      </trkpt>
      <trkpt lat="42.97259" lon="-0.02663">
        <ele>1250.6</ele>
        <time>2022-06-11T09:29:34Z</time>
      </trkpt>
      <trkpt lat="42.97272" lon="-0.02672">
        <ele>1251.8</ele>
        <time>2022-06-11T09:29:39Z</time>
      </trkpt>
      <trkpt lat="42.97275" lon="-0.02674">
        <ele>1252</ele>
        <time>2022-06-11T09:29:40Z</time>
      </trkpt>
      <trkpt lat="42.97279" lon="-0.02678">
        <ele>1252.4</ele>
        <time>2022-06-11T09:29:42Z</time>
      </trkpt>
      <trkpt lat="42.97283" lon="-0.02682">
        <ele>1253</ele>
        <time>2022-06-11T09:29:44Z</time>
      </trkpt>
      <trkpt lat="42.9729" lon="-0.02692">
        <ele>1254</ele>
        <time>2022-06-11T09:29:49Z</time>
      </trkpt>
      <trkpt lat="42.97294" lon="-0.02701">
        <ele>1254.6</ele>
        <time>2022-06-11T09:29:51Z</time>
      </trkpt>
      <trkpt lat="42.97297" lon="-0.02708">
        <ele>1255</ele>
        <time>2022-06-11T09:29:53Z</time>
      </trkpt>
      <trkpt lat="42.97301" lon="-0.02722">
        <ele>1256.2</ele>
        <time>2022-06-11T09:29:57Z</time>
      </trkpt>
      <trkpt lat="42.97301" lon="-0.02722">
        <ele>1256.2</ele>
        <time>2022-06-11T09:29:58Z</time>
      </trkpt>
      <trkpt lat="42.97306" lon="-0.02743">
        <ele>1257.4</ele>
        <time>2022-06-11T09:30:03Z</time>
      </trkpt>
      <trkpt lat="42.9731" lon="-0.02752">
        <ele>1258</ele>
        <time>2022-06-11T09:30:06Z</time>
      </trkpt>
      <trkpt lat="42.97316" lon="-0.02762">
        <ele>1258.6</ele>
        <time>2022-06-11T09:30:10Z</time>
      </trkpt>
      <trkpt lat="42.97321" lon="-0.02768">
        <ele>1259.6</ele>
        <time>2022-06-11T09:30:14Z</time>
      </trkpt>
      <trkpt lat="42.97326" lon="-0.0277">
        <ele>1259.6</ele>
        <time>2022-06-11T09:30:15Z</time>
      </trkpt>
      <trkpt lat="42.97331" lon="-0.02768">
        <ele>1260.2</ele>
        <time>2022-06-11T09:30:18Z</time>
      </trkpt>
      <trkpt lat="42.97331" lon="-0.02763">
        <ele>1260.4</ele>
        <time>2022-06-11T09:30:20Z</time>
      </trkpt>
      <trkpt lat="42.97329" lon="-0.02761">
        <ele>1260.4</ele>
        <time>2022-06-11T09:30:21Z</time>
      </trkpt>
      <trkpt lat="42.97325" lon="-0.02758">
        <ele>1260.6</ele>
        <time>2022-06-11T09:30:23Z</time>
      </trkpt>
      <trkpt lat="42.9732" lon="-0.02743">
        <ele>1261.4</ele>
        <time>2022-06-11T09:30:28Z</time>
      </trkpt>
      <trkpt lat="42.9732" lon="-0.02736">
        <ele>1261.8</ele>
        <time>2022-06-11T09:30:30Z</time>
      </trkpt>
      <trkpt lat="42.97322" lon="-0.02719">
        <ele>1263</ele>
        <time>2022-06-11T09:30:35Z</time>
      </trkpt>
      <trkpt lat="42.97322" lon="-0.02715">
        <ele>1263.4</ele>
        <time>2022-06-11T09:30:36Z</time>
      </trkpt>
      <trkpt lat="42.97324" lon="-0.02701">
        <ele>1264.6</ele>
        <time>2022-06-11T09:30:40Z</time>
      </trkpt>
      <trkpt lat="42.97326" lon="-0.02688">
        <ele>1265.6</ele>
        <time>2022-06-11T09:30:44Z</time>
      </trkpt>
      <trkpt lat="42.97326" lon="-0.02684">
        <ele>1266.4</ele>
        <time>2022-06-11T09:30:45Z</time>
      </trkpt>
      <trkpt lat="42.97327" lon="-0.02677">
        <ele>1266.8</ele>
        <time>2022-06-11T09:30:47Z</time>
      </trkpt>
      <trkpt lat="42.97326" lon="-0.02663">
        <ele>1267.8</ele>
        <time>2022-06-11T09:30:51Z</time>
      </trkpt>
      <trkpt lat="42.97326" lon="-0.02659">
        <ele>1268</ele>
        <time>2022-06-11T09:30:52Z</time>
      </trkpt>
      <trkpt lat="42.97326" lon="-0.02656">
        <ele>1268.6</ele>
        <time>2022-06-11T09:30:53Z</time>
      </trkpt>
      <trkpt lat="42.97326" lon="-0.02648">
        <ele>1269.2</ele>
        <time>2022-06-11T09:30:55Z</time>
      </trkpt>
      <trkpt lat="42.97326" lon="-0.02634">
        <ele>1270.4</ele>
        <time>2022-06-11T09:30:59Z</time>
      </trkpt>
      <trkpt lat="42.97326" lon="-0.02631">
        <ele>1271</ele>
        <time>2022-06-11T09:31:00Z</time>
      </trkpt>
      <trkpt lat="42.97327" lon="-0.0262">
        <ele>1271.6</ele>
        <time>2022-06-11T09:31:03Z</time>
      </trkpt>
      <trkpt lat="42.97327" lon="-0.02607">
        <ele>1272.8</ele>
        <time>2022-06-11T09:31:07Z</time>
      </trkpt>
      <trkpt lat="42.97327" lon="-0.026">
        <ele>1273.4</ele>
        <time>2022-06-11T09:31:09Z</time>
      </trkpt>
      <trkpt lat="42.97327" lon="-0.02593">
        <ele>1274</ele>
        <time>2022-06-11T09:31:11Z</time>
      </trkpt>
      <trkpt lat="42.97326" lon="-0.02579">
        <ele>1275.4</ele>
        <time>2022-06-11T09:31:15Z</time>
      </trkpt>
      <trkpt lat="42.97324" lon="-0.02568">
        <ele>1276.2</ele>
        <time>2022-06-11T09:31:18Z</time>
      </trkpt>
      <trkpt lat="42.97323" lon="-0.02565">
        <ele>1276.6</ele>
        <time>2022-06-11T09:31:19Z</time>
      </trkpt>
      <trkpt lat="42.9732" lon="-0.02553">
        <ele>1277.8</ele>
        <time>2022-06-11T09:31:23Z</time>
      </trkpt>
      <trkpt lat="42.97316" lon="-0.02543">
        <ele>1279</ele>
        <time>2022-06-11T09:31:26Z</time>
      </trkpt>
      <trkpt lat="42.97312" lon="-0.02529">
        <ele>1280.4</ele>
        <time>2022-06-11T09:31:30Z</time>
      </trkpt>
      <trkpt lat="42.97309" lon="-0.02514">
        <ele>1281.6</ele>
        <time>2022-06-11T09:31:34Z</time>
      </trkpt>
      <trkpt lat="42.97307" lon="-0.02502">
        <ele>1282.2</ele>
        <time>2022-06-11T09:31:37Z</time>
      </trkpt>
      <trkpt lat="42.97307" lon="-0.02494">
        <ele>1282.8</ele>
        <time>2022-06-11T09:31:39Z</time>
      </trkpt>
      <trkpt lat="42.97306" lon="-0.02479">
        <ele>1284.2</ele>
        <time>2022-06-11T09:31:43Z</time>
      </trkpt>
      <trkpt lat="42.97305" lon="-0.02475">
        <ele>1284.4</ele>
        <time>2022-06-11T09:31:44Z</time>
      </trkpt>
      <trkpt lat="42.97304" lon="-0.02464">
        <ele>1285.4</ele>
        <time>2022-06-11T09:31:47Z</time>
      </trkpt>
      <trkpt lat="42.97303" lon="-0.02452">
        <ele>1286.6</ele>
        <time>2022-06-11T09:31:51Z</time>
      </trkpt>
      <trkpt lat="42.97302" lon="-0.02437">
        <ele>1287.4</ele>
        <time>2022-06-11T09:31:54Z</time>
      </trkpt>
      <trkpt lat="42.97301" lon="-0.02433">
        <ele>1287.6</ele>
        <time>2022-06-11T09:31:55Z</time>
      </trkpt>
      <trkpt lat="42.97298" lon="-0.02417">
        <ele>1288.8</ele>
        <time>2022-06-11T09:32:00Z</time>
      </trkpt>
      <trkpt lat="42.97295" lon="-0.02404">
        <ele>1290.4</ele>
        <time>2022-06-11T09:32:04Z</time>
      </trkpt>
      <trkpt lat="42.97294" lon="-0.02398">
        <ele>1291.4</ele>
        <time>2022-06-11T09:32:07Z</time>
      </trkpt>
      <trkpt lat="42.9729" lon="-0.02382">
        <ele>1292.6</ele>
        <time>2022-06-11T09:32:11Z</time>
      </trkpt>
      <trkpt lat="42.97287" lon="-0.02364">
        <ele>1293.8</ele>
        <time>2022-06-11T09:32:16Z</time>
      </trkpt>
      <trkpt lat="42.97284" lon="-0.02352">
        <ele>1295</ele>
        <time>2022-06-11T09:32:20Z</time>
      </trkpt>
      <trkpt lat="42.97282" lon="-0.02341">
        <ele>1295.8</ele>
        <time>2022-06-11T09:32:23Z</time>
      </trkpt>
      <trkpt lat="42.97279" lon="-0.02327">
        <ele>1296.8</ele>
        <time>2022-06-11T09:32:27Z</time>
      </trkpt>
      <trkpt lat="42.97276" lon="-0.0231">
        <ele>1298.2</ele>
        <time>2022-06-11T09:32:32Z</time>
      </trkpt>
      <trkpt lat="42.97274" lon="-0.02299">
        <ele>1299.4</ele>
        <time>2022-06-11T09:32:35Z</time>
      </trkpt>
      <trkpt lat="42.97274" lon="-0.02296">
        <ele>1300.4</ele>
        <time>2022-06-11T09:32:37Z</time>
      </trkpt>
      <trkpt lat="42.97272" lon="-0.02289">
        <ele>1300.6</ele>
        <time>2022-06-11T09:32:38Z</time>
      </trkpt>
      <trkpt lat="42.97268" lon="-0.02276">
        <ele>1301.6</ele>
        <time>2022-06-11T09:32:42Z</time>
      </trkpt>
      <trkpt lat="42.97266" lon="-0.02267">
        <ele>1302.4</ele>
        <time>2022-06-11T09:32:45Z</time>
      </trkpt>
      <trkpt lat="42.97265" lon="-0.02261">
        <ele>1302.8</ele>
        <time>2022-06-11T09:32:47Z</time>
      </trkpt>
      <trkpt lat="42.97263" lon="-0.02252">
        <ele>1303.8</ele>
        <time>2022-06-11T09:32:50Z</time>
      </trkpt>
      <trkpt lat="42.97262" lon="-0.02249">
        <ele>1304</ele>
        <time>2022-06-11T09:32:51Z</time>
      </trkpt>
      <trkpt lat="42.97258" lon="-0.0224">
        <ele>1304.8</ele>
        <time>2022-06-11T09:32:54Z</time>
      </trkpt>
      <trkpt lat="42.97253" lon="-0.02227">
        <ele>1305.8</ele>
        <time>2022-06-11T09:32:58Z</time>
      </trkpt>
      <trkpt lat="42.9725" lon="-0.02219">
        <ele>1306.6</ele>
        <time>2022-06-11T09:33:00Z</time>
      </trkpt>
      <trkpt lat="42.97246" lon="-0.0221">
        <ele>1307</ele>
        <time>2022-06-11T09:33:02Z</time>
      </trkpt>
      <trkpt lat="42.97236" lon="-0.0219">
        <ele>1307.2</ele>
        <time>2022-06-11T09:33:07Z</time>
      </trkpt>
      <trkpt lat="42.97227" lon="-0.02179">
        <ele>1307.8</ele>
        <time>2022-06-11T09:33:11Z</time>
      </trkpt>
      <trkpt lat="42.97225" lon="-0.02176">
        <ele>1308</ele>
        <time>2022-06-11T09:33:12Z</time>
      </trkpt>
      <trkpt lat="42.97223" lon="-0.02174">
        <ele>1308.2</ele>
        <time>2022-06-11T09:33:13Z</time>
      </trkpt>
      <trkpt lat="42.97218" lon="-0.02166">
        <ele>1309</ele>
        <time>2022-06-11T09:33:16Z</time>
      </trkpt>
      <trkpt lat="42.97212" lon="-0.02156">
        <ele>1310.4</ele>
        <time>2022-06-11T09:33:20Z</time>
      </trkpt>
      <trkpt lat="42.9721" lon="-0.02154">
        <ele>1310.8</ele>
        <time>2022-06-11T09:33:21Z</time>
      </trkpt>
      <trkpt lat="42.97209" lon="-0.0215">
        <ele>1311.8</ele>
        <time>2022-06-11T09:33:24Z</time>
      </trkpt>
      <trkpt lat="42.97203" lon="-0.02141">
        <ele>1312.8</ele>
        <time>2022-06-11T09:33:27Z</time>
      </trkpt>
      <trkpt lat="42.97193" lon="-0.02138">
        <ele>1313.4</ele>
        <time>2022-06-11T09:33:30Z</time>
      </trkpt>
      <trkpt lat="42.97188" lon="-0.02137">
        <ele>1313.4</ele>
        <time>2022-06-11T09:33:31Z</time>
      </trkpt>
      <trkpt lat="42.97184" lon="-0.02138">
        <ele>1313.4</ele>
        <time>2022-06-11T09:33:32Z</time>
      </trkpt>
      <trkpt lat="42.97167" lon="-0.02143">
        <ele>1313</ele>
        <time>2022-06-11T09:33:35Z</time>
      </trkpt>
      <trkpt lat="42.97149" lon="-0.02149">
        <ele>1311.4</ele>
        <time>2022-06-11T09:33:39Z</time>
      </trkpt>
      <trkpt lat="42.97142" lon="-0.02149">
        <ele>1310</ele>
        <time>2022-06-11T09:33:41Z</time>
      </trkpt>
      <trkpt lat="42.97137" lon="-0.02139">
        <ele>1308.8</ele>
        <time>2022-06-11T09:33:43Z</time>
      </trkpt>
      <trkpt lat="42.97136" lon="-0.02133">
        <ele>1307.6</ele>
        <time>2022-06-11T09:33:44Z</time>
      </trkpt>
      <trkpt lat="42.97131" lon="-0.02114">
        <ele>1306.4</ele>
        <time>2022-06-11T09:33:47Z</time>
      </trkpt>
      <trkpt lat="42.97127" lon="-0.02109">
        <ele>1306</ele>
        <time>2022-06-11T09:33:48Z</time>
      </trkpt>
      <trkpt lat="42.97118" lon="-0.02106">
        <ele>1305.4</ele>
        <time>2022-06-11T09:33:50Z</time>
      </trkpt>
      <trkpt lat="42.97115" lon="-0.02108">
        <ele>1305.4</ele>
        <time>2022-06-11T09:33:51Z</time>
      </trkpt>
      <trkpt lat="42.97113" lon="-0.0211">
        <ele>1305.2</ele>
        <time>2022-06-11T09:33:52Z</time>
      </trkpt>
      <trkpt lat="42.97103" lon="-0.02118">
        <ele>1305.2</ele>
        <time>2022-06-11T09:33:56Z</time>
      </trkpt>
      <trkpt lat="42.97091" lon="-0.02126">
        <ele>1306.4</ele>
        <time>2022-06-11T09:34:00Z</time>
      </trkpt>
      <trkpt lat="42.97085" lon="-0.02129">
        <ele>1307.2</ele>
        <time>2022-06-11T09:34:02Z</time>
      </trkpt>
      <trkpt lat="42.97082" lon="-0.02131">
        <ele>1307.8</ele>
        <time>2022-06-11T09:34:03Z</time>
      </trkpt>
      <trkpt lat="42.97065" lon="-0.02133">
        <ele>1308.2</ele>
        <time>2022-06-11T09:34:08Z</time>
      </trkpt>
      <trkpt lat="42.97054" lon="-0.02123">
        <ele>1308.4</ele>
        <time>2022-06-11T09:34:13Z</time>
      </trkpt>
      <trkpt lat="42.9705" lon="-0.02118">
        <ele>1308.8</ele>
        <time>2022-06-11T09:34:16Z</time>
      </trkpt>
      <trkpt lat="42.97045" lon="-0.02111">
        <ele>1310</ele>
        <time>2022-06-11T09:34:20Z</time>
      </trkpt>
      <trkpt lat="42.97044" lon="-0.02109">
        <ele>1310.2</ele>
        <time>2022-06-11T09:34:21Z</time>
      </trkpt>
      <trkpt lat="42.97046" lon="-0.02105">
        <ele>1310.8</ele>
        <time>2022-06-11T09:34:23Z</time>
      </trkpt>
      <trkpt lat="42.97046" lon="-0.02105">
        <ele>1311.4</ele>
        <time>2022-06-11T09:34:25Z</time>
      </trkpt>
      <trkpt lat="42.97046" lon="-0.02105">
        <ele>1312.4</ele>
        <time>2022-06-11T09:34:30Z</time>
      </trkpt>
      <trkpt lat="42.97046" lon="-0.02105">
        <ele>1312.4</ele>
        <time>2022-06-11T09:34:36Z</time>
      </trkpt>
      <trkpt lat="42.97046" lon="-0.02105">
        <ele>1312.8</ele>
        <time>2022-06-11T09:34:50Z</time>
      </trkpt>
    </trkseg>
  </trk>
</gpx>